<?xml version="1.0" encoding="UTF-8" standalone="no" ?>
<gpx xmlns="http://www.topografix.com/GPX/1/1" xmlns:xsi="http://www.w3.org/2001/XMLSchema-instance" xsi:schemaLocation="http://www.topografix.com/GPX/1/1 http://www.topografix.com/GPX/1/1/gpx.xsd" version="1.1" creator="VisuGPX - https://www.visugpx.com">
  <metadata>
    <name>VTT - Teillon &amp;amp; Cadières</name>
    <desc><![CDATA[VTT - Castellane / Cadières de Brandis / Brandis / Castellane / Teillon / Destourbes - Relevé terrain: 46 km /   2 000 m

CR ASCVTT ici : <http://www.ascvtt.com/?p=4920>]]></desc>
  </metadata>
  <trk>
    <name><![CDATA[2012-04-01T07:10:04Z]]></name>
    <trkseg>
      <trkpt lat="43.84617" lon="6.51518">
        <ele>711.419</ele>
        <time>2012-04-01T07:10:04Z</time>
      </trkpt>
      <trkpt lat="43.84607" lon="6.515">
        <ele>715.829</ele>
        <time>2012-04-01T07:10:14Z</time>
      </trkpt>
      <trkpt lat="43.84605" lon="6.51479">
        <ele>718.105</ele>
        <time>2012-04-01T07:10:18Z</time>
      </trkpt>
      <trkpt lat="43.84599" lon="6.51452">
        <ele>718.149</ele>
        <time>2012-04-01T07:10:24Z</time>
      </trkpt>
      <trkpt lat="43.84588" lon="6.51433">
        <ele>716.385</ele>
        <time>2012-04-01T07:10:29Z</time>
      </trkpt>
      <trkpt lat="43.84579" lon="6.51407">
        <ele>719.593</ele>
        <time>2012-04-01T07:10:35Z</time>
      </trkpt>
      <trkpt lat="43.84574" lon="6.51385">
        <ele>720.26</ele>
        <time>2012-04-01T07:10:41Z</time>
      </trkpt>
      <trkpt lat="43.84563" lon="6.51368">
        <ele>729.34</ele>
        <time>2012-04-01T07:10:47Z</time>
      </trkpt>
      <trkpt lat="43.84556" lon="6.51344">
        <ele>728.102</ele>
        <time>2012-04-01T07:10:52Z</time>
      </trkpt>
      <trkpt lat="43.84545" lon="6.51304">
        <ele>721.575</ele>
        <time>2012-04-01T07:10:59Z</time>
      </trkpt>
      <trkpt lat="43.84527" lon="6.5126">
        <ele>718.135</ele>
        <time>2012-04-01T07:11:08Z</time>
      </trkpt>
      <trkpt lat="43.84513" lon="6.5122">
        <ele>716.852</ele>
        <time>2012-04-01T07:11:16Z</time>
      </trkpt>
      <trkpt lat="43.8451" lon="6.51194">
        <ele>717.877</ele>
        <time>2012-04-01T07:11:21Z</time>
      </trkpt>
      <trkpt lat="43.84504" lon="6.51161">
        <ele>722.158</ele>
        <time>2012-04-01T07:11:27Z</time>
      </trkpt>
      <trkpt lat="43.84496" lon="6.51116">
        <ele>722.216</ele>
        <time>2012-04-01T07:11:35Z</time>
      </trkpt>
      <trkpt lat="43.84489" lon="6.5108">
        <ele>719.76</ele>
        <time>2012-04-01T07:11:42Z</time>
      </trkpt>
      <trkpt lat="43.8448" lon="6.51043">
        <ele>717.592</ele>
        <time>2012-04-01T07:11:50Z</time>
      </trkpt>
      <trkpt lat="43.84469" lon="6.51001">
        <ele>719.886</ele>
        <time>2012-04-01T07:11:58Z</time>
      </trkpt>
      <trkpt lat="43.84459" lon="6.50962">
        <ele>720.598</ele>
        <time>2012-04-01T07:12:06Z</time>
      </trkpt>
      <trkpt lat="43.8445" lon="6.50923">
        <ele>719.079</ele>
        <time>2012-04-01T07:12:14Z</time>
      </trkpt>
      <trkpt lat="43.84442" lon="6.50893">
        <ele>720.127</ele>
        <time>2012-04-01T07:12:20Z</time>
      </trkpt>
      <trkpt lat="43.84431" lon="6.50853">
        <ele>720.63</ele>
        <time>2012-04-01T07:12:28Z</time>
      </trkpt>
      <trkpt lat="43.84424" lon="6.50826">
        <ele>719.196</ele>
        <time>2012-04-01T07:12:33Z</time>
      </trkpt>
      <trkpt lat="43.84415" lon="6.50789">
        <ele>718.276</ele>
        <time>2012-04-01T07:12:40Z</time>
      </trkpt>
      <trkpt lat="43.84405" lon="6.50749">
        <ele>717.35</ele>
        <time>2012-04-01T07:12:48Z</time>
      </trkpt>
      <trkpt lat="43.84395" lon="6.50713">
        <ele>717.295</ele>
        <time>2012-04-01T07:12:55Z</time>
      </trkpt>
      <trkpt lat="43.84386" lon="6.50679">
        <ele>718.156</ele>
        <time>2012-04-01T07:13:02Z</time>
      </trkpt>
      <trkpt lat="43.84378" lon="6.50646">
        <ele>718.832</ele>
        <time>2012-04-01T07:13:08Z</time>
      </trkpt>
      <trkpt lat="43.84368" lon="6.50608">
        <ele>718.906</ele>
        <time>2012-04-01T07:13:15Z</time>
      </trkpt>
      <trkpt lat="43.84359" lon="6.50569">
        <ele>717.351</ele>
        <time>2012-04-01T07:13:22Z</time>
      </trkpt>
      <trkpt lat="43.84351" lon="6.50534">
        <ele>717.806</ele>
        <time>2012-04-01T07:13:29Z</time>
      </trkpt>
      <trkpt lat="43.84357" lon="6.50532">
        <ele>717.866</ele>
        <time>2012-04-01T07:13:33Z</time>
      </trkpt>
      <trkpt lat="43.84361" lon="6.5053">
        <ele>717.096</ele>
        <time>2012-04-01T07:13:36Z</time>
      </trkpt>
      <trkpt lat="43.84362" lon="6.50529">
        <ele>716.224</ele>
        <time>2012-04-01T07:13:39Z</time>
      </trkpt>
      <trkpt lat="43.84354" lon="6.50519">
        <ele>714.613</ele>
        <time>2012-04-01T07:13:44Z</time>
      </trkpt>
      <trkpt lat="43.84349" lon="6.50514">
        <ele>714.786</ele>
        <time>2012-04-01T07:13:46Z</time>
      </trkpt>
      <trkpt lat="43.8434" lon="6.5049">
        <ele>716.328</ele>
        <time>2012-04-01T07:13:51Z</time>
      </trkpt>
      <trkpt lat="43.8433" lon="6.50454">
        <ele>715.514</ele>
        <time>2012-04-01T07:13:58Z</time>
      </trkpt>
      <trkpt lat="43.84322" lon="6.5042">
        <ele>717.421</ele>
        <time>2012-04-01T07:14:05Z</time>
      </trkpt>
      <trkpt lat="43.8432" lon="6.5041">
        <ele>716.715</ele>
        <time>2012-04-01T07:14:07Z</time>
      </trkpt>
      <trkpt lat="43.8433" lon="6.50398">
        <ele>716.524</ele>
        <time>2012-04-01T07:14:11Z</time>
      </trkpt>
      <trkpt lat="43.84334" lon="6.50398">
        <ele>716.123</ele>
        <time>2012-04-01T07:14:12Z</time>
      </trkpt>
      <trkpt lat="43.84361" lon="6.50394">
        <ele>715.474</ele>
        <time>2012-04-01T07:14:19Z</time>
      </trkpt>
      <trkpt lat="43.84391" lon="6.5039">
        <ele>715.456</ele>
        <time>2012-04-01T07:14:27Z</time>
      </trkpt>
      <trkpt lat="43.84414" lon="6.50387">
        <ele>716.355</ele>
        <time>2012-04-01T07:14:33Z</time>
      </trkpt>
      <trkpt lat="43.84444" lon="6.50384">
        <ele>719.228</ele>
        <time>2012-04-01T07:14:41Z</time>
      </trkpt>
      <trkpt lat="43.84479" lon="6.50381">
        <ele>720.546</ele>
        <time>2012-04-01T07:14:50Z</time>
      </trkpt>
      <trkpt lat="43.84483" lon="6.50383">
        <ele>720.234</ele>
        <time>2012-04-01T07:14:52Z</time>
      </trkpt>
      <trkpt lat="43.84486" lon="6.50375">
        <ele>719.834</ele>
        <time>2012-04-01T07:14:56Z</time>
      </trkpt>
      <trkpt lat="43.84492" lon="6.50373">
        <ele>719.701</ele>
        <time>2012-04-01T07:14:58Z</time>
      </trkpt>
      <trkpt lat="43.84508" lon="6.50368">
        <ele>719.064</ele>
        <time>2012-04-01T07:15:04Z</time>
      </trkpt>
      <trkpt lat="43.84524" lon="6.50362">
        <ele>720.698</ele>
        <time>2012-04-01T07:15:09Z</time>
      </trkpt>
      <trkpt lat="43.84529" lon="6.50361">
        <ele>721.411</ele>
        <time>2012-04-01T07:15:10Z</time>
      </trkpt>
      <trkpt lat="43.84558" lon="6.50354">
        <ele>725.033</ele>
        <time>2012-04-01T07:15:17Z</time>
      </trkpt>
      <trkpt lat="43.84565" lon="6.50353">
        <ele>725.611</ele>
        <time>2012-04-01T07:15:20Z</time>
      </trkpt>
      <trkpt lat="43.84573" lon="6.50349">
        <ele>723.352</ele>
        <time>2012-04-01T07:15:25Z</time>
      </trkpt>
      <trkpt lat="43.84579" lon="6.50347">
        <ele>723.796</ele>
        <time>2012-04-01T07:15:27Z</time>
      </trkpt>
      <trkpt lat="43.84595" lon="6.50341">
        <ele>725.34</ele>
        <time>2012-04-01T07:15:32Z</time>
      </trkpt>
      <trkpt lat="43.84602" lon="6.50343">
        <ele>726.721</ele>
        <time>2012-04-01T07:15:36Z</time>
      </trkpt>
      <trkpt lat="43.84616" lon="6.50338">
        <ele>723.894</ele>
        <time>2012-04-01T07:15:41Z</time>
      </trkpt>
      <trkpt lat="43.84618" lon="6.50337">
        <ele>723.613</ele>
        <time>2012-04-01T07:15:42Z</time>
      </trkpt>
      <trkpt lat="43.84633" lon="6.50332">
        <ele>724.062</ele>
        <time>2012-04-01T07:15:48Z</time>
      </trkpt>
      <trkpt lat="43.84639" lon="6.50329">
        <ele>722.798</ele>
        <time>2012-04-01T07:15:51Z</time>
      </trkpt>
      <trkpt lat="43.84657" lon="6.50326">
        <ele>724.635</ele>
        <time>2012-04-01T07:15:56Z</time>
      </trkpt>
      <trkpt lat="43.84668" lon="6.50322">
        <ele>725.485</ele>
        <time>2012-04-01T07:16:00Z</time>
      </trkpt>
      <trkpt lat="43.84683" lon="6.50319">
        <ele>727.938</ele>
        <time>2012-04-01T07:16:05Z</time>
      </trkpt>
      <trkpt lat="43.84693" lon="6.50318">
        <ele>726.763</ele>
        <time>2012-04-01T07:16:09Z</time>
      </trkpt>
      <trkpt lat="43.84698" lon="6.50317">
        <ele>726.745</ele>
        <time>2012-04-01T07:16:13Z</time>
      </trkpt>
      <trkpt lat="43.84707" lon="6.50312">
        <ele>727.006</ele>
        <time>2012-04-01T07:16:20Z</time>
      </trkpt>
      <trkpt lat="43.84708" lon="6.50311">
        <ele>727.166</ele>
        <time>2012-04-01T07:16:21Z</time>
      </trkpt>
      <trkpt lat="43.84713" lon="6.50309">
        <ele>725.554</ele>
        <time>2012-04-01T07:16:27Z</time>
      </trkpt>
      <trkpt lat="43.84722" lon="6.50307">
        <ele>727.148</ele>
        <time>2012-04-01T07:16:31Z</time>
      </trkpt>
      <trkpt lat="43.84737" lon="6.50303">
        <ele>728.167</ele>
        <time>2012-04-01T07:16:36Z</time>
      </trkpt>
      <trkpt lat="43.84751" lon="6.50297">
        <ele>728.113</ele>
        <time>2012-04-01T07:16:41Z</time>
      </trkpt>
      <trkpt lat="43.84753" lon="6.50296">
        <ele>728.006</ele>
        <time>2012-04-01T07:16:42Z</time>
      </trkpt>
      <trkpt lat="43.84759" lon="6.50296">
        <ele>729.069</ele>
        <time>2012-04-01T07:16:45Z</time>
      </trkpt>
      <trkpt lat="43.84759" lon="6.50288">
        <ele>729.118</ele>
        <time>2012-04-01T07:16:50Z</time>
      </trkpt>
      <trkpt lat="43.84758" lon="6.50287">
        <ele>728.425</ele>
        <time>2012-04-01T07:16:58Z</time>
      </trkpt>
      <trkpt lat="43.84757" lon="6.50286">
        <ele>727.385</ele>
        <time>2012-04-01T07:17:05Z</time>
      </trkpt>
      <trkpt lat="43.84756" lon="6.50277">
        <ele>728.358</ele>
        <time>2012-04-01T07:17:11Z</time>
      </trkpt>
      <trkpt lat="43.84754" lon="6.50246">
        <ele>728.998</ele>
        <time>2012-04-01T07:17:17Z</time>
      </trkpt>
      <trkpt lat="43.84752" lon="6.50233">
        <ele>727.794</ele>
        <time>2012-04-01T07:17:21Z</time>
      </trkpt>
      <trkpt lat="43.84749" lon="6.5021">
        <ele>726.612</ele>
        <time>2012-04-01T07:17:27Z</time>
      </trkpt>
      <trkpt lat="43.84745" lon="6.50186">
        <ele>724.83</ele>
        <time>2012-04-01T07:17:33Z</time>
      </trkpt>
      <trkpt lat="43.8474" lon="6.50159">
        <ele>726.389</ele>
        <time>2012-04-01T07:17:40Z</time>
      </trkpt>
      <trkpt lat="43.84738" lon="6.50134">
        <ele>728.917</ele>
        <time>2012-04-01T07:17:46Z</time>
      </trkpt>
      <trkpt lat="43.84741" lon="6.50109">
        <ele>732.518</ele>
        <time>2012-04-01T07:17:53Z</time>
      </trkpt>
      <trkpt lat="43.84741" lon="6.50085">
        <ele>735.573</ele>
        <time>2012-04-01T07:18:00Z</time>
      </trkpt>
      <trkpt lat="43.84739" lon="6.50058">
        <ele>736.231</ele>
        <time>2012-04-01T07:18:07Z</time>
      </trkpt>
      <trkpt lat="43.84737" lon="6.50038">
        <ele>734.074</ele>
        <time>2012-04-01T07:18:14Z</time>
      </trkpt>
      <trkpt lat="43.84739" lon="6.50031">
        <ele>731.89</ele>
        <time>2012-04-01T07:18:19Z</time>
      </trkpt>
      <trkpt lat="43.84739" lon="6.50019">
        <ele>734.135</ele>
        <time>2012-04-01T07:18:25Z</time>
      </trkpt>
      <trkpt lat="43.84739" lon="6.5001">
        <ele>735.465</ele>
        <time>2012-04-01T07:18:29Z</time>
      </trkpt>
      <trkpt lat="43.8475" lon="6.5">
        <ele>734.957</ele>
        <time>2012-04-01T07:18:36Z</time>
      </trkpt>
      <trkpt lat="43.84761" lon="6.49993">
        <ele>737.142</ele>
        <time>2012-04-01T07:18:43Z</time>
      </trkpt>
      <trkpt lat="43.84767" lon="6.49985">
        <ele>737.31</ele>
        <time>2012-04-01T07:18:47Z</time>
      </trkpt>
      <trkpt lat="43.84767" lon="6.49978">
        <ele>737.811</ele>
        <time>2012-04-01T07:18:51Z</time>
      </trkpt>
      <trkpt lat="43.84767" lon="6.49966">
        <ele>740.274</ele>
        <time>2012-04-01T07:18:56Z</time>
      </trkpt>
      <trkpt lat="43.84764" lon="6.49957">
        <ele>744.401</ele>
        <time>2012-04-01T07:19:01Z</time>
      </trkpt>
      <trkpt lat="43.8476" lon="6.49946">
        <ele>748.464</ele>
        <time>2012-04-01T07:19:07Z</time>
      </trkpt>
      <trkpt lat="43.84759" lon="6.49944">
        <ele>749.324</ele>
        <time>2012-04-01T07:19:08Z</time>
      </trkpt>
      <trkpt lat="43.84758" lon="6.49939">
        <ele>749.87</ele>
        <time>2012-04-01T07:19:10Z</time>
      </trkpt>
      <trkpt lat="43.84756" lon="6.49923">
        <ele>750.531</ele>
        <time>2012-04-01T07:19:17Z</time>
      </trkpt>
      <trkpt lat="43.84757" lon="6.49906">
        <ele>750.317</ele>
        <time>2012-04-01T07:19:23Z</time>
      </trkpt>
      <trkpt lat="43.84752" lon="6.49894">
        <ele>749.727</ele>
        <time>2012-04-01T07:19:29Z</time>
      </trkpt>
      <trkpt lat="43.84743" lon="6.49882">
        <ele>748.987</ele>
        <time>2012-04-01T07:19:36Z</time>
      </trkpt>
      <trkpt lat="43.84739" lon="6.49871">
        <ele>750.067</ele>
        <time>2012-04-01T07:19:42Z</time>
      </trkpt>
      <trkpt lat="43.84738" lon="6.49865">
        <ele>751.943</ele>
        <time>2012-04-01T07:19:45Z</time>
      </trkpt>
      <trkpt lat="43.8473" lon="6.4985">
        <ele>753.662</ele>
        <time>2012-04-01T07:19:52Z</time>
      </trkpt>
      <trkpt lat="43.84731" lon="6.49846">
        <ele>756.817</ele>
        <time>2012-04-01T07:19:56Z</time>
      </trkpt>
      <trkpt lat="43.84732" lon="6.49844">
        <ele>758.256</ele>
        <time>2012-04-01T07:19:59Z</time>
      </trkpt>
      <trkpt lat="43.84734" lon="6.4984">
        <ele>756.382</ele>
        <time>2012-04-01T07:20:06Z</time>
      </trkpt>
      <trkpt lat="43.84736" lon="6.49837">
        <ele>754.783</ele>
        <time>2012-04-01T07:20:19Z</time>
      </trkpt>
      <trkpt lat="43.8474" lon="6.49828">
        <ele>756.385</ele>
        <time>2012-04-01T07:20:24Z</time>
      </trkpt>
      <trkpt lat="43.84739" lon="6.49822">
        <ele>756.346</ele>
        <time>2012-04-01T07:20:26Z</time>
      </trkpt>
      <trkpt lat="43.84736" lon="6.49812">
        <ele>757.381</ele>
        <time>2012-04-01T07:20:31Z</time>
      </trkpt>
      <trkpt lat="43.84736" lon="6.49812">
        <ele>758.534</ele>
        <time>2012-04-01T07:20:32Z</time>
      </trkpt>
      <trkpt lat="43.84738" lon="6.49817">
        <ele>761.299</ele>
        <time>2012-04-01T07:20:36Z</time>
      </trkpt>
      <trkpt lat="43.84737" lon="6.49821">
        <ele>765.577</ele>
        <time>2012-04-01T07:20:41Z</time>
      </trkpt>
      <trkpt lat="43.84731" lon="6.49818">
        <ele>767.129</ele>
        <time>2012-04-01T07:20:53Z</time>
      </trkpt>
      <trkpt lat="43.84732" lon="6.49811">
        <ele>770.182</ele>
        <time>2012-04-01T07:21:09Z</time>
      </trkpt>
      <trkpt lat="43.84731" lon="6.4981">
        <ele>773.721</ele>
        <time>2012-04-01T07:21:16Z</time>
      </trkpt>
      <trkpt lat="43.84729" lon="6.49802">
        <ele>773.887</ele>
        <time>2012-04-01T07:21:23Z</time>
      </trkpt>
      <trkpt lat="43.84727" lon="6.49798">
        <ele>776.289</ele>
        <time>2012-04-01T07:21:29Z</time>
      </trkpt>
      <trkpt lat="43.84723" lon="6.4979">
        <ele>775.003</ele>
        <time>2012-04-01T07:21:35Z</time>
      </trkpt>
      <trkpt lat="43.84718" lon="6.49784">
        <ele>777.572</ele>
        <time>2012-04-01T07:21:40Z</time>
      </trkpt>
      <trkpt lat="43.84714" lon="6.49778">
        <ele>779.96</ele>
        <time>2012-04-01T07:21:47Z</time>
      </trkpt>
      <trkpt lat="43.84709" lon="6.49776">
        <ele>780.756</ele>
        <time>2012-04-01T07:21:53Z</time>
      </trkpt>
      <trkpt lat="43.84708" lon="6.49775">
        <ele>780.034</ele>
        <time>2012-04-01T07:21:54Z</time>
      </trkpt>
      <trkpt lat="43.84706" lon="6.49766">
        <ele>782.054</ele>
        <time>2012-04-01T07:22:00Z</time>
      </trkpt>
      <trkpt lat="43.84704" lon="6.49752">
        <ele>781.892</ele>
        <time>2012-04-01T07:22:06Z</time>
      </trkpt>
      <trkpt lat="43.84704" lon="6.49745">
        <ele>782.554</ele>
        <time>2012-04-01T07:22:11Z</time>
      </trkpt>
      <trkpt lat="43.84699" lon="6.49735">
        <ele>782.884</ele>
        <time>2012-04-01T07:22:18Z</time>
      </trkpt>
      <trkpt lat="43.84698" lon="6.49727">
        <ele>784.574</ele>
        <time>2012-04-01T07:22:26Z</time>
      </trkpt>
      <trkpt lat="43.84699" lon="6.49718">
        <ele>785.904</ele>
        <time>2012-04-01T07:22:32Z</time>
      </trkpt>
      <trkpt lat="43.847" lon="6.4971">
        <ele>787.324</ele>
        <time>2012-04-01T07:22:39Z</time>
      </trkpt>
      <trkpt lat="43.84697" lon="6.49703">
        <ele>788.995</ele>
        <time>2012-04-01T07:22:46Z</time>
      </trkpt>
      <trkpt lat="43.84696" lon="6.497">
        <ele>790.094</ele>
        <time>2012-04-01T07:22:51Z</time>
      </trkpt>
      <trkpt lat="43.84692" lon="6.49695">
        <ele>785.909</ele>
        <time>2012-04-01T07:22:58Z</time>
      </trkpt>
      <trkpt lat="43.84689" lon="6.49691">
        <ele>784.89</ele>
        <time>2012-04-01T07:23:05Z</time>
      </trkpt>
      <trkpt lat="43.84681" lon="6.49685">
        <ele>781.615</ele>
        <time>2012-04-01T07:23:11Z</time>
      </trkpt>
      <trkpt lat="43.84675" lon="6.49678">
        <ele>790.866</ele>
        <time>2012-04-01T07:23:21Z</time>
      </trkpt>
      <trkpt lat="43.84671" lon="6.49672">
        <ele>791.473</ele>
        <time>2012-04-01T07:23:27Z</time>
      </trkpt>
      <trkpt lat="43.84669" lon="6.49669">
        <ele>791.997</ele>
        <time>2012-04-01T07:23:32Z</time>
      </trkpt>
      <trkpt lat="43.84666" lon="6.49664">
        <ele>800.211</ele>
        <time>2012-04-01T07:23:39Z</time>
      </trkpt>
      <trkpt lat="43.84667" lon="6.49661">
        <ele>800.106</ele>
        <time>2012-04-01T07:23:45Z</time>
      </trkpt>
      <trkpt lat="43.84663" lon="6.49658">
        <ele>804.268</ele>
        <time>2012-04-01T07:23:55Z</time>
      </trkpt>
      <trkpt lat="43.8466" lon="6.49652">
        <ele>805.446</ele>
        <time>2012-04-01T07:24:01Z</time>
      </trkpt>
      <trkpt lat="43.8466" lon="6.49649">
        <ele>804.173</ele>
        <time>2012-04-01T07:24:06Z</time>
      </trkpt>
      <trkpt lat="43.84657" lon="6.49644">
        <ele>799.409</ele>
        <time>2012-04-01T07:24:13Z</time>
      </trkpt>
      <trkpt lat="43.84651" lon="6.49636">
        <ele>804.19</ele>
        <time>2012-04-01T07:24:20Z</time>
      </trkpt>
      <trkpt lat="43.84649" lon="6.4963">
        <ele>804.69</ele>
        <time>2012-04-01T07:24:25Z</time>
      </trkpt>
      <trkpt lat="43.8465" lon="6.49628">
        <ele>803.73</ele>
        <time>2012-04-01T07:24:30Z</time>
      </trkpt>
      <trkpt lat="43.84643" lon="6.49622">
        <ele>810.775</ele>
        <time>2012-04-01T07:24:50Z</time>
      </trkpt>
      <trkpt lat="43.84639" lon="6.4962">
        <ele>810.964</ele>
        <time>2012-04-01T07:24:54Z</time>
      </trkpt>
      <trkpt lat="43.84633" lon="6.49616">
        <ele>812.654</ele>
        <time>2012-04-01T07:25:01Z</time>
      </trkpt>
      <trkpt lat="43.84631" lon="6.49608">
        <ele>815.175</ele>
        <time>2012-04-01T07:25:08Z</time>
      </trkpt>
      <trkpt lat="43.8463" lon="6.49605">
        <ele>817.407</ele>
        <time>2012-04-01T07:25:15Z</time>
      </trkpt>
      <trkpt lat="43.84627" lon="6.49599">
        <ele>817.906</ele>
        <time>2012-04-01T07:25:21Z</time>
      </trkpt>
      <trkpt lat="43.84626" lon="6.49593">
        <ele>818.564</ele>
        <time>2012-04-01T07:25:29Z</time>
      </trkpt>
      <trkpt lat="43.84623" lon="6.49585">
        <ele>818.253</ele>
        <time>2012-04-01T07:25:40Z</time>
      </trkpt>
      <trkpt lat="43.84617" lon="6.49569">
        <ele>816.071</ele>
        <time>2012-04-01T07:25:48Z</time>
      </trkpt>
      <trkpt lat="43.84609" lon="6.49561">
        <ele>817.111</ele>
        <time>2012-04-01T07:25:54Z</time>
      </trkpt>
      <trkpt lat="43.84601" lon="6.49552">
        <ele>815.189</ele>
        <time>2012-04-01T07:25:59Z</time>
      </trkpt>
      <trkpt lat="43.84593" lon="6.49539">
        <ele>815.271</ele>
        <time>2012-04-01T07:26:05Z</time>
      </trkpt>
      <trkpt lat="43.84587" lon="6.49527">
        <ele>813.909</ele>
        <time>2012-04-01T07:26:11Z</time>
      </trkpt>
      <trkpt lat="43.84586" lon="6.49522">
        <ele>814.08</ele>
        <time>2012-04-01T07:26:14Z</time>
      </trkpt>
      <trkpt lat="43.84584" lon="6.49518">
        <ele>814.451</ele>
        <time>2012-04-01T07:26:17Z</time>
      </trkpt>
      <trkpt lat="43.8458" lon="6.49506">
        <ele>815.921</ele>
        <time>2012-04-01T07:26:22Z</time>
      </trkpt>
      <trkpt lat="43.84572" lon="6.49489">
        <ele>823.236</ele>
        <time>2012-04-01T07:26:30Z</time>
      </trkpt>
      <trkpt lat="43.84569" lon="6.49482">
        <ele>823.765</ele>
        <time>2012-04-01T07:26:35Z</time>
      </trkpt>
      <trkpt lat="43.84571" lon="6.4948">
        <ele>825.774</ele>
        <time>2012-04-01T07:26:44Z</time>
      </trkpt>
      <trkpt lat="43.8457" lon="6.49476">
        <ele>825.013</ele>
        <time>2012-04-01T07:26:49Z</time>
      </trkpt>
      <trkpt lat="43.84569" lon="6.49471">
        <ele>824.191</ele>
        <time>2012-04-01T07:26:54Z</time>
      </trkpt>
      <trkpt lat="43.84568" lon="6.49468">
        <ele>823.662</ele>
        <time>2012-04-01T07:26:57Z</time>
      </trkpt>
      <trkpt lat="43.84568" lon="6.49458">
        <ele>822.604</ele>
        <time>2012-04-01T07:27:05Z</time>
      </trkpt>
      <trkpt lat="43.84568" lon="6.49454">
        <ele>822.645</ele>
        <time>2012-04-01T07:27:08Z</time>
      </trkpt>
      <trkpt lat="43.84568" lon="6.4945">
        <ele>822.685</ele>
        <time>2012-04-01T07:27:12Z</time>
      </trkpt>
      <trkpt lat="43.84565" lon="6.49437">
        <ele>823.483</ele>
        <time>2012-04-01T07:27:21Z</time>
      </trkpt>
      <trkpt lat="43.84565" lon="6.49431">
        <ele>823.994</ele>
        <time>2012-04-01T07:27:28Z</time>
      </trkpt>
      <trkpt lat="43.84565" lon="6.49424">
        <ele>824.844</ele>
        <time>2012-04-01T07:27:34Z</time>
      </trkpt>
      <trkpt lat="43.84564" lon="6.49419">
        <ele>824.964</ele>
        <time>2012-04-01T07:27:42Z</time>
      </trkpt>
      <trkpt lat="43.84566" lon="6.49411">
        <ele>826.406</ele>
        <time>2012-04-01T07:27:50Z</time>
      </trkpt>
      <trkpt lat="43.84568" lon="6.49404">
        <ele>825.563</ele>
        <time>2012-04-01T07:27:56Z</time>
      </trkpt>
      <trkpt lat="43.84571" lon="6.49396">
        <ele>825.633</ele>
        <time>2012-04-01T07:28:05Z</time>
      </trkpt>
      <trkpt lat="43.84571" lon="6.49379">
        <ele>831.347</ele>
        <time>2012-04-01T07:28:12Z</time>
      </trkpt>
      <trkpt lat="43.84568" lon="6.49361">
        <ele>833.216</ele>
        <time>2012-04-01T07:28:19Z</time>
      </trkpt>
      <trkpt lat="43.84569" lon="6.49342">
        <ele>834.896</ele>
        <time>2012-04-01T07:28:27Z</time>
      </trkpt>
      <trkpt lat="43.84572" lon="6.49325">
        <ele>834.293</ele>
        <time>2012-04-01T07:28:34Z</time>
      </trkpt>
      <trkpt lat="43.84573" lon="6.4931">
        <ele>836.366</ele>
        <time>2012-04-01T07:28:40Z</time>
      </trkpt>
      <trkpt lat="43.84568" lon="6.49296">
        <ele>837.405</ele>
        <time>2012-04-01T07:28:47Z</time>
      </trkpt>
      <trkpt lat="43.84561" lon="6.49288">
        <ele>839.667</ele>
        <time>2012-04-01T07:28:54Z</time>
      </trkpt>
      <trkpt lat="43.84553" lon="6.49278">
        <ele>841.175</ele>
        <time>2012-04-01T07:29:01Z</time>
      </trkpt>
      <trkpt lat="43.84551" lon="6.49264">
        <ele>841.867</ele>
        <time>2012-04-01T07:29:06Z</time>
      </trkpt>
      <trkpt lat="43.84554" lon="6.49241">
        <ele>839.959</ele>
        <time>2012-04-01T07:29:12Z</time>
      </trkpt>
      <trkpt lat="43.8455" lon="6.49224">
        <ele>839.87</ele>
        <time>2012-04-01T07:29:17Z</time>
      </trkpt>
      <trkpt lat="43.84547" lon="6.49205">
        <ele>839.351</ele>
        <time>2012-04-01T07:29:24Z</time>
      </trkpt>
      <trkpt lat="43.8454" lon="6.49192">
        <ele>842.997</ele>
        <time>2012-04-01T07:29:31Z</time>
      </trkpt>
      <trkpt lat="43.84537" lon="6.49175">
        <ele>847.131</ele>
        <time>2012-04-01T07:29:38Z</time>
      </trkpt>
      <trkpt lat="43.84534" lon="6.49164">
        <ele>849.839</ele>
        <time>2012-04-01T07:29:44Z</time>
      </trkpt>
      <trkpt lat="43.8453" lon="6.4915">
        <ele>851.025</ele>
        <time>2012-04-01T07:29:51Z</time>
      </trkpt>
      <trkpt lat="43.8453" lon="6.49146">
        <ele>852.507</ele>
        <time>2012-04-01T07:29:53Z</time>
      </trkpt>
      <trkpt lat="43.84529" lon="6.49139">
        <ele>852.434</ele>
        <time>2012-04-01T07:29:59Z</time>
      </trkpt>
      <trkpt lat="43.84526" lon="6.4914">
        <ele>867.732</ele>
        <time>2012-04-01T07:35:18Z</time>
      </trkpt>
      <trkpt lat="43.84527" lon="6.4913">
        <ele>868.616</ele>
        <time>2012-04-01T07:35:25Z</time>
      </trkpt>
      <trkpt lat="43.84535" lon="6.49123">
        <ele>867.123</ele>
        <time>2012-04-01T07:35:33Z</time>
      </trkpt>
      <trkpt lat="43.84544" lon="6.4912">
        <ele>868.137</ele>
        <time>2012-04-01T07:35:41Z</time>
      </trkpt>
      <trkpt lat="43.84546" lon="6.49119">
        <ele>867.736</ele>
        <time>2012-04-01T07:35:43Z</time>
      </trkpt>
      <trkpt lat="43.84552" lon="6.49117">
        <ele>863.171</ele>
        <time>2012-04-01T07:35:48Z</time>
      </trkpt>
      <trkpt lat="43.84554" lon="6.49117">
        <ele>860.481</ele>
        <time>2012-04-01T07:35:54Z</time>
      </trkpt>
      <trkpt lat="43.84562" lon="6.49124">
        <ele>861.794</ele>
        <time>2012-04-01T07:35:59Z</time>
      </trkpt>
      <trkpt lat="43.84573" lon="6.49132">
        <ele>864.638</ele>
        <time>2012-04-01T07:36:07Z</time>
      </trkpt>
      <trkpt lat="43.84582" lon="6.49144">
        <ele>868.237</ele>
        <time>2012-04-01T07:36:15Z</time>
      </trkpt>
      <trkpt lat="43.84591" lon="6.49149">
        <ele>871.018</ele>
        <time>2012-04-01T07:36:22Z</time>
      </trkpt>
      <trkpt lat="43.84598" lon="6.49153">
        <ele>874.091</ele>
        <time>2012-04-01T07:36:28Z</time>
      </trkpt>
      <trkpt lat="43.84607" lon="6.49158">
        <ele>872.477</ele>
        <time>2012-04-01T07:36:35Z</time>
      </trkpt>
      <trkpt lat="43.84613" lon="6.4916">
        <ele>875.109</ele>
        <time>2012-04-01T07:36:40Z</time>
      </trkpt>
      <trkpt lat="43.84618" lon="6.49166">
        <ele>876.067</ele>
        <time>2012-04-01T07:36:45Z</time>
      </trkpt>
      <trkpt lat="43.84626" lon="6.49176">
        <ele>878.187</ele>
        <time>2012-04-01T07:36:53Z</time>
      </trkpt>
      <trkpt lat="43.84631" lon="6.4918">
        <ele>878.135</ele>
        <time>2012-04-01T07:36:57Z</time>
      </trkpt>
      <trkpt lat="43.84643" lon="6.49185">
        <ele>876.393</ele>
        <time>2012-04-01T07:37:04Z</time>
      </trkpt>
      <trkpt lat="43.84657" lon="6.49189">
        <ele>874.173</ele>
        <time>2012-04-01T07:37:12Z</time>
      </trkpt>
      <trkpt lat="43.84659" lon="6.49191">
        <ele>876.683</ele>
        <time>2012-04-01T07:37:23Z</time>
      </trkpt>
      <trkpt lat="43.84665" lon="6.49191">
        <ele>877.02</ele>
        <time>2012-04-01T07:37:31Z</time>
      </trkpt>
      <trkpt lat="43.84672" lon="6.49189">
        <ele>875.298</ele>
        <time>2012-04-01T07:37:36Z</time>
      </trkpt>
      <trkpt lat="43.84678" lon="6.49184">
        <ele>873.986</ele>
        <time>2012-04-01T07:37:38Z</time>
      </trkpt>
      <trkpt lat="43.84689" lon="6.49168">
        <ele>871.646</ele>
        <time>2012-04-01T07:37:42Z</time>
      </trkpt>
      <trkpt lat="43.84691" lon="6.4916">
        <ele>870.515</ele>
        <time>2012-04-01T07:37:44Z</time>
      </trkpt>
      <trkpt lat="43.84696" lon="6.49146">
        <ele>871.13</ele>
        <time>2012-04-01T07:37:50Z</time>
      </trkpt>
      <trkpt lat="43.84699" lon="6.49135">
        <ele>872.612</ele>
        <time>2012-04-01T07:37:55Z</time>
      </trkpt>
      <trkpt lat="43.84706" lon="6.49118">
        <ele>874.324</ele>
        <time>2012-04-01T07:38:01Z</time>
      </trkpt>
      <trkpt lat="43.84715" lon="6.491">
        <ele>874.022</ele>
        <time>2012-04-01T07:38:07Z</time>
      </trkpt>
      <trkpt lat="43.84717" lon="6.49096">
        <ele>873.252</ele>
        <time>2012-04-01T07:38:09Z</time>
      </trkpt>
      <trkpt lat="43.8473" lon="6.49089">
        <ele>874.363</ele>
        <time>2012-04-01T07:38:14Z</time>
      </trkpt>
      <trkpt lat="43.84741" lon="6.49087">
        <ele>873.97</ele>
        <time>2012-04-01T07:38:19Z</time>
      </trkpt>
      <trkpt lat="43.84747" lon="6.49088">
        <ele>873.118</ele>
        <time>2012-04-01T07:38:22Z</time>
      </trkpt>
      <trkpt lat="43.84757" lon="6.49082">
        <ele>874.853</ele>
        <time>2012-04-01T07:38:28Z</time>
      </trkpt>
      <trkpt lat="43.84765" lon="6.49075">
        <ele>875.516</ele>
        <time>2012-04-01T07:38:34Z</time>
      </trkpt>
      <trkpt lat="43.84768" lon="6.49071">
        <ele>876.466</ele>
        <time>2012-04-01T07:38:37Z</time>
      </trkpt>
      <trkpt lat="43.84773" lon="6.49064">
        <ele>877.414</ele>
        <time>2012-04-01T07:38:41Z</time>
      </trkpt>
      <trkpt lat="43.84785" lon="6.49057">
        <ele>880.277</ele>
        <time>2012-04-01T07:38:49Z</time>
      </trkpt>
      <trkpt lat="43.84795" lon="6.49046">
        <ele>880.865</ele>
        <time>2012-04-01T07:38:56Z</time>
      </trkpt>
      <trkpt lat="43.84806" lon="6.49037">
        <ele>881.026</ele>
        <time>2012-04-01T07:39:03Z</time>
      </trkpt>
      <trkpt lat="43.84813" lon="6.49035">
        <ele>883.766</ele>
        <time>2012-04-01T07:39:07Z</time>
      </trkpt>
      <trkpt lat="43.84823" lon="6.49031">
        <ele>887.871</ele>
        <time>2012-04-01T07:39:12Z</time>
      </trkpt>
      <trkpt lat="43.84829" lon="6.49029">
        <ele>888.419</ele>
        <time>2012-04-01T07:39:15Z</time>
      </trkpt>
      <trkpt lat="43.84835" lon="6.49026">
        <ele>890.189</ele>
        <time>2012-04-01T07:39:19Z</time>
      </trkpt>
      <trkpt lat="43.84852" lon="6.49027">
        <ele>891.96</ele>
        <time>2012-04-01T07:39:25Z</time>
      </trkpt>
      <trkpt lat="43.84865" lon="6.49027">
        <ele>892.188</ele>
        <time>2012-04-01T07:39:28Z</time>
      </trkpt>
      <trkpt lat="43.84885" lon="6.49026">
        <ele>892.758</ele>
        <time>2012-04-01T07:39:33Z</time>
      </trkpt>
      <trkpt lat="43.84893" lon="6.49026">
        <ele>893.248</ele>
        <time>2012-04-01T07:39:36Z</time>
      </trkpt>
      <trkpt lat="43.84915" lon="6.49017">
        <ele>891.123</ele>
        <time>2012-04-01T07:39:44Z</time>
      </trkpt>
      <trkpt lat="43.84927" lon="6.49006">
        <ele>891.233</ele>
        <time>2012-04-01T07:39:50Z</time>
      </trkpt>
      <trkpt lat="43.84939" lon="6.48998">
        <ele>888.18</ele>
        <time>2012-04-01T07:39:56Z</time>
      </trkpt>
      <trkpt lat="43.84946" lon="6.48988">
        <ele>890.044</ele>
        <time>2012-04-01T07:40:01Z</time>
      </trkpt>
      <trkpt lat="43.84946" lon="6.48977">
        <ele>895.42</ele>
        <time>2012-04-01T07:40:07Z</time>
      </trkpt>
      <trkpt lat="43.84946" lon="6.48973">
        <ele>896.759</ele>
        <time>2012-04-01T07:40:09Z</time>
      </trkpt>
      <trkpt lat="43.84943" lon="6.48964">
        <ele>901.581</ele>
        <time>2012-04-01T07:40:15Z</time>
      </trkpt>
      <trkpt lat="43.84941" lon="6.48959">
        <ele>899.706</ele>
        <time>2012-04-01T07:40:17Z</time>
      </trkpt>
      <trkpt lat="43.84946" lon="6.48944">
        <ele>902.177</ele>
        <time>2012-04-01T07:40:24Z</time>
      </trkpt>
      <trkpt lat="43.84944" lon="6.48933">
        <ele>904.357</ele>
        <time>2012-04-01T07:40:29Z</time>
      </trkpt>
      <trkpt lat="43.84946" lon="6.4892">
        <ele>903.374</ele>
        <time>2012-04-01T07:40:34Z</time>
      </trkpt>
      <trkpt lat="43.84952" lon="6.48908">
        <ele>903.275</ele>
        <time>2012-04-01T07:40:40Z</time>
      </trkpt>
      <trkpt lat="43.84954" lon="6.48902">
        <ele>905.237</ele>
        <time>2012-04-01T07:40:43Z</time>
      </trkpt>
      <trkpt lat="43.84953" lon="6.48898">
        <ele>907.049</ele>
        <time>2012-04-01T07:40:46Z</time>
      </trkpt>
      <trkpt lat="43.8495" lon="6.48883">
        <ele>907.216</ele>
        <time>2012-04-01T07:40:52Z</time>
      </trkpt>
      <trkpt lat="43.84948" lon="6.48873">
        <ele>906.063</ele>
        <time>2012-04-01T07:40:57Z</time>
      </trkpt>
      <trkpt lat="43.84942" lon="6.48857">
        <ele>915.289</ele>
        <time>2012-04-01T07:41:03Z</time>
      </trkpt>
      <trkpt lat="43.84942" lon="6.48848">
        <ele>912.585</ele>
        <time>2012-04-01T07:41:07Z</time>
      </trkpt>
      <trkpt lat="43.84942" lon="6.4884">
        <ele>912.004</ele>
        <time>2012-04-01T07:41:10Z</time>
      </trkpt>
      <trkpt lat="43.84937" lon="6.4882">
        <ele>911.322</ele>
        <time>2012-04-01T07:41:18Z</time>
      </trkpt>
      <trkpt lat="43.84937" lon="6.48818">
        <ele>911.953</ele>
        <time>2012-04-01T07:41:19Z</time>
      </trkpt>
      <trkpt lat="43.8494" lon="6.48805">
        <ele>918.1</ele>
        <time>2012-04-01T07:41:25Z</time>
      </trkpt>
      <trkpt lat="43.84946" lon="6.48788">
        <ele>916.814</ele>
        <time>2012-04-01T07:41:31Z</time>
      </trkpt>
      <trkpt lat="43.84952" lon="6.48769">
        <ele>912.882</ele>
        <time>2012-04-01T07:41:38Z</time>
      </trkpt>
      <trkpt lat="43.84953" lon="6.48767">
        <ele>913.733</ele>
        <time>2012-04-01T07:41:39Z</time>
      </trkpt>
      <trkpt lat="43.84951" lon="6.48758">
        <ele>916.627</ele>
        <time>2012-04-01T07:41:45Z</time>
      </trkpt>
      <trkpt lat="43.84951" lon="6.48743">
        <ele>913.493</ele>
        <time>2012-04-01T07:41:51Z</time>
      </trkpt>
      <trkpt lat="43.8495" lon="6.48735">
        <ele>912.421</ele>
        <time>2012-04-01T07:41:56Z</time>
      </trkpt>
      <trkpt lat="43.84947" lon="6.48732">
        <ele>910.308</ele>
        <time>2012-04-01T07:41:59Z</time>
      </trkpt>
      <trkpt lat="43.84947" lon="6.48727">
        <ele>910.368</ele>
        <time>2012-04-01T07:42:02Z</time>
      </trkpt>
      <trkpt lat="43.84944" lon="6.48723">
        <ele>909.908</ele>
        <time>2012-04-01T07:42:06Z</time>
      </trkpt>
      <trkpt lat="43.84938" lon="6.48712">
        <ele>905.955</ele>
        <time>2012-04-01T07:42:12Z</time>
      </trkpt>
      <trkpt lat="43.84936" lon="6.48691">
        <ele>915.135</ele>
        <time>2012-04-01T07:42:20Z</time>
      </trkpt>
      <trkpt lat="43.84934" lon="6.48678">
        <ele>919.797</ele>
        <time>2012-04-01T07:42:25Z</time>
      </trkpt>
      <trkpt lat="43.84929" lon="6.48667">
        <ele>919.235</ele>
        <time>2012-04-01T07:42:31Z</time>
      </trkpt>
      <trkpt lat="43.84919" lon="6.48658">
        <ele>918.583</ele>
        <time>2012-04-01T07:42:38Z</time>
      </trkpt>
      <trkpt lat="43.84913" lon="6.4865">
        <ele>917.552</ele>
        <time>2012-04-01T07:42:44Z</time>
      </trkpt>
      <trkpt lat="43.84908" lon="6.48635">
        <ele>917.529</ele>
        <time>2012-04-01T07:42:51Z</time>
      </trkpt>
      <trkpt lat="43.84906" lon="6.48631">
        <ele>919.42</ele>
        <time>2012-04-01T07:42:53Z</time>
      </trkpt>
      <trkpt lat="43.84907" lon="6.48616">
        <ele>920.691</ele>
        <time>2012-04-01T07:42:59Z</time>
      </trkpt>
      <trkpt lat="43.84907" lon="6.48614">
        <ele>921.061</ele>
        <time>2012-04-01T07:43:00Z</time>
      </trkpt>
      <trkpt lat="43.84908" lon="6.486">
        <ele>920.892</ele>
        <time>2012-04-01T07:43:06Z</time>
      </trkpt>
      <trkpt lat="43.84911" lon="6.48586">
        <ele>920.733</ele>
        <time>2012-04-01T07:43:12Z</time>
      </trkpt>
      <trkpt lat="43.84913" lon="6.4857">
        <ele>922.686</ele>
        <time>2012-04-01T07:43:18Z</time>
      </trkpt>
      <trkpt lat="43.84909" lon="6.48557">
        <ele>925.885</ele>
        <time>2012-04-01T07:43:25Z</time>
      </trkpt>
      <trkpt lat="43.84907" lon="6.48552">
        <ele>926.564</ele>
        <time>2012-04-01T07:43:28Z</time>
      </trkpt>
      <trkpt lat="43.84905" lon="6.48537">
        <ele>927.582</ele>
        <time>2012-04-01T07:43:35Z</time>
      </trkpt>
      <trkpt lat="43.84901" lon="6.48527">
        <ele>927.542</ele>
        <time>2012-04-01T07:43:40Z</time>
      </trkpt>
      <trkpt lat="43.84893" lon="6.4852">
        <ele>927.481</ele>
        <time>2012-04-01T07:43:48Z</time>
      </trkpt>
      <trkpt lat="43.84891" lon="6.4851">
        <ele>927.871</ele>
        <time>2012-04-01T07:43:53Z</time>
      </trkpt>
      <trkpt lat="43.8489" lon="6.48508">
        <ele>929.253</ele>
        <time>2012-04-01T07:43:58Z</time>
      </trkpt>
      <trkpt lat="43.84889" lon="6.48508">
        <ele>929.132</ele>
        <time>2012-04-01T07:43:59Z</time>
      </trkpt>
      <trkpt lat="43.84886" lon="6.48504">
        <ele>932.043</ele>
        <time>2012-04-01T07:44:07Z</time>
      </trkpt>
      <trkpt lat="43.84884" lon="6.48502">
        <ele>930.82</ele>
        <time>2012-04-01T07:44:21Z</time>
      </trkpt>
      <trkpt lat="43.84881" lon="6.48491">
        <ele>932.132</ele>
        <time>2012-04-01T07:44:26Z</time>
      </trkpt>
      <trkpt lat="43.84885" lon="6.48478">
        <ele>931.511</ele>
        <time>2012-04-01T07:44:31Z</time>
      </trkpt>
      <trkpt lat="43.84888" lon="6.48476">
        <ele>930.26</ele>
        <time>2012-04-01T07:44:33Z</time>
      </trkpt>
      <trkpt lat="43.849" lon="6.48468">
        <ele>931.222</ele>
        <time>2012-04-01T07:44:40Z</time>
      </trkpt>
      <trkpt lat="43.84906" lon="6.48453">
        <ele>934.878</ele>
        <time>2012-04-01T07:44:47Z</time>
      </trkpt>
      <trkpt lat="43.84912" lon="6.48439">
        <ele>938.468</ele>
        <time>2012-04-01T07:44:54Z</time>
      </trkpt>
      <trkpt lat="43.84919" lon="6.48426">
        <ele>936.883</ele>
        <time>2012-04-01T07:45:01Z</time>
      </trkpt>
      <trkpt lat="43.84924" lon="6.48414">
        <ele>937.043</ele>
        <time>2012-04-01T07:45:07Z</time>
      </trkpt>
      <trkpt lat="43.84929" lon="6.48411">
        <ele>937.864</ele>
        <time>2012-04-01T07:45:11Z</time>
      </trkpt>
      <trkpt lat="43.84931" lon="6.48407">
        <ele>938.694</ele>
        <time>2012-04-01T07:45:14Z</time>
      </trkpt>
      <trkpt lat="43.84939" lon="6.48407">
        <ele>939.814</ele>
        <time>2012-04-01T07:45:19Z</time>
      </trkpt>
      <trkpt lat="43.84942" lon="6.48403">
        <ele>940.125</ele>
        <time>2012-04-01T07:45:22Z</time>
      </trkpt>
      <trkpt lat="43.84943" lon="6.484">
        <ele>940.526</ele>
        <time>2012-04-01T07:45:23Z</time>
      </trkpt>
      <trkpt lat="43.84946" lon="6.48395">
        <ele>941.155</ele>
        <time>2012-04-01T07:45:26Z</time>
      </trkpt>
      <trkpt lat="43.84956" lon="6.48398">
        <ele>942.685</ele>
        <time>2012-04-01T07:45:32Z</time>
      </trkpt>
      <trkpt lat="43.84964" lon="6.4841">
        <ele>946.919</ele>
        <time>2012-04-01T07:45:39Z</time>
      </trkpt>
      <trkpt lat="43.84973" lon="6.4842">
        <ele>949.067</ele>
        <time>2012-04-01T07:45:46Z</time>
      </trkpt>
      <trkpt lat="43.84977" lon="6.4842">
        <ele>947.664</ele>
        <time>2012-04-01T07:45:49Z</time>
      </trkpt>
      <trkpt lat="43.84981" lon="6.48413">
        <ele>948.286</ele>
        <time>2012-04-01T07:45:54Z</time>
      </trkpt>
      <trkpt lat="43.84982" lon="6.48407">
        <ele>949.366</ele>
        <time>2012-04-01T07:45:57Z</time>
      </trkpt>
      <trkpt lat="43.84987" lon="6.48391">
        <ele>950.756</ele>
        <time>2012-04-01T07:46:05Z</time>
      </trkpt>
      <trkpt lat="43.84989" lon="6.48382">
        <ele>953.579</ele>
        <time>2012-04-01T07:46:10Z</time>
      </trkpt>
      <trkpt lat="43.84994" lon="6.48371">
        <ele>956.688</ele>
        <time>2012-04-01T07:46:17Z</time>
      </trkpt>
      <trkpt lat="43.85" lon="6.48355">
        <ele>964.023</ele>
        <time>2012-04-01T07:46:27Z</time>
      </trkpt>
      <trkpt lat="43.85002" lon="6.48342">
        <ele>965.667</ele>
        <time>2012-04-01T07:46:33Z</time>
      </trkpt>
      <trkpt lat="43.85002" lon="6.4833">
        <ele>965.865</ele>
        <time>2012-04-01T07:46:39Z</time>
      </trkpt>
      <trkpt lat="43.85004" lon="6.48315">
        <ele>965.232</ele>
        <time>2012-04-01T07:46:46Z</time>
      </trkpt>
      <trkpt lat="43.85005" lon="6.48305">
        <ele>964.923</ele>
        <time>2012-04-01T07:46:52Z</time>
      </trkpt>
      <trkpt lat="43.85008" lon="6.48295">
        <ele>963.371</ele>
        <time>2012-04-01T07:46:58Z</time>
      </trkpt>
      <trkpt lat="43.8501" lon="6.48287">
        <ele>960.239</ele>
        <time>2012-04-01T07:47:06Z</time>
      </trkpt>
      <trkpt lat="43.85012" lon="6.48288">
        <ele>965.614</ele>
        <time>2012-04-01T07:47:12Z</time>
      </trkpt>
      <trkpt lat="43.85013" lon="6.48278">
        <ele>971.941</ele>
        <time>2012-04-01T07:47:19Z</time>
      </trkpt>
      <trkpt lat="43.85016" lon="6.48266">
        <ele>967.784</ele>
        <time>2012-04-01T07:47:24Z</time>
      </trkpt>
      <trkpt lat="43.8502" lon="6.48253">
        <ele>967.475</ele>
        <time>2012-04-01T07:47:30Z</time>
      </trkpt>
      <trkpt lat="43.85022" lon="6.48244">
        <ele>970.636</ele>
        <time>2012-04-01T07:47:36Z</time>
      </trkpt>
      <trkpt lat="43.85022" lon="6.48242">
        <ele>970.836</ele>
        <time>2012-04-01T07:47:37Z</time>
      </trkpt>
      <trkpt lat="43.85026" lon="6.48234">
        <ele>973.187</ele>
        <time>2012-04-01T07:47:41Z</time>
      </trkpt>
      <trkpt lat="43.85032" lon="6.48219">
        <ele>970.501</ele>
        <time>2012-04-01T07:47:48Z</time>
      </trkpt>
      <trkpt lat="43.85033" lon="6.48214">
        <ele>973.394</ele>
        <time>2012-04-01T07:47:55Z</time>
      </trkpt>
      <trkpt lat="43.85036" lon="6.48208">
        <ele>974.565</ele>
        <time>2012-04-01T07:47:59Z</time>
      </trkpt>
      <trkpt lat="43.85036" lon="6.48208">
        <ele>975.196</ele>
        <time>2012-04-01T07:48:00Z</time>
      </trkpt>
      <trkpt lat="43.85039" lon="6.48197">
        <ele>971.501</ele>
        <time>2012-04-01T07:48:07Z</time>
      </trkpt>
      <trkpt lat="43.85041" lon="6.4819">
        <ele>971.24</ele>
        <time>2012-04-01T07:48:13Z</time>
      </trkpt>
      <trkpt lat="43.85041" lon="6.48188">
        <ele>969.909</ele>
        <time>2012-04-01T07:48:21Z</time>
      </trkpt>
      <trkpt lat="43.85048" lon="6.48187">
        <ele>970.001</ele>
        <time>2012-04-01T07:48:28Z</time>
      </trkpt>
      <trkpt lat="43.85052" lon="6.48189">
        <ele>967.126</ele>
        <time>2012-04-01T07:48:31Z</time>
      </trkpt>
      <trkpt lat="43.85061" lon="6.48189">
        <ele>970.403</ele>
        <time>2012-04-01T07:48:37Z</time>
      </trkpt>
      <trkpt lat="43.85062" lon="6.4819">
        <ele>970.734</ele>
        <time>2012-04-01T07:48:38Z</time>
      </trkpt>
      <trkpt lat="43.8507" lon="6.48197">
        <ele>969.391</ele>
        <time>2012-04-01T07:48:45Z</time>
      </trkpt>
      <trkpt lat="43.85072" lon="6.48197">
        <ele>969.29</ele>
        <time>2012-04-01T07:48:46Z</time>
      </trkpt>
      <trkpt lat="43.8508" lon="6.4819">
        <ele>968.459</ele>
        <time>2012-04-01T07:48:52Z</time>
      </trkpt>
      <trkpt lat="43.85082" lon="6.48184">
        <ele>969.112</ele>
        <time>2012-04-01T07:48:55Z</time>
      </trkpt>
      <trkpt lat="43.85084" lon="6.48172">
        <ele>970.842</ele>
        <time>2012-04-01T07:49:03Z</time>
      </trkpt>
      <trkpt lat="43.8509" lon="6.48176">
        <ele>973.333</ele>
        <time>2012-04-01T07:49:08Z</time>
      </trkpt>
      <trkpt lat="43.85095" lon="6.48176">
        <ele>975.226</ele>
        <time>2012-04-01T07:49:12Z</time>
      </trkpt>
      <trkpt lat="43.85096" lon="6.48175">
        <ele>974.833</ele>
        <time>2012-04-01T07:49:18Z</time>
      </trkpt>
      <trkpt lat="43.85094" lon="6.48174">
        <ele>973.01</ele>
        <time>2012-04-01T07:49:25Z</time>
      </trkpt>
      <trkpt lat="43.85092" lon="6.48172">
        <ele>981.812</ele>
        <time>2012-04-01T07:49:58Z</time>
      </trkpt>
      <trkpt lat="43.85091" lon="6.4816">
        <ele>983.323</ele>
        <time>2012-04-01T07:50:05Z</time>
      </trkpt>
      <trkpt lat="43.85088" lon="6.48159">
        <ele>982.782</ele>
        <time>2012-04-01T07:50:09Z</time>
      </trkpt>
      <trkpt lat="43.85083" lon="6.4816">
        <ele>983.333</ele>
        <time>2012-04-01T07:50:13Z</time>
      </trkpt>
      <trkpt lat="43.85071" lon="6.48153">
        <ele>985.018</ele>
        <time>2012-04-01T07:50:21Z</time>
      </trkpt>
      <trkpt lat="43.85067" lon="6.48149">
        <ele>986.928</ele>
        <time>2012-04-01T07:50:25Z</time>
      </trkpt>
      <trkpt lat="43.85058" lon="6.48148">
        <ele>989.477</ele>
        <time>2012-04-01T07:50:32Z</time>
      </trkpt>
      <trkpt lat="43.85054" lon="6.48145">
        <ele>989.135</ele>
        <time>2012-04-01T07:50:35Z</time>
      </trkpt>
      <trkpt lat="43.8505" lon="6.48143">
        <ele>988.412</ele>
        <time>2012-04-01T07:50:42Z</time>
      </trkpt>
      <trkpt lat="43.85045" lon="6.48142">
        <ele>988.403</ele>
        <time>2012-04-01T07:50:49Z</time>
      </trkpt>
      <trkpt lat="43.85037" lon="6.48135">
        <ele>988.591</ele>
        <time>2012-04-01T07:50:55Z</time>
      </trkpt>
      <trkpt lat="43.8503" lon="6.48125">
        <ele>989.172</ele>
        <time>2012-04-01T07:51:01Z</time>
      </trkpt>
      <trkpt lat="43.85024" lon="6.48117">
        <ele>990.535</ele>
        <time>2012-04-01T07:51:07Z</time>
      </trkpt>
      <trkpt lat="43.85016" lon="6.48112">
        <ele>993.925</ele>
        <time>2012-04-01T07:51:15Z</time>
      </trkpt>
      <trkpt lat="43.85013" lon="6.48113">
        <ele>994.555</ele>
        <time>2012-04-01T07:51:20Z</time>
      </trkpt>
      <trkpt lat="43.85008" lon="6.48118">
        <ele>999.128</ele>
        <time>2012-04-01T07:51:29Z</time>
      </trkpt>
      <trkpt lat="43.85007" lon="6.48123">
        <ele>1001.128</ele>
        <time>2012-04-01T07:51:32Z</time>
      </trkpt>
      <trkpt lat="43.85006" lon="6.48129">
        <ele>1002.569</ele>
        <time>2012-04-01T07:51:35Z</time>
      </trkpt>
      <trkpt lat="43.85003" lon="6.48132">
        <ele>1004.51</ele>
        <time>2012-04-01T07:51:37Z</time>
      </trkpt>
      <trkpt lat="43.84996" lon="6.48142">
        <ele>1008.129</ele>
        <time>2012-04-01T07:51:44Z</time>
      </trkpt>
      <trkpt lat="43.84992" lon="6.48149">
        <ele>1009.307</ele>
        <time>2012-04-01T07:51:50Z</time>
      </trkpt>
      <trkpt lat="43.84989" lon="6.4815">
        <ele>1008.495</ele>
        <time>2012-04-01T07:51:53Z</time>
      </trkpt>
      <trkpt lat="43.84983" lon="6.48161">
        <ele>1007.715</ele>
        <time>2012-04-01T07:52:01Z</time>
      </trkpt>
      <trkpt lat="43.84981" lon="6.48164">
        <ele>1007.736</ele>
        <time>2012-04-01T07:52:03Z</time>
      </trkpt>
      <trkpt lat="43.84977" lon="6.4817">
        <ele>1006.225</ele>
        <time>2012-04-01T07:52:08Z</time>
      </trkpt>
      <trkpt lat="43.84973" lon="6.48177">
        <ele>1004.374</ele>
        <time>2012-04-01T07:52:13Z</time>
      </trkpt>
      <trkpt lat="43.84971" lon="6.48181">
        <ele>1005.855</ele>
        <time>2012-04-01T07:52:15Z</time>
      </trkpt>
      <trkpt lat="43.84961" lon="6.48181">
        <ele>1008.875</ele>
        <time>2012-04-01T07:52:21Z</time>
      </trkpt>
      <trkpt lat="43.84959" lon="6.48176">
        <ele>1009.234</ele>
        <time>2012-04-01T07:52:23Z</time>
      </trkpt>
      <trkpt lat="43.84955" lon="6.48168">
        <ele>1012.254</ele>
        <time>2012-04-01T07:52:29Z</time>
      </trkpt>
      <trkpt lat="43.84952" lon="6.48157">
        <ele>1005.83</ele>
        <time>2012-04-01T07:57:42Z</time>
      </trkpt>
      <trkpt lat="43.84948" lon="6.48143">
        <ele>1005.28</ele>
        <time>2012-04-01T07:57:48Z</time>
      </trkpt>
      <trkpt lat="43.84945" lon="6.48129">
        <ele>1005.443</ele>
        <time>2012-04-01T07:57:54Z</time>
      </trkpt>
      <trkpt lat="43.84938" lon="6.48116">
        <ele>1004.641</ele>
        <time>2012-04-01T07:58:00Z</time>
      </trkpt>
      <trkpt lat="43.84931" lon="6.48098">
        <ele>1006.524</ele>
        <time>2012-04-01T07:58:07Z</time>
      </trkpt>
      <trkpt lat="43.84926" lon="6.48082">
        <ele>1007.804</ele>
        <time>2012-04-01T07:58:12Z</time>
      </trkpt>
      <trkpt lat="43.84919" lon="6.4806">
        <ele>1009.112</ele>
        <time>2012-04-01T07:58:17Z</time>
      </trkpt>
      <trkpt lat="43.84909" lon="6.48031">
        <ele>1005.867</ele>
        <time>2012-04-01T07:58:22Z</time>
      </trkpt>
      <trkpt lat="43.84899" lon="6.48018">
        <ele>1005.136</ele>
        <time>2012-04-01T07:58:26Z</time>
      </trkpt>
      <trkpt lat="43.8489" lon="6.48004">
        <ele>1002.334</ele>
        <time>2012-04-01T07:58:30Z</time>
      </trkpt>
      <trkpt lat="43.84891" lon="6.47983">
        <ele>1002.52</ele>
        <time>2012-04-01T07:58:36Z</time>
      </trkpt>
      <trkpt lat="43.84893" lon="6.47981">
        <ele>1002.11</ele>
        <time>2012-04-01T07:58:37Z</time>
      </trkpt>
      <trkpt lat="43.84896" lon="6.47959">
        <ele>1000.64</ele>
        <time>2012-04-01T07:58:43Z</time>
      </trkpt>
      <trkpt lat="43.84891" lon="6.47945">
        <ele>1000.881</ele>
        <time>2012-04-01T07:58:47Z</time>
      </trkpt>
      <trkpt lat="43.8489" lon="6.47934">
        <ele>999.919</ele>
        <time>2012-04-01T07:58:50Z</time>
      </trkpt>
      <trkpt lat="43.8489" lon="6.47916">
        <ele>1000.851</ele>
        <time>2012-04-01T07:58:56Z</time>
      </trkpt>
      <trkpt lat="43.84889" lon="6.47908">
        <ele>1001.712</ele>
        <time>2012-04-01T07:58:59Z</time>
      </trkpt>
      <trkpt lat="43.84881" lon="6.47895">
        <ele>1002.473</ele>
        <time>2012-04-01T07:59:05Z</time>
      </trkpt>
      <trkpt lat="43.84875" lon="6.47885">
        <ele>1004.166</ele>
        <time>2012-04-01T07:59:10Z</time>
      </trkpt>
      <trkpt lat="43.84874" lon="6.47878">
        <ele>1005.716</ele>
        <time>2012-04-01T07:59:13Z</time>
      </trkpt>
      <trkpt lat="43.84867" lon="6.4786">
        <ele>1004.391</ele>
        <time>2012-04-01T07:59:20Z</time>
      </trkpt>
      <trkpt lat="43.84867" lon="6.47843">
        <ele>1003.91</ele>
        <time>2012-04-01T07:59:26Z</time>
      </trkpt>
      <trkpt lat="43.84867" lon="6.47838">
        <ele>1003.168</ele>
        <time>2012-04-01T07:59:32Z</time>
      </trkpt>
      <trkpt lat="43.84868" lon="6.47831">
        <ele>1004.969</ele>
        <time>2012-04-01T07:59:40Z</time>
      </trkpt>
      <trkpt lat="43.84867" lon="6.47823">
        <ele>1004.289</ele>
        <time>2012-04-01T07:59:45Z</time>
      </trkpt>
      <trkpt lat="43.84865" lon="6.47815">
        <ele>1005.982</ele>
        <time>2012-04-01T07:59:51Z</time>
      </trkpt>
      <trkpt lat="43.84862" lon="6.47801">
        <ele>1006.622</ele>
        <time>2012-04-01T07:59:57Z</time>
      </trkpt>
      <trkpt lat="43.8486" lon="6.47787">
        <ele>1007.733</ele>
        <time>2012-04-01T08:00:03Z</time>
      </trkpt>
      <trkpt lat="43.84857" lon="6.47778">
        <ele>1010.898</ele>
        <time>2012-04-01T08:00:07Z</time>
      </trkpt>
      <trkpt lat="43.84858" lon="6.47761">
        <ele>1014.038</ele>
        <time>2012-04-01T08:00:15Z</time>
      </trkpt>
      <trkpt lat="43.8486" lon="6.47752">
        <ele>1015.127</ele>
        <time>2012-04-01T08:00:19Z</time>
      </trkpt>
      <trkpt lat="43.84862" lon="6.47734">
        <ele>1013.333</ele>
        <time>2012-04-01T08:00:26Z</time>
      </trkpt>
      <trkpt lat="43.84861" lon="6.47726">
        <ele>1013.273</ele>
        <time>2012-04-01T08:00:30Z</time>
      </trkpt>
      <trkpt lat="43.84861" lon="6.47724">
        <ele>1015.416</ele>
        <time>2012-04-01T08:00:32Z</time>
      </trkpt>
      <trkpt lat="43.8486" lon="6.47723">
        <ele>1016.635</ele>
        <time>2012-04-01T08:00:36Z</time>
      </trkpt>
      <trkpt lat="43.84855" lon="6.47724">
        <ele>1017.023</ele>
        <time>2012-04-01T08:00:40Z</time>
      </trkpt>
      <trkpt lat="43.84847" lon="6.47724">
        <ele>1021.197</ele>
        <time>2012-04-01T08:00:46Z</time>
      </trkpt>
      <trkpt lat="43.84843" lon="6.4772">
        <ele>1026.541</ele>
        <time>2012-04-01T08:00:51Z</time>
      </trkpt>
      <trkpt lat="43.84846" lon="6.47709">
        <ele>1026.585</ele>
        <time>2012-04-01T08:00:58Z</time>
      </trkpt>
      <trkpt lat="43.84852" lon="6.47694">
        <ele>1026.801</ele>
        <time>2012-04-01T08:01:06Z</time>
      </trkpt>
      <trkpt lat="43.84854" lon="6.47687">
        <ele>1024.978</ele>
        <time>2012-04-01T08:01:12Z</time>
      </trkpt>
      <trkpt lat="43.84856" lon="6.47683">
        <ele>1024.408</ele>
        <time>2012-04-01T08:01:20Z</time>
      </trkpt>
      <trkpt lat="43.84857" lon="6.47679">
        <ele>1030.042</ele>
        <time>2012-04-01T08:01:29Z</time>
      </trkpt>
      <trkpt lat="43.84857" lon="6.47677">
        <ele>1029.23</ele>
        <time>2012-04-01T08:01:35Z</time>
      </trkpt>
      <trkpt lat="43.8486" lon="6.4767">
        <ele>1028.679</ele>
        <time>2012-04-01T08:01:42Z</time>
      </trkpt>
      <trkpt lat="43.8486" lon="6.47662">
        <ele>1027.927</ele>
        <time>2012-04-01T08:01:49Z</time>
      </trkpt>
      <trkpt lat="43.84864" lon="6.4765">
        <ele>1024.065</ele>
        <time>2012-04-01T08:01:57Z</time>
      </trkpt>
      <trkpt lat="43.84867" lon="6.4764">
        <ele>1021.537</ele>
        <time>2012-04-01T08:02:04Z</time>
      </trkpt>
      <trkpt lat="43.84869" lon="6.47636">
        <ele>1023.79</ele>
        <time>2012-04-01T08:02:10Z</time>
      </trkpt>
      <trkpt lat="43.84872" lon="6.47629">
        <ele>1025.902</ele>
        <time>2012-04-01T08:02:17Z</time>
      </trkpt>
      <trkpt lat="43.84877" lon="6.4762">
        <ele>1027.832</ele>
        <time>2012-04-01T08:02:25Z</time>
      </trkpt>
      <trkpt lat="43.8488" lon="6.47613">
        <ele>1027.861</ele>
        <time>2012-04-01T08:02:31Z</time>
      </trkpt>
      <trkpt lat="43.84884" lon="6.47603">
        <ele>1033.635</ele>
        <time>2012-04-01T08:02:38Z</time>
      </trkpt>
      <trkpt lat="43.84886" lon="6.47596">
        <ele>1037.987</ele>
        <time>2012-04-01T08:02:44Z</time>
      </trkpt>
      <trkpt lat="43.8489" lon="6.47586">
        <ele>1038.042</ele>
        <time>2012-04-01T08:02:51Z</time>
      </trkpt>
      <trkpt lat="43.84894" lon="6.47576">
        <ele>1030.305</ele>
        <time>2012-04-01T08:03:00Z</time>
      </trkpt>
      <trkpt lat="43.84897" lon="6.47564">
        <ele>1033.36</ele>
        <time>2012-04-01T08:03:06Z</time>
      </trkpt>
      <trkpt lat="43.84898" lon="6.47558">
        <ele>1035.583</ele>
        <time>2012-04-01T08:03:09Z</time>
      </trkpt>
      <trkpt lat="43.84901" lon="6.47542">
        <ele>1037.425</ele>
        <time>2012-04-01T08:03:17Z</time>
      </trkpt>
      <trkpt lat="43.84901" lon="6.47534">
        <ele>1036.031</ele>
        <time>2012-04-01T08:03:24Z</time>
      </trkpt>
      <trkpt lat="43.84903" lon="6.47531">
        <ele>1039.502</ele>
        <time>2012-04-01T08:03:29Z</time>
      </trkpt>
      <trkpt lat="43.84905" lon="6.47526">
        <ele>1044.394</ele>
        <time>2012-04-01T08:03:37Z</time>
      </trkpt>
      <trkpt lat="43.84905" lon="6.47521">
        <ele>1047.114</ele>
        <time>2012-04-01T08:03:42Z</time>
      </trkpt>
      <trkpt lat="43.84907" lon="6.47509">
        <ele>1045.46</ele>
        <time>2012-04-01T08:03:50Z</time>
      </trkpt>
      <trkpt lat="43.84907" lon="6.47503">
        <ele>1047.342</ele>
        <time>2012-04-01T08:03:56Z</time>
      </trkpt>
      <trkpt lat="43.84906" lon="6.475">
        <ele>1048.893</ele>
        <time>2012-04-01T08:04:01Z</time>
      </trkpt>
      <trkpt lat="43.84909" lon="6.47492">
        <ele>1055.135</ele>
        <time>2012-04-01T08:04:10Z</time>
      </trkpt>
      <trkpt lat="43.84909" lon="6.47487">
        <ele>1056.164</ele>
        <time>2012-04-01T08:04:15Z</time>
      </trkpt>
      <trkpt lat="43.84909" lon="6.47482">
        <ele>1059.303</ele>
        <time>2012-04-01T08:04:20Z</time>
      </trkpt>
      <trkpt lat="43.8491" lon="6.47473">
        <ele>1058.67</ele>
        <time>2012-04-01T08:04:27Z</time>
      </trkpt>
      <trkpt lat="43.84912" lon="6.47466">
        <ele>1060.633</ele>
        <time>2012-04-01T08:04:33Z</time>
      </trkpt>
      <trkpt lat="43.84914" lon="6.47462">
        <ele>1062.724</ele>
        <time>2012-04-01T08:04:38Z</time>
      </trkpt>
      <trkpt lat="43.84915" lon="6.47453">
        <ele>1061.81</ele>
        <time>2012-04-01T08:04:43Z</time>
      </trkpt>
      <trkpt lat="43.84915" lon="6.47444">
        <ele>1060.55</ele>
        <time>2012-04-01T08:04:50Z</time>
      </trkpt>
      <trkpt lat="43.84915" lon="6.47429">
        <ele>1059.558</ele>
        <time>2012-04-01T08:04:59Z</time>
      </trkpt>
      <trkpt lat="43.84915" lon="6.47425">
        <ele>1058.808</ele>
        <time>2012-04-01T08:05:02Z</time>
      </trkpt>
      <trkpt lat="43.84919" lon="6.47418">
        <ele>1060.609</ele>
        <time>2012-04-01T08:05:10Z</time>
      </trkpt>
      <trkpt lat="43.84922" lon="6.4741">
        <ele>1063.581</ele>
        <time>2012-04-01T08:05:17Z</time>
      </trkpt>
      <trkpt lat="43.84926" lon="6.474">
        <ele>1066.992</ele>
        <time>2012-04-01T08:05:25Z</time>
      </trkpt>
      <trkpt lat="43.84927" lon="6.47397">
        <ele>1068.832</ele>
        <time>2012-04-01T08:05:31Z</time>
      </trkpt>
      <trkpt lat="43.84929" lon="6.47387">
        <ele>1065.908</ele>
        <time>2012-04-01T08:05:38Z</time>
      </trkpt>
      <trkpt lat="43.84931" lon="6.47383">
        <ele>1064.297</ele>
        <time>2012-04-01T08:05:43Z</time>
      </trkpt>
      <trkpt lat="43.84931" lon="6.47374">
        <ele>1064.899</ele>
        <time>2012-04-01T08:05:52Z</time>
      </trkpt>
      <trkpt lat="43.84932" lon="6.47368">
        <ele>1067.471</ele>
        <time>2012-04-01T08:06:00Z</time>
      </trkpt>
      <trkpt lat="43.84932" lon="6.47361">
        <ele>1069.25</ele>
        <time>2012-04-01T08:06:07Z</time>
      </trkpt>
      <trkpt lat="43.84938" lon="6.47355">
        <ele>1068.908</ele>
        <time>2012-04-01T08:06:15Z</time>
      </trkpt>
      <trkpt lat="43.8494" lon="6.47356">
        <ele>1077.627</ele>
        <time>2012-04-01T08:10:42Z</time>
      </trkpt>
      <trkpt lat="43.84953" lon="6.47351">
        <ele>1076.87</ele>
        <time>2012-04-01T08:10:49Z</time>
      </trkpt>
      <trkpt lat="43.84957" lon="6.47352">
        <ele>1077.039</ele>
        <time>2012-04-01T08:10:52Z</time>
      </trkpt>
      <trkpt lat="43.84966" lon="6.47354">
        <ele>1076.75</ele>
        <time>2012-04-01T08:10:59Z</time>
      </trkpt>
      <trkpt lat="43.84969" lon="6.47357">
        <ele>1078.943</ele>
        <time>2012-04-01T08:11:01Z</time>
      </trkpt>
      <trkpt lat="43.84978" lon="6.47359">
        <ele>1080.044</ele>
        <time>2012-04-01T08:11:06Z</time>
      </trkpt>
      <trkpt lat="43.84981" lon="6.47357">
        <ele>1080.374</ele>
        <time>2012-04-01T08:11:08Z</time>
      </trkpt>
      <trkpt lat="43.84983" lon="6.47343">
        <ele>1082.224</ele>
        <time>2012-04-01T08:11:15Z</time>
      </trkpt>
      <trkpt lat="43.84983" lon="6.47341">
        <ele>1082.655</ele>
        <time>2012-04-01T08:11:16Z</time>
      </trkpt>
      <trkpt lat="43.84975" lon="6.47328">
        <ele>1085.423</ele>
        <time>2012-04-01T08:11:24Z</time>
      </trkpt>
      <trkpt lat="43.84972" lon="6.47323">
        <ele>1085.013</ele>
        <time>2012-04-01T08:11:27Z</time>
      </trkpt>
      <trkpt lat="43.84967" lon="6.47315">
        <ele>1084.634</ele>
        <time>2012-04-01T08:11:32Z</time>
      </trkpt>
      <trkpt lat="43.84959" lon="6.47305">
        <ele>1082.2</ele>
        <time>2012-04-01T08:11:39Z</time>
      </trkpt>
      <trkpt lat="43.8495" lon="6.47297">
        <ele>1082.17</ele>
        <time>2012-04-01T08:11:46Z</time>
      </trkpt>
      <trkpt lat="43.84941" lon="6.47287">
        <ele>1084.102</ele>
        <time>2012-04-01T08:11:53Z</time>
      </trkpt>
      <trkpt lat="43.84932" lon="6.47276">
        <ele>1086.861</ele>
        <time>2012-04-01T08:12:00Z</time>
      </trkpt>
      <trkpt lat="43.84923" lon="6.47266">
        <ele>1091.146</ele>
        <time>2012-04-01T08:12:07Z</time>
      </trkpt>
      <trkpt lat="43.8492" lon="6.47263">
        <ele>1092.467</ele>
        <time>2012-04-01T08:12:10Z</time>
      </trkpt>
      <trkpt lat="43.8491" lon="6.47257">
        <ele>1091.796</ele>
        <time>2012-04-01T08:12:17Z</time>
      </trkpt>
      <trkpt lat="43.84902" lon="6.47253">
        <ele>1090.922</ele>
        <time>2012-04-01T08:12:22Z</time>
      </trkpt>
      <trkpt lat="43.84901" lon="6.47252">
        <ele>1090.462</ele>
        <time>2012-04-01T08:12:23Z</time>
      </trkpt>
      <trkpt lat="43.84893" lon="6.47253">
        <ele>1092.51</ele>
        <time>2012-04-01T08:12:30Z</time>
      </trkpt>
      <trkpt lat="43.84882" lon="6.47259">
        <ele>1094.63</ele>
        <time>2012-04-01T08:12:38Z</time>
      </trkpt>
      <trkpt lat="43.84872" lon="6.47266">
        <ele>1097.162</ele>
        <time>2012-04-01T08:12:45Z</time>
      </trkpt>
      <trkpt lat="43.84863" lon="6.47273">
        <ele>1099.553</ele>
        <time>2012-04-01T08:12:52Z</time>
      </trkpt>
      <trkpt lat="43.84854" lon="6.47279">
        <ele>1098.79</ele>
        <time>2012-04-01T08:12:59Z</time>
      </trkpt>
      <trkpt lat="43.84843" lon="6.47287">
        <ele>1097.218</ele>
        <time>2012-04-01T08:13:06Z</time>
      </trkpt>
      <trkpt lat="43.84831" lon="6.47298">
        <ele>1097.889</ele>
        <time>2012-04-01T08:13:13Z</time>
      </trkpt>
      <trkpt lat="43.84819" lon="6.47308">
        <ele>1099.891</ele>
        <time>2012-04-01T08:13:22Z</time>
      </trkpt>
      <trkpt lat="43.84805" lon="6.47319">
        <ele>1102.671</ele>
        <time>2012-04-01T08:13:32Z</time>
      </trkpt>
      <trkpt lat="43.84793" lon="6.47328">
        <ele>1104.771</ele>
        <time>2012-04-01T08:13:40Z</time>
      </trkpt>
      <trkpt lat="43.8478" lon="6.47339">
        <ele>1106.261</ele>
        <time>2012-04-01T08:13:48Z</time>
      </trkpt>
      <trkpt lat="43.84768" lon="6.47349">
        <ele>1106.229</ele>
        <time>2012-04-01T08:13:56Z</time>
      </trkpt>
      <trkpt lat="43.84756" lon="6.4736">
        <ele>1107.27</ele>
        <time>2012-04-01T08:14:04Z</time>
      </trkpt>
      <trkpt lat="43.84747" lon="6.47367">
        <ele>1108.6</ele>
        <time>2012-04-01T08:14:10Z</time>
      </trkpt>
      <trkpt lat="43.8473" lon="6.47377">
        <ele>1109.969</ele>
        <time>2012-04-01T08:14:21Z</time>
      </trkpt>
      <trkpt lat="43.84721" lon="6.47384">
        <ele>1111.873</ele>
        <time>2012-04-01T08:14:27Z</time>
      </trkpt>
      <trkpt lat="43.84708" lon="6.47397">
        <ele>1113.673</ele>
        <time>2012-04-01T08:14:36Z</time>
      </trkpt>
      <trkpt lat="43.84704" lon="6.47408">
        <ele>1116.456</ele>
        <time>2012-04-01T08:14:42Z</time>
      </trkpt>
      <trkpt lat="43.84696" lon="6.47423">
        <ele>1119.487</ele>
        <time>2012-04-01T08:14:50Z</time>
      </trkpt>
      <trkpt lat="43.84686" lon="6.47436">
        <ele>1119.744</ele>
        <time>2012-04-01T08:14:59Z</time>
      </trkpt>
      <trkpt lat="43.84674" lon="6.47446">
        <ele>1120.242</ele>
        <time>2012-04-01T08:15:07Z</time>
      </trkpt>
      <trkpt lat="43.84663" lon="6.47456">
        <ele>1119.4</ele>
        <time>2012-04-01T08:15:14Z</time>
      </trkpt>
      <trkpt lat="43.84655" lon="6.47465">
        <ele>1120.22</ele>
        <time>2012-04-01T08:15:20Z</time>
      </trkpt>
      <trkpt lat="43.84643" lon="6.47477">
        <ele>1121.542</ele>
        <time>2012-04-01T08:15:28Z</time>
      </trkpt>
      <trkpt lat="43.84631" lon="6.47487">
        <ele>1122.882</ele>
        <time>2012-04-01T08:15:36Z</time>
      </trkpt>
      <trkpt lat="43.84622" lon="6.47495">
        <ele>1125.303</ele>
        <time>2012-04-01T08:15:43Z</time>
      </trkpt>
      <trkpt lat="43.84611" lon="6.475">
        <ele>1127.213</ele>
        <time>2012-04-01T08:15:50Z</time>
      </trkpt>
      <trkpt lat="43.84594" lon="6.47498">
        <ele>1131.747</ele>
        <time>2012-04-01T08:15:58Z</time>
      </trkpt>
      <trkpt lat="43.84583" lon="6.47495">
        <ele>1133.625</ele>
        <time>2012-04-01T08:16:03Z</time>
      </trkpt>
      <trkpt lat="43.84569" lon="6.47497">
        <ele>1135.792</ele>
        <time>2012-04-01T08:16:11Z</time>
      </trkpt>
      <trkpt lat="43.84561" lon="6.47504">
        <ele>1135.361</ele>
        <time>2012-04-01T08:16:17Z</time>
      </trkpt>
      <trkpt lat="43.84556" lon="6.47512">
        <ele>1135.72</ele>
        <time>2012-04-01T08:16:23Z</time>
      </trkpt>
      <trkpt lat="43.84551" lon="6.47525">
        <ele>1137.613</ele>
        <time>2012-04-01T08:16:29Z</time>
      </trkpt>
      <trkpt lat="43.84543" lon="6.4754">
        <ele>1139.333</ele>
        <time>2012-04-01T08:16:37Z</time>
      </trkpt>
      <trkpt lat="43.84533" lon="6.47551">
        <ele>1141.574</ele>
        <time>2012-04-01T08:16:45Z</time>
      </trkpt>
      <trkpt lat="43.84522" lon="6.47559">
        <ele>1143.304</ele>
        <time>2012-04-01T08:16:52Z</time>
      </trkpt>
      <trkpt lat="43.84508" lon="6.47568">
        <ele>1142.162</ele>
        <time>2012-04-01T08:17:01Z</time>
      </trkpt>
      <trkpt lat="43.84492" lon="6.47578">
        <ele>1140.228</ele>
        <time>2012-04-01T08:17:10Z</time>
      </trkpt>
      <trkpt lat="43.84481" lon="6.47587">
        <ele>1137.127</ele>
        <time>2012-04-01T08:17:17Z</time>
      </trkpt>
      <trkpt lat="43.84473" lon="6.47599">
        <ele>1138.792</ele>
        <time>2012-04-01T08:17:24Z</time>
      </trkpt>
      <trkpt lat="43.84469" lon="6.47602">
        <ele>1140.416</ele>
        <time>2012-04-01T08:17:27Z</time>
      </trkpt>
      <trkpt lat="43.84464" lon="6.47597">
        <ele>1140.922</ele>
        <time>2012-04-01T08:17:32Z</time>
      </trkpt>
      <trkpt lat="43.84463" lon="6.47591">
        <ele>1140.593</ele>
        <time>2012-04-01T08:17:35Z</time>
      </trkpt>
      <trkpt lat="43.84472" lon="6.47584">
        <ele>1144.346</ele>
        <time>2012-04-01T08:17:42Z</time>
      </trkpt>
      <trkpt lat="43.84473" lon="6.47582">
        <ele>1143.984</ele>
        <time>2012-04-01T08:17:44Z</time>
      </trkpt>
      <trkpt lat="43.84478" lon="6.47577">
        <ele>1143.612</ele>
        <time>2012-04-01T08:17:48Z</time>
      </trkpt>
      <trkpt lat="43.84486" lon="6.47566">
        <ele>1142.941</ele>
        <time>2012-04-01T08:17:56Z</time>
      </trkpt>
      <trkpt lat="43.84499" lon="6.47554">
        <ele>1145.042</ele>
        <time>2012-04-01T08:18:05Z</time>
      </trkpt>
      <trkpt lat="43.84509" lon="6.4754">
        <ele>1143.36</ele>
        <time>2012-04-01T08:18:13Z</time>
      </trkpt>
      <trkpt lat="43.84514" lon="6.47529">
        <ele>1142.601</ele>
        <time>2012-04-01T08:18:19Z</time>
      </trkpt>
      <trkpt lat="43.84521" lon="6.47513">
        <ele>1143.072</ele>
        <time>2012-04-01T08:18:27Z</time>
      </trkpt>
      <trkpt lat="43.84523" lon="6.47497">
        <ele>1143.119</ele>
        <time>2012-04-01T08:18:35Z</time>
      </trkpt>
      <trkpt lat="43.84526" lon="6.47489">
        <ele>1145.542</ele>
        <time>2012-04-01T08:18:40Z</time>
      </trkpt>
      <trkpt lat="43.84531" lon="6.47474">
        <ele>1148.793</ele>
        <time>2012-04-01T08:18:48Z</time>
      </trkpt>
      <trkpt lat="43.84532" lon="6.47469">
        <ele>1151.123</ele>
        <time>2012-04-01T08:18:52Z</time>
      </trkpt>
      <trkpt lat="43.84533" lon="6.47466">
        <ele>1152.954</ele>
        <time>2012-04-01T08:18:54Z</time>
      </trkpt>
      <trkpt lat="43.8454" lon="6.47458">
        <ele>1157.964</ele>
        <time>2012-04-01T08:19:00Z</time>
      </trkpt>
      <trkpt lat="43.84543" lon="6.47457">
        <ele>1159.895</ele>
        <time>2012-04-01T08:19:01Z</time>
      </trkpt>
      <trkpt lat="43.84556" lon="6.47447">
        <ele>1164.192</ele>
        <time>2012-04-01T08:19:09Z</time>
      </trkpt>
      <trkpt lat="43.84566" lon="6.4744">
        <ele>1161.727</ele>
        <time>2012-04-01T08:19:16Z</time>
      </trkpt>
      <trkpt lat="43.84578" lon="6.47435">
        <ele>1156.875</ele>
        <time>2012-04-01T08:19:24Z</time>
      </trkpt>
      <trkpt lat="43.84589" lon="6.47429">
        <ele>1155.078</ele>
        <time>2012-04-01T08:19:31Z</time>
      </trkpt>
      <trkpt lat="43.846" lon="6.47414">
        <ele>1154.053</ele>
        <time>2012-04-01T08:19:39Z</time>
      </trkpt>
      <trkpt lat="43.84607" lon="6.47402">
        <ele>1156.865</ele>
        <time>2012-04-01T08:19:46Z</time>
      </trkpt>
      <trkpt lat="43.84613" lon="6.47391">
        <ele>1158.964</ele>
        <time>2012-04-01T08:19:52Z</time>
      </trkpt>
      <trkpt lat="43.84618" lon="6.47374">
        <ele>1161.134</ele>
        <time>2012-04-01T08:20:00Z</time>
      </trkpt>
      <trkpt lat="43.84618" lon="6.4736">
        <ele>1163.333</ele>
        <time>2012-04-01T08:20:08Z</time>
      </trkpt>
      <trkpt lat="43.8462" lon="6.47349">
        <ele>1164.722</ele>
        <time>2012-04-01T08:20:15Z</time>
      </trkpt>
      <trkpt lat="43.84627" lon="6.47327">
        <ele>1165.809</ele>
        <time>2012-04-01T08:20:26Z</time>
      </trkpt>
      <trkpt lat="43.84632" lon="6.47315">
        <ele>1166.72</ele>
        <time>2012-04-01T08:20:32Z</time>
      </trkpt>
      <trkpt lat="43.84633" lon="6.47313">
        <ele>1166.84</ele>
        <time>2012-04-01T08:20:33Z</time>
      </trkpt>
      <trkpt lat="43.84643" lon="6.47298">
        <ele>1168.803</ele>
        <time>2012-04-01T08:20:40Z</time>
      </trkpt>
      <trkpt lat="43.84651" lon="6.47282">
        <ele>1170.183</ele>
        <time>2012-04-01T08:20:48Z</time>
      </trkpt>
      <trkpt lat="43.84659" lon="6.47272">
        <ele>1174.604</ele>
        <time>2012-04-01T08:20:55Z</time>
      </trkpt>
      <trkpt lat="43.84668" lon="6.4726">
        <ele>1175.891</ele>
        <time>2012-04-01T08:21:01Z</time>
      </trkpt>
      <trkpt lat="43.84682" lon="6.47245">
        <ele>1175.8</ele>
        <time>2012-04-01T08:21:11Z</time>
      </trkpt>
      <trkpt lat="43.84685" lon="6.47242">
        <ele>1176.502</ele>
        <time>2012-04-01T08:21:13Z</time>
      </trkpt>
      <trkpt lat="43.84694" lon="6.47227">
        <ele>1177.852</ele>
        <time>2012-04-01T08:21:21Z</time>
      </trkpt>
      <trkpt lat="43.847" lon="6.47212">
        <ele>1176.54</ele>
        <time>2012-04-01T08:21:29Z</time>
      </trkpt>
      <trkpt lat="43.84704" lon="6.472">
        <ele>1175.098</ele>
        <time>2012-04-01T08:21:35Z</time>
      </trkpt>
      <trkpt lat="43.84708" lon="6.47186">
        <ele>1176.783</ele>
        <time>2012-04-01T08:21:43Z</time>
      </trkpt>
      <trkpt lat="43.84714" lon="6.47167">
        <ele>1174.19</ele>
        <time>2012-04-01T08:21:50Z</time>
      </trkpt>
      <trkpt lat="43.8472" lon="6.47145">
        <ele>1174.51</ele>
        <time>2012-04-01T08:21:59Z</time>
      </trkpt>
      <trkpt lat="43.84722" lon="6.47134">
        <ele>1176.23</ele>
        <time>2012-04-01T08:22:05Z</time>
      </trkpt>
      <trkpt lat="43.84725" lon="6.47119">
        <ele>1177.83</ele>
        <time>2012-04-01T08:22:12Z</time>
      </trkpt>
      <trkpt lat="43.84728" lon="6.47103">
        <ele>1179.629</ele>
        <time>2012-04-01T08:22:19Z</time>
      </trkpt>
      <trkpt lat="43.84732" lon="6.47085">
        <ele>1178.435</ele>
        <time>2012-04-01T08:22:26Z</time>
      </trkpt>
      <trkpt lat="43.84732" lon="6.47068">
        <ele>1170.711</ele>
        <time>2012-04-01T08:22:32Z</time>
      </trkpt>
      <trkpt lat="43.84736" lon="6.4705">
        <ele>1172.956</ele>
        <time>2012-04-01T08:22:39Z</time>
      </trkpt>
      <trkpt lat="43.84737" lon="6.47047">
        <ele>1173.006</ele>
        <time>2012-04-01T08:22:40Z</time>
      </trkpt>
      <trkpt lat="43.84743" lon="6.47024">
        <ele>1175.788</ele>
        <time>2012-04-01T08:22:50Z</time>
      </trkpt>
      <trkpt lat="43.84746" lon="6.47008">
        <ele>1178.508</ele>
        <time>2012-04-01T08:22:58Z</time>
      </trkpt>
      <trkpt lat="43.8475" lon="6.4699">
        <ele>1181.158</ele>
        <time>2012-04-01T08:23:06Z</time>
      </trkpt>
      <trkpt lat="43.84754" lon="6.46973">
        <ele>1186.15</ele>
        <time>2012-04-01T08:23:14Z</time>
      </trkpt>
      <trkpt lat="43.84756" lon="6.4696">
        <ele>1189.028</ele>
        <time>2012-04-01T08:23:21Z</time>
      </trkpt>
      <trkpt lat="43.84759" lon="6.46948">
        <ele>1195.052</ele>
        <time>2012-04-01T08:23:28Z</time>
      </trkpt>
      <trkpt lat="43.84762" lon="6.46929">
        <ele>1196.368</ele>
        <time>2012-04-01T08:23:36Z</time>
      </trkpt>
      <trkpt lat="43.84766" lon="6.46909">
        <ele>1195.936</ele>
        <time>2012-04-01T08:23:43Z</time>
      </trkpt>
      <trkpt lat="43.84767" lon="6.46894">
        <ele>1196.027</ele>
        <time>2012-04-01T08:23:50Z</time>
      </trkpt>
      <trkpt lat="43.84767" lon="6.46889">
        <ele>1195.166</ele>
        <time>2012-04-01T08:23:52Z</time>
      </trkpt>
      <trkpt lat="43.84767" lon="6.46884">
        <ele>1194.636</ele>
        <time>2012-04-01T08:23:55Z</time>
      </trkpt>
      <trkpt lat="43.84768" lon="6.46867">
        <ele>1193.564</ele>
        <time>2012-04-01T08:24:03Z</time>
      </trkpt>
      <trkpt lat="43.84775" lon="6.46851">
        <ele>1199.412</ele>
        <time>2012-04-01T08:24:10Z</time>
      </trkpt>
      <trkpt lat="43.8478" lon="6.46834">
        <ele>1202.541</ele>
        <time>2012-04-01T08:24:17Z</time>
      </trkpt>
      <trkpt lat="43.84783" lon="6.46824">
        <ele>1202.998</ele>
        <time>2012-04-01T08:24:23Z</time>
      </trkpt>
      <trkpt lat="43.84791" lon="6.46811">
        <ele>1206.709</ele>
        <time>2012-04-01T08:24:31Z</time>
      </trkpt>
      <trkpt lat="43.84796" lon="6.468">
        <ele>1210.48</ele>
        <time>2012-04-01T08:24:37Z</time>
      </trkpt>
      <trkpt lat="43.848" lon="6.46791">
        <ele>1214.53</ele>
        <time>2012-04-01T08:24:43Z</time>
      </trkpt>
      <trkpt lat="43.84809" lon="6.46777">
        <ele>1213.867</ele>
        <time>2012-04-01T08:24:50Z</time>
      </trkpt>
      <trkpt lat="43.84815" lon="6.46759">
        <ele>1209.652</ele>
        <time>2012-04-01T08:24:55Z</time>
      </trkpt>
      <trkpt lat="43.84821" lon="6.46744">
        <ele>1209.414</ele>
        <time>2012-04-01T08:25:02Z</time>
      </trkpt>
      <trkpt lat="43.84828" lon="6.46731">
        <ele>1211.116</ele>
        <time>2012-04-01T08:25:09Z</time>
      </trkpt>
      <trkpt lat="43.84836" lon="6.46718">
        <ele>1215.622</ele>
        <time>2012-04-01T08:25:16Z</time>
      </trkpt>
      <trkpt lat="43.84841" lon="6.46711">
        <ele>1219.412</ele>
        <time>2012-04-01T08:25:22Z</time>
      </trkpt>
      <trkpt lat="43.84852" lon="6.46697">
        <ele>1218.626</ele>
        <time>2012-04-01T08:25:29Z</time>
      </trkpt>
      <trkpt lat="43.84862" lon="6.4669">
        <ele>1216.856</ele>
        <time>2012-04-01T08:25:35Z</time>
      </trkpt>
      <trkpt lat="43.84873" lon="6.46687">
        <ele>1216.177</ele>
        <time>2012-04-01T08:25:42Z</time>
      </trkpt>
      <trkpt lat="43.84885" lon="6.46687">
        <ele>1222.133</ele>
        <time>2012-04-01T08:25:51Z</time>
      </trkpt>
      <trkpt lat="43.849" lon="6.46687">
        <ele>1221.579</ele>
        <time>2012-04-01T08:26:00Z</time>
      </trkpt>
      <trkpt lat="43.84915" lon="6.46688">
        <ele>1222.211</ele>
        <time>2012-04-01T08:26:09Z</time>
      </trkpt>
      <trkpt lat="43.84928" lon="6.46691">
        <ele>1224.251</ele>
        <time>2012-04-01T08:26:17Z</time>
      </trkpt>
      <trkpt lat="43.84944" lon="6.46692">
        <ele>1221.798</ele>
        <time>2012-04-01T08:26:26Z</time>
      </trkpt>
      <trkpt lat="43.84957" lon="6.46692">
        <ele>1219.357</ele>
        <time>2012-04-01T08:26:33Z</time>
      </trkpt>
      <trkpt lat="43.84972" lon="6.46696">
        <ele>1219.579</ele>
        <time>2012-04-01T08:26:42Z</time>
      </trkpt>
      <trkpt lat="43.84974" lon="6.46698">
        <ele>1221.009</ele>
        <time>2012-04-01T08:26:44Z</time>
      </trkpt>
      <trkpt lat="43.84986" lon="6.467">
        <ele>1219.518</ele>
        <time>2012-04-01T08:26:50Z</time>
      </trkpt>
      <trkpt lat="43.85" lon="6.46704">
        <ele>1224.091</ele>
        <time>2012-04-01T08:26:58Z</time>
      </trkpt>
      <trkpt lat="43.85013" lon="6.46705">
        <ele>1228.545</ele>
        <time>2012-04-01T08:27:06Z</time>
      </trkpt>
      <trkpt lat="43.85025" lon="6.46705">
        <ele>1234.405</ele>
        <time>2012-04-01T08:27:14Z</time>
      </trkpt>
      <trkpt lat="43.85038" lon="6.46701">
        <ele>1233.24</ele>
        <time>2012-04-01T08:27:22Z</time>
      </trkpt>
      <trkpt lat="43.8505" lon="6.46698">
        <ele>1232.899</ele>
        <time>2012-04-01T08:27:29Z</time>
      </trkpt>
      <trkpt lat="43.85063" lon="6.46696">
        <ele>1233.459</ele>
        <time>2012-04-01T08:27:37Z</time>
      </trkpt>
      <trkpt lat="43.85075" lon="6.46694">
        <ele>1234.96</ele>
        <time>2012-04-01T08:27:44Z</time>
      </trkpt>
      <trkpt lat="43.85089" lon="6.46692">
        <ele>1235.391</ele>
        <time>2012-04-01T08:27:52Z</time>
      </trkpt>
      <trkpt lat="43.85102" lon="6.46688">
        <ele>1235.71</ele>
        <time>2012-04-01T08:27:59Z</time>
      </trkpt>
      <trkpt lat="43.85115" lon="6.46687">
        <ele>1235.989</ele>
        <time>2012-04-01T08:28:06Z</time>
      </trkpt>
      <trkpt lat="43.8513" lon="6.46682">
        <ele>1237.44</ele>
        <time>2012-04-01T08:28:14Z</time>
      </trkpt>
      <trkpt lat="43.85148" lon="6.46678">
        <ele>1235.75</ele>
        <time>2012-04-01T08:28:23Z</time>
      </trkpt>
      <trkpt lat="43.85167" lon="6.46677">
        <ele>1237.971</ele>
        <time>2012-04-01T08:28:33Z</time>
      </trkpt>
      <trkpt lat="43.85181" lon="6.46677">
        <ele>1240.091</ele>
        <time>2012-04-01T08:28:41Z</time>
      </trkpt>
      <trkpt lat="43.85198" lon="6.46675">
        <ele>1240.041</ele>
        <time>2012-04-01T08:28:49Z</time>
      </trkpt>
      <trkpt lat="43.85209" lon="6.46672">
        <ele>1240.76</ele>
        <time>2012-04-01T08:28:56Z</time>
      </trkpt>
      <trkpt lat="43.85224" lon="6.46668">
        <ele>1241.49</ele>
        <time>2012-04-01T08:29:04Z</time>
      </trkpt>
      <trkpt lat="43.8524" lon="6.46663">
        <ele>1242.28</ele>
        <time>2012-04-01T08:29:13Z</time>
      </trkpt>
      <trkpt lat="43.85252" lon="6.46659">
        <ele>1242.079</ele>
        <time>2012-04-01T08:29:20Z</time>
      </trkpt>
      <trkpt lat="43.85264" lon="6.4666">
        <ele>1245.001</ele>
        <time>2012-04-01T08:29:27Z</time>
      </trkpt>
      <trkpt lat="43.85278" lon="6.46659">
        <ele>1248.552</ele>
        <time>2012-04-01T08:29:35Z</time>
      </trkpt>
      <trkpt lat="43.85283" lon="6.46655">
        <ele>1248.791</ele>
        <time>2012-04-01T08:29:40Z</time>
      </trkpt>
      <trkpt lat="43.85284" lon="6.46654">
        <ele>1248.869</ele>
        <time>2012-04-01T08:29:45Z</time>
      </trkpt>
      <trkpt lat="43.85286" lon="6.46653">
        <ele>1246.026</ele>
        <time>2012-04-01T08:29:54Z</time>
      </trkpt>
      <trkpt lat="43.85284" lon="6.46665">
        <ele>1249.83</ele>
        <time>2012-04-01T08:34:37Z</time>
      </trkpt>
      <trkpt lat="43.85285" lon="6.46657">
        <ele>1249.009</ele>
        <time>2012-04-01T08:34:56Z</time>
      </trkpt>
      <trkpt lat="43.85282" lon="6.46653">
        <ele>1249.739</ele>
        <time>2012-04-01T08:35:00Z</time>
      </trkpt>
      <trkpt lat="43.85272" lon="6.46655">
        <ele>1258.228</ele>
        <time>2012-04-01T08:35:09Z</time>
      </trkpt>
      <trkpt lat="43.85265" lon="6.46655">
        <ele>1259.887</ele>
        <time>2012-04-01T08:35:13Z</time>
      </trkpt>
      <trkpt lat="43.85257" lon="6.46653">
        <ele>1259.984</ele>
        <time>2012-04-01T08:35:18Z</time>
      </trkpt>
      <trkpt lat="43.85247" lon="6.46653">
        <ele>1267.52</ele>
        <time>2012-04-01T08:35:25Z</time>
      </trkpt>
      <trkpt lat="43.85235" lon="6.46649">
        <ele>1272.076</ele>
        <time>2012-04-01T08:35:34Z</time>
      </trkpt>
      <trkpt lat="43.85225" lon="6.46646">
        <ele>1271.954</ele>
        <time>2012-04-01T08:35:40Z</time>
      </trkpt>
      <trkpt lat="43.85211" lon="6.46643">
        <ele>1272.731</ele>
        <time>2012-04-01T08:35:48Z</time>
      </trkpt>
      <trkpt lat="43.85208" lon="6.46642">
        <ele>1272.349</ele>
        <time>2012-04-01T08:35:50Z</time>
      </trkpt>
      <trkpt lat="43.85196" lon="6.46638">
        <ele>1274.632</ele>
        <time>2012-04-01T08:35:58Z</time>
      </trkpt>
      <trkpt lat="43.85183" lon="6.46633">
        <ele>1275.602</ele>
        <time>2012-04-01T08:36:06Z</time>
      </trkpt>
      <trkpt lat="43.85177" lon="6.46625">
        <ele>1275.98</ele>
        <time>2012-04-01T08:36:13Z</time>
      </trkpt>
      <trkpt lat="43.85169" lon="6.46618">
        <ele>1274.58</ele>
        <time>2012-04-01T08:36:20Z</time>
      </trkpt>
      <trkpt lat="43.85161" lon="6.46608">
        <ele>1274.431</ele>
        <time>2012-04-01T08:36:27Z</time>
      </trkpt>
      <trkpt lat="43.8516" lon="6.46608">
        <ele>1274.851</ele>
        <time>2012-04-01T08:36:28Z</time>
      </trkpt>
      <trkpt lat="43.85151" lon="6.46602">
        <ele>1279.034</ele>
        <time>2012-04-01T08:36:37Z</time>
      </trkpt>
      <trkpt lat="43.85145" lon="6.46596">
        <ele>1281.343</ele>
        <time>2012-04-01T08:36:43Z</time>
      </trkpt>
      <trkpt lat="43.85135" lon="6.46593">
        <ele>1283.081</ele>
        <time>2012-04-01T08:36:51Z</time>
      </trkpt>
      <trkpt lat="43.85126" lon="6.46586">
        <ele>1283.589</ele>
        <time>2012-04-01T08:37:00Z</time>
      </trkpt>
      <trkpt lat="43.85117" lon="6.46583">
        <ele>1285.782</ele>
        <time>2012-04-01T08:37:09Z</time>
      </trkpt>
      <trkpt lat="43.8511" lon="6.4658">
        <ele>1286.922</ele>
        <time>2012-04-01T08:37:15Z</time>
      </trkpt>
      <trkpt lat="43.85099" lon="6.46576">
        <ele>1285.56</ele>
        <time>2012-04-01T08:37:23Z</time>
      </trkpt>
      <trkpt lat="43.85092" lon="6.46569">
        <ele>1286.979</ele>
        <time>2012-04-01T08:37:30Z</time>
      </trkpt>
      <trkpt lat="43.85086" lon="6.46567">
        <ele>1288.691</ele>
        <time>2012-04-01T08:37:35Z</time>
      </trkpt>
      <trkpt lat="43.85081" lon="6.46564">
        <ele>1289.882</ele>
        <time>2012-04-01T08:37:39Z</time>
      </trkpt>
      <trkpt lat="43.85073" lon="6.46562">
        <ele>1291.422</ele>
        <time>2012-04-01T08:37:44Z</time>
      </trkpt>
      <trkpt lat="43.85065" lon="6.46555">
        <ele>1294.155</ele>
        <time>2012-04-01T08:37:51Z</time>
      </trkpt>
      <trkpt lat="43.85058" lon="6.46547">
        <ele>1293.784</ele>
        <time>2012-04-01T08:37:58Z</time>
      </trkpt>
      <trkpt lat="43.85049" lon="6.46544">
        <ele>1295.854</ele>
        <time>2012-04-01T08:38:05Z</time>
      </trkpt>
      <trkpt lat="43.85042" lon="6.4654">
        <ele>1297.403</ele>
        <time>2012-04-01T08:38:11Z</time>
      </trkpt>
      <trkpt lat="43.85037" lon="6.46538">
        <ele>1298.303</ele>
        <time>2012-04-01T08:38:14Z</time>
      </trkpt>
      <trkpt lat="43.85029" lon="6.46537">
        <ele>1300.473</ele>
        <time>2012-04-01T08:38:20Z</time>
      </trkpt>
      <trkpt lat="43.85025" lon="6.46535">
        <ele>1301.248</ele>
        <time>2012-04-01T08:38:26Z</time>
      </trkpt>
      <trkpt lat="43.8502" lon="6.46533">
        <ele>1291.836</ele>
        <time>2012-04-01T08:39:05Z</time>
      </trkpt>
      <trkpt lat="43.85022" lon="6.46529">
        <ele>1288.564</ele>
        <time>2012-04-01T08:39:26Z</time>
      </trkpt>
      <trkpt lat="43.85024" lon="6.46531">
        <ele>1285.606</ele>
        <time>2012-04-01T08:41:43Z</time>
      </trkpt>
      <trkpt lat="43.85035" lon="6.46529">
        <ele>1283.415</ele>
        <time>2012-04-01T08:41:49Z</time>
      </trkpt>
      <trkpt lat="43.85046" lon="6.46529">
        <ele>1284.42</ele>
        <time>2012-04-01T08:41:55Z</time>
      </trkpt>
      <trkpt lat="43.85059" lon="6.46526">
        <ele>1284.871</ele>
        <time>2012-04-01T08:42:03Z</time>
      </trkpt>
      <trkpt lat="43.8507" lon="6.46525">
        <ele>1287.713</ele>
        <time>2012-04-01T08:42:10Z</time>
      </trkpt>
      <trkpt lat="43.85089" lon="6.46526">
        <ele>1289.111</ele>
        <time>2012-04-01T08:42:21Z</time>
      </trkpt>
      <trkpt lat="43.851" lon="6.46527">
        <ele>1290.541</ele>
        <time>2012-04-01T08:42:28Z</time>
      </trkpt>
      <trkpt lat="43.85114" lon="6.46525">
        <ele>1290.929</ele>
        <time>2012-04-01T08:42:37Z</time>
      </trkpt>
      <trkpt lat="43.8513" lon="6.46522">
        <ele>1290.547</ele>
        <time>2012-04-01T08:42:47Z</time>
      </trkpt>
      <trkpt lat="43.85142" lon="6.46521">
        <ele>1291.389</ele>
        <time>2012-04-01T08:42:55Z</time>
      </trkpt>
      <trkpt lat="43.85154" lon="6.46519">
        <ele>1291.839</ele>
        <time>2012-04-01T08:43:02Z</time>
      </trkpt>
      <trkpt lat="43.85166" lon="6.46518">
        <ele>1292.698</ele>
        <time>2012-04-01T08:43:10Z</time>
      </trkpt>
      <trkpt lat="43.85179" lon="6.46516">
        <ele>1295.541</ele>
        <time>2012-04-01T08:43:18Z</time>
      </trkpt>
      <trkpt lat="43.8519" lon="6.46513">
        <ele>1297.262</ele>
        <time>2012-04-01T08:43:26Z</time>
      </trkpt>
      <trkpt lat="43.852" lon="6.4651">
        <ele>1299.382</ele>
        <time>2012-04-01T08:43:33Z</time>
      </trkpt>
      <trkpt lat="43.85212" lon="6.46505">
        <ele>1301.914</ele>
        <time>2012-04-01T08:43:41Z</time>
      </trkpt>
      <trkpt lat="43.85224" lon="6.465">
        <ele>1304.794</ele>
        <time>2012-04-01T08:43:49Z</time>
      </trkpt>
      <trkpt lat="43.85239" lon="6.46495">
        <ele>1308.175</ele>
        <time>2012-04-01T08:43:59Z</time>
      </trkpt>
      <trkpt lat="43.85252" lon="6.46491">
        <ele>1310.924</ele>
        <time>2012-04-01T08:44:08Z</time>
      </trkpt>
      <trkpt lat="43.85262" lon="6.46486">
        <ele>1312.986</ele>
        <time>2012-04-01T08:44:15Z</time>
      </trkpt>
      <trkpt lat="43.85265" lon="6.46476">
        <ele>1315.908</ele>
        <time>2012-04-01T08:44:21Z</time>
      </trkpt>
      <trkpt lat="43.8526" lon="6.46472">
        <ele>1314.902</ele>
        <time>2012-04-01T08:44:27Z</time>
      </trkpt>
      <trkpt lat="43.85259" lon="6.46473">
        <ele>1315.572</ele>
        <time>2012-04-01T08:44:29Z</time>
      </trkpt>
      <trkpt lat="43.85252" lon="6.46471">
        <ele>1316.012</ele>
        <time>2012-04-01T08:44:38Z</time>
      </trkpt>
      <trkpt lat="43.85243" lon="6.46471">
        <ele>1318.814</ele>
        <time>2012-04-01T08:44:46Z</time>
      </trkpt>
      <trkpt lat="43.85231" lon="6.46471">
        <ele>1321.403</ele>
        <time>2012-04-01T08:44:53Z</time>
      </trkpt>
      <trkpt lat="43.85221" lon="6.46469">
        <ele>1323.043</ele>
        <time>2012-04-01T08:45:01Z</time>
      </trkpt>
      <trkpt lat="43.8522" lon="6.46469">
        <ele>1323.383</ele>
        <time>2012-04-01T08:45:02Z</time>
      </trkpt>
      <trkpt lat="43.85214" lon="6.4647">
        <ele>1324.804</ele>
        <time>2012-04-01T08:45:06Z</time>
      </trkpt>
      <trkpt lat="43.8521" lon="6.4647">
        <ele>1326.666</ele>
        <time>2012-04-01T08:45:10Z</time>
      </trkpt>
      <trkpt lat="43.852" lon="6.46469">
        <ele>1327.843</ele>
        <time>2012-04-01T08:45:17Z</time>
      </trkpt>
      <trkpt lat="43.8519" lon="6.46466">
        <ele>1330.114</ele>
        <time>2012-04-01T08:45:24Z</time>
      </trkpt>
      <trkpt lat="43.85179" lon="6.46461">
        <ele>1330.301</ele>
        <time>2012-04-01T08:45:31Z</time>
      </trkpt>
      <trkpt lat="43.85167" lon="6.46454">
        <ele>1331.322</ele>
        <time>2012-04-01T08:45:39Z</time>
      </trkpt>
      <trkpt lat="43.85154" lon="6.46449">
        <ele>1332.513</ele>
        <time>2012-04-01T08:45:48Z</time>
      </trkpt>
      <trkpt lat="43.85144" lon="6.46446">
        <ele>1333.753</ele>
        <time>2012-04-01T08:45:55Z</time>
      </trkpt>
      <trkpt lat="43.85131" lon="6.46441">
        <ele>1335.794</ele>
        <time>2012-04-01T08:46:04Z</time>
      </trkpt>
      <trkpt lat="43.85121" lon="6.46438">
        <ele>1338.303</ele>
        <time>2012-04-01T08:46:11Z</time>
      </trkpt>
      <trkpt lat="43.85107" lon="6.4643">
        <ele>1339.05</ele>
        <time>2012-04-01T08:46:21Z</time>
      </trkpt>
      <trkpt lat="43.85093" lon="6.46421">
        <ele>1342.003</ele>
        <time>2012-04-01T08:46:31Z</time>
      </trkpt>
      <trkpt lat="43.85083" lon="6.46415">
        <ele>1346.088</ele>
        <time>2012-04-01T08:46:39Z</time>
      </trkpt>
      <trkpt lat="43.85073" lon="6.46411">
        <ele>1347.733</ele>
        <time>2012-04-01T08:46:46Z</time>
      </trkpt>
      <trkpt lat="43.85061" lon="6.46409">
        <ele>1352.857</ele>
        <time>2012-04-01T08:46:54Z</time>
      </trkpt>
      <trkpt lat="43.85052" lon="6.46404">
        <ele>1356.626</ele>
        <time>2012-04-01T08:47:01Z</time>
      </trkpt>
      <trkpt lat="43.85039" lon="6.464">
        <ele>1356.823</ele>
        <time>2012-04-01T08:47:09Z</time>
      </trkpt>
      <trkpt lat="43.85027" lon="6.46397">
        <ele>1357.223</ele>
        <time>2012-04-01T08:47:16Z</time>
      </trkpt>
      <trkpt lat="43.85013" lon="6.46389">
        <ele>1362.296</ele>
        <time>2012-04-01T08:47:25Z</time>
      </trkpt>
      <trkpt lat="43.85002" lon="6.46384">
        <ele>1364.806</ele>
        <time>2012-04-01T08:47:32Z</time>
      </trkpt>
      <trkpt lat="43.8499" lon="6.46378">
        <ele>1367.638</ele>
        <time>2012-04-01T08:47:40Z</time>
      </trkpt>
      <trkpt lat="43.8499" lon="6.46376">
        <ele>1368.307</ele>
        <time>2012-04-01T08:47:41Z</time>
      </trkpt>
      <trkpt lat="43.84985" lon="6.46372">
        <ele>1369.626</ele>
        <time>2012-04-01T08:47:45Z</time>
      </trkpt>
      <trkpt lat="43.84973" lon="6.46362">
        <ele>1372.29</ele>
        <time>2012-04-01T08:47:54Z</time>
      </trkpt>
      <trkpt lat="43.84963" lon="6.46354">
        <ele>1371.352</ele>
        <time>2012-04-01T08:48:01Z</time>
      </trkpt>
      <trkpt lat="43.84952" lon="6.46345">
        <ele>1371.78</ele>
        <time>2012-04-01T08:48:09Z</time>
      </trkpt>
      <trkpt lat="43.84945" lon="6.4634">
        <ele>1374.754</ele>
        <time>2012-04-01T08:48:15Z</time>
      </trkpt>
      <trkpt lat="43.84934" lon="6.46326">
        <ele>1374.531</ele>
        <time>2012-04-01T08:48:24Z</time>
      </trkpt>
      <trkpt lat="43.84929" lon="6.46321">
        <ele>1374.09</ele>
        <time>2012-04-01T08:48:28Z</time>
      </trkpt>
      <trkpt lat="43.84916" lon="6.46309">
        <ele>1376.352</ele>
        <time>2012-04-01T08:48:38Z</time>
      </trkpt>
      <trkpt lat="43.84908" lon="6.46301">
        <ele>1377.131</ele>
        <time>2012-04-01T08:48:44Z</time>
      </trkpt>
      <trkpt lat="43.84901" lon="6.46298">
        <ele>1378.282</ele>
        <time>2012-04-01T08:48:48Z</time>
      </trkpt>
      <trkpt lat="43.84895" lon="6.46292">
        <ele>1378.871</ele>
        <time>2012-04-01T08:48:53Z</time>
      </trkpt>
      <trkpt lat="43.84888" lon="6.46284">
        <ele>1379.499</ele>
        <time>2012-04-01T08:48:59Z</time>
      </trkpt>
      <trkpt lat="43.84878" lon="6.46274">
        <ele>1382.843</ele>
        <time>2012-04-01T08:49:07Z</time>
      </trkpt>
      <trkpt lat="43.84864" lon="6.4627">
        <ele>1385.684</ele>
        <time>2012-04-01T08:49:15Z</time>
      </trkpt>
      <trkpt lat="43.84856" lon="6.46263">
        <ele>1386.863</ele>
        <time>2012-04-01T08:49:22Z</time>
      </trkpt>
      <trkpt lat="43.84844" lon="6.46257">
        <ele>1386.721</ele>
        <time>2012-04-01T08:49:30Z</time>
      </trkpt>
      <trkpt lat="43.8484" lon="6.46257">
        <ele>1387.802</ele>
        <time>2012-04-01T08:49:32Z</time>
      </trkpt>
      <trkpt lat="43.84833" lon="6.46254">
        <ele>1389.252</ele>
        <time>2012-04-01T08:49:37Z</time>
      </trkpt>
      <trkpt lat="43.84822" lon="6.46254">
        <ele>1389.43</ele>
        <time>2012-04-01T08:49:45Z</time>
      </trkpt>
      <trkpt lat="43.84812" lon="6.46258">
        <ele>1388.988</ele>
        <time>2012-04-01T08:49:52Z</time>
      </trkpt>
      <trkpt lat="43.84803" lon="6.46264">
        <ele>1388.636</ele>
        <time>2012-04-01T08:49:58Z</time>
      </trkpt>
      <trkpt lat="43.84796" lon="6.4627">
        <ele>1388.958</ele>
        <time>2012-04-01T08:50:04Z</time>
      </trkpt>
      <trkpt lat="43.84786" lon="6.46279">
        <ele>1389.179</ele>
        <time>2012-04-01T08:50:12Z</time>
      </trkpt>
      <trkpt lat="43.84776" lon="6.46291">
        <ele>1390.57</ele>
        <time>2012-04-01T08:50:19Z</time>
      </trkpt>
      <trkpt lat="43.84767" lon="6.46304">
        <ele>1390.017</ele>
        <time>2012-04-01T08:50:26Z</time>
      </trkpt>
      <trkpt lat="43.84759" lon="6.46314">
        <ele>1389.429</ele>
        <time>2012-04-01T08:50:31Z</time>
      </trkpt>
      <trkpt lat="43.8475" lon="6.46323">
        <ele>1390.8</ele>
        <time>2012-04-01T08:50:37Z</time>
      </trkpt>
      <trkpt lat="43.84739" lon="6.46334">
        <ele>1390.549</ele>
        <time>2012-04-01T08:50:44Z</time>
      </trkpt>
      <trkpt lat="43.8473" lon="6.46345">
        <ele>1390.399</ele>
        <time>2012-04-01T08:50:50Z</time>
      </trkpt>
      <trkpt lat="43.84721" lon="6.46359">
        <ele>1393.672</ele>
        <time>2012-04-01T08:50:58Z</time>
      </trkpt>
      <trkpt lat="43.84713" lon="6.46369">
        <ele>1393.417</ele>
        <time>2012-04-01T08:51:05Z</time>
      </trkpt>
      <trkpt lat="43.84708" lon="6.46382">
        <ele>1397.941</ele>
        <time>2012-04-01T08:51:12Z</time>
      </trkpt>
      <trkpt lat="43.84702" lon="6.46396">
        <ele>1399.851</ele>
        <time>2012-04-01T08:51:20Z</time>
      </trkpt>
      <trkpt lat="43.84696" lon="6.46407">
        <ele>1400.968</ele>
        <time>2012-04-01T08:51:27Z</time>
      </trkpt>
      <trkpt lat="43.84694" lon="6.46407">
        <ele>1401.119</ele>
        <time>2012-04-01T08:51:28Z</time>
      </trkpt>
      <trkpt lat="43.84681" lon="6.464">
        <ele>1398.779</ele>
        <time>2012-04-01T08:51:37Z</time>
      </trkpt>
      <trkpt lat="43.84678" lon="6.46388">
        <ele>1397.758</ele>
        <time>2012-04-01T08:51:44Z</time>
      </trkpt>
      <trkpt lat="43.84676" lon="6.46378">
        <ele>1398.917</ele>
        <time>2012-04-01T08:51:50Z</time>
      </trkpt>
      <trkpt lat="43.84674" lon="6.46373">
        <ele>1398.237</ele>
        <time>2012-04-01T08:51:56Z</time>
      </trkpt>
      <trkpt lat="43.84668" lon="6.46369">
        <ele>1404.687</ele>
        <time>2012-04-01T08:56:59Z</time>
      </trkpt>
      <trkpt lat="43.84668" lon="6.46373">
        <ele>1402.706</ele>
        <time>2012-04-01T08:57:10Z</time>
      </trkpt>
      <trkpt lat="43.84668" lon="6.46375">
        <ele>1396.244</ele>
        <time>2012-04-01T08:57:33Z</time>
      </trkpt>
      <trkpt lat="43.8467" lon="6.46369">
        <ele>1396.978</ele>
        <time>2012-04-01T08:57:37Z</time>
      </trkpt>
      <trkpt lat="43.84674" lon="6.46352">
        <ele>1400.322</ele>
        <time>2012-04-01T08:57:44Z</time>
      </trkpt>
      <trkpt lat="43.84675" lon="6.46336">
        <ele>1405.211</ele>
        <time>2012-04-01T08:57:52Z</time>
      </trkpt>
      <trkpt lat="43.84675" lon="6.46334">
        <ele>1405.971</ele>
        <time>2012-04-01T08:57:53Z</time>
      </trkpt>
      <trkpt lat="43.84673" lon="6.46328">
        <ele>1407.48</ele>
        <time>2012-04-01T08:57:57Z</time>
      </trkpt>
      <trkpt lat="43.84677" lon="6.46318">
        <ele>1408.799</ele>
        <time>2012-04-01T08:58:04Z</time>
      </trkpt>
      <trkpt lat="43.8468" lon="6.46316">
        <ele>1409.759</ele>
        <time>2012-04-01T08:58:09Z</time>
      </trkpt>
      <trkpt lat="43.8468" lon="6.46315">
        <ele>1409.878</ele>
        <time>2012-04-01T08:58:10Z</time>
      </trkpt>
      <trkpt lat="43.84683" lon="6.46304">
        <ele>1413.241</ele>
        <time>2012-04-01T08:58:19Z</time>
      </trkpt>
      <trkpt lat="43.84682" lon="6.463">
        <ele>1414.438</ele>
        <time>2012-04-01T08:58:24Z</time>
      </trkpt>
      <trkpt lat="43.84686" lon="6.46293">
        <ele>1415.83</ele>
        <time>2012-04-01T08:58:31Z</time>
      </trkpt>
      <trkpt lat="43.8469" lon="6.46282">
        <ele>1415.867</ele>
        <time>2012-04-01T08:58:39Z</time>
      </trkpt>
      <trkpt lat="43.84694" lon="6.46273">
        <ele>1417.071</ele>
        <time>2012-04-01T08:58:46Z</time>
      </trkpt>
      <trkpt lat="43.84701" lon="6.46267">
        <ele>1419.273</ele>
        <time>2012-04-01T08:58:54Z</time>
      </trkpt>
      <trkpt lat="43.84707" lon="6.46259">
        <ele>1420.85</ele>
        <time>2012-04-01T08:59:03Z</time>
      </trkpt>
      <trkpt lat="43.84712" lon="6.46251">
        <ele>1423.401</ele>
        <time>2012-04-01T08:59:10Z</time>
      </trkpt>
      <trkpt lat="43.84718" lon="6.46242">
        <ele>1422.759</ele>
        <time>2012-04-01T08:59:17Z</time>
      </trkpt>
      <trkpt lat="43.84722" lon="6.46233">
        <ele>1422.409</ele>
        <time>2012-04-01T08:59:23Z</time>
      </trkpt>
      <trkpt lat="43.84723" lon="6.46226">
        <ele>1422.398</ele>
        <time>2012-04-01T08:59:28Z</time>
      </trkpt>
      <trkpt lat="43.84724" lon="6.46224">
        <ele>1423.26</ele>
        <time>2012-04-01T08:59:30Z</time>
      </trkpt>
      <trkpt lat="43.84726" lon="6.46218">
        <ele>1423.436</ele>
        <time>2012-04-01T08:59:34Z</time>
      </trkpt>
      <trkpt lat="43.84729" lon="6.46211">
        <ele>1422.856</ele>
        <time>2012-04-01T08:59:41Z</time>
      </trkpt>
      <trkpt lat="43.84732" lon="6.46204">
        <ele>1420.814</ele>
        <time>2012-04-01T08:59:48Z</time>
      </trkpt>
      <trkpt lat="43.84739" lon="6.46191">
        <ele>1421.499</ele>
        <time>2012-04-01T08:59:55Z</time>
      </trkpt>
      <trkpt lat="43.8475" lon="6.46173">
        <ele>1421.729</ele>
        <time>2012-04-01T09:00:02Z</time>
      </trkpt>
      <trkpt lat="43.84763" lon="6.46154">
        <ele>1422.366</ele>
        <time>2012-04-01T09:00:10Z</time>
      </trkpt>
      <trkpt lat="43.84764" lon="6.46152">
        <ele>1423.266</ele>
        <time>2012-04-01T09:00:14Z</time>
      </trkpt>
      <trkpt lat="43.84769" lon="6.46151">
        <ele>1427.748</ele>
        <time>2012-04-01T09:01:31Z</time>
      </trkpt>
      <trkpt lat="43.84776" lon="6.46137">
        <ele>1428.259</ele>
        <time>2012-04-01T09:01:36Z</time>
      </trkpt>
      <trkpt lat="43.84786" lon="6.46115">
        <ele>1429.789</ele>
        <time>2012-04-01T09:01:43Z</time>
      </trkpt>
      <trkpt lat="43.84791" lon="6.46094">
        <ele>1430.217</ele>
        <time>2012-04-01T09:01:49Z</time>
      </trkpt>
      <trkpt lat="43.84792" lon="6.46089">
        <ele>1430.407</ele>
        <time>2012-04-01T09:01:53Z</time>
      </trkpt>
      <trkpt lat="43.84794" lon="6.46083">
        <ele>1429.394</ele>
        <time>2012-04-01T09:01:58Z</time>
      </trkpt>
      <trkpt lat="43.84797" lon="6.46076">
        <ele>1429.065</ele>
        <time>2012-04-01T09:02:02Z</time>
      </trkpt>
      <trkpt lat="43.84799" lon="6.46061">
        <ele>1429.726</ele>
        <time>2012-04-01T09:02:08Z</time>
      </trkpt>
      <trkpt lat="43.84801" lon="6.46041">
        <ele>1429.211</ele>
        <time>2012-04-01T09:02:13Z</time>
      </trkpt>
      <trkpt lat="43.84802" lon="6.46012">
        <ele>1428.997</ele>
        <time>2012-04-01T09:02:18Z</time>
      </trkpt>
      <trkpt lat="43.84797" lon="6.45989">
        <ele>1430.989</ele>
        <time>2012-04-01T09:02:25Z</time>
      </trkpt>
      <trkpt lat="43.84789" lon="6.45971">
        <ele>1430.936</ele>
        <time>2012-04-01T09:02:29Z</time>
      </trkpt>
      <trkpt lat="43.84779" lon="6.45946">
        <ele>1430.545</ele>
        <time>2012-04-01T09:02:34Z</time>
      </trkpt>
      <trkpt lat="43.84773" lon="6.4593">
        <ele>1431.559</ele>
        <time>2012-04-01T09:02:38Z</time>
      </trkpt>
      <trkpt lat="43.84768" lon="6.45912">
        <ele>1432.489</ele>
        <time>2012-04-01T09:02:43Z</time>
      </trkpt>
      <trkpt lat="43.84764" lon="6.45893">
        <ele>1433.829</ele>
        <time>2012-04-01T09:02:49Z</time>
      </trkpt>
      <trkpt lat="43.84762" lon="6.45876">
        <ele>1435.549</ele>
        <time>2012-04-01T09:02:54Z</time>
      </trkpt>
      <trkpt lat="43.84757" lon="6.45852">
        <ele>1435.837</ele>
        <time>2012-04-01T09:03:00Z</time>
      </trkpt>
      <trkpt lat="43.84753" lon="6.45825">
        <ele>1436.907</ele>
        <time>2012-04-01T09:03:08Z</time>
      </trkpt>
      <trkpt lat="43.84751" lon="6.45794">
        <ele>1437.686</ele>
        <time>2012-04-01T09:03:16Z</time>
      </trkpt>
      <trkpt lat="43.84751" lon="6.45765">
        <ele>1439.119</ele>
        <time>2012-04-01T09:03:23Z</time>
      </trkpt>
      <trkpt lat="43.84751" lon="6.45742">
        <ele>1439.708</ele>
        <time>2012-04-01T09:03:29Z</time>
      </trkpt>
      <trkpt lat="43.84749" lon="6.45711">
        <ele>1440.687</ele>
        <time>2012-04-01T09:03:37Z</time>
      </trkpt>
      <trkpt lat="43.8475" lon="6.45692">
        <ele>1442.079</ele>
        <time>2012-04-01T09:03:43Z</time>
      </trkpt>
      <trkpt lat="43.84754" lon="6.45676">
        <ele>1444.812</ele>
        <time>2012-04-01T09:03:50Z</time>
      </trkpt>
      <trkpt lat="43.84756" lon="6.45662">
        <ele>1447.031</ele>
        <time>2012-04-01T09:03:56Z</time>
      </trkpt>
      <trkpt lat="43.84758" lon="6.45649">
        <ele>1448.812</ele>
        <time>2012-04-01T09:04:03Z</time>
      </trkpt>
      <trkpt lat="43.84761" lon="6.45634">
        <ele>1451.061</ele>
        <time>2012-04-01T09:04:11Z</time>
      </trkpt>
      <trkpt lat="43.84764" lon="6.45629">
        <ele>1450.79</ele>
        <time>2012-04-01T09:04:13Z</time>
      </trkpt>
      <trkpt lat="43.84767" lon="6.45618">
        <ele>1452.573</ele>
        <time>2012-04-01T09:04:21Z</time>
      </trkpt>
      <trkpt lat="43.8477" lon="6.45605">
        <ele>1447.756</ele>
        <time>2012-04-01T09:05:07Z</time>
      </trkpt>
      <trkpt lat="43.84772" lon="6.45605">
        <ele>1449.67</ele>
        <time>2012-04-01T09:05:11Z</time>
      </trkpt>
      <trkpt lat="43.84774" lon="6.45602">
        <ele>1451.049</ele>
        <time>2012-04-01T09:05:15Z</time>
      </trkpt>
      <trkpt lat="43.84779" lon="6.45594">
        <ele>1453.63</ele>
        <time>2012-04-01T09:05:25Z</time>
      </trkpt>
      <trkpt lat="43.84781" lon="6.45587">
        <ele>1454.585</ele>
        <time>2012-04-01T09:05:33Z</time>
      </trkpt>
      <trkpt lat="43.84784" lon="6.45579">
        <ele>1456.218</ele>
        <time>2012-04-01T09:05:41Z</time>
      </trkpt>
      <trkpt lat="43.84788" lon="6.45573">
        <ele>1458.258</ele>
        <time>2012-04-01T09:05:49Z</time>
      </trkpt>
      <trkpt lat="43.84791" lon="6.45565">
        <ele>1460.349</ele>
        <time>2012-04-01T09:05:59Z</time>
      </trkpt>
      <trkpt lat="43.84793" lon="6.45557">
        <ele>1461.998</ele>
        <time>2012-04-01T09:06:06Z</time>
      </trkpt>
      <trkpt lat="43.84797" lon="6.4555">
        <ele>1463.449</ele>
        <time>2012-04-01T09:06:14Z</time>
      </trkpt>
      <trkpt lat="43.84799" lon="6.45542">
        <ele>1465.179</ele>
        <time>2012-04-01T09:06:22Z</time>
      </trkpt>
      <trkpt lat="43.84801" lon="6.45539">
        <ele>1466.399</ele>
        <time>2012-04-01T09:06:28Z</time>
      </trkpt>
      <trkpt lat="43.84805" lon="6.45533">
        <ele>1468.439</ele>
        <time>2012-04-01T09:06:37Z</time>
      </trkpt>
      <trkpt lat="43.84808" lon="6.45527">
        <ele>1470.239</ele>
        <time>2012-04-01T09:06:45Z</time>
      </trkpt>
      <trkpt lat="43.84811" lon="6.45521">
        <ele>1472.058</ele>
        <time>2012-04-01T09:06:53Z</time>
      </trkpt>
      <trkpt lat="43.84814" lon="6.4551">
        <ele>1474.89</ele>
        <time>2012-04-01T09:07:03Z</time>
      </trkpt>
      <trkpt lat="43.84817" lon="6.45508">
        <ele>1475.669</ele>
        <time>2012-04-01T09:07:06Z</time>
      </trkpt>
      <trkpt lat="43.84818" lon="6.45505">
        <ele>1476.373</ele>
        <time>2012-04-01T09:07:13Z</time>
      </trkpt>
      <trkpt lat="43.84814" lon="6.45506">
        <ele>1468.084</ele>
        <time>2012-04-01T09:12:47Z</time>
      </trkpt>
      <trkpt lat="43.84815" lon="6.45506">
        <ele>1468.524</ele>
        <time>2012-04-01T09:12:56Z</time>
      </trkpt>
      <trkpt lat="43.84809" lon="6.45517">
        <ele>1466.716</ele>
        <time>2012-04-01T09:13:01Z</time>
      </trkpt>
      <trkpt lat="43.84801" lon="6.45534">
        <ele>1462.771</ele>
        <time>2012-04-01T09:13:07Z</time>
      </trkpt>
      <trkpt lat="43.84798" lon="6.45539">
        <ele>1461.219</ele>
        <time>2012-04-01T09:13:09Z</time>
      </trkpt>
      <trkpt lat="43.84791" lon="6.45555">
        <ele>1456.863</ele>
        <time>2012-04-01T09:13:15Z</time>
      </trkpt>
      <trkpt lat="43.84791" lon="6.45561">
        <ele>1455.55</ele>
        <time>2012-04-01T09:13:19Z</time>
      </trkpt>
      <trkpt lat="43.84791" lon="6.45562">
        <ele>1455.401</ele>
        <time>2012-04-01T09:13:20Z</time>
      </trkpt>
      <trkpt lat="43.84787" lon="6.45571">
        <ele>1453.557</ele>
        <time>2012-04-01T09:13:25Z</time>
      </trkpt>
      <trkpt lat="43.84787" lon="6.45572">
        <ele>1453.54</ele>
        <time>2012-04-01T09:13:26Z</time>
      </trkpt>
      <trkpt lat="43.84786" lon="6.45572">
        <ele>1454.675</ele>
        <time>2012-04-01T09:13:33Z</time>
      </trkpt>
      <trkpt lat="43.84785" lon="6.45572">
        <ele>1463.024</ele>
        <time>2012-04-01T09:14:36Z</time>
      </trkpt>
      <trkpt lat="43.84781" lon="6.4558">
        <ele>1459.264</ele>
        <time>2012-04-01T09:14:40Z</time>
      </trkpt>
      <trkpt lat="43.84777" lon="6.45594">
        <ele>1456.261</ele>
        <time>2012-04-01T09:14:43Z</time>
      </trkpt>
      <trkpt lat="43.84768" lon="6.45611">
        <ele>1451.017</ele>
        <time>2012-04-01T09:14:47Z</time>
      </trkpt>
      <trkpt lat="43.84765" lon="6.45621">
        <ele>1449.479</ele>
        <time>2012-04-01T09:14:49Z</time>
      </trkpt>
      <trkpt lat="43.84758" lon="6.45645">
        <ele>1445.488</ele>
        <time>2012-04-01T09:14:53Z</time>
      </trkpt>
      <trkpt lat="43.84754" lon="6.45674">
        <ele>1442.759</ele>
        <time>2012-04-01T09:14:57Z</time>
      </trkpt>
      <trkpt lat="43.8475" lon="6.45707">
        <ele>1439.612</ele>
        <time>2012-04-01T09:15:01Z</time>
      </trkpt>
      <trkpt lat="43.8475" lon="6.45715">
        <ele>1439.275</ele>
        <time>2012-04-01T09:15:02Z</time>
      </trkpt>
      <trkpt lat="43.84751" lon="6.45731">
        <ele>1439.139</ele>
        <time>2012-04-01T09:15:04Z</time>
      </trkpt>
      <trkpt lat="43.84752" lon="6.45753">
        <ele>1438.951</ele>
        <time>2012-04-01T09:15:07Z</time>
      </trkpt>
      <trkpt lat="43.84751" lon="6.45783">
        <ele>1438.201</ele>
        <time>2012-04-01T09:15:11Z</time>
      </trkpt>
      <trkpt lat="43.84752" lon="6.45814">
        <ele>1438.555</ele>
        <time>2012-04-01T09:15:15Z</time>
      </trkpt>
      <trkpt lat="43.84756" lon="6.45853">
        <ele>1438.101</ele>
        <time>2012-04-01T09:15:20Z</time>
      </trkpt>
      <trkpt lat="43.84762" lon="6.45882">
        <ele>1438.283</ele>
        <time>2012-04-01T09:15:24Z</time>
      </trkpt>
      <trkpt lat="43.84768" lon="6.4592">
        <ele>1436.79</ele>
        <time>2012-04-01T09:15:30Z</time>
      </trkpt>
      <trkpt lat="43.84779" lon="6.4595">
        <ele>1435.462</ele>
        <time>2012-04-01T09:15:35Z</time>
      </trkpt>
      <trkpt lat="43.84794" lon="6.45984">
        <ele>1435.345</ele>
        <time>2012-04-01T09:15:40Z</time>
      </trkpt>
      <trkpt lat="43.84802" lon="6.46013">
        <ele>1433.957</ele>
        <time>2012-04-01T09:15:45Z</time>
      </trkpt>
      <trkpt lat="43.84799" lon="6.46047">
        <ele>1433.825</ele>
        <time>2012-04-01T09:15:50Z</time>
      </trkpt>
      <trkpt lat="43.84799" lon="6.46055">
        <ele>1434.518</ele>
        <time>2012-04-01T09:15:52Z</time>
      </trkpt>
      <trkpt lat="43.84796" lon="6.46073">
        <ele>1435.287</ele>
        <time>2012-04-01T09:15:59Z</time>
      </trkpt>
      <trkpt lat="43.84795" lon="6.46076">
        <ele>1435.877</ele>
        <time>2012-04-01T09:16:03Z</time>
      </trkpt>
      <trkpt lat="43.84793" lon="6.46081">
        <ele>1436.238</ele>
        <time>2012-04-01T09:16:06Z</time>
      </trkpt>
      <trkpt lat="43.84789" lon="6.46093">
        <ele>1437.076</ele>
        <time>2012-04-01T09:16:14Z</time>
      </trkpt>
      <trkpt lat="43.84787" lon="6.46107">
        <ele>1437.608</ele>
        <time>2012-04-01T09:16:21Z</time>
      </trkpt>
      <trkpt lat="43.84787" lon="6.46108">
        <ele>1438.017</ele>
        <time>2012-04-01T09:16:26Z</time>
      </trkpt>
      <trkpt lat="43.84786" lon="6.46108">
        <ele>1438.417</ele>
        <time>2012-04-01T09:16:29Z</time>
      </trkpt>
      <trkpt lat="43.84778" lon="6.46127">
        <ele>1438.827</ele>
        <time>2012-04-01T09:16:36Z</time>
      </trkpt>
      <trkpt lat="43.84761" lon="6.46157">
        <ele>1438.054</ele>
        <time>2012-04-01T09:16:43Z</time>
      </trkpt>
      <trkpt lat="43.8474" lon="6.46192">
        <ele>1435.971</ele>
        <time>2012-04-01T09:16:50Z</time>
      </trkpt>
      <trkpt lat="43.84729" lon="6.46209">
        <ele>1434.73</ele>
        <time>2012-04-01T09:16:53Z</time>
      </trkpt>
      <trkpt lat="43.84718" lon="6.46234">
        <ele>1431.644</ele>
        <time>2012-04-01T09:16:57Z</time>
      </trkpt>
      <trkpt lat="43.84698" lon="6.46265">
        <ele>1426.279</ele>
        <time>2012-04-01T09:17:02Z</time>
      </trkpt>
      <trkpt lat="43.84688" lon="6.46285">
        <ele>1422.748</ele>
        <time>2012-04-01T09:17:05Z</time>
      </trkpt>
      <trkpt lat="43.84675" lon="6.46323">
        <ele>1415.236</ele>
        <time>2012-04-01T09:17:10Z</time>
      </trkpt>
      <trkpt lat="43.8467" lon="6.46357">
        <ele>1408.817</ele>
        <time>2012-04-01T09:17:14Z</time>
      </trkpt>
      <trkpt lat="43.84661" lon="6.46393">
        <ele>1405.671</ele>
        <time>2012-04-01T09:17:18Z</time>
      </trkpt>
      <trkpt lat="43.84647" lon="6.46409">
        <ele>1402.424</ele>
        <time>2012-04-01T09:17:22Z</time>
      </trkpt>
      <trkpt lat="43.84649" lon="6.46406">
        <ele>1402.459</ele>
        <time>2012-04-01T09:17:24Z</time>
      </trkpt>
      <trkpt lat="43.84647" lon="6.46405">
        <ele>1410.586</ele>
        <time>2012-04-01T09:18:22Z</time>
      </trkpt>
      <trkpt lat="43.84642" lon="6.4639">
        <ele>1406.947</ele>
        <time>2012-04-01T09:18:27Z</time>
      </trkpt>
      <trkpt lat="43.84642" lon="6.46376">
        <ele>1403.693</ele>
        <time>2012-04-01T09:18:30Z</time>
      </trkpt>
      <trkpt lat="43.84642" lon="6.46365">
        <ele>1401.18</ele>
        <time>2012-04-01T09:18:32Z</time>
      </trkpt>
      <trkpt lat="43.84633" lon="6.46329">
        <ele>1393.336</ele>
        <time>2012-04-01T09:18:37Z</time>
      </trkpt>
      <trkpt lat="43.84626" lon="6.46301">
        <ele>1386.908</ele>
        <time>2012-04-01T09:18:42Z</time>
      </trkpt>
      <trkpt lat="43.84618" lon="6.46272">
        <ele>1380.027</ele>
        <time>2012-04-01T09:18:48Z</time>
      </trkpt>
      <trkpt lat="43.84614" lon="6.46244">
        <ele>1374.107</ele>
        <time>2012-04-01T09:18:53Z</time>
      </trkpt>
      <trkpt lat="43.84603" lon="6.46193">
        <ele>1364.361</ele>
        <time>2012-04-01T09:19:00Z</time>
      </trkpt>
      <trkpt lat="43.84597" lon="6.46171">
        <ele>1360.181</ele>
        <time>2012-04-01T09:19:03Z</time>
      </trkpt>
      <trkpt lat="43.84589" lon="6.4614">
        <ele>1353.644</ele>
        <time>2012-04-01T09:19:08Z</time>
      </trkpt>
      <trkpt lat="43.84587" lon="6.46132">
        <ele>1352.425</ele>
        <time>2012-04-01T09:19:09Z</time>
      </trkpt>
      <trkpt lat="43.84582" lon="6.46117">
        <ele>1349.584</ele>
        <time>2012-04-01T09:19:11Z</time>
      </trkpt>
      <trkpt lat="43.84571" lon="6.46094">
        <ele>1344.013</ele>
        <time>2012-04-01T09:19:15Z</time>
      </trkpt>
      <trkpt lat="43.84563" lon="6.46083">
        <ele>1342.671</ele>
        <time>2012-04-01T09:19:17Z</time>
      </trkpt>
      <trkpt lat="43.84551" lon="6.46076">
        <ele>1339.945</ele>
        <time>2012-04-01T09:19:21Z</time>
      </trkpt>
      <trkpt lat="43.84547" lon="6.46083">
        <ele>1337.713</ele>
        <time>2012-04-01T09:19:23Z</time>
      </trkpt>
      <trkpt lat="43.84546" lon="6.46091">
        <ele>1334.802</ele>
        <time>2012-04-01T09:19:26Z</time>
      </trkpt>
      <trkpt lat="43.84548" lon="6.46095">
        <ele>1332.961</ele>
        <time>2012-04-01T09:19:31Z</time>
      </trkpt>
      <trkpt lat="43.84548" lon="6.46095">
        <ele>1332.734</ele>
        <time>2012-04-01T09:19:48Z</time>
      </trkpt>
      <trkpt lat="43.84548" lon="6.46104">
        <ele>1331.159</ele>
        <time>2012-04-01T09:19:52Z</time>
      </trkpt>
      <trkpt lat="43.84544" lon="6.46112">
        <ele>1329.079</ele>
        <time>2012-04-01T09:19:56Z</time>
      </trkpt>
      <trkpt lat="43.84536" lon="6.46111">
        <ele>1325.456</ele>
        <time>2012-04-01T09:20:02Z</time>
      </trkpt>
      <trkpt lat="43.84529" lon="6.46111">
        <ele>1323.536</ele>
        <time>2012-04-01T09:20:05Z</time>
      </trkpt>
      <trkpt lat="43.84519" lon="6.46118">
        <ele>1320.495</ele>
        <time>2012-04-01T09:20:10Z</time>
      </trkpt>
      <trkpt lat="43.84512" lon="6.46121">
        <ele>1317.769</ele>
        <time>2012-04-01T09:20:14Z</time>
      </trkpt>
      <trkpt lat="43.8451" lon="6.4612">
        <ele>1316.799</ele>
        <time>2012-04-01T09:20:16Z</time>
      </trkpt>
      <trkpt lat="43.84509" lon="6.4612">
        <ele>1316.131</ele>
        <time>2012-04-01T09:20:18Z</time>
      </trkpt>
      <trkpt lat="43.845" lon="6.46123">
        <ele>1313.416</ele>
        <time>2012-04-01T09:20:23Z</time>
      </trkpt>
      <trkpt lat="43.84483" lon="6.46126">
        <ele>1309.168</ele>
        <time>2012-04-01T09:20:30Z</time>
      </trkpt>
      <trkpt lat="43.84477" lon="6.46128">
        <ele>1307.076</ele>
        <time>2012-04-01T09:20:34Z</time>
      </trkpt>
      <trkpt lat="43.84475" lon="6.46129">
        <ele>1306.515</ele>
        <time>2012-04-01T09:20:43Z</time>
      </trkpt>
      <trkpt lat="43.84473" lon="6.46131">
        <ele>1305.533</ele>
        <time>2012-04-01T09:20:49Z</time>
      </trkpt>
      <trkpt lat="43.84469" lon="6.46133">
        <ele>1304.673</ele>
        <time>2012-04-01T09:20:52Z</time>
      </trkpt>
      <trkpt lat="43.84466" lon="6.46135">
        <ele>1303.959</ele>
        <time>2012-04-01T09:20:54Z</time>
      </trkpt>
      <trkpt lat="43.8446" lon="6.46153">
        <ele>1301.75</ele>
        <time>2012-04-01T09:20:59Z</time>
      </trkpt>
      <trkpt lat="43.84459" lon="6.46159">
        <ele>1301.248</ele>
        <time>2012-04-01T09:21:00Z</time>
      </trkpt>
      <trkpt lat="43.84453" lon="6.46186">
        <ele>1297.081</ele>
        <time>2012-04-01T09:21:05Z</time>
      </trkpt>
      <trkpt lat="43.84451" lon="6.46213">
        <ele>1293.178</ele>
        <time>2012-04-01T09:21:10Z</time>
      </trkpt>
      <trkpt lat="43.84444" lon="6.46223">
        <ele>1290.1</ele>
        <time>2012-04-01T09:21:13Z</time>
      </trkpt>
      <trkpt lat="43.84441" lon="6.46234">
        <ele>1287.691</ele>
        <time>2012-04-01T09:21:16Z</time>
      </trkpt>
      <trkpt lat="43.84439" lon="6.46256">
        <ele>1284.542</ele>
        <time>2012-04-01T09:21:20Z</time>
      </trkpt>
      <trkpt lat="43.84429" lon="6.46285">
        <ele>1281.777</ele>
        <time>2012-04-01T09:21:26Z</time>
      </trkpt>
      <trkpt lat="43.84423" lon="6.46289">
        <ele>1278.441</ele>
        <time>2012-04-01T09:21:32Z</time>
      </trkpt>
      <trkpt lat="43.8442" lon="6.4628">
        <ele>1276.471</ele>
        <time>2012-04-01T09:21:35Z</time>
      </trkpt>
      <trkpt lat="43.84414" lon="6.46251">
        <ele>1271.911</ele>
        <time>2012-04-01T09:21:41Z</time>
      </trkpt>
      <trkpt lat="43.84406" lon="6.46229">
        <ele>1269.104</ele>
        <time>2012-04-01T09:21:46Z</time>
      </trkpt>
      <trkpt lat="43.84402" lon="6.46214">
        <ele>1267.809</ele>
        <time>2012-04-01T09:21:51Z</time>
      </trkpt>
      <trkpt lat="43.84395" lon="6.46202">
        <ele>1266.559</ele>
        <time>2012-04-01T09:21:55Z</time>
      </trkpt>
      <trkpt lat="43.8438" lon="6.46189">
        <ele>1262.316</ele>
        <time>2012-04-01T09:22:01Z</time>
      </trkpt>
      <trkpt lat="43.84371" lon="6.4618">
        <ele>1260.075</ele>
        <time>2012-04-01T09:22:05Z</time>
      </trkpt>
      <trkpt lat="43.84358" lon="6.46172">
        <ele>1256.242</ele>
        <time>2012-04-01T09:22:10Z</time>
      </trkpt>
      <trkpt lat="43.8434" lon="6.46163">
        <ele>1251.662</ele>
        <time>2012-04-01T09:22:15Z</time>
      </trkpt>
      <trkpt lat="43.84323" lon="6.46156">
        <ele>1247.161</ele>
        <time>2012-04-01T09:22:20Z</time>
      </trkpt>
      <trkpt lat="43.8431" lon="6.46149">
        <ele>1243.543</ele>
        <time>2012-04-01T09:22:25Z</time>
      </trkpt>
      <trkpt lat="43.84298" lon="6.46145">
        <ele>1239.94</ele>
        <time>2012-04-01T09:22:29Z</time>
      </trkpt>
      <trkpt lat="43.84293" lon="6.46157">
        <ele>1235.619</ele>
        <time>2012-04-01T09:22:33Z</time>
      </trkpt>
      <trkpt lat="43.84292" lon="6.46172">
        <ele>1231.702</ele>
        <time>2012-04-01T09:22:37Z</time>
      </trkpt>
      <trkpt lat="43.84292" lon="6.46173">
        <ele>1230.501</ele>
        <time>2012-04-01T09:22:41Z</time>
      </trkpt>
      <trkpt lat="43.84291" lon="6.46174">
        <ele>1229.771</ele>
        <time>2012-04-01T09:22:43Z</time>
      </trkpt>
      <trkpt lat="43.84288" lon="6.46179">
        <ele>1227.817</ele>
        <time>2012-04-01T09:22:48Z</time>
      </trkpt>
      <trkpt lat="43.84278" lon="6.46183">
        <ele>1223.454</ele>
        <time>2012-04-01T09:22:53Z</time>
      </trkpt>
      <trkpt lat="43.84268" lon="6.46184">
        <ele>1220.103</ele>
        <time>2012-04-01T09:22:57Z</time>
      </trkpt>
      <trkpt lat="43.84266" lon="6.46199">
        <ele>1217.079</ele>
        <time>2012-04-01T09:23:00Z</time>
      </trkpt>
      <trkpt lat="43.84265" lon="6.4621">
        <ele>1215.099</ele>
        <time>2012-04-01T09:23:02Z</time>
      </trkpt>
      <trkpt lat="43.84264" lon="6.46221">
        <ele>1213.343</ele>
        <time>2012-04-01T09:23:05Z</time>
      </trkpt>
      <trkpt lat="43.84262" lon="6.46231">
        <ele>1209.551</ele>
        <time>2012-04-01T09:23:10Z</time>
      </trkpt>
      <trkpt lat="43.8426" lon="6.46234">
        <ele>1206.42</ele>
        <time>2012-04-01T09:23:20Z</time>
      </trkpt>
      <trkpt lat="43.84259" lon="6.46238">
        <ele>1203.351</ele>
        <time>2012-04-01T09:23:28Z</time>
      </trkpt>
      <trkpt lat="43.84255" lon="6.46242">
        <ele>1201.811</ele>
        <time>2012-04-01T09:23:35Z</time>
      </trkpt>
      <trkpt lat="43.8425" lon="6.46248">
        <ele>1200.399</ele>
        <time>2012-04-01T09:23:40Z</time>
      </trkpt>
      <trkpt lat="43.84249" lon="6.46249">
        <ele>1200.114</ele>
        <time>2012-04-01T09:23:45Z</time>
      </trkpt>
      <trkpt lat="43.84247" lon="6.46251">
        <ele>1200.115</ele>
        <time>2012-04-01T09:24:29Z</time>
      </trkpt>
      <trkpt lat="43.84243" lon="6.46251">
        <ele>1198.999</ele>
        <time>2012-04-01T09:24:32Z</time>
      </trkpt>
      <trkpt lat="43.84232" lon="6.46259">
        <ele>1195.543</ele>
        <time>2012-04-01T09:24:37Z</time>
      </trkpt>
      <trkpt lat="43.84229" lon="6.46259">
        <ele>1194.672</ele>
        <time>2012-04-01T09:24:38Z</time>
      </trkpt>
      <trkpt lat="43.84208" lon="6.46264">
        <ele>1187.848</ele>
        <time>2012-04-01T09:24:44Z</time>
      </trkpt>
      <trkpt lat="43.8419" lon="6.46257">
        <ele>1184.96</ele>
        <time>2012-04-01T09:24:48Z</time>
      </trkpt>
      <trkpt lat="43.84176" lon="6.46252">
        <ele>1181.334</ele>
        <time>2012-04-01T09:24:51Z</time>
      </trkpt>
      <trkpt lat="43.84166" lon="6.46248">
        <ele>1179.005</ele>
        <time>2012-04-01T09:24:53Z</time>
      </trkpt>
      <trkpt lat="43.84143" lon="6.46244">
        <ele>1172.112</ele>
        <time>2012-04-01T09:24:58Z</time>
      </trkpt>
      <trkpt lat="43.84132" lon="6.46237">
        <ele>1169.765</ele>
        <time>2012-04-01T09:25:00Z</time>
      </trkpt>
      <trkpt lat="43.84111" lon="6.4622">
        <ele>1166.151</ele>
        <time>2012-04-01T09:25:05Z</time>
      </trkpt>
      <trkpt lat="43.84102" lon="6.46215">
        <ele>1165.003</ele>
        <time>2012-04-01T09:25:07Z</time>
      </trkpt>
      <trkpt lat="43.84091" lon="6.46212">
        <ele>1162.175</ele>
        <time>2012-04-01T09:25:11Z</time>
      </trkpt>
      <trkpt lat="43.84082" lon="6.46209">
        <ele>1160.657</ele>
        <time>2012-04-01T09:25:17Z</time>
      </trkpt>
      <trkpt lat="43.8407" lon="6.46206">
        <ele>1157.245</ele>
        <time>2012-04-01T09:25:22Z</time>
      </trkpt>
      <trkpt lat="43.84062" lon="6.46198">
        <ele>1154.898</ele>
        <time>2012-04-01T09:25:27Z</time>
      </trkpt>
      <trkpt lat="43.84051" lon="6.46186">
        <ele>1151.797</ele>
        <time>2012-04-01T09:25:34Z</time>
      </trkpt>
      <trkpt lat="43.84043" lon="6.4618">
        <ele>1149.507</ele>
        <time>2012-04-01T09:25:38Z</time>
      </trkpt>
      <trkpt lat="43.84036" lon="6.46177">
        <ele>1148.115</ele>
        <time>2012-04-01T09:25:40Z</time>
      </trkpt>
      <trkpt lat="43.84022" lon="6.46165">
        <ele>1144.37</ele>
        <time>2012-04-01T09:25:44Z</time>
      </trkpt>
      <trkpt lat="43.84" lon="6.46157">
        <ele>1139.49</ele>
        <time>2012-04-01T09:25:49Z</time>
      </trkpt>
      <trkpt lat="43.8398" lon="6.46141">
        <ele>1134.617</ele>
        <time>2012-04-01T09:25:54Z</time>
      </trkpt>
      <trkpt lat="43.83964" lon="6.46127">
        <ele>1130.619</ele>
        <time>2012-04-01T09:25:58Z</time>
      </trkpt>
      <trkpt lat="43.83938" lon="6.46108">
        <ele>1125.259</ele>
        <time>2012-04-01T09:26:03Z</time>
      </trkpt>
      <trkpt lat="43.83922" lon="6.46108">
        <ele>1123.205</ele>
        <time>2012-04-01T09:26:06Z</time>
      </trkpt>
      <trkpt lat="43.83909" lon="6.46116">
        <ele>1120.394</ele>
        <time>2012-04-01T09:26:09Z</time>
      </trkpt>
      <trkpt lat="43.83907" lon="6.46121">
        <ele>1119.513</ele>
        <time>2012-04-01T09:26:10Z</time>
      </trkpt>
      <trkpt lat="43.83902" lon="6.46135">
        <ele>1117.18</ele>
        <time>2012-04-01T09:26:12Z</time>
      </trkpt>
      <trkpt lat="43.83882" lon="6.46167">
        <ele>1111.537</ele>
        <time>2012-04-01T09:26:17Z</time>
      </trkpt>
      <trkpt lat="43.83861" lon="6.4619">
        <ele>1106.719</ele>
        <time>2012-04-01T09:26:22Z</time>
      </trkpt>
      <trkpt lat="43.8386" lon="6.46196">
        <ele>1105.04</ele>
        <time>2012-04-01T09:26:24Z</time>
      </trkpt>
      <trkpt lat="43.83856" lon="6.46198">
        <ele>1102.88</ele>
        <time>2012-04-01T09:26:26Z</time>
      </trkpt>
      <trkpt lat="43.83833" lon="6.46221">
        <ele>1096.267</ele>
        <time>2012-04-01T09:26:32Z</time>
      </trkpt>
      <trkpt lat="43.83832" lon="6.46242">
        <ele>1091.266</ele>
        <time>2012-04-01T09:26:36Z</time>
      </trkpt>
      <trkpt lat="43.83843" lon="6.4627">
        <ele>1087.017</ele>
        <time>2012-04-01T09:26:42Z</time>
      </trkpt>
      <trkpt lat="43.83848" lon="6.46295">
        <ele>1083.027</ele>
        <time>2012-04-01T09:26:47Z</time>
      </trkpt>
      <trkpt lat="43.83849" lon="6.46321">
        <ele>1078.579</ele>
        <time>2012-04-01T09:26:52Z</time>
      </trkpt>
      <trkpt lat="43.83848" lon="6.46326">
        <ele>1077.7</ele>
        <time>2012-04-01T09:26:53Z</time>
      </trkpt>
      <trkpt lat="43.8385" lon="6.4635">
        <ele>1073.698</ele>
        <time>2012-04-01T09:26:57Z</time>
      </trkpt>
      <trkpt lat="43.83851" lon="6.46377">
        <ele>1069.606</ele>
        <time>2012-04-01T09:27:01Z</time>
      </trkpt>
      <trkpt lat="43.83844" lon="6.46402">
        <ele>1064.634</ele>
        <time>2012-04-01T09:27:05Z</time>
      </trkpt>
      <trkpt lat="43.83841" lon="6.46409">
        <ele>1063.233</ele>
        <time>2012-04-01T09:27:06Z</time>
      </trkpt>
      <trkpt lat="43.83834" lon="6.46421">
        <ele>1060.283</ele>
        <time>2012-04-01T09:27:08Z</time>
      </trkpt>
      <trkpt lat="43.83817" lon="6.4644">
        <ele>1051.151</ele>
        <time>2012-04-01T09:27:13Z</time>
      </trkpt>
      <trkpt lat="43.83803" lon="6.46452">
        <ele>1045.112</ele>
        <time>2012-04-01T09:27:17Z</time>
      </trkpt>
      <trkpt lat="43.83795" lon="6.46454">
        <ele>1041.915</ele>
        <time>2012-04-01T09:27:20Z</time>
      </trkpt>
      <trkpt lat="43.83792" lon="6.46451">
        <ele>1041.889</ele>
        <time>2012-04-01T09:27:21Z</time>
      </trkpt>
      <trkpt lat="43.83787" lon="6.46442">
        <ele>1041.054</ele>
        <time>2012-04-01T09:27:25Z</time>
      </trkpt>
      <trkpt lat="43.83782" lon="6.46439">
        <ele>1046.766</ele>
        <time>2012-04-01T09:27:58Z</time>
      </trkpt>
      <trkpt lat="43.83769" lon="6.46422">
        <ele>1046.245</ele>
        <time>2012-04-01T09:28:03Z</time>
      </trkpt>
      <trkpt lat="43.83761" lon="6.46409">
        <ele>1046.998</ele>
        <time>2012-04-01T09:28:08Z</time>
      </trkpt>
      <trkpt lat="43.8376" lon="6.46396">
        <ele>1050.031</ele>
        <time>2012-04-01T09:28:14Z</time>
      </trkpt>
      <trkpt lat="43.83763" lon="6.46384">
        <ele>1053.723</ele>
        <time>2012-04-01T09:28:20Z</time>
      </trkpt>
      <trkpt lat="43.83763" lon="6.46378">
        <ele>1053.748</ele>
        <time>2012-04-01T09:28:25Z</time>
      </trkpt>
      <trkpt lat="43.83763" lon="6.46378">
        <ele>1053.934</ele>
        <time>2012-04-01T09:28:37Z</time>
      </trkpt>
      <trkpt lat="43.83762" lon="6.4638">
        <ele>1056.236</ele>
        <time>2012-04-01T09:28:42Z</time>
      </trkpt>
      <trkpt lat="43.83765" lon="6.46373">
        <ele>1057.879</ele>
        <time>2012-04-01T09:28:51Z</time>
      </trkpt>
      <trkpt lat="43.83767" lon="6.46367">
        <ele>1061.301</ele>
        <time>2012-04-01T09:28:59Z</time>
      </trkpt>
      <trkpt lat="43.83769" lon="6.46359">
        <ele>1062.399</ele>
        <time>2012-04-01T09:29:08Z</time>
      </trkpt>
      <trkpt lat="43.83769" lon="6.46352">
        <ele>1063.75</ele>
        <time>2012-04-01T09:29:15Z</time>
      </trkpt>
      <trkpt lat="43.83763" lon="6.46345">
        <ele>1063.818</ele>
        <time>2012-04-01T09:29:23Z</time>
      </trkpt>
      <trkpt lat="43.83757" lon="6.46342">
        <ele>1064.115</ele>
        <time>2012-04-01T09:29:33Z</time>
      </trkpt>
      <trkpt lat="43.83751" lon="6.46339">
        <ele>1063.937</ele>
        <time>2012-04-01T09:29:39Z</time>
      </trkpt>
      <trkpt lat="43.83737" lon="6.46332">
        <ele>1063.688</ele>
        <time>2012-04-01T09:29:47Z</time>
      </trkpt>
      <trkpt lat="43.83723" lon="6.4632">
        <ele>1063.676</ele>
        <time>2012-04-01T09:29:56Z</time>
      </trkpt>
      <trkpt lat="43.83714" lon="6.46311">
        <ele>1064.247</ele>
        <time>2012-04-01T09:30:02Z</time>
      </trkpt>
      <trkpt lat="43.83704" lon="6.46294">
        <ele>1066.009</ele>
        <time>2012-04-01T09:30:10Z</time>
      </trkpt>
      <trkpt lat="43.83697" lon="6.46276">
        <ele>1069.77</ele>
        <time>2012-04-01T09:30:18Z</time>
      </trkpt>
      <trkpt lat="43.83693" lon="6.46259">
        <ele>1071.569</ele>
        <time>2012-04-01T09:30:25Z</time>
      </trkpt>
      <trkpt lat="43.83687" lon="6.46238">
        <ele>1074.329</ele>
        <time>2012-04-01T09:30:34Z</time>
      </trkpt>
      <trkpt lat="43.83684" lon="6.46223">
        <ele>1073.737</ele>
        <time>2012-04-01T09:30:40Z</time>
      </trkpt>
      <trkpt lat="43.8368" lon="6.4621">
        <ele>1073.547</ele>
        <time>2012-04-01T09:30:46Z</time>
      </trkpt>
      <trkpt lat="43.83677" lon="6.46192">
        <ele>1075.411</ele>
        <time>2012-04-01T09:30:54Z</time>
      </trkpt>
      <trkpt lat="43.83675" lon="6.46171">
        <ele>1082.373</ele>
        <time>2012-04-01T09:31:03Z</time>
      </trkpt>
      <trkpt lat="43.83678" lon="6.46157">
        <ele>1086.313</ele>
        <time>2012-04-01T09:31:10Z</time>
      </trkpt>
      <trkpt lat="43.83679" lon="6.46155">
        <ele>1086.401</ele>
        <time>2012-04-01T09:31:11Z</time>
      </trkpt>
      <trkpt lat="43.83686" lon="6.46144">
        <ele>1086.877</ele>
        <time>2012-04-01T09:31:19Z</time>
      </trkpt>
      <trkpt lat="43.83693" lon="6.46135">
        <ele>1087.156</ele>
        <time>2012-04-01T09:31:26Z</time>
      </trkpt>
      <trkpt lat="43.837" lon="6.46127">
        <ele>1085.773</ele>
        <time>2012-04-01T09:31:32Z</time>
      </trkpt>
      <trkpt lat="43.83707" lon="6.46118">
        <ele>1083.07</ele>
        <time>2012-04-01T09:31:37Z</time>
      </trkpt>
      <trkpt lat="43.83718" lon="6.46101">
        <ele>1080.037</ele>
        <time>2012-04-01T09:31:45Z</time>
      </trkpt>
      <trkpt lat="43.83726" lon="6.4608">
        <ele>1076.827</ele>
        <time>2012-04-01T09:31:52Z</time>
      </trkpt>
      <trkpt lat="43.8374" lon="6.4606">
        <ele>1074.547</ele>
        <time>2012-04-01T09:31:58Z</time>
      </trkpt>
      <trkpt lat="43.83761" lon="6.46035">
        <ele>1072.441</ele>
        <time>2012-04-01T09:32:04Z</time>
      </trkpt>
      <trkpt lat="43.83778" lon="6.46004">
        <ele>1071.663</ele>
        <time>2012-04-01T09:32:10Z</time>
      </trkpt>
      <trkpt lat="43.83786" lon="6.45979">
        <ele>1073.149</ele>
        <time>2012-04-01T09:32:15Z</time>
      </trkpt>
      <trkpt lat="43.83788" lon="6.45964">
        <ele>1075.128</ele>
        <time>2012-04-01T09:32:20Z</time>
      </trkpt>
      <trkpt lat="43.83788" lon="6.45942">
        <ele>1079.49</ele>
        <time>2012-04-01T09:32:28Z</time>
      </trkpt>
      <trkpt lat="43.83786" lon="6.45926">
        <ele>1084.923</ele>
        <time>2012-04-01T09:32:35Z</time>
      </trkpt>
      <trkpt lat="43.83786" lon="6.45904">
        <ele>1088.72</ele>
        <time>2012-04-01T09:32:44Z</time>
      </trkpt>
      <trkpt lat="43.83786" lon="6.45883">
        <ele>1091.482</ele>
        <time>2012-04-01T09:32:52Z</time>
      </trkpt>
      <trkpt lat="43.83782" lon="6.45859">
        <ele>1091.045</ele>
        <time>2012-04-01T09:32:59Z</time>
      </trkpt>
      <trkpt lat="43.83782" lon="6.45831">
        <ele>1089.784</ele>
        <time>2012-04-01T09:33:05Z</time>
      </trkpt>
      <trkpt lat="43.83783" lon="6.45809">
        <ele>1088.584</ele>
        <time>2012-04-01T09:33:11Z</time>
      </trkpt>
      <trkpt lat="43.83786" lon="6.45785">
        <ele>1087.641</ele>
        <time>2012-04-01T09:33:17Z</time>
      </trkpt>
      <trkpt lat="43.83795" lon="6.45757">
        <ele>1083.765</ele>
        <time>2012-04-01T09:33:23Z</time>
      </trkpt>
      <trkpt lat="43.838" lon="6.45746">
        <ele>1081.798</ele>
        <time>2012-04-01T09:33:27Z</time>
      </trkpt>
      <trkpt lat="43.83807" lon="6.45739">
        <ele>1076.181</ele>
        <time>2012-04-01T09:35:06Z</time>
      </trkpt>
      <trkpt lat="43.83815" lon="6.45727">
        <ele>1076.552</ele>
        <time>2012-04-01T09:35:11Z</time>
      </trkpt>
      <trkpt lat="43.83824" lon="6.45709">
        <ele>1076.522</ele>
        <time>2012-04-01T09:35:17Z</time>
      </trkpt>
      <trkpt lat="43.83836" lon="6.4568">
        <ele>1074.206</ele>
        <time>2012-04-01T09:35:22Z</time>
      </trkpt>
      <trkpt lat="43.8385" lon="6.45653">
        <ele>1073.016</ele>
        <time>2012-04-01T09:35:27Z</time>
      </trkpt>
      <trkpt lat="43.8386" lon="6.45625">
        <ele>1071.425</ele>
        <time>2012-04-01T09:35:31Z</time>
      </trkpt>
      <trkpt lat="43.83871" lon="6.4559">
        <ele>1068.203</ele>
        <time>2012-04-01T09:35:35Z</time>
      </trkpt>
      <trkpt lat="43.83877" lon="6.45553">
        <ele>1065.995</ele>
        <time>2012-04-01T09:35:39Z</time>
      </trkpt>
      <trkpt lat="43.83878" lon="6.45536">
        <ele>1065.366</ele>
        <time>2012-04-01T09:35:41Z</time>
      </trkpt>
      <trkpt lat="43.83889" lon="6.45486">
        <ele>1059.006</ele>
        <time>2012-04-01T09:35:47Z</time>
      </trkpt>
      <trkpt lat="43.83885" lon="6.45453">
        <ele>1055.236</ele>
        <time>2012-04-01T09:35:50Z</time>
      </trkpt>
      <trkpt lat="43.83867" lon="6.45407">
        <ele>1053.237</ele>
        <time>2012-04-01T09:35:55Z</time>
      </trkpt>
      <trkpt lat="43.83854" lon="6.45374">
        <ele>1053.445</ele>
        <time>2012-04-01T09:36:00Z</time>
      </trkpt>
      <trkpt lat="43.83839" lon="6.45349">
        <ele>1054.63</ele>
        <time>2012-04-01T09:36:05Z</time>
      </trkpt>
      <trkpt lat="43.83826" lon="6.4533">
        <ele>1055.157</ele>
        <time>2012-04-01T09:36:10Z</time>
      </trkpt>
      <trkpt lat="43.83823" lon="6.45326">
        <ele>1055.407</ele>
        <time>2012-04-01T09:36:11Z</time>
      </trkpt>
      <trkpt lat="43.83819" lon="6.45304">
        <ele>1056.387</ele>
        <time>2012-04-01T09:36:15Z</time>
      </trkpt>
      <trkpt lat="43.8382" lon="6.45275">
        <ele>1058.797</ele>
        <time>2012-04-01T09:36:22Z</time>
      </trkpt>
      <trkpt lat="43.83821" lon="6.45249">
        <ele>1058.285</ele>
        <time>2012-04-01T09:36:29Z</time>
      </trkpt>
      <trkpt lat="43.83825" lon="6.45234">
        <ele>1058.377</ele>
        <time>2012-04-01T09:36:35Z</time>
      </trkpt>
      <trkpt lat="43.83836" lon="6.45221">
        <ele>1061.771</ele>
        <time>2012-04-01T09:36:43Z</time>
      </trkpt>
      <trkpt lat="43.83837" lon="6.45221">
        <ele>1062</ele>
        <time>2012-04-01T09:36:44Z</time>
      </trkpt>
      <trkpt lat="43.8384" lon="6.45212">
        <ele>1062.094</ele>
        <time>2012-04-01T09:36:50Z</time>
      </trkpt>
      <trkpt lat="43.83841" lon="6.45211">
        <ele>1062.242</ele>
        <time>2012-04-01T09:36:58Z</time>
      </trkpt>
      <trkpt lat="43.83845" lon="6.45205">
        <ele>1060.999</ele>
        <time>2012-04-01T09:37:32Z</time>
      </trkpt>
      <trkpt lat="43.83852" lon="6.4519">
        <ele>1059.6</ele>
        <time>2012-04-01T09:37:38Z</time>
      </trkpt>
      <trkpt lat="43.83865" lon="6.45179">
        <ele>1059.033</ele>
        <time>2012-04-01T09:37:44Z</time>
      </trkpt>
      <trkpt lat="43.83882" lon="6.45168">
        <ele>1058.652</ele>
        <time>2012-04-01T09:37:50Z</time>
      </trkpt>
      <trkpt lat="43.839" lon="6.45161">
        <ele>1058.231</ele>
        <time>2012-04-01T09:37:57Z</time>
      </trkpt>
      <trkpt lat="43.83916" lon="6.45157">
        <ele>1057.4</ele>
        <time>2012-04-01T09:38:03Z</time>
      </trkpt>
      <trkpt lat="43.83929" lon="6.45155">
        <ele>1056.81</ele>
        <time>2012-04-01T09:38:08Z</time>
      </trkpt>
      <trkpt lat="43.83942" lon="6.45149">
        <ele>1056.629</ele>
        <time>2012-04-01T09:38:13Z</time>
      </trkpt>
      <trkpt lat="43.83962" lon="6.4514">
        <ele>1057.213</ele>
        <time>2012-04-01T09:38:19Z</time>
      </trkpt>
      <trkpt lat="43.83976" lon="6.45138">
        <ele>1058.774</ele>
        <time>2012-04-01T09:38:25Z</time>
      </trkpt>
      <trkpt lat="43.83986" lon="6.4513">
        <ele>1058.17</ele>
        <time>2012-04-01T09:38:29Z</time>
      </trkpt>
      <trkpt lat="43.84003" lon="6.45114">
        <ele>1057.611</ele>
        <time>2012-04-01T09:38:35Z</time>
      </trkpt>
      <trkpt lat="43.84011" lon="6.45106">
        <ele>1057.741</ele>
        <time>2012-04-01T09:38:39Z</time>
      </trkpt>
      <trkpt lat="43.8402" lon="6.45089">
        <ele>1058.263</ele>
        <time>2012-04-01T09:38:44Z</time>
      </trkpt>
      <trkpt lat="43.84025" lon="6.45074">
        <ele>1061.298</ele>
        <time>2012-04-01T09:38:50Z</time>
      </trkpt>
      <trkpt lat="43.84028" lon="6.45061">
        <ele>1063.309</ele>
        <time>2012-04-01T09:38:55Z</time>
      </trkpt>
      <trkpt lat="43.84036" lon="6.45052">
        <ele>1067.117</ele>
        <time>2012-04-01T09:39:02Z</time>
      </trkpt>
      <trkpt lat="43.84039" lon="6.45044">
        <ele>1069.318</ele>
        <time>2012-04-01T09:39:07Z</time>
      </trkpt>
      <trkpt lat="43.84038" lon="6.45037">
        <ele>1071.436</ele>
        <time>2012-04-01T09:39:11Z</time>
      </trkpt>
      <trkpt lat="43.84039" lon="6.4503">
        <ele>1070.743</ele>
        <time>2012-04-01T09:39:16Z</time>
      </trkpt>
      <trkpt lat="43.8404" lon="6.4502">
        <ele>1069.087</ele>
        <time>2012-04-01T09:39:23Z</time>
      </trkpt>
      <trkpt lat="43.84042" lon="6.45017">
        <ele>1066.709</ele>
        <time>2012-04-01T09:39:28Z</time>
      </trkpt>
      <trkpt lat="43.84049" lon="6.45012">
        <ele>1064.559</ele>
        <time>2012-04-01T09:39:40Z</time>
      </trkpt>
      <trkpt lat="43.84052" lon="6.45009">
        <ele>1063.557</ele>
        <time>2012-04-01T09:39:42Z</time>
      </trkpt>
      <trkpt lat="43.84048" lon="6.45003">
        <ele>1061.084</ele>
        <time>2012-04-01T09:39:47Z</time>
      </trkpt>
      <trkpt lat="43.84045" lon="6.45001">
        <ele>1060.484</ele>
        <time>2012-04-01T09:39:48Z</time>
      </trkpt>
      <trkpt lat="43.84036" lon="6.44992">
        <ele>1056.863</ele>
        <time>2012-04-01T09:39:53Z</time>
      </trkpt>
      <trkpt lat="43.84033" lon="6.44989">
        <ele>1054.941</ele>
        <time>2012-04-01T09:39:55Z</time>
      </trkpt>
      <trkpt lat="43.84022" lon="6.44993">
        <ele>1050.74</ele>
        <time>2012-04-01T09:39:59Z</time>
      </trkpt>
      <trkpt lat="43.84013" lon="6.45003">
        <ele>1046.498</ele>
        <time>2012-04-01T09:40:03Z</time>
      </trkpt>
      <trkpt lat="43.84011" lon="6.45007">
        <ele>1044.851</ele>
        <time>2012-04-01T09:40:05Z</time>
      </trkpt>
      <trkpt lat="43.8401" lon="6.45007">
        <ele>1043.212</ele>
        <time>2012-04-01T09:40:07Z</time>
      </trkpt>
      <trkpt lat="43.84008" lon="6.44995">
        <ele>1039.969</ele>
        <time>2012-04-01T09:40:11Z</time>
      </trkpt>
      <trkpt lat="43.84006" lon="6.44976">
        <ele>1035.525</ele>
        <time>2012-04-01T09:40:16Z</time>
      </trkpt>
      <trkpt lat="43.84006" lon="6.44956">
        <ele>1033.215</ele>
        <time>2012-04-01T09:40:19Z</time>
      </trkpt>
      <trkpt lat="43.84001" lon="6.44955">
        <ele>1031.211</ele>
        <time>2012-04-01T09:40:23Z</time>
      </trkpt>
      <trkpt lat="43.83995" lon="6.44961">
        <ele>1027.074</ele>
        <time>2012-04-01T09:40:28Z</time>
      </trkpt>
      <trkpt lat="43.8399" lon="6.44961">
        <ele>1024.934</ele>
        <time>2012-04-01T09:40:32Z</time>
      </trkpt>
      <trkpt lat="43.83981" lon="6.44962">
        <ele>1021.23</ele>
        <time>2012-04-01T09:40:36Z</time>
      </trkpt>
      <trkpt lat="43.83977" lon="6.44961">
        <ele>1019.127</ele>
        <time>2012-04-01T09:40:40Z</time>
      </trkpt>
      <trkpt lat="43.83975" lon="6.44961">
        <ele>1023.755</ele>
        <time>2012-04-01T09:41:31Z</time>
      </trkpt>
      <trkpt lat="43.83975" lon="6.44964">
        <ele>1023.372</ele>
        <time>2012-04-01T09:41:38Z</time>
      </trkpt>
      <trkpt lat="43.83974" lon="6.44964">
        <ele>1022.741</ele>
        <time>2012-04-01T09:41:45Z</time>
      </trkpt>
      <trkpt lat="43.83971" lon="6.44963">
        <ele>1021.287</ele>
        <time>2012-04-01T09:41:49Z</time>
      </trkpt>
      <trkpt lat="43.83967" lon="6.44946">
        <ele>1018.492</ele>
        <time>2012-04-01T09:41:54Z</time>
      </trkpt>
      <trkpt lat="43.83965" lon="6.44939">
        <ele>1017.548</ele>
        <time>2012-04-01T09:41:58Z</time>
      </trkpt>
      <trkpt lat="43.83965" lon="6.44938">
        <ele>1017.378</ele>
        <time>2012-04-01T09:42:02Z</time>
      </trkpt>
      <trkpt lat="43.83964" lon="6.44932">
        <ele>1015.536</ele>
        <time>2012-04-01T09:42:07Z</time>
      </trkpt>
      <trkpt lat="43.83961" lon="6.44934">
        <ele>1014.934</ele>
        <time>2012-04-01T09:42:08Z</time>
      </trkpt>
      <trkpt lat="43.83947" lon="6.44955">
        <ele>1010.031</ele>
        <time>2012-04-01T09:42:13Z</time>
      </trkpt>
      <trkpt lat="43.83941" lon="6.44981">
        <ele>1003.977</ele>
        <time>2012-04-01T09:42:18Z</time>
      </trkpt>
      <trkpt lat="43.83935" lon="6.44988">
        <ele>1000.912</ele>
        <time>2012-04-01T09:42:23Z</time>
      </trkpt>
      <trkpt lat="43.83935" lon="6.44988">
        <ele>999.529</ele>
        <time>2012-04-01T09:42:32Z</time>
      </trkpt>
      <trkpt lat="43.83927" lon="6.44994">
        <ele>997.788</ele>
        <time>2012-04-01T09:42:38Z</time>
      </trkpt>
      <trkpt lat="43.83927" lon="6.44994">
        <ele>996.442</ele>
        <time>2012-04-01T09:42:51Z</time>
      </trkpt>
      <trkpt lat="43.83929" lon="6.44978">
        <ele>994.517</ele>
        <time>2012-04-01T09:42:58Z</time>
      </trkpt>
      <trkpt lat="43.83927" lon="6.44963">
        <ele>993.695</ele>
        <time>2012-04-01T09:43:03Z</time>
      </trkpt>
      <trkpt lat="43.83928" lon="6.44961">
        <ele>993.114</ele>
        <time>2012-04-01T09:43:04Z</time>
      </trkpt>
      <trkpt lat="43.83924" lon="6.44955">
        <ele>991.004</ele>
        <time>2012-04-01T09:43:08Z</time>
      </trkpt>
      <trkpt lat="43.8392" lon="6.44959">
        <ele>989.161</ele>
        <time>2012-04-01T09:43:10Z</time>
      </trkpt>
      <trkpt lat="43.83907" lon="6.44974">
        <ele>984.14</ele>
        <time>2012-04-01T09:43:15Z</time>
      </trkpt>
      <trkpt lat="43.83906" lon="6.44976">
        <ele>981.213</ele>
        <time>2012-04-01T09:43:19Z</time>
      </trkpt>
      <trkpt lat="43.83907" lon="6.44976">
        <ele>976.719</ele>
        <time>2012-04-01T09:43:28Z</time>
      </trkpt>
      <trkpt lat="43.83907" lon="6.44978">
        <ele>976.982</ele>
        <time>2012-04-01T09:43:31Z</time>
      </trkpt>
      <trkpt lat="43.83906" lon="6.4498">
        <ele>977.202</ele>
        <time>2012-04-01T09:43:38Z</time>
      </trkpt>
      <trkpt lat="43.83902" lon="6.44982">
        <ele>977.612</ele>
        <time>2012-04-01T09:43:43Z</time>
      </trkpt>
      <trkpt lat="43.839" lon="6.44981">
        <ele>977.441</ele>
        <time>2012-04-01T09:43:49Z</time>
      </trkpt>
      <trkpt lat="43.839" lon="6.44981">
        <ele>978.223</ele>
        <time>2012-04-01T09:43:56Z</time>
      </trkpt>
      <trkpt lat="43.839" lon="6.44982">
        <ele>978.392</ele>
        <time>2012-04-01T09:44:05Z</time>
      </trkpt>
      <trkpt lat="43.83899" lon="6.44982">
        <ele>979.102</ele>
        <time>2012-04-01T09:44:19Z</time>
      </trkpt>
      <trkpt lat="43.83897" lon="6.44986">
        <ele>978.539</ele>
        <time>2012-04-01T09:44:26Z</time>
      </trkpt>
      <trkpt lat="43.83894" lon="6.44984">
        <ele>978.468</ele>
        <time>2012-04-01T09:44:31Z</time>
      </trkpt>
      <trkpt lat="43.83891" lon="6.44983">
        <ele>977.858</ele>
        <time>2012-04-01T09:44:37Z</time>
      </trkpt>
      <trkpt lat="43.83888" lon="6.44984">
        <ele>976.768</ele>
        <time>2012-04-01T09:44:45Z</time>
      </trkpt>
      <trkpt lat="43.83887" lon="6.44982">
        <ele>975.861</ele>
        <time>2012-04-01T09:44:58Z</time>
      </trkpt>
      <trkpt lat="43.83885" lon="6.44979">
        <ele>974.208</ele>
        <time>2012-04-01T09:45:03Z</time>
      </trkpt>
      <trkpt lat="43.83884" lon="6.44979">
        <ele>972.83</ele>
        <time>2012-04-01T09:45:09Z</time>
      </trkpt>
      <trkpt lat="43.83874" lon="6.44981">
        <ele>971.028</ele>
        <time>2012-04-01T09:45:14Z</time>
      </trkpt>
      <trkpt lat="43.83857" lon="6.44984">
        <ele>967.636</ele>
        <time>2012-04-01T09:45:20Z</time>
      </trkpt>
      <trkpt lat="43.83838" lon="6.44992">
        <ele>960.949</ele>
        <time>2012-04-01T09:45:26Z</time>
      </trkpt>
      <trkpt lat="43.83821" lon="6.44995">
        <ele>954.471</ele>
        <time>2012-04-01T09:45:32Z</time>
      </trkpt>
      <trkpt lat="43.83815" lon="6.45004">
        <ele>951.342</ele>
        <time>2012-04-01T09:45:36Z</time>
      </trkpt>
      <trkpt lat="43.83814" lon="6.45006">
        <ele>949.069</ele>
        <time>2012-04-01T09:45:44Z</time>
      </trkpt>
      <trkpt lat="43.83808" lon="6.45011">
        <ele>949.83</ele>
        <time>2012-04-01T09:45:50Z</time>
      </trkpt>
      <trkpt lat="43.83803" lon="6.45016">
        <ele>949.269</ele>
        <time>2012-04-01T09:45:54Z</time>
      </trkpt>
      <trkpt lat="43.83796" lon="6.45025">
        <ele>948.268</ele>
        <time>2012-04-01T09:45:59Z</time>
      </trkpt>
      <trkpt lat="43.83777" lon="6.45042">
        <ele>947.378</ele>
        <time>2012-04-01T09:46:06Z</time>
      </trkpt>
      <trkpt lat="43.8376" lon="6.4506">
        <ele>944.814</ele>
        <time>2012-04-01T09:46:12Z</time>
      </trkpt>
      <trkpt lat="43.83744" lon="6.45079">
        <ele>942.924</ele>
        <time>2012-04-01T09:46:17Z</time>
      </trkpt>
      <trkpt lat="43.83732" lon="6.45091">
        <ele>941.323</ele>
        <time>2012-04-01T09:46:20Z</time>
      </trkpt>
      <trkpt lat="43.83723" lon="6.45099">
        <ele>940.374</ele>
        <time>2012-04-01T09:46:22Z</time>
      </trkpt>
      <trkpt lat="43.8371" lon="6.45115">
        <ele>939.005</ele>
        <time>2012-04-01T09:46:25Z</time>
      </trkpt>
      <trkpt lat="43.83695" lon="6.45141">
        <ele>936.624</ele>
        <time>2012-04-01T09:46:29Z</time>
      </trkpt>
      <trkpt lat="43.83667" lon="6.45197">
        <ele>933.166</ele>
        <time>2012-04-01T09:46:37Z</time>
      </trkpt>
      <trkpt lat="43.83645" lon="6.45234">
        <ele>932.369</ele>
        <time>2012-04-01T09:46:43Z</time>
      </trkpt>
      <trkpt lat="43.83629" lon="6.45261">
        <ele>929.888</ele>
        <time>2012-04-01T09:46:49Z</time>
      </trkpt>
      <trkpt lat="43.83613" lon="6.45291">
        <ele>928.971</ele>
        <time>2012-04-01T09:46:56Z</time>
      </trkpt>
      <trkpt lat="43.83594" lon="6.45327">
        <ele>921.055</ele>
        <time>2012-04-01T09:47:04Z</time>
      </trkpt>
      <trkpt lat="43.83581" lon="6.4535">
        <ele>919.355</ele>
        <time>2012-04-01T09:47:09Z</time>
      </trkpt>
      <trkpt lat="43.83583" lon="6.45385">
        <ele>918.978</ele>
        <time>2012-04-01T09:47:14Z</time>
      </trkpt>
      <trkpt lat="43.83599" lon="6.45408">
        <ele>920.618</ele>
        <time>2012-04-01T09:47:18Z</time>
      </trkpt>
      <trkpt lat="43.83606" lon="6.45421">
        <ele>920.778</ele>
        <time>2012-04-01T09:47:20Z</time>
      </trkpt>
      <trkpt lat="43.83615" lon="6.45434">
        <ele>921.199</ele>
        <time>2012-04-01T09:47:22Z</time>
      </trkpt>
      <trkpt lat="43.83629" lon="6.45475">
        <ele>920.777</ele>
        <time>2012-04-01T09:47:27Z</time>
      </trkpt>
      <trkpt lat="43.8363" lon="6.45484">
        <ele>920.498</ele>
        <time>2012-04-01T09:47:28Z</time>
      </trkpt>
      <trkpt lat="43.83644" lon="6.45523">
        <ele>920.171</ele>
        <time>2012-04-01T09:47:34Z</time>
      </trkpt>
      <trkpt lat="43.83651" lon="6.45529">
        <ele>920.422</ele>
        <time>2012-04-01T09:47:36Z</time>
      </trkpt>
      <trkpt lat="43.83662" lon="6.45539">
        <ele>922.306</ele>
        <time>2012-04-01T09:47:40Z</time>
      </trkpt>
      <trkpt lat="43.83658" lon="6.45552">
        <ele>922.473</ele>
        <time>2012-04-01T09:47:44Z</time>
      </trkpt>
      <trkpt lat="43.83647" lon="6.45574">
        <ele>920.919</ele>
        <time>2012-04-01T09:47:49Z</time>
      </trkpt>
      <trkpt lat="43.83622" lon="6.4559">
        <ele>920.93</ele>
        <time>2012-04-01T09:47:56Z</time>
      </trkpt>
      <trkpt lat="43.83598" lon="6.45579">
        <ele>920.913</ele>
        <time>2012-04-01T09:48:01Z</time>
      </trkpt>
      <trkpt lat="43.83582" lon="6.45572">
        <ele>921.114</ele>
        <time>2012-04-01T09:48:04Z</time>
      </trkpt>
      <trkpt lat="43.83562" lon="6.45577">
        <ele>916.327</ele>
        <time>2012-04-01T09:48:09Z</time>
      </trkpt>
      <trkpt lat="43.83557" lon="6.4558">
        <ele>915.457</ele>
        <time>2012-04-01T09:48:10Z</time>
      </trkpt>
      <trkpt lat="43.83551" lon="6.45586">
        <ele>912.484</ele>
        <time>2012-04-01T09:48:12Z</time>
      </trkpt>
      <trkpt lat="43.83535" lon="6.45595">
        <ele>905.636</ele>
        <time>2012-04-01T09:48:16Z</time>
      </trkpt>
      <trkpt lat="43.8352" lon="6.45612">
        <ele>906.2</ele>
        <time>2012-04-01T09:48:21Z</time>
      </trkpt>
      <trkpt lat="43.83518" lon="6.45616">
        <ele>906.78</ele>
        <time>2012-04-01T09:48:22Z</time>
      </trkpt>
      <trkpt lat="43.83516" lon="6.45635">
        <ele>905.789</ele>
        <time>2012-04-01T09:48:28Z</time>
      </trkpt>
      <trkpt lat="43.83516" lon="6.45655">
        <ele>903.577</ele>
        <time>2012-04-01T09:48:32Z</time>
      </trkpt>
      <trkpt lat="43.83518" lon="6.45686">
        <ele>901.023</ele>
        <time>2012-04-01T09:48:36Z</time>
      </trkpt>
      <trkpt lat="43.83523" lon="6.4574">
        <ele>899.885</ele>
        <time>2012-04-01T09:48:42Z</time>
      </trkpt>
      <trkpt lat="43.83526" lon="6.45765">
        <ele>899.195</ele>
        <time>2012-04-01T09:48:45Z</time>
      </trkpt>
      <trkpt lat="43.8352" lon="6.45785">
        <ele>898.005</ele>
        <time>2012-04-01T09:48:49Z</time>
      </trkpt>
      <trkpt lat="43.83514" lon="6.45784">
        <ele>899.139</ele>
        <time>2012-04-01T09:48:51Z</time>
      </trkpt>
      <trkpt lat="43.83495" lon="6.4578">
        <ele>898.822</ele>
        <time>2012-04-01T09:48:55Z</time>
      </trkpt>
      <trkpt lat="43.83479" lon="6.45787">
        <ele>896.149</ele>
        <time>2012-04-01T09:48:58Z</time>
      </trkpt>
      <trkpt lat="43.83459" lon="6.45783">
        <ele>896.393</ele>
        <time>2012-04-01T09:49:02Z</time>
      </trkpt>
      <trkpt lat="43.83428" lon="6.4577">
        <ele>886.803</ele>
        <time>2012-04-01T09:49:08Z</time>
      </trkpt>
      <trkpt lat="43.83418" lon="6.45767">
        <ele>883.852</ele>
        <time>2012-04-01T09:49:10Z</time>
      </trkpt>
      <trkpt lat="43.83388" lon="6.45774">
        <ele>875.482</ele>
        <time>2012-04-01T09:49:15Z</time>
      </trkpt>
      <trkpt lat="43.83381" lon="6.45775">
        <ele>873.872</ele>
        <time>2012-04-01T09:49:16Z</time>
      </trkpt>
      <trkpt lat="43.83354" lon="6.45781">
        <ele>871.107</ele>
        <time>2012-04-01T09:49:20Z</time>
      </trkpt>
      <trkpt lat="43.83333" lon="6.45795">
        <ele>870.244</ele>
        <time>2012-04-01T09:49:24Z</time>
      </trkpt>
      <trkpt lat="43.83324" lon="6.45807">
        <ele>868.814</ele>
        <time>2012-04-01T09:49:27Z</time>
      </trkpt>
      <trkpt lat="43.8331" lon="6.45837">
        <ele>865.575</ele>
        <time>2012-04-01T09:49:34Z</time>
      </trkpt>
      <trkpt lat="43.83303" lon="6.45854">
        <ele>867.037</ele>
        <time>2012-04-01T09:49:40Z</time>
      </trkpt>
      <trkpt lat="43.83299" lon="6.45877">
        <ele>862.872</ele>
        <time>2012-04-01T09:49:48Z</time>
      </trkpt>
      <trkpt lat="43.83293" lon="6.45899">
        <ele>869.029</ele>
        <time>2012-04-01T09:49:56Z</time>
      </trkpt>
      <trkpt lat="43.83286" lon="6.45922">
        <ele>874.038</ele>
        <time>2012-04-01T09:50:04Z</time>
      </trkpt>
      <trkpt lat="43.83279" lon="6.45945">
        <ele>878.297</ele>
        <time>2012-04-01T09:50:11Z</time>
      </trkpt>
      <trkpt lat="43.83281" lon="6.45958">
        <ele>880.925</ele>
        <time>2012-04-01T09:50:16Z</time>
      </trkpt>
      <trkpt lat="43.8328" lon="6.4596">
        <ele>885.005</ele>
        <time>2012-04-01T09:50:21Z</time>
      </trkpt>
      <trkpt lat="43.83281" lon="6.45966">
        <ele>889.87</ele>
        <time>2012-04-01T09:50:38Z</time>
      </trkpt>
      <trkpt lat="43.83289" lon="6.4598">
        <ele>888.118</ele>
        <time>2012-04-01T09:50:42Z</time>
      </trkpt>
      <trkpt lat="43.83292" lon="6.45984">
        <ele>887.316</ele>
        <time>2012-04-01T09:50:43Z</time>
      </trkpt>
      <trkpt lat="43.83302" lon="6.46011">
        <ele>885.076</ele>
        <time>2012-04-01T09:50:48Z</time>
      </trkpt>
      <trkpt lat="43.83307" lon="6.4602">
        <ele>884.576</ele>
        <time>2012-04-01T09:50:50Z</time>
      </trkpt>
      <trkpt lat="43.83329" lon="6.46047">
        <ele>882.836</ele>
        <time>2012-04-01T09:50:56Z</time>
      </trkpt>
      <trkpt lat="43.83338" lon="6.46078">
        <ele>883.167</ele>
        <time>2012-04-01T09:51:00Z</time>
      </trkpt>
      <trkpt lat="43.83339" lon="6.4611">
        <ele>884.11</ele>
        <time>2012-04-01T09:51:04Z</time>
      </trkpt>
      <trkpt lat="43.83336" lon="6.46143">
        <ele>886.294</ele>
        <time>2012-04-01T09:51:10Z</time>
      </trkpt>
      <trkpt lat="43.83335" lon="6.46153">
        <ele>886.044</ele>
        <time>2012-04-01T09:51:14Z</time>
      </trkpt>
      <trkpt lat="43.83337" lon="6.4616">
        <ele>886.414</ele>
        <time>2012-04-01T09:51:20Z</time>
      </trkpt>
      <trkpt lat="43.83338" lon="6.46161">
        <ele>884.013</ele>
        <time>2012-04-01T09:51:26Z</time>
      </trkpt>
      <trkpt lat="43.83344" lon="6.46177">
        <ele>876.901</ele>
        <time>2012-04-01T09:52:06Z</time>
      </trkpt>
      <trkpt lat="43.83349" lon="6.46207">
        <ele>876.842</ele>
        <time>2012-04-01T09:52:12Z</time>
      </trkpt>
      <trkpt lat="43.8336" lon="6.4623">
        <ele>875.23</ele>
        <time>2012-04-01T09:52:17Z</time>
      </trkpt>
      <trkpt lat="43.83372" lon="6.46252">
        <ele>875.484</ele>
        <time>2012-04-01T09:52:22Z</time>
      </trkpt>
      <trkpt lat="43.83382" lon="6.46271">
        <ele>876.633</ele>
        <time>2012-04-01T09:52:27Z</time>
      </trkpt>
      <trkpt lat="43.83391" lon="6.46302">
        <ele>882.229</ele>
        <time>2012-04-01T09:52:34Z</time>
      </trkpt>
      <trkpt lat="43.83398" lon="6.46327">
        <ele>880.115</ele>
        <time>2012-04-01T09:52:39Z</time>
      </trkpt>
      <trkpt lat="43.83411" lon="6.46363">
        <ele>876.372</ele>
        <time>2012-04-01T09:52:46Z</time>
      </trkpt>
      <trkpt lat="43.83413" lon="6.46388">
        <ele>876.624</ele>
        <time>2012-04-01T09:52:51Z</time>
      </trkpt>
      <trkpt lat="43.83413" lon="6.46402">
        <ele>877.656</ele>
        <time>2012-04-01T09:52:56Z</time>
      </trkpt>
      <trkpt lat="43.83412" lon="6.46422">
        <ele>878.787</ele>
        <time>2012-04-01T09:53:02Z</time>
      </trkpt>
      <trkpt lat="43.8341" lon="6.46441">
        <ele>879.285</ele>
        <time>2012-04-01T09:53:08Z</time>
      </trkpt>
      <trkpt lat="43.83409" lon="6.46463">
        <ele>880.615</ele>
        <time>2012-04-01T09:53:14Z</time>
      </trkpt>
      <trkpt lat="43.83411" lon="6.46467">
        <ele>877.432</ele>
        <time>2012-04-01T09:53:18Z</time>
      </trkpt>
      <trkpt lat="43.83412" lon="6.46469">
        <ele>877.022</ele>
        <time>2012-04-01T09:53:19Z</time>
      </trkpt>
      <trkpt lat="43.8341" lon="6.46483">
        <ele>878.654</ele>
        <time>2012-04-01T09:53:23Z</time>
      </trkpt>
      <trkpt lat="43.83409" lon="6.465">
        <ele>880.816</ele>
        <time>2012-04-01T09:53:26Z</time>
      </trkpt>
      <trkpt lat="43.83411" lon="6.46539">
        <ele>882.636</ele>
        <time>2012-04-01T09:53:32Z</time>
      </trkpt>
      <trkpt lat="43.83414" lon="6.46552">
        <ele>882.214</ele>
        <time>2012-04-01T09:53:34Z</time>
      </trkpt>
      <trkpt lat="43.83431" lon="6.46584">
        <ele>879.957</ele>
        <time>2012-04-01T09:53:39Z</time>
      </trkpt>
      <trkpt lat="43.83446" lon="6.4663">
        <ele>876.798</ele>
        <time>2012-04-01T09:53:44Z</time>
      </trkpt>
      <trkpt lat="43.83448" lon="6.46651">
        <ele>875.718</ele>
        <time>2012-04-01T09:53:46Z</time>
      </trkpt>
      <trkpt lat="43.83448" lon="6.46672">
        <ele>875.189</ele>
        <time>2012-04-01T09:53:48Z</time>
      </trkpt>
      <trkpt lat="43.83454" lon="6.46714">
        <ele>871.896</ele>
        <time>2012-04-01T09:53:52Z</time>
      </trkpt>
      <trkpt lat="43.83479" lon="6.4675">
        <ele>868.737</ele>
        <time>2012-04-01T09:53:57Z</time>
      </trkpt>
      <trkpt lat="43.83481" lon="6.46763">
        <ele>867.748</ele>
        <time>2012-04-01T09:54:00Z</time>
      </trkpt>
      <trkpt lat="43.83474" lon="6.46768">
        <ele>867.259</ele>
        <time>2012-04-01T09:54:02Z</time>
      </trkpt>
      <trkpt lat="43.83442" lon="6.4678">
        <ele>867.435</ele>
        <time>2012-04-01T09:54:11Z</time>
      </trkpt>
      <trkpt lat="43.83432" lon="6.46785">
        <ele>866.903</ele>
        <time>2012-04-01T09:54:14Z</time>
      </trkpt>
      <trkpt lat="43.83412" lon="6.46798">
        <ele>866.433</ele>
        <time>2012-04-01T09:54:19Z</time>
      </trkpt>
      <trkpt lat="43.83393" lon="6.46812">
        <ele>866.102</ele>
        <time>2012-04-01T09:54:24Z</time>
      </trkpt>
      <trkpt lat="43.83385" lon="6.46831">
        <ele>865.35</ele>
        <time>2012-04-01T09:54:27Z</time>
      </trkpt>
      <trkpt lat="43.83382" lon="6.46848">
        <ele>864.849</ele>
        <time>2012-04-01T09:54:29Z</time>
      </trkpt>
      <trkpt lat="43.83373" lon="6.46909">
        <ele>862.981</ele>
        <time>2012-04-01T09:54:36Z</time>
      </trkpt>
      <trkpt lat="43.83367" lon="6.46937">
        <ele>863.247</ele>
        <time>2012-04-01T09:54:41Z</time>
      </trkpt>
      <trkpt lat="43.83366" lon="6.46942">
        <ele>863.347</ele>
        <time>2012-04-01T09:54:42Z</time>
      </trkpt>
      <trkpt lat="43.83361" lon="6.46975">
        <ele>864.637</ele>
        <time>2012-04-01T09:54:48Z</time>
      </trkpt>
      <trkpt lat="43.83353" lon="6.47004">
        <ele>868.15</ele>
        <time>2012-04-01T09:54:54Z</time>
      </trkpt>
      <trkpt lat="43.83349" lon="6.47023">
        <ele>869.13</ele>
        <time>2012-04-01T09:54:58Z</time>
      </trkpt>
      <trkpt lat="43.83353" lon="6.47049">
        <ele>868.759</ele>
        <time>2012-04-01T09:55:04Z</time>
      </trkpt>
      <trkpt lat="43.83364" lon="6.4707">
        <ele>866.886</ele>
        <time>2012-04-01T09:55:10Z</time>
      </trkpt>
      <trkpt lat="43.83378" lon="6.47094">
        <ele>864.972</ele>
        <time>2012-04-01T09:55:16Z</time>
      </trkpt>
      <trkpt lat="43.83397" lon="6.47132">
        <ele>863.684</ele>
        <time>2012-04-01T09:55:23Z</time>
      </trkpt>
      <trkpt lat="43.83399" lon="6.47138">
        <ele>863.524</ele>
        <time>2012-04-01T09:55:24Z</time>
      </trkpt>
      <trkpt lat="43.83404" lon="6.4717">
        <ele>863.405</ele>
        <time>2012-04-01T09:55:30Z</time>
      </trkpt>
      <trkpt lat="43.83399" lon="6.47204">
        <ele>864.936</ele>
        <time>2012-04-01T09:55:36Z</time>
      </trkpt>
      <trkpt lat="43.83393" lon="6.47235">
        <ele>864.946</ele>
        <time>2012-04-01T09:55:42Z</time>
      </trkpt>
      <trkpt lat="43.8339" lon="6.47263">
        <ele>864.295</ele>
        <time>2012-04-01T09:55:47Z</time>
      </trkpt>
      <trkpt lat="43.83392" lon="6.47306">
        <ele>864.083</ele>
        <time>2012-04-01T09:55:53Z</time>
      </trkpt>
      <trkpt lat="43.83394" lon="6.47355">
        <ele>862.653</ele>
        <time>2012-04-01T09:55:59Z</time>
      </trkpt>
      <trkpt lat="43.8339" lon="6.47393">
        <ele>861.662</ele>
        <time>2012-04-01T09:56:04Z</time>
      </trkpt>
      <trkpt lat="43.83392" lon="6.47435">
        <ele>859.21</ele>
        <time>2012-04-01T09:56:09Z</time>
      </trkpt>
      <trkpt lat="43.83395" lon="6.47451">
        <ele>858.01</ele>
        <time>2012-04-01T09:56:11Z</time>
      </trkpt>
      <trkpt lat="43.83395" lon="6.47487">
        <ele>856.627</ele>
        <time>2012-04-01T09:56:15Z</time>
      </trkpt>
      <trkpt lat="43.83375" lon="6.47559">
        <ele>853.689</ele>
        <time>2012-04-01T09:56:23Z</time>
      </trkpt>
      <trkpt lat="43.83383" lon="6.47595">
        <ele>850.366</ele>
        <time>2012-04-01T09:56:27Z</time>
      </trkpt>
      <trkpt lat="43.83391" lon="6.47628">
        <ele>849.899</ele>
        <time>2012-04-01T09:56:30Z</time>
      </trkpt>
      <trkpt lat="43.83389" lon="6.47662">
        <ele>848.751</ele>
        <time>2012-04-01T09:56:33Z</time>
      </trkpt>
      <trkpt lat="43.83392" lon="6.47703">
        <ele>846.861</ele>
        <time>2012-04-01T09:56:37Z</time>
      </trkpt>
      <trkpt lat="43.83397" lon="6.4771">
        <ele>846.149</ele>
        <time>2012-04-01T09:56:38Z</time>
      </trkpt>
      <trkpt lat="43.8341" lon="6.47726">
        <ele>844.396</ele>
        <time>2012-04-01T09:56:40Z</time>
      </trkpt>
      <trkpt lat="43.83423" lon="6.47773">
        <ele>840.934</ele>
        <time>2012-04-01T09:56:44Z</time>
      </trkpt>
      <trkpt lat="43.83432" lon="6.47813">
        <ele>838.182</ele>
        <time>2012-04-01T09:56:47Z</time>
      </trkpt>
      <trkpt lat="43.83435" lon="6.47842">
        <ele>837.008</ele>
        <time>2012-04-01T09:56:49Z</time>
      </trkpt>
      <trkpt lat="43.8345" lon="6.47904">
        <ele>834.413</ele>
        <time>2012-04-01T09:56:54Z</time>
      </trkpt>
      <trkpt lat="43.83456" lon="6.47928">
        <ele>833.558</ele>
        <time>2012-04-01T09:56:56Z</time>
      </trkpt>
      <trkpt lat="43.83466" lon="6.48002">
        <ele>831.833</ele>
        <time>2012-04-01T09:57:03Z</time>
      </trkpt>
      <trkpt lat="43.83467" lon="6.48012">
        <ele>831.634</ele>
        <time>2012-04-01T09:57:04Z</time>
      </trkpt>
      <trkpt lat="43.83466" lon="6.48066">
        <ele>830.375</ele>
        <time>2012-04-01T09:57:10Z</time>
      </trkpt>
      <trkpt lat="43.83465" lon="6.48075">
        <ele>830.424</ele>
        <time>2012-04-01T09:57:11Z</time>
      </trkpt>
      <trkpt lat="43.83471" lon="6.48122">
        <ele>828.933</ele>
        <time>2012-04-01T09:57:16Z</time>
      </trkpt>
      <trkpt lat="43.83489" lon="6.4817">
        <ele>825.788</ele>
        <time>2012-04-01T09:57:21Z</time>
      </trkpt>
      <trkpt lat="43.83514" lon="6.48193">
        <ele>824.808</ele>
        <time>2012-04-01T09:57:25Z</time>
      </trkpt>
      <trkpt lat="43.8353" lon="6.48198">
        <ele>824.498</ele>
        <time>2012-04-01T09:57:27Z</time>
      </trkpt>
      <trkpt lat="43.83567" lon="6.4823">
        <ele>822.627</ele>
        <time>2012-04-01T09:57:32Z</time>
      </trkpt>
      <trkpt lat="43.83582" lon="6.48245">
        <ele>821.74</ele>
        <time>2012-04-01T09:57:34Z</time>
      </trkpt>
      <trkpt lat="43.83604" lon="6.48283">
        <ele>820.723</ele>
        <time>2012-04-01T09:57:38Z</time>
      </trkpt>
      <trkpt lat="43.83634" lon="6.48351">
        <ele>818.362</ele>
        <time>2012-04-01T09:57:45Z</time>
      </trkpt>
      <trkpt lat="43.83647" lon="6.4838">
        <ele>816.798</ele>
        <time>2012-04-01T09:57:48Z</time>
      </trkpt>
      <trkpt lat="43.83659" lon="6.4843">
        <ele>814.069</ele>
        <time>2012-04-01T09:57:52Z</time>
      </trkpt>
      <trkpt lat="43.83672" lon="6.48506">
        <ele>809.899</ele>
        <time>2012-04-01T09:57:58Z</time>
      </trkpt>
      <trkpt lat="43.83678" lon="6.48531">
        <ele>808.498</ele>
        <time>2012-04-01T09:58:00Z</time>
      </trkpt>
      <trkpt lat="43.83677" lon="6.48582">
        <ele>805.467</ele>
        <time>2012-04-01T09:58:04Z</time>
      </trkpt>
      <trkpt lat="43.83662" lon="6.48615">
        <ele>803.546</ele>
        <time>2012-04-01T09:58:07Z</time>
      </trkpt>
      <trkpt lat="43.83656" lon="6.48625">
        <ele>802.966</ele>
        <time>2012-04-01T09:58:08Z</time>
      </trkpt>
      <trkpt lat="43.83626" lon="6.48672">
        <ele>799.848</ele>
        <time>2012-04-01T09:58:13Z</time>
      </trkpt>
      <trkpt lat="43.83621" lon="6.48682">
        <ele>799.058</ele>
        <time>2012-04-01T09:58:14Z</time>
      </trkpt>
      <trkpt lat="43.83626" lon="6.48715">
        <ele>795.686</ele>
        <time>2012-04-01T09:58:18Z</time>
      </trkpt>
      <trkpt lat="43.8365" lon="6.48722">
        <ele>793.005</ele>
        <time>2012-04-01T09:58:21Z</time>
      </trkpt>
      <trkpt lat="43.8366" lon="6.48723">
        <ele>792.415</ele>
        <time>2012-04-01T09:58:22Z</time>
      </trkpt>
      <trkpt lat="43.83712" lon="6.4873">
        <ele>788.946</ele>
        <time>2012-04-01T09:58:27Z</time>
      </trkpt>
      <trkpt lat="43.83746" lon="6.48754">
        <ele>786.707</ele>
        <time>2012-04-01T09:58:31Z</time>
      </trkpt>
      <trkpt lat="43.83766" lon="6.4878">
        <ele>784.418</ele>
        <time>2012-04-01T09:58:34Z</time>
      </trkpt>
      <trkpt lat="43.83777" lon="6.48814">
        <ele>783.091</ele>
        <time>2012-04-01T09:58:38Z</time>
      </trkpt>
      <trkpt lat="43.83779" lon="6.48822">
        <ele>782.901</ele>
        <time>2012-04-01T09:58:39Z</time>
      </trkpt>
      <trkpt lat="43.83797" lon="6.48869">
        <ele>780.793</ele>
        <time>2012-04-01T09:58:45Z</time>
      </trkpt>
      <trkpt lat="43.83806" lon="6.48894">
        <ele>776.736</ele>
        <time>2012-04-01T09:58:50Z</time>
      </trkpt>
      <trkpt lat="43.83808" lon="6.48898">
        <ele>776.716</ele>
        <time>2012-04-01T09:58:51Z</time>
      </trkpt>
      <trkpt lat="43.83822" lon="6.48907">
        <ele>774.952</ele>
        <time>2012-04-01T09:58:55Z</time>
      </trkpt>
      <trkpt lat="43.83841" lon="6.4891">
        <ele>772.729</ele>
        <time>2012-04-01T09:58:59Z</time>
      </trkpt>
      <trkpt lat="43.83851" lon="6.48909">
        <ele>771.287</ele>
        <time>2012-04-01T09:59:01Z</time>
      </trkpt>
      <trkpt lat="43.83864" lon="6.48917">
        <ele>768.469</ele>
        <time>2012-04-01T09:59:05Z</time>
      </trkpt>
      <trkpt lat="43.83865" lon="6.48922">
        <ele>767.595</ele>
        <time>2012-04-01T09:59:09Z</time>
      </trkpt>
      <trkpt lat="43.83863" lon="6.48924">
        <ele>771.232</ele>
        <time>2012-04-01T09:59:29Z</time>
      </trkpt>
      <trkpt lat="43.83863" lon="6.48924">
        <ele>770.108</ele>
        <time>2012-04-01T09:59:38Z</time>
      </trkpt>
      <trkpt lat="43.83866" lon="6.48925">
        <ele>770.578</ele>
        <time>2012-04-01T09:59:41Z</time>
      </trkpt>
      <trkpt lat="43.83872" lon="6.48921">
        <ele>771.711</ele>
        <time>2012-04-01T09:59:46Z</time>
      </trkpt>
      <trkpt lat="43.83879" lon="6.4892">
        <ele>774.185</ele>
        <time>2012-04-01T09:59:51Z</time>
      </trkpt>
      <trkpt lat="43.83892" lon="6.4892">
        <ele>777.947</ele>
        <time>2012-04-01T09:59:57Z</time>
      </trkpt>
      <trkpt lat="43.83902" lon="6.48918">
        <ele>780.507</ele>
        <time>2012-04-01T10:00:02Z</time>
      </trkpt>
      <trkpt lat="43.83912" lon="6.48913">
        <ele>782.146</ele>
        <time>2012-04-01T10:00:08Z</time>
      </trkpt>
      <trkpt lat="43.83922" lon="6.48913">
        <ele>784.047</ele>
        <time>2012-04-01T10:00:13Z</time>
      </trkpt>
      <trkpt lat="43.83935" lon="6.48909">
        <ele>785.704</ele>
        <time>2012-04-01T10:00:21Z</time>
      </trkpt>
      <trkpt lat="43.83938" lon="6.48906">
        <ele>786.014</ele>
        <time>2012-04-01T10:00:24Z</time>
      </trkpt>
      <trkpt lat="43.83946" lon="6.48897">
        <ele>788.415</ele>
        <time>2012-04-01T10:00:31Z</time>
      </trkpt>
      <trkpt lat="43.83954" lon="6.48888">
        <ele>793.808</ele>
        <time>2012-04-01T10:00:38Z</time>
      </trkpt>
      <trkpt lat="43.83964" lon="6.48876">
        <ele>797.858</ele>
        <time>2012-04-01T10:00:46Z</time>
      </trkpt>
      <trkpt lat="43.83973" lon="6.48867">
        <ele>800.056</ele>
        <time>2012-04-01T10:00:53Z</time>
      </trkpt>
      <trkpt lat="43.83986" lon="6.48858">
        <ele>804.429</ele>
        <time>2012-04-01T10:01:02Z</time>
      </trkpt>
      <trkpt lat="43.83992" lon="6.48856">
        <ele>803.988</ele>
        <time>2012-04-01T10:01:06Z</time>
      </trkpt>
      <trkpt lat="43.84005" lon="6.48844">
        <ele>803.705</ele>
        <time>2012-04-01T10:01:15Z</time>
      </trkpt>
      <trkpt lat="43.84006" lon="6.48843">
        <ele>804.106</ele>
        <time>2012-04-01T10:01:16Z</time>
      </trkpt>
      <trkpt lat="43.84015" lon="6.48829">
        <ele>804.856</ele>
        <time>2012-04-01T10:01:25Z</time>
      </trkpt>
      <trkpt lat="43.8402" lon="6.48823">
        <ele>804.374</ele>
        <time>2012-04-01T10:01:29Z</time>
      </trkpt>
      <trkpt lat="43.84032" lon="6.48815">
        <ele>803.924</ele>
        <time>2012-04-01T10:01:36Z</time>
      </trkpt>
      <trkpt lat="43.84044" lon="6.48805">
        <ele>802.223</ele>
        <time>2012-04-01T10:01:43Z</time>
      </trkpt>
      <trkpt lat="43.84048" lon="6.48802">
        <ele>801.232</ele>
        <time>2012-04-01T10:01:45Z</time>
      </trkpt>
      <trkpt lat="43.8405" lon="6.48794">
        <ele>802.173</ele>
        <time>2012-04-01T10:01:49Z</time>
      </trkpt>
      <trkpt lat="43.84045" lon="6.48784">
        <ele>801.965</ele>
        <time>2012-04-01T10:01:54Z</time>
      </trkpt>
      <trkpt lat="43.84039" lon="6.48787">
        <ele>803.227</ele>
        <time>2012-04-01T10:02:00Z</time>
      </trkpt>
      <trkpt lat="43.84031" lon="6.48785">
        <ele>804.436</ele>
        <time>2012-04-01T10:02:06Z</time>
      </trkpt>
      <trkpt lat="43.84027" lon="6.48781">
        <ele>804.926</ele>
        <time>2012-04-01T10:02:09Z</time>
      </trkpt>
      <trkpt lat="43.84026" lon="6.4877">
        <ele>807.016</ele>
        <time>2012-04-01T10:02:15Z</time>
      </trkpt>
      <trkpt lat="43.84036" lon="6.48762">
        <ele>808.846</ele>
        <time>2012-04-01T10:02:22Z</time>
      </trkpt>
      <trkpt lat="43.84048" lon="6.48755">
        <ele>809.956</ele>
        <time>2012-04-01T10:02:29Z</time>
      </trkpt>
      <trkpt lat="43.84058" lon="6.48746">
        <ele>812.607</ele>
        <time>2012-04-01T10:02:36Z</time>
      </trkpt>
      <trkpt lat="43.8406" lon="6.48746">
        <ele>813.318</ele>
        <time>2012-04-01T10:02:37Z</time>
      </trkpt>
      <trkpt lat="43.84065" lon="6.48739">
        <ele>814.097</ele>
        <time>2012-04-01T10:02:41Z</time>
      </trkpt>
      <trkpt lat="43.84067" lon="6.48724">
        <ele>816.966</ele>
        <time>2012-04-01T10:02:48Z</time>
      </trkpt>
      <trkpt lat="43.84068" lon="6.48714">
        <ele>818.966</ele>
        <time>2012-04-01T10:02:53Z</time>
      </trkpt>
      <trkpt lat="43.84072" lon="6.48695">
        <ele>819.344</ele>
        <time>2012-04-01T10:03:03Z</time>
      </trkpt>
      <trkpt lat="43.84077" lon="6.48684">
        <ele>820.612</ele>
        <time>2012-04-01T10:03:09Z</time>
      </trkpt>
      <trkpt lat="43.84088" lon="6.48669">
        <ele>821.054</ele>
        <time>2012-04-01T10:03:18Z</time>
      </trkpt>
      <trkpt lat="43.84098" lon="6.48653">
        <ele>823.935</ele>
        <time>2012-04-01T10:03:28Z</time>
      </trkpt>
      <trkpt lat="43.84105" lon="6.48643">
        <ele>827.258</ele>
        <time>2012-04-01T10:03:35Z</time>
      </trkpt>
      <trkpt lat="43.84113" lon="6.48634">
        <ele>830.289</ele>
        <time>2012-04-01T10:03:42Z</time>
      </trkpt>
      <trkpt lat="43.84123" lon="6.48634">
        <ele>829.505</ele>
        <time>2012-04-01T10:03:48Z</time>
      </trkpt>
      <trkpt lat="43.84129" lon="6.48642">
        <ele>828.225</ele>
        <time>2012-04-01T10:03:54Z</time>
      </trkpt>
      <trkpt lat="43.84132" lon="6.48656">
        <ele>826.434</ele>
        <time>2012-04-01T10:04:01Z</time>
      </trkpt>
      <trkpt lat="43.84137" lon="6.48671">
        <ele>824.803</ele>
        <time>2012-04-01T10:04:08Z</time>
      </trkpt>
      <trkpt lat="43.84146" lon="6.48685">
        <ele>824.364</ele>
        <time>2012-04-01T10:04:15Z</time>
      </trkpt>
      <trkpt lat="43.84155" lon="6.48692">
        <ele>824.034</ele>
        <time>2012-04-01T10:04:21Z</time>
      </trkpt>
      <trkpt lat="43.84168" lon="6.48697">
        <ele>824.633</ele>
        <time>2012-04-01T10:04:28Z</time>
      </trkpt>
      <trkpt lat="43.84183" lon="6.48703">
        <ele>825.834</ele>
        <time>2012-04-01T10:04:36Z</time>
      </trkpt>
      <trkpt lat="43.84195" lon="6.48706">
        <ele>827.675</ele>
        <time>2012-04-01T10:04:42Z</time>
      </trkpt>
      <trkpt lat="43.84207" lon="6.48706">
        <ele>829.125</ele>
        <time>2012-04-01T10:04:48Z</time>
      </trkpt>
      <trkpt lat="43.84225" lon="6.48704">
        <ele>832.466</ele>
        <time>2012-04-01T10:04:56Z</time>
      </trkpt>
      <trkpt lat="43.84233" lon="6.48699">
        <ele>834.126</ele>
        <time>2012-04-01T10:05:01Z</time>
      </trkpt>
      <trkpt lat="43.84249" lon="6.48694">
        <ele>835.465</ele>
        <time>2012-04-01T10:05:09Z</time>
      </trkpt>
      <trkpt lat="43.84265" lon="6.48689">
        <ele>835.424</ele>
        <time>2012-04-01T10:05:16Z</time>
      </trkpt>
      <trkpt lat="43.84281" lon="6.48684">
        <ele>836.153</ele>
        <time>2012-04-01T10:05:23Z</time>
      </trkpt>
      <trkpt lat="43.84293" lon="6.48678">
        <ele>835.631</ele>
        <time>2012-04-01T10:05:29Z</time>
      </trkpt>
      <trkpt lat="43.84311" lon="6.48673">
        <ele>836.581</ele>
        <time>2012-04-01T10:05:36Z</time>
      </trkpt>
      <trkpt lat="43.84326" lon="6.48672">
        <ele>837.121</ele>
        <time>2012-04-01T10:05:41Z</time>
      </trkpt>
      <trkpt lat="43.84352" lon="6.48674">
        <ele>835.587</ele>
        <time>2012-04-01T10:05:48Z</time>
      </trkpt>
      <trkpt lat="43.84368" lon="6.48666">
        <ele>834.476</ele>
        <time>2012-04-01T10:05:52Z</time>
      </trkpt>
      <trkpt lat="43.84382" lon="6.48669">
        <ele>833.597</ele>
        <time>2012-04-01T10:05:55Z</time>
      </trkpt>
      <trkpt lat="43.8439" lon="6.48684">
        <ele>833.883</ele>
        <time>2012-04-01T10:05:59Z</time>
      </trkpt>
      <trkpt lat="43.8439" lon="6.48705">
        <ele>835.085</ele>
        <time>2012-04-01T10:06:04Z</time>
      </trkpt>
      <trkpt lat="43.84384" lon="6.48736">
        <ele>835.957</ele>
        <time>2012-04-01T10:06:12Z</time>
      </trkpt>
      <trkpt lat="43.84385" lon="6.48764">
        <ele>833.325</ele>
        <time>2012-04-01T10:06:19Z</time>
      </trkpt>
      <trkpt lat="43.8439" lon="6.4879">
        <ele>835.126</ele>
        <time>2012-04-01T10:06:26Z</time>
      </trkpt>
      <trkpt lat="43.84394" lon="6.48811">
        <ele>836.646</ele>
        <time>2012-04-01T10:06:33Z</time>
      </trkpt>
      <trkpt lat="43.84394" lon="6.48836">
        <ele>837.755</ele>
        <time>2012-04-01T10:06:41Z</time>
      </trkpt>
      <trkpt lat="43.84388" lon="6.48854">
        <ele>839.727</ele>
        <time>2012-04-01T10:06:47Z</time>
      </trkpt>
      <trkpt lat="43.84382" lon="6.48877">
        <ele>840.717</ele>
        <time>2012-04-01T10:06:52Z</time>
      </trkpt>
      <trkpt lat="43.84386" lon="6.48894">
        <ele>842.056</ele>
        <time>2012-04-01T10:06:57Z</time>
      </trkpt>
      <trkpt lat="43.8439" lon="6.48915">
        <ele>844.396</ele>
        <time>2012-04-01T10:07:05Z</time>
      </trkpt>
      <trkpt lat="43.8439" lon="6.48939">
        <ele>846.044</ele>
        <time>2012-04-01T10:07:14Z</time>
      </trkpt>
      <trkpt lat="43.84387" lon="6.48961">
        <ele>849.935</ele>
        <time>2012-04-01T10:07:22Z</time>
      </trkpt>
      <trkpt lat="43.84384" lon="6.48981">
        <ele>850.655</ele>
        <time>2012-04-01T10:07:30Z</time>
      </trkpt>
      <trkpt lat="43.84381" lon="6.48997">
        <ele>850.764</ele>
        <time>2012-04-01T10:07:36Z</time>
      </trkpt>
      <trkpt lat="43.84378" lon="6.49012">
        <ele>849.504</ele>
        <time>2012-04-01T10:07:42Z</time>
      </trkpt>
      <trkpt lat="43.84379" lon="6.49027">
        <ele>849.554</ele>
        <time>2012-04-01T10:07:49Z</time>
      </trkpt>
      <trkpt lat="43.8438" lon="6.49037">
        <ele>850.967</ele>
        <time>2012-04-01T10:07:55Z</time>
      </trkpt>
      <trkpt lat="43.84386" lon="6.4905">
        <ele>852.457</ele>
        <time>2012-04-01T10:08:04Z</time>
      </trkpt>
      <trkpt lat="43.84392" lon="6.49053">
        <ele>855.838</ele>
        <time>2012-04-01T10:08:10Z</time>
      </trkpt>
      <trkpt lat="43.84401" lon="6.49061">
        <ele>860.097</ele>
        <time>2012-04-01T10:08:20Z</time>
      </trkpt>
      <trkpt lat="43.84405" lon="6.49062">
        <ele>861.067</ele>
        <time>2012-04-01T10:08:23Z</time>
      </trkpt>
      <trkpt lat="43.84411" lon="6.49068">
        <ele>864.737</ele>
        <time>2012-04-01T10:08:30Z</time>
      </trkpt>
      <trkpt lat="43.84416" lon="6.49072">
        <ele>866.738</ele>
        <time>2012-04-01T10:08:35Z</time>
      </trkpt>
      <trkpt lat="43.84423" lon="6.49081">
        <ele>869.316</ele>
        <time>2012-04-01T10:08:43Z</time>
      </trkpt>
      <trkpt lat="43.84431" lon="6.49089">
        <ele>869.884</ele>
        <time>2012-04-01T10:08:50Z</time>
      </trkpt>
      <trkpt lat="43.84432" lon="6.4909">
        <ele>870.903</ele>
        <time>2012-04-01T10:08:55Z</time>
      </trkpt>
      <trkpt lat="43.84433" lon="6.49095">
        <ele>869.811</ele>
        <time>2012-04-01T10:09:02Z</time>
      </trkpt>
      <trkpt lat="43.84439" lon="6.49113">
        <ele>861.662</ele>
        <time>2012-04-01T10:14:15Z</time>
      </trkpt>
      <trkpt lat="43.84442" lon="6.49131">
        <ele>860.93</ele>
        <time>2012-04-01T10:14:19Z</time>
      </trkpt>
      <trkpt lat="43.84446" lon="6.49152">
        <ele>859.308</ele>
        <time>2012-04-01T10:14:22Z</time>
      </trkpt>
      <trkpt lat="43.84458" lon="6.49167">
        <ele>860.08</ele>
        <time>2012-04-01T10:14:26Z</time>
      </trkpt>
      <trkpt lat="43.84488" lon="6.49174">
        <ele>860.99</ele>
        <time>2012-04-01T10:14:32Z</time>
      </trkpt>
      <trkpt lat="43.84508" lon="6.4917">
        <ele>861.32</ele>
        <time>2012-04-01T10:14:36Z</time>
      </trkpt>
      <trkpt lat="43.84515" lon="6.49166">
        <ele>863.075</ele>
        <time>2012-04-01T10:14:39Z</time>
      </trkpt>
      <trkpt lat="43.84515" lon="6.49162">
        <ele>864.566</ele>
        <time>2012-04-01T10:14:42Z</time>
      </trkpt>
      <trkpt lat="43.84516" lon="6.4916">
        <ele>865.236</ele>
        <time>2012-04-01T10:14:44Z</time>
      </trkpt>
      <trkpt lat="43.8452" lon="6.49161">
        <ele>865.855</ele>
        <time>2012-04-01T10:14:48Z</time>
      </trkpt>
      <trkpt lat="43.84521" lon="6.49161">
        <ele>865.933</ele>
        <time>2012-04-01T10:14:52Z</time>
      </trkpt>
      <trkpt lat="43.84532" lon="6.49164">
        <ele>860.179</ele>
        <time>2012-04-01T10:14:59Z</time>
      </trkpt>
      <trkpt lat="43.84534" lon="6.49167">
        <ele>860.039</ele>
        <time>2012-04-01T10:15:00Z</time>
      </trkpt>
      <trkpt lat="43.84541" lon="6.49192">
        <ele>860.54</ele>
        <time>2012-04-01T10:15:04Z</time>
      </trkpt>
      <trkpt lat="43.84543" lon="6.49199">
        <ele>860.48</ele>
        <time>2012-04-01T10:15:05Z</time>
      </trkpt>
      <trkpt lat="43.84551" lon="6.49233">
        <ele>860.628</ele>
        <time>2012-04-01T10:15:09Z</time>
      </trkpt>
      <trkpt lat="43.84551" lon="6.49271">
        <ele>860.659</ele>
        <time>2012-04-01T10:15:13Z</time>
      </trkpt>
      <trkpt lat="43.84556" lon="6.49287">
        <ele>859.587</ele>
        <time>2012-04-01T10:15:16Z</time>
      </trkpt>
      <trkpt lat="43.8456" lon="6.49291">
        <ele>859.778</ele>
        <time>2012-04-01T10:15:17Z</time>
      </trkpt>
      <trkpt lat="43.84568" lon="6.49301">
        <ele>858.927</ele>
        <time>2012-04-01T10:15:19Z</time>
      </trkpt>
      <trkpt lat="43.84575" lon="6.49327">
        <ele>857.957</ele>
        <time>2012-04-01T10:15:23Z</time>
      </trkpt>
      <trkpt lat="43.8457" lon="6.49365">
        <ele>856.659</ele>
        <time>2012-04-01T10:15:28Z</time>
      </trkpt>
      <trkpt lat="43.84571" lon="6.49374">
        <ele>855.678</ele>
        <time>2012-04-01T10:15:29Z</time>
      </trkpt>
      <trkpt lat="43.84569" lon="6.49407">
        <ele>855.679</ele>
        <time>2012-04-01T10:15:34Z</time>
      </trkpt>
      <trkpt lat="43.84569" lon="6.49423">
        <ele>852.235</ele>
        <time>2012-04-01T10:15:37Z</time>
      </trkpt>
      <trkpt lat="43.8457" lon="6.49459">
        <ele>844.931</ele>
        <time>2012-04-01T10:15:42Z</time>
      </trkpt>
      <trkpt lat="43.8457" lon="6.49472">
        <ele>842.547</ele>
        <time>2012-04-01T10:15:44Z</time>
      </trkpt>
      <trkpt lat="43.84576" lon="6.49499">
        <ele>837.376</ele>
        <time>2012-04-01T10:15:48Z</time>
      </trkpt>
      <trkpt lat="43.84583" lon="6.49514">
        <ele>835.457</ele>
        <time>2012-04-01T10:15:50Z</time>
      </trkpt>
      <trkpt lat="43.84591" lon="6.4954">
        <ele>831.776</ele>
        <time>2012-04-01T10:15:53Z</time>
      </trkpt>
      <trkpt lat="43.84612" lon="6.4957">
        <ele>826.188</ele>
        <time>2012-04-01T10:15:58Z</time>
      </trkpt>
      <trkpt lat="43.84627" lon="6.49593">
        <ele>823.3</ele>
        <time>2012-04-01T10:16:02Z</time>
      </trkpt>
      <trkpt lat="43.84628" lon="6.4961">
        <ele>820.901</ele>
        <time>2012-04-01T10:16:05Z</time>
      </trkpt>
      <trkpt lat="43.84633" lon="6.49629">
        <ele>816.188</ele>
        <time>2012-04-01T10:16:09Z</time>
      </trkpt>
      <trkpt lat="43.84637" lon="6.49633">
        <ele>815.088</ele>
        <time>2012-04-01T10:16:10Z</time>
      </trkpt>
      <trkpt lat="43.84646" lon="6.49638">
        <ele>812.797</ele>
        <time>2012-04-01T10:16:12Z</time>
      </trkpt>
      <trkpt lat="43.84663" lon="6.49661">
        <ele>807.267</ele>
        <time>2012-04-01T10:16:17Z</time>
      </trkpt>
      <trkpt lat="43.84672" lon="6.49681">
        <ele>802.543</ele>
        <time>2012-04-01T10:16:21Z</time>
      </trkpt>
      <trkpt lat="43.84677" lon="6.49691">
        <ele>799.546</ele>
        <time>2012-04-01T10:16:23Z</time>
      </trkpt>
      <trkpt lat="43.8469" lon="6.49708">
        <ele>794.143</ele>
        <time>2012-04-01T10:16:27Z</time>
      </trkpt>
      <trkpt lat="43.84706" lon="6.49742">
        <ele>789.186</ele>
        <time>2012-04-01T10:16:32Z</time>
      </trkpt>
      <trkpt lat="43.84721" lon="6.49777">
        <ele>789.343</ele>
        <time>2012-04-01T10:16:37Z</time>
      </trkpt>
      <trkpt lat="43.84724" lon="6.49784">
        <ele>788.392</ele>
        <time>2012-04-01T10:16:38Z</time>
      </trkpt>
      <trkpt lat="43.8473" lon="6.49798">
        <ele>785.568</ele>
        <time>2012-04-01T10:16:40Z</time>
      </trkpt>
      <trkpt lat="43.84733" lon="6.49819">
        <ele>782.468</ele>
        <time>2012-04-01T10:16:44Z</time>
      </trkpt>
      <trkpt lat="43.84733" lon="6.49814">
        <ele>781.227</ele>
        <time>2012-04-01T10:16:49Z</time>
      </trkpt>
      <trkpt lat="43.8474" lon="6.4982">
        <ele>774.387</ele>
        <time>2012-04-01T10:16:54Z</time>
      </trkpt>
      <trkpt lat="43.84741" lon="6.49816">
        <ele>773.173</ele>
        <time>2012-04-01T10:16:57Z</time>
      </trkpt>
      <trkpt lat="43.8475" lon="6.4983">
        <ele>767.631</ele>
        <time>2012-04-01T10:17:01Z</time>
      </trkpt>
      <trkpt lat="43.84755" lon="6.49842">
        <ele>767.255</ele>
        <time>2012-04-01T10:17:05Z</time>
      </trkpt>
      <trkpt lat="43.84755" lon="6.49845">
        <ele>769.964</ele>
        <time>2012-04-01T10:17:11Z</time>
      </trkpt>
      <trkpt lat="43.84757" lon="6.49862">
        <ele>771.083</ele>
        <time>2012-04-01T10:17:16Z</time>
      </trkpt>
      <trkpt lat="43.84758" lon="6.49868">
        <ele>772.535</ele>
        <time>2012-04-01T10:17:17Z</time>
      </trkpt>
      <trkpt lat="43.84768" lon="6.49901">
        <ele>772.411</ele>
        <time>2012-04-01T10:17:22Z</time>
      </trkpt>
      <trkpt lat="43.8477" lon="6.49918">
        <ele>770.591</ele>
        <time>2012-04-01T10:17:25Z</time>
      </trkpt>
      <trkpt lat="43.84767" lon="6.49943">
        <ele>767.509</ele>
        <time>2012-04-01T10:17:29Z</time>
      </trkpt>
      <trkpt lat="43.84769" lon="6.4995">
        <ele>766.688</ele>
        <time>2012-04-01T10:17:30Z</time>
      </trkpt>
      <trkpt lat="43.8477" lon="6.4996">
        <ele>765.578</ele>
        <time>2012-04-01T10:17:32Z</time>
      </trkpt>
      <trkpt lat="43.84774" lon="6.49985">
        <ele>763.687</ele>
        <time>2012-04-01T10:17:36Z</time>
      </trkpt>
      <trkpt lat="43.84773" lon="6.50003">
        <ele>761.295</ele>
        <time>2012-04-01T10:17:39Z</time>
      </trkpt>
      <trkpt lat="43.84762" lon="6.50016">
        <ele>754.031</ele>
        <time>2012-04-01T10:17:43Z</time>
      </trkpt>
      <trkpt lat="43.84758" lon="6.50041">
        <ele>747.79</ele>
        <time>2012-04-01T10:17:47Z</time>
      </trkpt>
      <trkpt lat="43.84759" lon="6.50103">
        <ele>742.006</ele>
        <time>2012-04-01T10:17:55Z</time>
      </trkpt>
      <trkpt lat="43.84746" lon="6.50151">
        <ele>735.312</ele>
        <time>2012-04-01T10:18:01Z</time>
      </trkpt>
      <trkpt lat="43.84749" lon="6.50167">
        <ele>735.439</ele>
        <time>2012-04-01T10:18:05Z</time>
      </trkpt>
      <trkpt lat="43.84751" lon="6.50189">
        <ele>733.149</ele>
        <time>2012-04-01T10:18:10Z</time>
      </trkpt>
      <trkpt lat="43.84758" lon="6.50218">
        <ele>731.181</ele>
        <time>2012-04-01T10:18:15Z</time>
      </trkpt>
      <trkpt lat="43.84764" lon="6.50251">
        <ele>729.433</ele>
        <time>2012-04-01T10:18:20Z</time>
      </trkpt>
      <trkpt lat="43.84769" lon="6.50292">
        <ele>728.376</ele>
        <time>2012-04-01T10:18:27Z</time>
      </trkpt>
      <trkpt lat="43.84769" lon="6.503">
        <ele>728.897</ele>
        <time>2012-04-01T10:18:31Z</time>
      </trkpt>
      <trkpt lat="43.84763" lon="6.503">
        <ele>742.349</ele>
        <time>2012-04-01T10:18:52Z</time>
      </trkpt>
      <trkpt lat="43.84762" lon="6.50303">
        <ele>740.106</ele>
        <time>2012-04-01T10:18:56Z</time>
      </trkpt>
      <trkpt lat="43.84751" lon="6.50308">
        <ele>736.538</ele>
        <time>2012-04-01T10:19:01Z</time>
      </trkpt>
      <trkpt lat="43.84739" lon="6.50311">
        <ele>735.151</ele>
        <time>2012-04-01T10:19:05Z</time>
      </trkpt>
      <trkpt lat="43.8472" lon="6.50317">
        <ele>732.831</ele>
        <time>2012-04-01T10:19:10Z</time>
      </trkpt>
      <trkpt lat="43.84711" lon="6.5032">
        <ele>731.952</ele>
        <time>2012-04-01T10:19:14Z</time>
      </trkpt>
      <trkpt lat="43.84706" lon="6.50321">
        <ele>732.865</ele>
        <time>2012-04-01T10:19:19Z</time>
      </trkpt>
      <trkpt lat="43.84706" lon="6.50321">
        <ele>733.046</ele>
        <time>2012-04-01T10:19:20Z</time>
      </trkpt>
      <trkpt lat="43.84701" lon="6.50326">
        <ele>733.739</ele>
        <time>2012-04-01T10:19:26Z</time>
      </trkpt>
      <trkpt lat="43.84689" lon="6.50325">
        <ele>730.573</ele>
        <time>2012-04-01T10:19:30Z</time>
      </trkpt>
      <trkpt lat="43.84678" lon="6.5033">
        <ele>732.907</ele>
        <time>2012-04-01T10:19:34Z</time>
      </trkpt>
      <trkpt lat="43.84661" lon="6.50336">
        <ele>731.104</ele>
        <time>2012-04-01T10:19:39Z</time>
      </trkpt>
      <trkpt lat="43.84646" lon="6.50339">
        <ele>727.76</ele>
        <time>2012-04-01T10:19:44Z</time>
      </trkpt>
      <trkpt lat="43.84631" lon="6.50345">
        <ele>726.552</ele>
        <time>2012-04-01T10:19:49Z</time>
      </trkpt>
      <trkpt lat="43.84618" lon="6.50347">
        <ele>725.583</ele>
        <time>2012-04-01T10:19:54Z</time>
      </trkpt>
      <trkpt lat="43.84611" lon="6.50348">
        <ele>727.073</ele>
        <time>2012-04-01T10:19:59Z</time>
      </trkpt>
      <trkpt lat="43.84601" lon="6.50352">
        <ele>729.208</ele>
        <time>2012-04-01T10:20:03Z</time>
      </trkpt>
      <trkpt lat="43.84588" lon="6.50356">
        <ele>731.169</ele>
        <time>2012-04-01T10:20:07Z</time>
      </trkpt>
      <trkpt lat="43.84577" lon="6.50358">
        <ele>732.278</ele>
        <time>2012-04-01T10:20:11Z</time>
      </trkpt>
      <trkpt lat="43.84566" lon="6.50361">
        <ele>733.249</ele>
        <time>2012-04-01T10:20:14Z</time>
      </trkpt>
      <trkpt lat="43.84543" lon="6.50366">
        <ele>734.041</ele>
        <time>2012-04-01T10:20:19Z</time>
      </trkpt>
      <trkpt lat="43.84521" lon="6.50373">
        <ele>733.689</ele>
        <time>2012-04-01T10:20:25Z</time>
      </trkpt>
      <trkpt lat="43.84512" lon="6.50376">
        <ele>732.817</ele>
        <time>2012-04-01T10:20:30Z</time>
      </trkpt>
      <trkpt lat="43.84497" lon="6.50381">
        <ele>732.487</ele>
        <time>2012-04-01T10:20:35Z</time>
      </trkpt>
      <trkpt lat="43.84494" lon="6.50391">
        <ele>731.916</ele>
        <time>2012-04-01T10:20:39Z</time>
      </trkpt>
      <trkpt lat="43.84497" lon="6.50404">
        <ele>730.845</ele>
        <time>2012-04-01T10:20:42Z</time>
      </trkpt>
      <trkpt lat="43.84511" lon="6.50447">
        <ele>727.204</ele>
        <time>2012-04-01T10:20:50Z</time>
      </trkpt>
      <trkpt lat="43.84525" lon="6.50487">
        <ele>724.654</ele>
        <time>2012-04-01T10:20:57Z</time>
      </trkpt>
      <trkpt lat="43.84545" lon="6.50549">
        <ele>719.803</ele>
        <time>2012-04-01T10:21:07Z</time>
      </trkpt>
      <trkpt lat="43.84562" lon="6.5061">
        <ele>717.474</ele>
        <time>2012-04-01T10:21:16Z</time>
      </trkpt>
      <trkpt lat="43.84574" lon="6.5066">
        <ele>716.524</ele>
        <time>2012-04-01T10:21:24Z</time>
      </trkpt>
      <trkpt lat="43.84589" lon="6.50716">
        <ele>715.725</ele>
        <time>2012-04-01T10:21:34Z</time>
      </trkpt>
      <trkpt lat="43.84595" lon="6.50747">
        <ele>715.795</ele>
        <time>2012-04-01T10:21:40Z</time>
      </trkpt>
      <trkpt lat="43.84605" lon="6.50788">
        <ele>716.896</ele>
        <time>2012-04-01T10:21:48Z</time>
      </trkpt>
      <trkpt lat="43.84615" lon="6.50834">
        <ele>717.567</ele>
        <time>2012-04-01T10:21:56Z</time>
      </trkpt>
      <trkpt lat="43.84622" lon="6.50869">
        <ele>717.265</ele>
        <time>2012-04-01T10:22:02Z</time>
      </trkpt>
      <trkpt lat="43.84625" lon="6.50893">
        <ele>718.247</ele>
        <time>2012-04-01T10:22:06Z</time>
      </trkpt>
      <trkpt lat="43.84624" lon="6.50934">
        <ele>719.668</ele>
        <time>2012-04-01T10:22:12Z</time>
      </trkpt>
      <trkpt lat="43.84623" lon="6.50989">
        <ele>720.717</ele>
        <time>2012-04-01T10:22:20Z</time>
      </trkpt>
      <trkpt lat="43.84621" lon="6.51037">
        <ele>719.373</ele>
        <time>2012-04-01T10:22:27Z</time>
      </trkpt>
      <trkpt lat="43.8462" lon="6.51093">
        <ele>720.106</ele>
        <time>2012-04-01T10:22:35Z</time>
      </trkpt>
      <trkpt lat="43.84619" lon="6.51148">
        <ele>721.055</ele>
        <time>2012-04-01T10:22:43Z</time>
      </trkpt>
      <trkpt lat="43.84618" lon="6.51204">
        <ele>724.099</ele>
        <time>2012-04-01T10:22:51Z</time>
      </trkpt>
      <trkpt lat="43.84622" lon="6.51253">
        <ele>729.071</ele>
        <time>2012-04-01T10:22:59Z</time>
      </trkpt>
      <trkpt lat="43.84624" lon="6.51259">
        <ele>729.568</ele>
        <time>2012-04-01T10:23:03Z</time>
      </trkpt>
      <trkpt lat="43.84626" lon="6.51261">
        <ele>729.758</ele>
        <time>2012-04-01T10:23:04Z</time>
      </trkpt>
      <trkpt lat="43.84642" lon="6.51266">
        <ele>731.858</ele>
        <time>2012-04-01T10:23:10Z</time>
      </trkpt>
      <trkpt lat="43.84643" lon="6.51266">
        <ele>732.488</ele>
        <time>2012-04-01T10:23:11Z</time>
      </trkpt>
      <trkpt lat="43.8465" lon="6.51272">
        <ele>731.947</ele>
        <time>2012-04-01T10:23:17Z</time>
      </trkpt>
      <trkpt lat="43.84653" lon="6.51271">
        <ele>732.958</ele>
        <time>2012-04-01T10:23:22Z</time>
      </trkpt>
      <trkpt lat="43.84655" lon="6.51276">
        <ele>707.254</ele>
        <time>2012-04-01T10:24:58Z</time>
      </trkpt>
      <trkpt lat="43.84655" lon="6.51286">
        <ele>711.888</ele>
        <time>2012-04-01T10:25:03Z</time>
      </trkpt>
      <trkpt lat="43.84649" lon="6.51289">
        <ele>720.311</ele>
        <time>2012-04-01T10:25:09Z</time>
      </trkpt>
      <trkpt lat="43.84645" lon="6.513">
        <ele>722.36</ele>
        <time>2012-04-01T10:25:14Z</time>
      </trkpt>
      <trkpt lat="43.84645" lon="6.51316">
        <ele>722.567</ele>
        <time>2012-04-01T10:25:19Z</time>
      </trkpt>
      <trkpt lat="43.84643" lon="6.51335">
        <ele>720.666</ele>
        <time>2012-04-01T10:25:25Z</time>
      </trkpt>
      <trkpt lat="43.84642" lon="6.51345">
        <ele>720.265</ele>
        <time>2012-04-01T10:25:28Z</time>
      </trkpt>
      <trkpt lat="43.84634" lon="6.51358">
        <ele>721.879</ele>
        <time>2012-04-01T10:25:34Z</time>
      </trkpt>
      <trkpt lat="43.84634" lon="6.51371">
        <ele>723.39</ele>
        <time>2012-04-01T10:25:38Z</time>
      </trkpt>
      <trkpt lat="43.84641" lon="6.51382">
        <ele>726.591</ele>
        <time>2012-04-01T10:25:43Z</time>
      </trkpt>
      <trkpt lat="43.84659" lon="6.51393">
        <ele>730.791</ele>
        <time>2012-04-01T10:25:51Z</time>
      </trkpt>
      <trkpt lat="43.84666" lon="6.51396">
        <ele>732.816</ele>
        <time>2012-04-01T10:25:54Z</time>
      </trkpt>
      <trkpt lat="43.8467" lon="6.51405">
        <ele>740.858</ele>
        <time>2012-04-01T10:25:59Z</time>
      </trkpt>
      <trkpt lat="43.84664" lon="6.51432">
        <ele>738.799</ele>
        <time>2012-04-01T10:26:04Z</time>
      </trkpt>
      <trkpt lat="43.84653" lon="6.51452">
        <ele>736.708</ele>
        <time>2012-04-01T10:26:08Z</time>
      </trkpt>
      <trkpt lat="43.84638" lon="6.51476">
        <ele>738.011</ele>
        <time>2012-04-01T10:26:14Z</time>
      </trkpt>
      <trkpt lat="43.84637" lon="6.5149">
        <ele>746.059</ele>
        <time>2012-04-01T10:26:18Z</time>
      </trkpt>
      <trkpt lat="43.84643" lon="6.51512">
        <ele>743.441</ele>
        <time>2012-04-01T10:26:24Z</time>
      </trkpt>
      <trkpt lat="43.84644" lon="6.51529">
        <ele>739.216</ele>
        <time>2012-04-01T10:26:29Z</time>
      </trkpt>
      <trkpt lat="43.84638" lon="6.51557">
        <ele>739.218</ele>
        <time>2012-04-01T10:26:36Z</time>
      </trkpt>
      <trkpt lat="43.84633" lon="6.51576">
        <ele>738.439</ele>
        <time>2012-04-01T10:26:41Z</time>
      </trkpt>
      <trkpt lat="43.84622" lon="6.51589">
        <ele>739.753</ele>
        <time>2012-04-01T10:26:46Z</time>
      </trkpt>
      <trkpt lat="43.84609" lon="6.51606">
        <ele>737.389</ele>
        <time>2012-04-01T10:26:51Z</time>
      </trkpt>
      <trkpt lat="43.84599" lon="6.51624">
        <ele>746.122</ele>
        <time>2012-04-01T10:26:57Z</time>
      </trkpt>
      <trkpt lat="43.84587" lon="6.51646">
        <ele>746.209</ele>
        <time>2012-04-01T10:27:03Z</time>
      </trkpt>
      <trkpt lat="43.84576" lon="6.5166">
        <ele>744.674</ele>
        <time>2012-04-01T10:27:08Z</time>
      </trkpt>
      <trkpt lat="43.84574" lon="6.51663">
        <ele>742.912</ele>
        <time>2012-04-01T10:27:09Z</time>
      </trkpt>
      <trkpt lat="43.84557" lon="6.5166">
        <ele>738.678</ele>
        <time>2012-04-01T10:27:16Z</time>
      </trkpt>
      <trkpt lat="43.84541" lon="6.51654">
        <ele>734.885</ele>
        <time>2012-04-01T10:27:21Z</time>
      </trkpt>
      <trkpt lat="43.84522" lon="6.51651">
        <ele>731.083</ele>
        <time>2012-04-01T10:27:26Z</time>
      </trkpt>
      <trkpt lat="43.84513" lon="6.51676">
        <ele>734.507</ele>
        <time>2012-04-01T10:27:31Z</time>
      </trkpt>
      <trkpt lat="43.84514" lon="6.51689">
        <ele>737.022</ele>
        <time>2012-04-01T10:27:33Z</time>
      </trkpt>
      <trkpt lat="43.84513" lon="6.51726">
        <ele>736.76</ele>
        <time>2012-04-01T10:27:38Z</time>
      </trkpt>
      <trkpt lat="43.84503" lon="6.51772">
        <ele>733.915</ele>
        <time>2012-04-01T10:27:44Z</time>
      </trkpt>
      <trkpt lat="43.84498" lon="6.51788">
        <ele>734.686</ele>
        <time>2012-04-01T10:27:46Z</time>
      </trkpt>
      <trkpt lat="43.84493" lon="6.51803">
        <ele>733.794</ele>
        <time>2012-04-01T10:27:48Z</time>
      </trkpt>
      <trkpt lat="43.84482" lon="6.51841">
        <ele>733.585</ele>
        <time>2012-04-01T10:27:53Z</time>
      </trkpt>
      <trkpt lat="43.84471" lon="6.519">
        <ele>732.226</ele>
        <time>2012-04-01T10:28:00Z</time>
      </trkpt>
      <trkpt lat="43.84466" lon="6.51925">
        <ele>732.435</ele>
        <time>2012-04-01T10:28:03Z</time>
      </trkpt>
      <trkpt lat="43.8446" lon="6.51958">
        <ele>731.797</ele>
        <time>2012-04-01T10:28:07Z</time>
      </trkpt>
      <trkpt lat="43.8445" lon="6.51991">
        <ele>732.265</ele>
        <time>2012-04-01T10:28:11Z</time>
      </trkpt>
      <trkpt lat="43.84437" lon="6.52039">
        <ele>731.555</ele>
        <time>2012-04-01T10:28:17Z</time>
      </trkpt>
      <trkpt lat="43.84421" lon="6.52069">
        <ele>733.651</ele>
        <time>2012-04-01T10:28:21Z</time>
      </trkpt>
      <trkpt lat="43.844" lon="6.52108">
        <ele>735.425</ele>
        <time>2012-04-01T10:28:27Z</time>
      </trkpt>
      <trkpt lat="43.84391" lon="6.52119">
        <ele>736.268</ele>
        <time>2012-04-01T10:28:29Z</time>
      </trkpt>
      <trkpt lat="43.84381" lon="6.52136">
        <ele>737.58</ele>
        <time>2012-04-01T10:28:32Z</time>
      </trkpt>
      <trkpt lat="43.84372" lon="6.52147">
        <ele>736.209</ele>
        <time>2012-04-01T10:28:34Z</time>
      </trkpt>
      <trkpt lat="43.84366" lon="6.5216">
        <ele>736.16</ele>
        <time>2012-04-01T10:28:36Z</time>
      </trkpt>
      <trkpt lat="43.84342" lon="6.52203">
        <ele>732.16</ele>
        <time>2012-04-01T10:28:42Z</time>
      </trkpt>
      <trkpt lat="43.8433" lon="6.52231">
        <ele>732.111</ele>
        <time>2012-04-01T10:28:46Z</time>
      </trkpt>
      <trkpt lat="43.84315" lon="6.52292">
        <ele>731.797</ele>
        <time>2012-04-01T10:28:54Z</time>
      </trkpt>
      <trkpt lat="43.84307" lon="6.5233">
        <ele>732.051</ele>
        <time>2012-04-01T10:28:59Z</time>
      </trkpt>
      <trkpt lat="43.84296" lon="6.52366">
        <ele>735.2</ele>
        <time>2012-04-01T10:29:04Z</time>
      </trkpt>
      <trkpt lat="43.84293" lon="6.52382">
        <ele>736.188</ele>
        <time>2012-04-01T10:29:06Z</time>
      </trkpt>
      <trkpt lat="43.84286" lon="6.52405">
        <ele>736.343</ele>
        <time>2012-04-01T10:29:09Z</time>
      </trkpt>
      <trkpt lat="43.84276" lon="6.52443">
        <ele>735.193</ele>
        <time>2012-04-01T10:29:14Z</time>
      </trkpt>
      <trkpt lat="43.84267" lon="6.52503">
        <ele>731.945</ele>
        <time>2012-04-01T10:29:21Z</time>
      </trkpt>
      <trkpt lat="43.84264" lon="6.52511">
        <ele>732.584</ele>
        <time>2012-04-01T10:29:22Z</time>
      </trkpt>
      <trkpt lat="43.84254" lon="6.52533">
        <ele>732.535</ele>
        <time>2012-04-01T10:29:25Z</time>
      </trkpt>
      <trkpt lat="43.84231" lon="6.52575">
        <ele>732.337</ele>
        <time>2012-04-01T10:29:31Z</time>
      </trkpt>
      <trkpt lat="43.84212" lon="6.52627">
        <ele>729.127</ele>
        <time>2012-04-01T10:29:37Z</time>
      </trkpt>
      <trkpt lat="43.84206" lon="6.52676">
        <ele>726.032</ele>
        <time>2012-04-01T10:29:43Z</time>
      </trkpt>
      <trkpt lat="43.84209" lon="6.52721">
        <ele>725.588</ele>
        <time>2012-04-01T10:29:49Z</time>
      </trkpt>
      <trkpt lat="43.84225" lon="6.52784">
        <ele>724.22</ele>
        <time>2012-04-01T10:29:58Z</time>
      </trkpt>
      <trkpt lat="43.84228" lon="6.52798">
        <ele>723.617</ele>
        <time>2012-04-01T10:30:00Z</time>
      </trkpt>
      <trkpt lat="43.84239" lon="6.52845">
        <ele>723.311</ele>
        <time>2012-04-01T10:30:07Z</time>
      </trkpt>
      <trkpt lat="43.84255" lon="6.52908">
        <ele>725.115</ele>
        <time>2012-04-01T10:30:16Z</time>
      </trkpt>
      <trkpt lat="43.84257" lon="6.52915">
        <ele>725.768</ele>
        <time>2012-04-01T10:30:17Z</time>
      </trkpt>
      <trkpt lat="43.84271" lon="6.52973">
        <ele>727.512</ele>
        <time>2012-04-01T10:30:25Z</time>
      </trkpt>
      <trkpt lat="43.84274" lon="6.5298">
        <ele>727.428</ele>
        <time>2012-04-01T10:30:26Z</time>
      </trkpt>
      <trkpt lat="43.84288" lon="6.53031">
        <ele>728.818</ele>
        <time>2012-04-01T10:30:33Z</time>
      </trkpt>
      <trkpt lat="43.84299" lon="6.53079">
        <ele>730.478</ele>
        <time>2012-04-01T10:30:40Z</time>
      </trkpt>
      <trkpt lat="43.84312" lon="6.53137">
        <ele>733.782</ele>
        <time>2012-04-01T10:30:49Z</time>
      </trkpt>
      <trkpt lat="43.84326" lon="6.53193">
        <ele>734.746</ele>
        <time>2012-04-01T10:30:58Z</time>
      </trkpt>
      <trkpt lat="43.84337" lon="6.5324">
        <ele>735.821</ele>
        <time>2012-04-01T10:31:06Z</time>
      </trkpt>
      <trkpt lat="43.84346" lon="6.53254">
        <ele>738.178</ele>
        <time>2012-04-01T10:31:10Z</time>
      </trkpt>
      <trkpt lat="43.84352" lon="6.53269">
        <ele>737.775</ele>
        <time>2012-04-01T10:31:14Z</time>
      </trkpt>
      <trkpt lat="43.84352" lon="6.53272">
        <ele>738.882</ele>
        <time>2012-04-01T10:31:18Z</time>
      </trkpt>
      <trkpt lat="43.84353" lon="6.53275">
        <ele>745.284</ele>
        <time>2012-04-01T10:31:31Z</time>
      </trkpt>
      <trkpt lat="43.84356" lon="6.53286">
        <ele>748.635</ele>
        <time>2012-04-01T10:31:36Z</time>
      </trkpt>
      <trkpt lat="43.84356" lon="6.53289">
        <ele>746.603</ele>
        <time>2012-04-01T10:31:37Z</time>
      </trkpt>
      <trkpt lat="43.84363" lon="6.53311">
        <ele>745.491</ele>
        <time>2012-04-01T10:31:42Z</time>
      </trkpt>
      <trkpt lat="43.84381" lon="6.53357">
        <ele>742.919</ele>
        <time>2012-04-01T10:31:48Z</time>
      </trkpt>
      <trkpt lat="43.84393" lon="6.53397">
        <ele>741.832</ele>
        <time>2012-04-01T10:31:53Z</time>
      </trkpt>
      <trkpt lat="43.844" lon="6.53435">
        <ele>740.653</ele>
        <time>2012-04-01T10:31:58Z</time>
      </trkpt>
      <trkpt lat="43.84406" lon="6.53486">
        <ele>736.18</ele>
        <time>2012-04-01T10:32:05Z</time>
      </trkpt>
      <trkpt lat="43.84408" lon="6.53514">
        <ele>732.837</ele>
        <time>2012-04-01T10:32:09Z</time>
      </trkpt>
      <trkpt lat="43.84414" lon="6.53541">
        <ele>734.342</ele>
        <time>2012-04-01T10:32:13Z</time>
      </trkpt>
      <trkpt lat="43.84419" lon="6.53572">
        <ele>734.081</ele>
        <time>2012-04-01T10:32:18Z</time>
      </trkpt>
      <trkpt lat="43.84428" lon="6.53616">
        <ele>737.163</ele>
        <time>2012-04-01T10:32:27Z</time>
      </trkpt>
      <trkpt lat="43.8443" lon="6.53629">
        <ele>739.444</ele>
        <time>2012-04-01T10:32:32Z</time>
      </trkpt>
      <trkpt lat="43.84434" lon="6.5363">
        <ele>756.064</ele>
        <time>2012-04-01T10:32:58Z</time>
      </trkpt>
      <trkpt lat="43.84435" lon="6.53624">
        <ele>754.159</ele>
        <time>2012-04-01T10:33:02Z</time>
      </trkpt>
      <trkpt lat="43.84429" lon="6.53612">
        <ele>752.72</ele>
        <time>2012-04-01T10:33:05Z</time>
      </trkpt>
      <trkpt lat="43.84417" lon="6.53565">
        <ele>750.128</ele>
        <time>2012-04-01T10:33:12Z</time>
      </trkpt>
      <trkpt lat="43.84406" lon="6.53516">
        <ele>746.211</ele>
        <time>2012-04-01T10:33:18Z</time>
      </trkpt>
      <trkpt lat="43.84403" lon="6.53493">
        <ele>744.689</ele>
        <time>2012-04-01T10:33:21Z</time>
      </trkpt>
      <trkpt lat="43.844" lon="6.53478">
        <ele>744.782</ele>
        <time>2012-04-01T10:33:23Z</time>
      </trkpt>
      <trkpt lat="43.84398" lon="6.53456">
        <ele>744.688</ele>
        <time>2012-04-01T10:33:26Z</time>
      </trkpt>
      <trkpt lat="43.84392" lon="6.53415">
        <ele>747.573</ele>
        <time>2012-04-01T10:33:32Z</time>
      </trkpt>
      <trkpt lat="43.84388" lon="6.53386">
        <ele>747.692</ele>
        <time>2012-04-01T10:33:36Z</time>
      </trkpt>
      <trkpt lat="43.84374" lon="6.5334">
        <ele>744.528</ele>
        <time>2012-04-01T10:33:43Z</time>
      </trkpt>
      <trkpt lat="43.84364" lon="6.53307">
        <ele>741.738</ele>
        <time>2012-04-01T10:33:49Z</time>
      </trkpt>
      <trkpt lat="43.84359" lon="6.5329">
        <ele>743.177</ele>
        <time>2012-04-01T10:33:53Z</time>
      </trkpt>
      <trkpt lat="43.84353" lon="6.53292">
        <ele>741.862</ele>
        <time>2012-04-01T10:33:57Z</time>
      </trkpt>
      <trkpt lat="43.84356" lon="6.53314">
        <ele>744.164</ele>
        <time>2012-04-01T10:34:01Z</time>
      </trkpt>
      <trkpt lat="43.84358" lon="6.53323">
        <ele>744.504</ele>
        <time>2012-04-01T10:34:03Z</time>
      </trkpt>
      <trkpt lat="43.84366" lon="6.53362">
        <ele>746.383</ele>
        <time>2012-04-01T10:34:10Z</time>
      </trkpt>
      <trkpt lat="43.84374" lon="6.53402">
        <ele>748.343</ele>
        <time>2012-04-01T10:34:17Z</time>
      </trkpt>
      <trkpt lat="43.84375" lon="6.5344">
        <ele>753.527</ele>
        <time>2012-04-01T10:34:24Z</time>
      </trkpt>
      <trkpt lat="43.84375" lon="6.53454">
        <ele>750.604</ele>
        <time>2012-04-01T10:34:29Z</time>
      </trkpt>
      <trkpt lat="43.84374" lon="6.53456">
        <ele>745.81</ele>
        <time>2012-04-01T10:34:35Z</time>
      </trkpt>
      <trkpt lat="43.84373" lon="6.53455">
        <ele>743.072</ele>
        <time>2012-04-01T10:34:48Z</time>
      </trkpt>
      <trkpt lat="43.84368" lon="6.53463">
        <ele>741.565</ele>
        <time>2012-04-01T10:34:56Z</time>
      </trkpt>
      <trkpt lat="43.84368" lon="6.53467">
        <ele>740.494</ele>
        <time>2012-04-01T10:34:59Z</time>
      </trkpt>
      <trkpt lat="43.84369" lon="6.5347">
        <ele>740.691</ele>
        <time>2012-04-01T10:35:02Z</time>
      </trkpt>
      <trkpt lat="43.8437" lon="6.53474">
        <ele>741.513</ele>
        <time>2012-04-01T10:35:06Z</time>
      </trkpt>
      <trkpt lat="43.84369" lon="6.53476">
        <ele>742.213</ele>
        <time>2012-04-01T10:35:08Z</time>
      </trkpt>
      <trkpt lat="43.84366" lon="6.53481">
        <ele>742.704</ele>
        <time>2012-04-01T10:35:13Z</time>
      </trkpt>
      <trkpt lat="43.84365" lon="6.53481">
        <ele>742.261</ele>
        <time>2012-04-01T10:35:25Z</time>
      </trkpt>
      <trkpt lat="43.84361" lon="6.53494">
        <ele>750.958</ele>
        <time>2012-04-01T10:35:33Z</time>
      </trkpt>
      <trkpt lat="43.84359" lon="6.53501">
        <ele>756.474</ele>
        <time>2012-04-01T10:35:37Z</time>
      </trkpt>
      <trkpt lat="43.84357" lon="6.53507">
        <ele>758.644</ele>
        <time>2012-04-01T10:35:40Z</time>
      </trkpt>
      <trkpt lat="43.84354" lon="6.53518">
        <ele>764.923</ele>
        <time>2012-04-01T10:35:47Z</time>
      </trkpt>
      <trkpt lat="43.84349" lon="6.53524">
        <ele>766.459</ele>
        <time>2012-04-01T10:35:53Z</time>
      </trkpt>
      <trkpt lat="43.84342" lon="6.53535">
        <ele>767.278</ele>
        <time>2012-04-01T10:35:59Z</time>
      </trkpt>
      <trkpt lat="43.84341" lon="6.53536">
        <ele>767.568</ele>
        <time>2012-04-01T10:36:00Z</time>
      </trkpt>
      <trkpt lat="43.84338" lon="6.53543">
        <ele>764.533</ele>
        <time>2012-04-01T10:36:07Z</time>
      </trkpt>
      <trkpt lat="43.84335" lon="6.53544">
        <ele>758.176</ele>
        <time>2012-04-01T10:36:15Z</time>
      </trkpt>
      <trkpt lat="43.84333" lon="6.5355">
        <ele>753.341</ele>
        <time>2012-04-01T10:36:34Z</time>
      </trkpt>
      <trkpt lat="43.84333" lon="6.53554">
        <ele>758.086</ele>
        <time>2012-04-01T10:36:39Z</time>
      </trkpt>
      <trkpt lat="43.84334" lon="6.53559">
        <ele>761.798</ele>
        <time>2012-04-01T10:36:43Z</time>
      </trkpt>
      <trkpt lat="43.84334" lon="6.53562">
        <ele>762.037</ele>
        <time>2012-04-01T10:36:45Z</time>
      </trkpt>
      <trkpt lat="43.8433" lon="6.5357">
        <ele>768.231</ele>
        <time>2012-04-01T10:36:51Z</time>
      </trkpt>
      <trkpt lat="43.84332" lon="6.53582">
        <ele>772.87</ele>
        <time>2012-04-01T10:36:58Z</time>
      </trkpt>
      <trkpt lat="43.84332" lon="6.53586">
        <ele>776.05</ele>
        <time>2012-04-01T10:37:00Z</time>
      </trkpt>
      <trkpt lat="43.84332" lon="6.53589">
        <ele>777.491</ele>
        <time>2012-04-01T10:37:02Z</time>
      </trkpt>
      <trkpt lat="43.8433" lon="6.53599">
        <ele>785.891</ele>
        <time>2012-04-01T10:37:09Z</time>
      </trkpt>
      <trkpt lat="43.84329" lon="6.53603">
        <ele>784.018</ele>
        <time>2012-04-01T10:37:14Z</time>
      </trkpt>
      <trkpt lat="43.84328" lon="6.53602">
        <ele>778.4</ele>
        <time>2012-04-01T10:37:19Z</time>
      </trkpt>
      <trkpt lat="43.84327" lon="6.53604">
        <ele>776.969</ele>
        <time>2012-04-01T10:37:21Z</time>
      </trkpt>
      <trkpt lat="43.84325" lon="6.53607">
        <ele>775.919</ele>
        <time>2012-04-01T10:37:23Z</time>
      </trkpt>
      <trkpt lat="43.84321" lon="6.53617">
        <ele>774.74</ele>
        <time>2012-04-01T10:37:28Z</time>
      </trkpt>
      <trkpt lat="43.84314" lon="6.53634">
        <ele>775.772</ele>
        <time>2012-04-01T10:37:37Z</time>
      </trkpt>
      <trkpt lat="43.84314" lon="6.53638">
        <ele>774.83</ele>
        <time>2012-04-01T10:37:39Z</time>
      </trkpt>
      <trkpt lat="43.84314" lon="6.53643">
        <ele>774.909</ele>
        <time>2012-04-01T10:37:42Z</time>
      </trkpt>
      <trkpt lat="43.84312" lon="6.53654">
        <ele>776.81</ele>
        <time>2012-04-01T10:37:48Z</time>
      </trkpt>
      <trkpt lat="43.84312" lon="6.53655">
        <ele>776.69</ele>
        <time>2012-04-01T10:37:49Z</time>
      </trkpt>
      <trkpt lat="43.84307" lon="6.5367">
        <ele>778.914</ele>
        <time>2012-04-01T10:37:56Z</time>
      </trkpt>
      <trkpt lat="43.84301" lon="6.53683">
        <ele>782.094</ele>
        <time>2012-04-01T10:38:03Z</time>
      </trkpt>
      <trkpt lat="43.843" lon="6.53687">
        <ele>783.084</ele>
        <time>2012-04-01T10:38:05Z</time>
      </trkpt>
      <trkpt lat="43.84298" lon="6.53698">
        <ele>786.567</ele>
        <time>2012-04-01T10:38:10Z</time>
      </trkpt>
      <trkpt lat="43.84295" lon="6.53711">
        <ele>788.056</ele>
        <time>2012-04-01T10:38:17Z</time>
      </trkpt>
      <trkpt lat="43.84295" lon="6.53713">
        <ele>787.725</ele>
        <time>2012-04-01T10:38:18Z</time>
      </trkpt>
      <trkpt lat="43.84291" lon="6.53726">
        <ele>789.615</ele>
        <time>2012-04-01T10:38:26Z</time>
      </trkpt>
      <trkpt lat="43.8429" lon="6.5374">
        <ele>790.428</ele>
        <time>2012-04-01T10:38:33Z</time>
      </trkpt>
      <trkpt lat="43.84284" lon="6.53754">
        <ele>791.496</ele>
        <time>2012-04-01T10:38:40Z</time>
      </trkpt>
      <trkpt lat="43.84283" lon="6.53755">
        <ele>791.536</ele>
        <time>2012-04-01T10:38:41Z</time>
      </trkpt>
      <trkpt lat="43.84279" lon="6.53774">
        <ele>791.442</ele>
        <time>2012-04-01T10:38:49Z</time>
      </trkpt>
      <trkpt lat="43.84278" lon="6.53787">
        <ele>790.281</ele>
        <time>2012-04-01T10:38:55Z</time>
      </trkpt>
      <trkpt lat="43.84278" lon="6.5379">
        <ele>790.332</ele>
        <time>2012-04-01T10:38:57Z</time>
      </trkpt>
      <trkpt lat="43.84286" lon="6.53791">
        <ele>790.143</ele>
        <time>2012-04-01T10:39:03Z</time>
      </trkpt>
      <trkpt lat="43.84289" lon="6.5379">
        <ele>790.263</ele>
        <time>2012-04-01T10:39:05Z</time>
      </trkpt>
      <trkpt lat="43.84301" lon="6.53782">
        <ele>794.288</ele>
        <time>2012-04-01T10:39:13Z</time>
      </trkpt>
      <trkpt lat="43.84315" lon="6.53776">
        <ele>794.973</ele>
        <time>2012-04-01T10:39:22Z</time>
      </trkpt>
      <trkpt lat="43.84326" lon="6.53779">
        <ele>793.803</ele>
        <time>2012-04-01T10:39:29Z</time>
      </trkpt>
      <trkpt lat="43.84334" lon="6.53783">
        <ele>795.423</ele>
        <time>2012-04-01T10:39:35Z</time>
      </trkpt>
      <trkpt lat="43.84337" lon="6.53787">
        <ele>795.191</ele>
        <time>2012-04-01T10:39:42Z</time>
      </trkpt>
      <trkpt lat="43.84339" lon="6.53789">
        <ele>796.27</ele>
        <time>2012-04-01T10:39:52Z</time>
      </trkpt>
      <trkpt lat="43.84347" lon="6.53799">
        <ele>794.987</ele>
        <time>2012-04-01T10:39:55Z</time>
      </trkpt>
      <trkpt lat="43.84363" lon="6.53835">
        <ele>792.299</ele>
        <time>2012-04-01T10:40:01Z</time>
      </trkpt>
      <trkpt lat="43.84373" lon="6.53862">
        <ele>790.208</ele>
        <time>2012-04-01T10:40:07Z</time>
      </trkpt>
      <trkpt lat="43.8438" lon="6.5388">
        <ele>788.448</ele>
        <time>2012-04-01T10:40:13Z</time>
      </trkpt>
      <trkpt lat="43.84384" lon="6.53892">
        <ele>786.969</ele>
        <time>2012-04-01T10:40:17Z</time>
      </trkpt>
      <trkpt lat="43.84393" lon="6.53915">
        <ele>788.721</ele>
        <time>2012-04-01T10:40:24Z</time>
      </trkpt>
      <trkpt lat="43.84404" lon="6.53939">
        <ele>788.012</ele>
        <time>2012-04-01T10:40:31Z</time>
      </trkpt>
      <trkpt lat="43.84411" lon="6.5395">
        <ele>790.215</ele>
        <time>2012-04-01T10:40:36Z</time>
      </trkpt>
      <trkpt lat="43.84414" lon="6.53961">
        <ele>790.276</ele>
        <time>2012-04-01T10:40:40Z</time>
      </trkpt>
      <trkpt lat="43.84417" lon="6.53972">
        <ele>791.988</ele>
        <time>2012-04-01T10:40:45Z</time>
      </trkpt>
      <trkpt lat="43.84416" lon="6.53973">
        <ele>793.835</ele>
        <time>2012-04-01T10:40:50Z</time>
      </trkpt>
      <trkpt lat="43.84413" lon="6.53973">
        <ele>795.86</ele>
        <time>2012-04-01T10:42:34Z</time>
      </trkpt>
      <trkpt lat="43.8442" lon="6.53982">
        <ele>792.082</ele>
        <time>2012-04-01T10:42:40Z</time>
      </trkpt>
      <trkpt lat="43.84421" lon="6.53986">
        <ele>791.713</ele>
        <time>2012-04-01T10:42:42Z</time>
      </trkpt>
      <trkpt lat="43.84424" lon="6.54001">
        <ele>792.685</ele>
        <time>2012-04-01T10:42:48Z</time>
      </trkpt>
      <trkpt lat="43.84422" lon="6.54008">
        <ele>795.277</ele>
        <time>2012-04-01T10:42:53Z</time>
      </trkpt>
      <trkpt lat="43.84421" lon="6.5401">
        <ele>795.046</ele>
        <time>2012-04-01T10:42:55Z</time>
      </trkpt>
      <trkpt lat="43.84418" lon="6.54016">
        <ele>797.286</ele>
        <time>2012-04-01T10:43:01Z</time>
      </trkpt>
      <trkpt lat="43.84418" lon="6.54027">
        <ele>800.446</ele>
        <time>2012-04-01T10:43:07Z</time>
      </trkpt>
      <trkpt lat="43.84418" lon="6.54029">
        <ele>800.166</ele>
        <time>2012-04-01T10:43:08Z</time>
      </trkpt>
      <trkpt lat="43.84421" lon="6.54033">
        <ele>801.81</ele>
        <time>2012-04-01T10:43:14Z</time>
      </trkpt>
      <trkpt lat="43.84428" lon="6.54034">
        <ele>801.464</ele>
        <time>2012-04-01T10:43:21Z</time>
      </trkpt>
      <trkpt lat="43.84429" lon="6.54035">
        <ele>801.614</ele>
        <time>2012-04-01T10:43:22Z</time>
      </trkpt>
      <trkpt lat="43.84431" lon="6.54043">
        <ele>803.097</ele>
        <time>2012-04-01T10:43:27Z</time>
      </trkpt>
      <trkpt lat="43.84434" lon="6.5405">
        <ele>802.695</ele>
        <time>2012-04-01T10:43:31Z</time>
      </trkpt>
      <trkpt lat="43.84438" lon="6.54062">
        <ele>803.668</ele>
        <time>2012-04-01T10:43:39Z</time>
      </trkpt>
      <trkpt lat="43.84439" lon="6.54066">
        <ele>802.746</ele>
        <time>2012-04-01T10:43:42Z</time>
      </trkpt>
      <trkpt lat="43.84441" lon="6.54078">
        <ele>806.188</ele>
        <time>2012-04-01T10:43:50Z</time>
      </trkpt>
      <trkpt lat="43.84441" lon="6.54082">
        <ele>806.157</ele>
        <time>2012-04-01T10:43:52Z</time>
      </trkpt>
      <trkpt lat="43.84444" lon="6.54093">
        <ele>805.666</ele>
        <time>2012-04-01T10:44:00Z</time>
      </trkpt>
      <trkpt lat="43.84445" lon="6.54095">
        <ele>805.956</ele>
        <time>2012-04-01T10:44:02Z</time>
      </trkpt>
      <trkpt lat="43.84448" lon="6.54102">
        <ele>807.466</ele>
        <time>2012-04-01T10:44:06Z</time>
      </trkpt>
      <trkpt lat="43.84449" lon="6.54107">
        <ele>809.647</ele>
        <time>2012-04-01T10:44:10Z</time>
      </trkpt>
      <trkpt lat="43.84453" lon="6.5412">
        <ele>808.856</ele>
        <time>2012-04-01T10:44:20Z</time>
      </trkpt>
      <trkpt lat="43.84455" lon="6.5413">
        <ele>807.942</ele>
        <time>2012-04-01T10:44:27Z</time>
      </trkpt>
      <trkpt lat="43.84455" lon="6.5414">
        <ele>808.372</ele>
        <time>2012-04-01T10:44:36Z</time>
      </trkpt>
      <trkpt lat="43.84457" lon="6.5415">
        <ele>809.411</ele>
        <time>2012-04-01T10:44:43Z</time>
      </trkpt>
      <trkpt lat="43.84456" lon="6.54152">
        <ele>810.461</ele>
        <time>2012-04-01T10:44:49Z</time>
      </trkpt>
      <trkpt lat="43.84457" lon="6.54161">
        <ele>809.081</ele>
        <time>2012-04-01T10:44:57Z</time>
      </trkpt>
      <trkpt lat="43.84456" lon="6.54171">
        <ele>807.271</ele>
        <time>2012-04-01T10:45:06Z</time>
      </trkpt>
      <trkpt lat="43.84457" lon="6.54179">
        <ele>808.063</ele>
        <time>2012-04-01T10:45:13Z</time>
      </trkpt>
      <trkpt lat="43.8446" lon="6.54192">
        <ele>808.692</ele>
        <time>2012-04-01T10:45:23Z</time>
      </trkpt>
      <trkpt lat="43.84462" lon="6.54203">
        <ele>811.567</ele>
        <time>2012-04-01T10:45:30Z</time>
      </trkpt>
      <trkpt lat="43.84464" lon="6.54213">
        <ele>813.024</ele>
        <time>2012-04-01T10:45:37Z</time>
      </trkpt>
      <trkpt lat="43.84465" lon="6.54224">
        <ele>814.485</ele>
        <time>2012-04-01T10:45:46Z</time>
      </trkpt>
      <trkpt lat="43.84465" lon="6.54229">
        <ele>817.025</ele>
        <time>2012-04-01T10:45:51Z</time>
      </trkpt>
      <trkpt lat="43.84462" lon="6.54237">
        <ele>818.413</ele>
        <time>2012-04-01T10:45:58Z</time>
      </trkpt>
      <trkpt lat="43.84461" lon="6.54243">
        <ele>816.312</ele>
        <time>2012-04-01T10:46:04Z</time>
      </trkpt>
      <trkpt lat="43.84462" lon="6.54254">
        <ele>811.489</ele>
        <time>2012-04-01T10:46:11Z</time>
      </trkpt>
      <trkpt lat="43.8446" lon="6.54265">
        <ele>811.34</ele>
        <time>2012-04-01T10:46:19Z</time>
      </trkpt>
      <trkpt lat="43.84457" lon="6.54277">
        <ele>814.376</ele>
        <time>2012-04-01T10:46:27Z</time>
      </trkpt>
      <trkpt lat="43.84455" lon="6.54287">
        <ele>817.259</ele>
        <time>2012-04-01T10:46:33Z</time>
      </trkpt>
      <trkpt lat="43.84453" lon="6.54295">
        <ele>817.185</ele>
        <time>2012-04-01T10:46:40Z</time>
      </trkpt>
      <trkpt lat="43.84451" lon="6.543">
        <ele>819.192</ele>
        <time>2012-04-01T10:46:46Z</time>
      </trkpt>
      <trkpt lat="43.84447" lon="6.54313">
        <ele>826.927</ele>
        <time>2012-04-01T10:47:01Z</time>
      </trkpt>
      <trkpt lat="43.84445" lon="6.54331">
        <ele>828.954</ele>
        <time>2012-04-01T10:47:09Z</time>
      </trkpt>
      <trkpt lat="43.84446" lon="6.54349">
        <ele>827.721</ele>
        <time>2012-04-01T10:47:17Z</time>
      </trkpt>
      <trkpt lat="43.84443" lon="6.54366">
        <ele>829.732</ele>
        <time>2012-04-01T10:47:26Z</time>
      </trkpt>
      <trkpt lat="43.84442" lon="6.54385">
        <ele>831.561</ele>
        <time>2012-04-01T10:47:36Z</time>
      </trkpt>
      <trkpt lat="43.84441" lon="6.54389">
        <ele>832.421</ele>
        <time>2012-04-01T10:47:41Z</time>
      </trkpt>
      <trkpt lat="43.84441" lon="6.54401">
        <ele>830.03</ele>
        <time>2012-04-01T10:47:49Z</time>
      </trkpt>
      <trkpt lat="43.84439" lon="6.54411">
        <ele>831.124</ele>
        <time>2012-04-01T10:47:57Z</time>
      </trkpt>
      <trkpt lat="43.84437" lon="6.54422">
        <ele>832.975</ele>
        <time>2012-04-01T10:48:06Z</time>
      </trkpt>
      <trkpt lat="43.84436" lon="6.54432">
        <ele>835.017</ele>
        <time>2012-04-01T10:48:14Z</time>
      </trkpt>
      <trkpt lat="43.84435" lon="6.54441">
        <ele>838.337</ele>
        <time>2012-04-01T10:48:22Z</time>
      </trkpt>
      <trkpt lat="43.84434" lon="6.5445">
        <ele>839.343</ele>
        <time>2012-04-01T10:48:30Z</time>
      </trkpt>
      <trkpt lat="43.84435" lon="6.54459">
        <ele>838.293</ele>
        <time>2012-04-01T10:48:40Z</time>
      </trkpt>
      <trkpt lat="43.84435" lon="6.54466">
        <ele>838.442</ele>
        <time>2012-04-01T10:48:47Z</time>
      </trkpt>
      <trkpt lat="43.84432" lon="6.54475">
        <ele>843.776</ele>
        <time>2012-04-01T10:48:56Z</time>
      </trkpt>
      <trkpt lat="43.84432" lon="6.54484">
        <ele>845.275</ele>
        <time>2012-04-01T10:49:03Z</time>
      </trkpt>
      <trkpt lat="43.84432" lon="6.5449">
        <ele>846.584</ele>
        <time>2012-04-01T10:49:11Z</time>
      </trkpt>
      <trkpt lat="43.84432" lon="6.54498">
        <ele>846.454</ele>
        <time>2012-04-01T10:49:18Z</time>
      </trkpt>
      <trkpt lat="43.84431" lon="6.54511">
        <ele>845.401</ele>
        <time>2012-04-01T10:49:28Z</time>
      </trkpt>
      <trkpt lat="43.8443" lon="6.54515">
        <ele>846.186</ele>
        <time>2012-04-01T10:49:35Z</time>
      </trkpt>
      <trkpt lat="43.84429" lon="6.54521">
        <ele>847.766</ele>
        <time>2012-04-01T10:49:40Z</time>
      </trkpt>
      <trkpt lat="43.84427" lon="6.54531">
        <ele>850.728</ele>
        <time>2012-04-01T10:49:48Z</time>
      </trkpt>
      <trkpt lat="43.84426" lon="6.5454">
        <ele>852.557</ele>
        <time>2012-04-01T10:49:55Z</time>
      </trkpt>
      <trkpt lat="43.84425" lon="6.54552">
        <ele>856.605</ele>
        <time>2012-04-01T10:50:05Z</time>
      </trkpt>
      <trkpt lat="43.84423" lon="6.54563">
        <ele>856.893</ele>
        <time>2012-04-01T10:50:14Z</time>
      </trkpt>
      <trkpt lat="43.84423" lon="6.54568">
        <ele>858.484</ele>
        <time>2012-04-01T10:50:21Z</time>
      </trkpt>
      <trkpt lat="43.84423" lon="6.54571">
        <ele>860.944</ele>
        <time>2012-04-01T10:50:40Z</time>
      </trkpt>
      <trkpt lat="43.84422" lon="6.5458">
        <ele>861.394</ele>
        <time>2012-04-01T10:50:45Z</time>
      </trkpt>
      <trkpt lat="43.8442" lon="6.54593">
        <ele>863.153</ele>
        <time>2012-04-01T10:50:52Z</time>
      </trkpt>
      <trkpt lat="43.84419" lon="6.54609">
        <ele>863.944</ele>
        <time>2012-04-01T10:50:59Z</time>
      </trkpt>
      <trkpt lat="43.84418" lon="6.54623">
        <ele>864.545</ele>
        <time>2012-04-01T10:51:06Z</time>
      </trkpt>
      <trkpt lat="43.84414" lon="6.54636">
        <ele>863.775</ele>
        <time>2012-04-01T10:51:13Z</time>
      </trkpt>
      <trkpt lat="43.8441" lon="6.54648">
        <ele>863.164</ele>
        <time>2012-04-01T10:51:20Z</time>
      </trkpt>
      <trkpt lat="43.84409" lon="6.54658">
        <ele>863.203</ele>
        <time>2012-04-01T10:51:27Z</time>
      </trkpt>
      <trkpt lat="43.84409" lon="6.5466">
        <ele>862.303</ele>
        <time>2012-04-01T10:51:29Z</time>
      </trkpt>
      <trkpt lat="43.84406" lon="6.54674">
        <ele>858.972</ele>
        <time>2012-04-01T10:51:38Z</time>
      </trkpt>
      <trkpt lat="43.84406" lon="6.54676">
        <ele>860.033</ele>
        <time>2012-04-01T10:51:40Z</time>
      </trkpt>
      <trkpt lat="43.84403" lon="6.54681">
        <ele>859.715</ele>
        <time>2012-04-01T10:51:44Z</time>
      </trkpt>
      <trkpt lat="43.84402" lon="6.54685">
        <ele>859.195</ele>
        <time>2012-04-01T10:51:47Z</time>
      </trkpt>
      <trkpt lat="43.84398" lon="6.54697">
        <ele>857.495</ele>
        <time>2012-04-01T10:51:56Z</time>
      </trkpt>
      <trkpt lat="43.84397" lon="6.54701">
        <ele>860.768</ele>
        <time>2012-04-01T10:52:02Z</time>
      </trkpt>
      <trkpt lat="43.84393" lon="6.54709">
        <ele>863.477</ele>
        <time>2012-04-01T10:52:10Z</time>
      </trkpt>
      <trkpt lat="43.8439" lon="6.54717">
        <ele>865.206</ele>
        <time>2012-04-01T10:52:17Z</time>
      </trkpt>
      <trkpt lat="43.84388" lon="6.54728">
        <ele>867.875</ele>
        <time>2012-04-01T10:52:26Z</time>
      </trkpt>
      <trkpt lat="43.84387" lon="6.54739">
        <ele>866.553</ele>
        <time>2012-04-01T10:52:34Z</time>
      </trkpt>
      <trkpt lat="43.84388" lon="6.54749">
        <ele>866.254</ele>
        <time>2012-04-01T10:52:43Z</time>
      </trkpt>
      <trkpt lat="43.84388" lon="6.5476">
        <ele>866.205</ele>
        <time>2012-04-01T10:52:51Z</time>
      </trkpt>
      <trkpt lat="43.84389" lon="6.5477">
        <ele>865.472</ele>
        <time>2012-04-01T10:52:59Z</time>
      </trkpt>
      <trkpt lat="43.84391" lon="6.54779">
        <ele>864.502</ele>
        <time>2012-04-01T10:53:07Z</time>
      </trkpt>
      <trkpt lat="43.84392" lon="6.54792">
        <ele>867.266</ele>
        <time>2012-04-01T10:53:18Z</time>
      </trkpt>
      <trkpt lat="43.84394" lon="6.54807">
        <ele>868.003</ele>
        <time>2012-04-01T10:53:28Z</time>
      </trkpt>
      <trkpt lat="43.84395" lon="6.54816">
        <ele>868.003</ele>
        <time>2012-04-01T10:53:36Z</time>
      </trkpt>
      <trkpt lat="43.84394" lon="6.54826">
        <ele>868.223</ele>
        <time>2012-04-01T10:53:45Z</time>
      </trkpt>
      <trkpt lat="43.84393" lon="6.54835">
        <ele>869.823</ele>
        <time>2012-04-01T10:53:52Z</time>
      </trkpt>
      <trkpt lat="43.84391" lon="6.54842">
        <ele>871.365</ele>
        <time>2012-04-01T10:53:59Z</time>
      </trkpt>
      <trkpt lat="43.84389" lon="6.5485">
        <ele>874.326</ele>
        <time>2012-04-01T10:54:07Z</time>
      </trkpt>
      <trkpt lat="43.84388" lon="6.54861">
        <ele>876.306</ele>
        <time>2012-04-01T10:54:17Z</time>
      </trkpt>
      <trkpt lat="43.84387" lon="6.5487">
        <ele>876.975</ele>
        <time>2012-04-01T10:54:24Z</time>
      </trkpt>
      <trkpt lat="43.84386" lon="6.5488">
        <ele>877.525</ele>
        <time>2012-04-01T10:54:32Z</time>
      </trkpt>
      <trkpt lat="43.84385" lon="6.54892">
        <ele>879.103</ele>
        <time>2012-04-01T10:54:43Z</time>
      </trkpt>
      <trkpt lat="43.84385" lon="6.54901">
        <ele>879.683</ele>
        <time>2012-04-01T10:54:51Z</time>
      </trkpt>
      <trkpt lat="43.84384" lon="6.54912">
        <ele>880.914</ele>
        <time>2012-04-01T10:55:00Z</time>
      </trkpt>
      <trkpt lat="43.84384" lon="6.54914">
        <ele>881.184</ele>
        <time>2012-04-01T10:55:01Z</time>
      </trkpt>
      <trkpt lat="43.84384" lon="6.54917">
        <ele>881.564</ele>
        <time>2012-04-01T10:55:04Z</time>
      </trkpt>
      <trkpt lat="43.84386" lon="6.5493">
        <ele>883.715</ele>
        <time>2012-04-01T10:55:14Z</time>
      </trkpt>
      <trkpt lat="43.84389" lon="6.54938">
        <ele>891.249</ele>
        <time>2012-04-01T10:55:23Z</time>
      </trkpt>
      <trkpt lat="43.84393" lon="6.54945">
        <ele>900.59</ele>
        <time>2012-04-01T10:55:32Z</time>
      </trkpt>
      <trkpt lat="43.84396" lon="6.54954">
        <ele>903.13</ele>
        <time>2012-04-01T10:55:40Z</time>
      </trkpt>
      <trkpt lat="43.844" lon="6.54963">
        <ele>906.121</ele>
        <time>2012-04-01T10:55:49Z</time>
      </trkpt>
      <trkpt lat="43.84402" lon="6.54972">
        <ele>908.628</ele>
        <time>2012-04-01T10:55:56Z</time>
      </trkpt>
      <trkpt lat="43.84402" lon="6.54983">
        <ele>916.943</ele>
        <time>2012-04-01T10:56:04Z</time>
      </trkpt>
      <trkpt lat="43.84402" lon="6.54984">
        <ele>917.615</ele>
        <time>2012-04-01T10:56:05Z</time>
      </trkpt>
      <trkpt lat="43.84406" lon="6.54995">
        <ele>918.25</ele>
        <time>2012-04-01T10:56:14Z</time>
      </trkpt>
      <trkpt lat="43.84407" lon="6.55007">
        <ele>917.264</ele>
        <time>2012-04-01T10:56:23Z</time>
      </trkpt>
      <trkpt lat="43.84407" lon="6.55014">
        <ele>912.902</ele>
        <time>2012-04-01T10:56:28Z</time>
      </trkpt>
      <trkpt lat="43.84406" lon="6.55023">
        <ele>907.562</ele>
        <time>2012-04-01T10:56:35Z</time>
      </trkpt>
      <trkpt lat="43.84403" lon="6.55034">
        <ele>912.219</ele>
        <time>2012-04-01T10:56:42Z</time>
      </trkpt>
      <trkpt lat="43.84402" lon="6.55043">
        <ele>915.63</ele>
        <time>2012-04-01T10:56:50Z</time>
      </trkpt>
      <trkpt lat="43.84399" lon="6.55056">
        <ele>922.711</ele>
        <time>2012-04-01T10:56:59Z</time>
      </trkpt>
      <trkpt lat="43.84398" lon="6.55064">
        <ele>922.33</ele>
        <time>2012-04-01T10:57:05Z</time>
      </trkpt>
      <trkpt lat="43.84399" lon="6.55079">
        <ele>921.495</ele>
        <time>2012-04-01T10:57:15Z</time>
      </trkpt>
      <trkpt lat="43.84398" lon="6.55089">
        <ele>919.902</ele>
        <time>2012-04-01T10:57:22Z</time>
      </trkpt>
      <trkpt lat="43.844" lon="6.55096">
        <ele>921.195</ele>
        <time>2012-04-01T10:57:28Z</time>
      </trkpt>
      <trkpt lat="43.84401" lon="6.55109">
        <ele>921.968</ele>
        <time>2012-04-01T10:57:36Z</time>
      </trkpt>
      <trkpt lat="43.84401" lon="6.55114">
        <ele>923.23</ele>
        <time>2012-04-01T10:57:41Z</time>
      </trkpt>
      <trkpt lat="43.84401" lon="6.5512">
        <ele>924.828</ele>
        <time>2012-04-01T10:57:49Z</time>
      </trkpt>
      <trkpt lat="43.84402" lon="6.55131">
        <ele>921.824</ele>
        <time>2012-04-01T10:57:57Z</time>
      </trkpt>
      <trkpt lat="43.84399" lon="6.55141">
        <ele>924.755</ele>
        <time>2012-04-01T10:58:05Z</time>
      </trkpt>
      <trkpt lat="43.84398" lon="6.55145">
        <ele>925.315</ele>
        <time>2012-04-01T10:58:10Z</time>
      </trkpt>
      <trkpt lat="43.84399" lon="6.55154">
        <ele>925.047</ele>
        <time>2012-04-01T10:58:17Z</time>
      </trkpt>
      <trkpt lat="43.844" lon="6.5516">
        <ele>924.984</ele>
        <time>2012-04-01T10:58:24Z</time>
      </trkpt>
      <trkpt lat="43.84403" lon="6.55164">
        <ele>924.404</ele>
        <time>2012-04-01T10:58:29Z</time>
      </trkpt>
      <trkpt lat="43.84404" lon="6.55175">
        <ele>927.437</ele>
        <time>2012-04-01T10:58:38Z</time>
      </trkpt>
      <trkpt lat="43.84405" lon="6.55185">
        <ele>931.027</ele>
        <time>2012-04-01T10:58:47Z</time>
      </trkpt>
      <trkpt lat="43.84407" lon="6.55192">
        <ele>931.155</ele>
        <time>2012-04-01T10:58:55Z</time>
      </trkpt>
      <trkpt lat="43.84412" lon="6.552">
        <ele>930.175</ele>
        <time>2012-04-01T11:27:44Z</time>
      </trkpt>
      <trkpt lat="43.84412" lon="6.55208">
        <ele>932.237</ele>
        <time>2012-04-01T11:27:51Z</time>
      </trkpt>
      <trkpt lat="43.84412" lon="6.55211">
        <ele>931.756</ele>
        <time>2012-04-01T11:27:54Z</time>
      </trkpt>
      <trkpt lat="43.84412" lon="6.55219">
        <ele>934.768</ele>
        <time>2012-04-01T11:28:00Z</time>
      </trkpt>
      <trkpt lat="43.84414" lon="6.55233">
        <ele>934.005</ele>
        <time>2012-04-01T11:28:09Z</time>
      </trkpt>
      <trkpt lat="43.84417" lon="6.55239">
        <ele>930.303</ele>
        <time>2012-04-01T11:28:15Z</time>
      </trkpt>
      <trkpt lat="43.84419" lon="6.55252">
        <ele>931.069</ele>
        <time>2012-04-01T11:28:26Z</time>
      </trkpt>
      <trkpt lat="43.84419" lon="6.55259">
        <ele>931.158</ele>
        <time>2012-04-01T11:28:31Z</time>
      </trkpt>
      <trkpt lat="43.84419" lon="6.55268">
        <ele>932.669</ele>
        <time>2012-04-01T11:28:39Z</time>
      </trkpt>
      <trkpt lat="43.84421" lon="6.55275">
        <ele>933.447</ele>
        <time>2012-04-01T11:28:45Z</time>
      </trkpt>
      <trkpt lat="43.84422" lon="6.55277">
        <ele>933.666</ele>
        <time>2012-04-01T11:28:47Z</time>
      </trkpt>
      <trkpt lat="43.84425" lon="6.55283">
        <ele>933.539</ele>
        <time>2012-04-01T11:28:54Z</time>
      </trkpt>
      <trkpt lat="43.84426" lon="6.55289">
        <ele>937.101</ele>
        <time>2012-04-01T11:29:00Z</time>
      </trkpt>
      <trkpt lat="43.84429" lon="6.553">
        <ele>942.402</ele>
        <time>2012-04-01T11:29:10Z</time>
      </trkpt>
      <trkpt lat="43.8443" lon="6.55308">
        <ele>945.27</ele>
        <time>2012-04-01T11:29:17Z</time>
      </trkpt>
      <trkpt lat="43.84431" lon="6.55318">
        <ele>948.06</ele>
        <time>2012-04-01T11:29:25Z</time>
      </trkpt>
      <trkpt lat="43.84434" lon="6.55331">
        <ele>951.082</ele>
        <time>2012-04-01T11:29:35Z</time>
      </trkpt>
      <trkpt lat="43.84434" lon="6.55341">
        <ele>952.62</ele>
        <time>2012-04-01T11:29:43Z</time>
      </trkpt>
      <trkpt lat="43.84435" lon="6.55349">
        <ele>950.948</ele>
        <time>2012-04-01T11:29:52Z</time>
      </trkpt>
      <trkpt lat="43.84437" lon="6.5536">
        <ele>948.143</ele>
        <time>2012-04-01T11:30:00Z</time>
      </trkpt>
      <trkpt lat="43.84437" lon="6.55369">
        <ele>952.451</ele>
        <time>2012-04-01T11:30:08Z</time>
      </trkpt>
      <trkpt lat="43.84436" lon="6.55375">
        <ele>959.306</ele>
        <time>2012-04-01T11:30:16Z</time>
      </trkpt>
      <trkpt lat="43.84437" lon="6.55379">
        <ele>960.274</ele>
        <time>2012-04-01T11:30:21Z</time>
      </trkpt>
      <trkpt lat="43.84438" lon="6.55388">
        <ele>964.904</ele>
        <time>2012-04-01T11:30:28Z</time>
      </trkpt>
      <trkpt lat="43.84436" lon="6.55394">
        <ele>966.44</ele>
        <time>2012-04-01T11:30:34Z</time>
      </trkpt>
      <trkpt lat="43.84435" lon="6.55402">
        <ele>967.669</ele>
        <time>2012-04-01T11:30:41Z</time>
      </trkpt>
      <trkpt lat="43.84439" lon="6.5541">
        <ele>969.18</ele>
        <time>2012-04-01T11:30:48Z</time>
      </trkpt>
      <trkpt lat="43.84442" lon="6.55416">
        <ele>969.4</ele>
        <time>2012-04-01T11:30:56Z</time>
      </trkpt>
      <trkpt lat="43.84443" lon="6.55421">
        <ele>971.682</ele>
        <time>2012-04-01T11:31:01Z</time>
      </trkpt>
      <trkpt lat="43.84446" lon="6.55429">
        <ele>970.589</ele>
        <time>2012-04-01T11:31:08Z</time>
      </trkpt>
      <trkpt lat="43.84446" lon="6.55433">
        <ele>972.139</ele>
        <time>2012-04-01T11:31:15Z</time>
      </trkpt>
      <trkpt lat="43.84448" lon="6.55443">
        <ele>973.86</ele>
        <time>2012-04-01T11:31:22Z</time>
      </trkpt>
      <trkpt lat="43.84452" lon="6.55448">
        <ele>976.102</ele>
        <time>2012-04-01T11:31:29Z</time>
      </trkpt>
      <trkpt lat="43.84455" lon="6.55454">
        <ele>980.065</ele>
        <time>2012-04-01T11:31:36Z</time>
      </trkpt>
      <trkpt lat="43.84457" lon="6.5546">
        <ele>984.133</ele>
        <time>2012-04-01T11:31:44Z</time>
      </trkpt>
      <trkpt lat="43.84459" lon="6.55464">
        <ele>986.494</ele>
        <time>2012-04-01T11:31:50Z</time>
      </trkpt>
      <trkpt lat="43.84459" lon="6.55472">
        <ele>986.251</ele>
        <time>2012-04-01T11:31:57Z</time>
      </trkpt>
      <trkpt lat="43.84462" lon="6.5548">
        <ele>983.098</ele>
        <time>2012-04-01T11:32:06Z</time>
      </trkpt>
      <trkpt lat="43.84463" lon="6.55487">
        <ele>979.436</ele>
        <time>2012-04-01T11:32:14Z</time>
      </trkpt>
      <trkpt lat="43.84463" lon="6.55493">
        <ele>979.767</ele>
        <time>2012-04-01T11:32:22Z</time>
      </trkpt>
      <trkpt lat="43.84464" lon="6.55504">
        <ele>979.747</ele>
        <time>2012-04-01T11:32:31Z</time>
      </trkpt>
      <trkpt lat="43.84464" lon="6.55509">
        <ele>981.218</ele>
        <time>2012-04-01T11:32:37Z</time>
      </trkpt>
      <trkpt lat="43.84459" lon="6.55518">
        <ele>987.831</ele>
        <time>2012-04-01T11:32:45Z</time>
      </trkpt>
      <trkpt lat="43.84457" lon="6.55521">
        <ele>989.581</ele>
        <time>2012-04-01T11:32:49Z</time>
      </trkpt>
      <trkpt lat="43.84455" lon="6.55528">
        <ele>986.528</ele>
        <time>2012-04-01T11:32:54Z</time>
      </trkpt>
      <trkpt lat="43.84455" lon="6.55535">
        <ele>984.925</ele>
        <time>2012-04-01T11:33:00Z</time>
      </trkpt>
      <trkpt lat="43.84457" lon="6.55548">
        <ele>978.365</ele>
        <time>2012-04-01T11:33:10Z</time>
      </trkpt>
      <trkpt lat="43.84456" lon="6.55553">
        <ele>979.227</ele>
        <time>2012-04-01T11:33:16Z</time>
      </trkpt>
      <trkpt lat="43.84455" lon="6.55559">
        <ele>978.708</ele>
        <time>2012-04-01T11:33:20Z</time>
      </trkpt>
      <trkpt lat="43.84454" lon="6.55571">
        <ele>975.505</ele>
        <time>2012-04-01T11:33:29Z</time>
      </trkpt>
      <trkpt lat="43.84452" lon="6.55583">
        <ele>978.85</ele>
        <time>2012-04-01T11:33:39Z</time>
      </trkpt>
      <trkpt lat="43.8445" lon="6.55597">
        <ele>979.789</ele>
        <time>2012-04-01T11:33:49Z</time>
      </trkpt>
      <trkpt lat="43.84447" lon="6.55607">
        <ele>985.42</ele>
        <time>2012-04-01T11:33:59Z</time>
      </trkpt>
      <trkpt lat="43.84446" lon="6.55617">
        <ele>989.303</ele>
        <time>2012-04-01T11:34:08Z</time>
      </trkpt>
      <trkpt lat="43.84445" lon="6.55625">
        <ele>987.207</ele>
        <time>2012-04-01T11:34:15Z</time>
      </trkpt>
      <trkpt lat="43.84444" lon="6.55637">
        <ele>988.019</ele>
        <time>2012-04-01T11:34:25Z</time>
      </trkpt>
      <trkpt lat="43.84443" lon="6.55643">
        <ele>988.38</ele>
        <time>2012-04-01T11:34:29Z</time>
      </trkpt>
      <trkpt lat="43.84444" lon="6.55645">
        <ele>989.671</ele>
        <time>2012-04-01T11:34:31Z</time>
      </trkpt>
      <trkpt lat="43.84442" lon="6.55657">
        <ele>991.751</ele>
        <time>2012-04-01T11:34:40Z</time>
      </trkpt>
      <trkpt lat="43.84441" lon="6.5566">
        <ele>991.507</ele>
        <time>2012-04-01T11:34:47Z</time>
      </trkpt>
      <trkpt lat="43.8444" lon="6.55663">
        <ele>989.575</ele>
        <time>2012-04-01T11:34:56Z</time>
      </trkpt>
      <trkpt lat="43.8444" lon="6.55673">
        <ele>991.75</ele>
        <time>2012-04-01T11:35:01Z</time>
      </trkpt>
      <trkpt lat="43.8444" lon="6.55675">
        <ele>992.441</ele>
        <time>2012-04-01T11:35:02Z</time>
      </trkpt>
      <trkpt lat="43.8444" lon="6.55692">
        <ele>998.114</ele>
        <time>2012-04-01T11:35:11Z</time>
      </trkpt>
      <trkpt lat="43.84438" lon="6.55706">
        <ele>1002.176</ele>
        <time>2012-04-01T11:35:18Z</time>
      </trkpt>
      <trkpt lat="43.84439" lon="6.55723">
        <ele>1003.912</ele>
        <time>2012-04-01T11:35:26Z</time>
      </trkpt>
      <trkpt lat="43.84439" lon="6.55725">
        <ele>1004.713</ele>
        <time>2012-04-01T11:35:27Z</time>
      </trkpt>
      <trkpt lat="43.84438" lon="6.55731">
        <ele>1007.976</ele>
        <time>2012-04-01T11:35:31Z</time>
      </trkpt>
      <trkpt lat="43.84437" lon="6.55735">
        <ele>1008.916</ele>
        <time>2012-04-01T11:35:33Z</time>
      </trkpt>
      <trkpt lat="43.84438" lon="6.55745">
        <ele>1012.117</ele>
        <time>2012-04-01T11:35:39Z</time>
      </trkpt>
      <trkpt lat="43.84437" lon="6.55752">
        <ele>1014.438</ele>
        <time>2012-04-01T11:35:43Z</time>
      </trkpt>
      <trkpt lat="43.84439" lon="6.55761">
        <ele>1012.113</ele>
        <time>2012-04-01T11:35:46Z</time>
      </trkpt>
      <trkpt lat="43.84439" lon="6.55779">
        <ele>1011.635</ele>
        <time>2012-04-01T11:35:54Z</time>
      </trkpt>
      <trkpt lat="43.8444" lon="6.55794">
        <ele>1013.504</ele>
        <time>2012-04-01T11:36:01Z</time>
      </trkpt>
      <trkpt lat="43.84441" lon="6.55806">
        <ele>1012.519</ele>
        <time>2012-04-01T11:36:07Z</time>
      </trkpt>
      <trkpt lat="43.84444" lon="6.5582">
        <ele>1010.876</ele>
        <time>2012-04-01T11:36:14Z</time>
      </trkpt>
      <trkpt lat="43.84445" lon="6.55834">
        <ele>1009.596</ele>
        <time>2012-04-01T11:36:21Z</time>
      </trkpt>
      <trkpt lat="43.84446" lon="6.55851">
        <ele>1008.646</ele>
        <time>2012-04-01T11:36:28Z</time>
      </trkpt>
      <trkpt lat="43.84449" lon="6.5587">
        <ele>1010.719</ele>
        <time>2012-04-01T11:36:37Z</time>
      </trkpt>
      <trkpt lat="43.84452" lon="6.55889">
        <ele>1013.42</ele>
        <time>2012-04-01T11:36:46Z</time>
      </trkpt>
      <trkpt lat="43.84454" lon="6.55898">
        <ele>1014.924</ele>
        <time>2012-04-01T11:36:51Z</time>
      </trkpt>
      <trkpt lat="43.84457" lon="6.55915">
        <ele>1012.75</ele>
        <time>2012-04-01T11:37:00Z</time>
      </trkpt>
      <trkpt lat="43.8446" lon="6.55929">
        <ele>1013.342</ele>
        <time>2012-04-01T11:37:07Z</time>
      </trkpt>
      <trkpt lat="43.84464" lon="6.55955">
        <ele>1011.619</ele>
        <time>2012-04-01T11:37:18Z</time>
      </trkpt>
      <trkpt lat="43.84467" lon="6.55969">
        <ele>1013.532</ele>
        <time>2012-04-01T11:37:26Z</time>
      </trkpt>
      <trkpt lat="43.84468" lon="6.55987">
        <ele>1015.842</ele>
        <time>2012-04-01T11:37:35Z</time>
      </trkpt>
      <trkpt lat="43.84472" lon="6.56003">
        <ele>1019.404</ele>
        <time>2012-04-01T11:37:44Z</time>
      </trkpt>
      <trkpt lat="43.84472" lon="6.56005">
        <ele>1019.684</ele>
        <time>2012-04-01T11:37:45Z</time>
      </trkpt>
      <trkpt lat="43.84477" lon="6.56026">
        <ele>1019.021</ele>
        <time>2012-04-01T11:37:56Z</time>
      </trkpt>
      <trkpt lat="43.84479" lon="6.56042">
        <ele>1020.402</ele>
        <time>2012-04-01T11:38:04Z</time>
      </trkpt>
      <trkpt lat="43.84481" lon="6.56059">
        <ele>1022.191</ele>
        <time>2012-04-01T11:38:13Z</time>
      </trkpt>
      <trkpt lat="43.84484" lon="6.5607">
        <ele>1023.281</ele>
        <time>2012-04-01T11:38:19Z</time>
      </trkpt>
      <trkpt lat="43.84485" lon="6.56081">
        <ele>1023.579</ele>
        <time>2012-04-01T11:38:25Z</time>
      </trkpt>
      <trkpt lat="43.84486" lon="6.56091">
        <ele>1024.47</ele>
        <time>2012-04-01T11:38:31Z</time>
      </trkpt>
      <trkpt lat="43.84489" lon="6.56104">
        <ele>1024.979</ele>
        <time>2012-04-01T11:38:39Z</time>
      </trkpt>
      <trkpt lat="43.8449" lon="6.56114">
        <ele>1027.302</ele>
        <time>2012-04-01T11:38:45Z</time>
      </trkpt>
      <trkpt lat="43.84491" lon="6.56121">
        <ele>1029.324</ele>
        <time>2012-04-01T11:38:49Z</time>
      </trkpt>
      <trkpt lat="43.84492" lon="6.56139">
        <ele>1030.612</ele>
        <time>2012-04-01T11:38:58Z</time>
      </trkpt>
      <trkpt lat="43.84495" lon="6.56153">
        <ele>1029.25</ele>
        <time>2012-04-01T11:39:05Z</time>
      </trkpt>
      <trkpt lat="43.84499" lon="6.56171">
        <ele>1029.349</ele>
        <time>2012-04-01T11:39:14Z</time>
      </trkpt>
      <trkpt lat="43.84501" lon="6.56189">
        <ele>1030.432</ele>
        <time>2012-04-01T11:39:24Z</time>
      </trkpt>
      <trkpt lat="43.84501" lon="6.56205">
        <ele>1032.313</ele>
        <time>2012-04-01T11:39:33Z</time>
      </trkpt>
      <trkpt lat="43.84501" lon="6.56222">
        <ele>1033.152</ele>
        <time>2012-04-01T11:39:42Z</time>
      </trkpt>
      <trkpt lat="43.84502" lon="6.56235">
        <ele>1034.642</ele>
        <time>2012-04-01T11:39:50Z</time>
      </trkpt>
      <trkpt lat="43.84502" lon="6.56236">
        <ele>1034.882</ele>
        <time>2012-04-01T11:39:51Z</time>
      </trkpt>
      <trkpt lat="43.84504" lon="6.56242">
        <ele>1036.46</ele>
        <time>2012-04-01T11:39:59Z</time>
      </trkpt>
      <trkpt lat="43.84506" lon="6.56246">
        <ele>1038.581</ele>
        <time>2012-04-01T11:40:06Z</time>
      </trkpt>
      <trkpt lat="43.84509" lon="6.56253">
        <ele>1041.03</ele>
        <time>2012-04-01T11:40:14Z</time>
      </trkpt>
      <trkpt lat="43.84511" lon="6.56259">
        <ele>1041.74</ele>
        <time>2012-04-01T11:40:19Z</time>
      </trkpt>
      <trkpt lat="43.84513" lon="6.56268">
        <ele>1045.003</ele>
        <time>2012-04-01T11:40:28Z</time>
      </trkpt>
      <trkpt lat="43.84516" lon="6.56278">
        <ele>1045.863</ele>
        <time>2012-04-01T11:40:37Z</time>
      </trkpt>
      <trkpt lat="43.84517" lon="6.56285">
        <ele>1037.244</ele>
        <time>2012-04-01T11:40:45Z</time>
      </trkpt>
      <trkpt lat="43.84518" lon="6.56296">
        <ele>1034.759</ele>
        <time>2012-04-01T11:41:04Z</time>
      </trkpt>
      <trkpt lat="43.84519" lon="6.56308">
        <ele>1037.204</ele>
        <time>2012-04-01T11:41:13Z</time>
      </trkpt>
      <trkpt lat="43.84519" lon="6.56315">
        <ele>1046.609</ele>
        <time>2012-04-01T11:41:22Z</time>
      </trkpt>
      <trkpt lat="43.84518" lon="6.56322">
        <ele>1053.239</ele>
        <time>2012-04-01T11:41:29Z</time>
      </trkpt>
      <trkpt lat="43.84519" lon="6.56328">
        <ele>1058.23</ele>
        <time>2012-04-01T11:41:35Z</time>
      </trkpt>
      <trkpt lat="43.84521" lon="6.56341">
        <ele>1058.756</ele>
        <time>2012-04-01T11:41:44Z</time>
      </trkpt>
      <trkpt lat="43.84523" lon="6.56351">
        <ele>1058.393</ele>
        <time>2012-04-01T11:41:52Z</time>
      </trkpt>
      <trkpt lat="43.84525" lon="6.56356">
        <ele>1056.13</ele>
        <time>2012-04-01T11:41:58Z</time>
      </trkpt>
      <trkpt lat="43.84526" lon="6.56366">
        <ele>1057.741</ele>
        <time>2012-04-01T11:42:07Z</time>
      </trkpt>
      <trkpt lat="43.84527" lon="6.56372">
        <ele>1057.44</ele>
        <time>2012-04-01T11:42:13Z</time>
      </trkpt>
      <trkpt lat="43.84531" lon="6.56384">
        <ele>1055.32</ele>
        <time>2012-04-01T11:42:22Z</time>
      </trkpt>
      <trkpt lat="43.84534" lon="6.56394">
        <ele>1053.98</ele>
        <time>2012-04-01T11:42:30Z</time>
      </trkpt>
      <trkpt lat="43.84537" lon="6.56405">
        <ele>1055.53</ele>
        <time>2012-04-01T11:42:41Z</time>
      </trkpt>
      <trkpt lat="43.8454" lon="6.56414">
        <ele>1055.11</ele>
        <time>2012-04-01T11:42:49Z</time>
      </trkpt>
      <trkpt lat="43.8454" lon="6.56415">
        <ele>1055.081</ele>
        <time>2012-04-01T11:42:50Z</time>
      </trkpt>
      <trkpt lat="43.84542" lon="6.56427">
        <ele>1056.719</ele>
        <time>2012-04-01T11:43:00Z</time>
      </trkpt>
      <trkpt lat="43.84543" lon="6.56438">
        <ele>1058.051</ele>
        <time>2012-04-01T11:43:09Z</time>
      </trkpt>
      <trkpt lat="43.84544" lon="6.56447">
        <ele>1057.739</ele>
        <time>2012-04-01T11:43:17Z</time>
      </trkpt>
      <trkpt lat="43.84546" lon="6.56455">
        <ele>1058.57</ele>
        <time>2012-04-01T11:43:25Z</time>
      </trkpt>
      <trkpt lat="43.84548" lon="6.56464">
        <ele>1060.602</ele>
        <time>2012-04-01T11:43:35Z</time>
      </trkpt>
      <trkpt lat="43.84547" lon="6.56468">
        <ele>1064.671</ele>
        <time>2012-04-01T11:43:43Z</time>
      </trkpt>
      <trkpt lat="43.84548" lon="6.56477">
        <ele>1063.49</ele>
        <time>2012-04-01T11:44:03Z</time>
      </trkpt>
      <trkpt lat="43.8455" lon="6.56482">
        <ele>1068.114</ele>
        <time>2012-04-01T11:44:09Z</time>
      </trkpt>
      <trkpt lat="43.84552" lon="6.56487">
        <ele>1069.723</ele>
        <time>2012-04-01T11:44:16Z</time>
      </trkpt>
      <trkpt lat="43.84553" lon="6.56491">
        <ele>1070.223</ele>
        <time>2012-04-01T11:44:22Z</time>
      </trkpt>
      <trkpt lat="43.84554" lon="6.56497">
        <ele>1071.985</ele>
        <time>2012-04-01T11:44:29Z</time>
      </trkpt>
      <trkpt lat="43.84555" lon="6.56504">
        <ele>1073.521</ele>
        <time>2012-04-01T11:44:37Z</time>
      </trkpt>
      <trkpt lat="43.84555" lon="6.56506">
        <ele>1075.669</ele>
        <time>2012-04-01T11:44:45Z</time>
      </trkpt>
      <trkpt lat="43.84557" lon="6.56514">
        <ele>1071.379</ele>
        <time>2012-04-01T11:44:52Z</time>
      </trkpt>
      <trkpt lat="43.84559" lon="6.56522">
        <ele>1068.288</ele>
        <time>2012-04-01T11:45:01Z</time>
      </trkpt>
      <trkpt lat="43.84561" lon="6.56527">
        <ele>1068.829</ele>
        <time>2012-04-01T11:45:08Z</time>
      </trkpt>
      <trkpt lat="43.84563" lon="6.56531">
        <ele>1068.368</ele>
        <time>2012-04-01T11:45:15Z</time>
      </trkpt>
      <trkpt lat="43.84564" lon="6.56537">
        <ele>1069.159</ele>
        <time>2012-04-01T11:45:24Z</time>
      </trkpt>
      <trkpt lat="43.84566" lon="6.56539">
        <ele>1070.29</ele>
        <time>2012-04-01T11:45:30Z</time>
      </trkpt>
      <trkpt lat="43.84568" lon="6.56541">
        <ele>1071.57</ele>
        <time>2012-04-01T11:45:36Z</time>
      </trkpt>
      <trkpt lat="43.84569" lon="6.56545">
        <ele>1071.719</ele>
        <time>2012-04-01T11:45:44Z</time>
      </trkpt>
      <trkpt lat="43.84571" lon="6.56545">
        <ele>1072.609</ele>
        <time>2012-04-01T11:45:50Z</time>
      </trkpt>
      <trkpt lat="43.84574" lon="6.56547">
        <ele>1073.809</ele>
        <time>2012-04-01T11:45:58Z</time>
      </trkpt>
      <trkpt lat="43.84575" lon="6.5655">
        <ele>1074.219</ele>
        <time>2012-04-01T11:46:03Z</time>
      </trkpt>
      <trkpt lat="43.84577" lon="6.56552">
        <ele>1075.61</ele>
        <time>2012-04-01T11:46:09Z</time>
      </trkpt>
      <trkpt lat="43.8458" lon="6.56554">
        <ele>1076.94</ele>
        <time>2012-04-01T11:46:15Z</time>
      </trkpt>
      <trkpt lat="43.84583" lon="6.56557">
        <ele>1078.139</ele>
        <time>2012-04-01T11:46:22Z</time>
      </trkpt>
      <trkpt lat="43.84581" lon="6.5656">
        <ele>1080.278</ele>
        <time>2012-04-01T11:46:37Z</time>
      </trkpt>
      <trkpt lat="43.84582" lon="6.5656">
        <ele>1080.379</ele>
        <time>2012-04-01T11:47:10Z</time>
      </trkpt>
      <trkpt lat="43.84584" lon="6.56574">
        <ele>1081.531</ele>
        <time>2012-04-01T11:47:17Z</time>
      </trkpt>
      <trkpt lat="43.84587" lon="6.56588">
        <ele>1084.514</ele>
        <time>2012-04-01T11:47:24Z</time>
      </trkpt>
      <trkpt lat="43.84589" lon="6.56595">
        <ele>1087.866</ele>
        <time>2012-04-01T11:47:29Z</time>
      </trkpt>
      <trkpt lat="43.84592" lon="6.56608">
        <ele>1092.647</ele>
        <time>2012-04-01T11:47:37Z</time>
      </trkpt>
      <trkpt lat="43.84593" lon="6.56613">
        <ele>1094.223</ele>
        <time>2012-04-01T11:47:43Z</time>
      </trkpt>
      <trkpt lat="43.84593" lon="6.5662">
        <ele>1096.4</ele>
        <time>2012-04-01T11:48:02Z</time>
      </trkpt>
      <trkpt lat="43.84595" lon="6.56628">
        <ele>1096.311</ele>
        <time>2012-04-01T11:48:10Z</time>
      </trkpt>
      <trkpt lat="43.84599" lon="6.56638">
        <ele>1094.969</ele>
        <time>2012-04-01T11:48:20Z</time>
      </trkpt>
      <trkpt lat="43.84602" lon="6.5665">
        <ele>1090.839</ele>
        <time>2012-04-01T11:48:30Z</time>
      </trkpt>
      <trkpt lat="43.84604" lon="6.5666">
        <ele>1091.132</ele>
        <time>2012-04-01T11:48:39Z</time>
      </trkpt>
      <trkpt lat="43.84603" lon="6.56666">
        <ele>1092.271</ele>
        <time>2012-04-01T11:48:44Z</time>
      </trkpt>
      <trkpt lat="43.84604" lon="6.5668">
        <ele>1095.953</ele>
        <time>2012-04-01T11:48:56Z</time>
      </trkpt>
      <trkpt lat="43.84605" lon="6.56688">
        <ele>1097.652</ele>
        <time>2012-04-01T11:49:03Z</time>
      </trkpt>
      <trkpt lat="43.84607" lon="6.56698">
        <ele>1099.021</ele>
        <time>2012-04-01T11:49:12Z</time>
      </trkpt>
      <trkpt lat="43.84608" lon="6.56705">
        <ele>1098.377</ele>
        <time>2012-04-01T11:49:20Z</time>
      </trkpt>
      <trkpt lat="43.84609" lon="6.56713">
        <ele>1098.499</ele>
        <time>2012-04-01T11:49:24Z</time>
      </trkpt>
      <trkpt lat="43.84611" lon="6.56727">
        <ele>1098.871</ele>
        <time>2012-04-01T11:49:30Z</time>
      </trkpt>
      <trkpt lat="43.84614" lon="6.56738">
        <ele>1099.011</ele>
        <time>2012-04-01T11:49:37Z</time>
      </trkpt>
      <trkpt lat="43.84614" lon="6.56744">
        <ele>1099.799</ele>
        <time>2012-04-01T11:49:40Z</time>
      </trkpt>
      <trkpt lat="43.84617" lon="6.56754">
        <ele>1102.854</ele>
        <time>2012-04-01T11:49:48Z</time>
      </trkpt>
      <trkpt lat="43.84621" lon="6.56765">
        <ele>1104.224</ele>
        <time>2012-04-01T11:49:55Z</time>
      </trkpt>
      <trkpt lat="43.84623" lon="6.56777">
        <ele>1108.174</ele>
        <time>2012-04-01T11:50:03Z</time>
      </trkpt>
      <trkpt lat="43.84624" lon="6.56789">
        <ele>1109.662</ele>
        <time>2012-04-01T11:50:10Z</time>
      </trkpt>
      <trkpt lat="43.84625" lon="6.56795">
        <ele>1111.102</ele>
        <time>2012-04-01T11:50:16Z</time>
      </trkpt>
      <trkpt lat="43.84627" lon="6.56802">
        <ele>1110.998</ele>
        <time>2012-04-01T11:50:23Z</time>
      </trkpt>
      <trkpt lat="43.84627" lon="6.56801">
        <ele>1111.367</ele>
        <time>2012-04-01T11:51:17Z</time>
      </trkpt>
      <trkpt lat="43.84627" lon="6.56802">
        <ele>1111.669</ele>
        <time>2012-04-01T11:51:21Z</time>
      </trkpt>
      <trkpt lat="43.84628" lon="6.56808">
        <ele>1111.76</ele>
        <time>2012-04-01T11:51:26Z</time>
      </trkpt>
      <trkpt lat="43.84629" lon="6.56812">
        <ele>1111.679</ele>
        <time>2012-04-01T11:51:31Z</time>
      </trkpt>
      <trkpt lat="43.8463" lon="6.56814">
        <ele>1111.609</ele>
        <time>2012-04-01T11:51:33Z</time>
      </trkpt>
      <trkpt lat="43.84632" lon="6.56821">
        <ele>1112.23</ele>
        <time>2012-04-01T11:51:39Z</time>
      </trkpt>
      <trkpt lat="43.84634" lon="6.56827">
        <ele>1112.39</ele>
        <time>2012-04-01T11:51:46Z</time>
      </trkpt>
      <trkpt lat="43.84634" lon="6.56834">
        <ele>1112.529</ele>
        <time>2012-04-01T11:51:53Z</time>
      </trkpt>
      <trkpt lat="43.84633" lon="6.56843">
        <ele>1112.98</ele>
        <time>2012-04-01T11:52:02Z</time>
      </trkpt>
      <trkpt lat="43.84633" lon="6.56851">
        <ele>1113.981</ele>
        <time>2012-04-01T11:52:09Z</time>
      </trkpt>
      <trkpt lat="43.84634" lon="6.56861">
        <ele>1114.929</ele>
        <time>2012-04-01T11:52:18Z</time>
      </trkpt>
      <trkpt lat="43.84635" lon="6.56868">
        <ele>1115.65</ele>
        <time>2012-04-01T11:52:25Z</time>
      </trkpt>
      <trkpt lat="43.84637" lon="6.56876">
        <ele>1116.51</ele>
        <time>2012-04-01T11:52:33Z</time>
      </trkpt>
      <trkpt lat="43.84638" lon="6.56877">
        <ele>1116.861</ele>
        <time>2012-04-01T11:52:35Z</time>
      </trkpt>
      <trkpt lat="43.8464" lon="6.56887">
        <ele>1117.801</ele>
        <time>2012-04-01T11:52:44Z</time>
      </trkpt>
      <trkpt lat="43.84641" lon="6.56896">
        <ele>1118.911</ele>
        <time>2012-04-01T11:52:54Z</time>
      </trkpt>
      <trkpt lat="43.84641" lon="6.56902">
        <ele>1119.2</ele>
        <time>2012-04-01T11:53:00Z</time>
      </trkpt>
      <trkpt lat="43.84641" lon="6.56911">
        <ele>1119.66</ele>
        <time>2012-04-01T11:53:09Z</time>
      </trkpt>
      <trkpt lat="43.84641" lon="6.56917">
        <ele>1120.58</ele>
        <time>2012-04-01T11:53:15Z</time>
      </trkpt>
      <trkpt lat="43.84642" lon="6.56925">
        <ele>1122.241</ele>
        <time>2012-04-01T11:53:23Z</time>
      </trkpt>
      <trkpt lat="43.84643" lon="6.56934">
        <ele>1123.751</ele>
        <time>2012-04-01T11:53:32Z</time>
      </trkpt>
      <trkpt lat="43.84644" lon="6.56946">
        <ele>1125.33</ele>
        <time>2012-04-01T11:53:44Z</time>
      </trkpt>
      <trkpt lat="43.84646" lon="6.56955">
        <ele>1126.171</ele>
        <time>2012-04-01T11:53:53Z</time>
      </trkpt>
      <trkpt lat="43.84648" lon="6.56964">
        <ele>1127.081</ele>
        <time>2012-04-01T11:54:03Z</time>
      </trkpt>
      <trkpt lat="43.8465" lon="6.56972">
        <ele>1128.01</ele>
        <time>2012-04-01T11:54:12Z</time>
      </trkpt>
      <trkpt lat="43.84651" lon="6.56981">
        <ele>1129.021</ele>
        <time>2012-04-01T11:54:21Z</time>
      </trkpt>
      <trkpt lat="43.84652" lon="6.56989">
        <ele>1130.131</ele>
        <time>2012-04-01T11:54:29Z</time>
      </trkpt>
      <trkpt lat="43.84654" lon="6.56993">
        <ele>1131.171</ele>
        <time>2012-04-01T11:54:35Z</time>
      </trkpt>
      <trkpt lat="43.84654" lon="6.56995">
        <ele>1131.37</ele>
        <time>2012-04-01T11:54:37Z</time>
      </trkpt>
      <trkpt lat="43.84657" lon="6.57003">
        <ele>1132.451</ele>
        <time>2012-04-01T11:54:45Z</time>
      </trkpt>
      <trkpt lat="43.84657" lon="6.57004">
        <ele>1132.52</ele>
        <time>2012-04-01T11:54:46Z</time>
      </trkpt>
      <trkpt lat="43.84658" lon="6.57009">
        <ele>1133.58</ele>
        <time>2012-04-01T11:54:54Z</time>
      </trkpt>
      <trkpt lat="43.84658" lon="6.57013">
        <ele>1134.88</ele>
        <time>2012-04-01T11:55:00Z</time>
      </trkpt>
      <trkpt lat="43.84658" lon="6.57019">
        <ele>1136.383</ele>
        <time>2012-04-01T11:55:07Z</time>
      </trkpt>
      <trkpt lat="43.84659" lon="6.57022">
        <ele>1137.873</ele>
        <time>2012-04-01T11:55:12Z</time>
      </trkpt>
      <trkpt lat="43.84661" lon="6.57029">
        <ele>1140.444</ele>
        <time>2012-04-01T11:55:21Z</time>
      </trkpt>
      <trkpt lat="43.8466" lon="6.57035">
        <ele>1143.664</ele>
        <time>2012-04-01T11:55:28Z</time>
      </trkpt>
      <trkpt lat="43.84661" lon="6.57041">
        <ele>1146.424</ele>
        <time>2012-04-01T11:55:35Z</time>
      </trkpt>
      <trkpt lat="43.84661" lon="6.57048">
        <ele>1148.763</ele>
        <time>2012-04-01T11:55:43Z</time>
      </trkpt>
      <trkpt lat="43.84661" lon="6.57057">
        <ele>1151.444</ele>
        <time>2012-04-01T11:55:52Z</time>
      </trkpt>
      <trkpt lat="43.84661" lon="6.57066">
        <ele>1153.555</ele>
        <time>2012-04-01T11:56:00Z</time>
      </trkpt>
      <trkpt lat="43.84662" lon="6.57071">
        <ele>1154.113</ele>
        <time>2012-04-01T11:56:06Z</time>
      </trkpt>
      <trkpt lat="43.84664" lon="6.57077">
        <ele>1154.443</ele>
        <time>2012-04-01T11:56:12Z</time>
      </trkpt>
      <trkpt lat="43.84665" lon="6.57085">
        <ele>1156.555</ele>
        <time>2012-04-01T11:56:21Z</time>
      </trkpt>
      <trkpt lat="43.84664" lon="6.5709">
        <ele>1156.823</ele>
        <time>2012-04-01T11:56:27Z</time>
      </trkpt>
      <trkpt lat="43.84658" lon="6.57097">
        <ele>1158.024</ele>
        <time>2012-04-01T11:56:35Z</time>
      </trkpt>
      <trkpt lat="43.84656" lon="6.57101">
        <ele>1158.631</ele>
        <time>2012-04-01T11:56:42Z</time>
      </trkpt>
      <trkpt lat="43.84654" lon="6.57109">
        <ele>1156.12</ele>
        <time>2012-04-01T11:56:57Z</time>
      </trkpt>
      <trkpt lat="43.84651" lon="6.57121">
        <ele>1155.272</ele>
        <time>2012-04-01T11:57:08Z</time>
      </trkpt>
      <trkpt lat="43.84646" lon="6.57127">
        <ele>1158.343</ele>
        <time>2012-04-01T11:57:17Z</time>
      </trkpt>
      <trkpt lat="43.84642" lon="6.57132">
        <ele>1162.294</ele>
        <time>2012-04-01T11:57:25Z</time>
      </trkpt>
      <trkpt lat="43.84641" lon="6.57135">
        <ele>1166.506</ele>
        <time>2012-04-01T11:57:31Z</time>
      </trkpt>
      <trkpt lat="43.84641" lon="6.57144">
        <ele>1168.063</ele>
        <time>2012-04-01T11:57:40Z</time>
      </trkpt>
      <trkpt lat="43.84641" lon="6.57145">
        <ele>1168.293</ele>
        <time>2012-04-01T11:57:41Z</time>
      </trkpt>
      <trkpt lat="43.84639" lon="6.57153">
        <ele>1166.92</ele>
        <time>2012-04-01T11:57:50Z</time>
      </trkpt>
      <trkpt lat="43.8464" lon="6.57156">
        <ele>1163.849</ele>
        <time>2012-04-01T11:58:01Z</time>
      </trkpt>
      <trkpt lat="43.84631" lon="6.57156">
        <ele>1164.99</ele>
        <time>2012-04-01T11:58:08Z</time>
      </trkpt>
      <trkpt lat="43.84629" lon="6.57154">
        <ele>1165.33</ele>
        <time>2012-04-01T11:58:12Z</time>
      </trkpt>
      <trkpt lat="43.84627" lon="6.57152">
        <ele>1167.711</ele>
        <time>2012-04-01T11:58:19Z</time>
      </trkpt>
      <trkpt lat="43.84622" lon="6.57153">
        <ele>1169.091</ele>
        <time>2012-04-01T11:58:26Z</time>
      </trkpt>
      <trkpt lat="43.84617" lon="6.57157">
        <ele>1169.101</ele>
        <time>2012-04-01T11:58:53Z</time>
      </trkpt>
      <trkpt lat="43.84618" lon="6.5716">
        <ele>1173.534</ele>
        <time>2012-04-01T11:59:01Z</time>
      </trkpt>
      <trkpt lat="43.84618" lon="6.57164">
        <ele>1174.945</ele>
        <time>2012-04-01T11:59:07Z</time>
      </trkpt>
      <trkpt lat="43.84617" lon="6.57168">
        <ele>1177.965</ele>
        <time>2012-04-01T11:59:13Z</time>
      </trkpt>
      <trkpt lat="43.84617" lon="6.57173">
        <ele>1178.911</ele>
        <time>2012-04-01T11:59:22Z</time>
      </trkpt>
      <trkpt lat="43.84617" lon="6.57184">
        <ele>1173.726</ele>
        <time>2012-04-01T11:59:30Z</time>
      </trkpt>
      <trkpt lat="43.84618" lon="6.57196">
        <ele>1169.678</ele>
        <time>2012-04-01T11:59:39Z</time>
      </trkpt>
      <trkpt lat="43.84619" lon="6.57203">
        <ele>1170.791</ele>
        <time>2012-04-01T11:59:46Z</time>
      </trkpt>
      <trkpt lat="43.84621" lon="6.57209">
        <ele>1170.351</ele>
        <time>2012-04-01T11:59:52Z</time>
      </trkpt>
      <trkpt lat="43.84622" lon="6.57217">
        <ele>1172.032</ele>
        <time>2012-04-01T12:00:00Z</time>
      </trkpt>
      <trkpt lat="43.84624" lon="6.57225">
        <ele>1173.432</ele>
        <time>2012-04-01T12:00:08Z</time>
      </trkpt>
      <trkpt lat="43.84626" lon="6.57228">
        <ele>1175.102</ele>
        <time>2012-04-01T12:00:13Z</time>
      </trkpt>
      <trkpt lat="43.84627" lon="6.57235">
        <ele>1174.079</ele>
        <time>2012-04-01T12:00:21Z</time>
      </trkpt>
      <trkpt lat="43.84629" lon="6.57243">
        <ele>1175.996</ele>
        <time>2012-04-01T12:00:30Z</time>
      </trkpt>
      <trkpt lat="43.84629" lon="6.57252">
        <ele>1176.69</ele>
        <time>2012-04-01T12:00:40Z</time>
      </trkpt>
      <trkpt lat="43.8463" lon="6.5726">
        <ele>1175.918</ele>
        <time>2012-04-01T12:00:49Z</time>
      </trkpt>
      <trkpt lat="43.84631" lon="6.57267">
        <ele>1176.4</ele>
        <time>2012-04-01T12:00:57Z</time>
      </trkpt>
      <trkpt lat="43.8463" lon="6.57273">
        <ele>1176.62</ele>
        <time>2012-04-01T12:01:04Z</time>
      </trkpt>
      <trkpt lat="43.84629" lon="6.57277">
        <ele>1179.473</ele>
        <time>2012-04-01T12:01:10Z</time>
      </trkpt>
      <trkpt lat="43.84631" lon="6.57284">
        <ele>1180.403</ele>
        <time>2012-04-01T12:01:19Z</time>
      </trkpt>
      <trkpt lat="43.84633" lon="6.57294">
        <ele>1182.062</ele>
        <time>2012-04-01T12:01:29Z</time>
      </trkpt>
      <trkpt lat="43.84634" lon="6.573">
        <ele>1182.461</ele>
        <time>2012-04-01T12:01:35Z</time>
      </trkpt>
      <trkpt lat="43.84635" lon="6.57306">
        <ele>1184.583</ele>
        <time>2012-04-01T12:01:42Z</time>
      </trkpt>
      <trkpt lat="43.84636" lon="6.57316">
        <ele>1186.901</ele>
        <time>2012-04-01T12:01:52Z</time>
      </trkpt>
      <trkpt lat="43.84637" lon="6.57319">
        <ele>1187.61</ele>
        <time>2012-04-01T12:01:58Z</time>
      </trkpt>
      <trkpt lat="43.84639" lon="6.57318">
        <ele>1190.79</ele>
        <time>2012-04-01T12:02:08Z</time>
      </trkpt>
      <trkpt lat="43.84639" lon="6.5732">
        <ele>1196.574</ele>
        <time>2012-04-01T12:02:16Z</time>
      </trkpt>
      <trkpt lat="43.84641" lon="6.57327">
        <ele>1199.906</ele>
        <time>2012-04-01T12:02:23Z</time>
      </trkpt>
      <trkpt lat="43.84643" lon="6.57336">
        <ele>1200.034</ele>
        <time>2012-04-01T12:02:31Z</time>
      </trkpt>
      <trkpt lat="43.84645" lon="6.57345">
        <ele>1201.019</ele>
        <time>2012-04-01T12:02:48Z</time>
      </trkpt>
      <trkpt lat="43.84647" lon="6.5735">
        <ele>1201.379</ele>
        <time>2012-04-01T12:02:54Z</time>
      </trkpt>
      <trkpt lat="43.84648" lon="6.57355">
        <ele>1202.871</ele>
        <time>2012-04-01T12:03:01Z</time>
      </trkpt>
      <trkpt lat="43.84649" lon="6.57358">
        <ele>1202.65</ele>
        <time>2012-04-01T12:03:04Z</time>
      </trkpt>
      <trkpt lat="43.84651" lon="6.57365">
        <ele>1203.601</ele>
        <time>2012-04-01T12:03:11Z</time>
      </trkpt>
      <trkpt lat="43.84656" lon="6.57374">
        <ele>1196.306</ele>
        <time>2012-04-01T12:03:36Z</time>
      </trkpt>
      <trkpt lat="43.84656" lon="6.57375">
        <ele>1196.636</ele>
        <time>2012-04-01T12:03:38Z</time>
      </trkpt>
      <trkpt lat="43.84663" lon="6.57381">
        <ele>1202.094</ele>
        <time>2012-04-01T12:03:46Z</time>
      </trkpt>
      <trkpt lat="43.84665" lon="6.57388">
        <ele>1204.142</ele>
        <time>2012-04-01T12:03:51Z</time>
      </trkpt>
      <trkpt lat="43.84666" lon="6.57389">
        <ele>1205.142</ele>
        <time>2012-04-01T12:03:52Z</time>
      </trkpt>
      <trkpt lat="43.84672" lon="6.57398">
        <ele>1213.246</ele>
        <time>2012-04-01T12:03:59Z</time>
      </trkpt>
      <trkpt lat="43.84675" lon="6.57402">
        <ele>1214.467</ele>
        <time>2012-04-01T12:04:02Z</time>
      </trkpt>
      <trkpt lat="43.8468" lon="6.57408">
        <ele>1215.174</ele>
        <time>2012-04-01T12:04:07Z</time>
      </trkpt>
      <trkpt lat="43.84681" lon="6.57425">
        <ele>1220.019</ele>
        <time>2012-04-01T12:04:16Z</time>
      </trkpt>
      <trkpt lat="43.84685" lon="6.57435">
        <ele>1224.179</ele>
        <time>2012-04-01T12:04:24Z</time>
      </trkpt>
      <trkpt lat="43.84687" lon="6.57447">
        <ele>1227.908</ele>
        <time>2012-04-01T12:04:33Z</time>
      </trkpt>
      <trkpt lat="43.84688" lon="6.57455">
        <ele>1225.13</ele>
        <time>2012-04-01T12:04:48Z</time>
      </trkpt>
      <trkpt lat="43.84687" lon="6.57466">
        <ele>1221.359</ele>
        <time>2012-04-01T12:04:57Z</time>
      </trkpt>
      <trkpt lat="43.84688" lon="6.57477">
        <ele>1221.682</ele>
        <time>2012-04-01T12:05:06Z</time>
      </trkpt>
      <trkpt lat="43.84691" lon="6.57482">
        <ele>1220.22</ele>
        <time>2012-04-01T12:05:11Z</time>
      </trkpt>
      <trkpt lat="43.84691" lon="6.57491">
        <ele>1220.301</ele>
        <time>2012-04-01T12:05:18Z</time>
      </trkpt>
      <trkpt lat="43.84694" lon="6.575">
        <ele>1221.53</ele>
        <time>2012-04-01T12:05:27Z</time>
      </trkpt>
      <trkpt lat="43.84696" lon="6.57506">
        <ele>1221.461</ele>
        <time>2012-04-01T12:05:33Z</time>
      </trkpt>
      <trkpt lat="43.847" lon="6.57511">
        <ele>1226.655</ele>
        <time>2012-04-01T12:05:40Z</time>
      </trkpt>
      <trkpt lat="43.84703" lon="6.57518">
        <ele>1227.072</ele>
        <time>2012-04-01T12:05:48Z</time>
      </trkpt>
      <trkpt lat="43.84702" lon="6.57523">
        <ele>1224.669</ele>
        <time>2012-04-01T12:05:56Z</time>
      </trkpt>
      <trkpt lat="43.84704" lon="6.57529">
        <ele>1226.614</ele>
        <time>2012-04-01T12:06:11Z</time>
      </trkpt>
      <trkpt lat="43.84706" lon="6.57534">
        <ele>1226.401</ele>
        <time>2012-04-01T12:06:15Z</time>
      </trkpt>
      <trkpt lat="43.84707" lon="6.57541">
        <ele>1227.162</ele>
        <time>2012-04-01T12:06:20Z</time>
      </trkpt>
      <trkpt lat="43.84707" lon="6.57543">
        <ele>1227.823</ele>
        <time>2012-04-01T12:06:22Z</time>
      </trkpt>
      <trkpt lat="43.84709" lon="6.57556">
        <ele>1231.092</ele>
        <time>2012-04-01T12:06:31Z</time>
      </trkpt>
      <trkpt lat="43.84712" lon="6.57566">
        <ele>1230.973</ele>
        <time>2012-04-01T12:06:39Z</time>
      </trkpt>
      <trkpt lat="43.84714" lon="6.57569">
        <ele>1232.595</ele>
        <time>2012-04-01T12:06:44Z</time>
      </trkpt>
      <trkpt lat="43.84714" lon="6.57577">
        <ele>1232.762</ele>
        <time>2012-04-01T12:06:50Z</time>
      </trkpt>
      <trkpt lat="43.84714" lon="6.57582">
        <ele>1233.883</ele>
        <time>2012-04-01T12:06:54Z</time>
      </trkpt>
      <trkpt lat="43.84714" lon="6.5759">
        <ele>1232.77</ele>
        <time>2012-04-01T12:07:00Z</time>
      </trkpt>
      <trkpt lat="43.84713" lon="6.57593">
        <ele>1236.105</ele>
        <time>2012-04-01T12:07:03Z</time>
      </trkpt>
      <trkpt lat="43.84716" lon="6.57599">
        <ele>1234.752</ele>
        <time>2012-04-01T12:07:09Z</time>
      </trkpt>
      <trkpt lat="43.8472" lon="6.57608">
        <ele>1235.221</ele>
        <time>2012-04-01T12:07:17Z</time>
      </trkpt>
      <trkpt lat="43.84722" lon="6.5761">
        <ele>1234.81</ele>
        <time>2012-04-01T12:07:24Z</time>
      </trkpt>
      <trkpt lat="43.84723" lon="6.57618">
        <ele>1234.37</ele>
        <time>2012-04-01T12:07:51Z</time>
      </trkpt>
      <trkpt lat="43.84724" lon="6.57627">
        <ele>1237.595</ele>
        <time>2012-04-01T12:07:59Z</time>
      </trkpt>
      <trkpt lat="43.84728" lon="6.57637">
        <ele>1240.485</ele>
        <time>2012-04-01T12:08:08Z</time>
      </trkpt>
      <trkpt lat="43.84729" lon="6.57645">
        <ele>1241.553</ele>
        <time>2012-04-01T12:08:14Z</time>
      </trkpt>
      <trkpt lat="43.84734" lon="6.57651">
        <ele>1246.404</ele>
        <time>2012-04-01T12:08:22Z</time>
      </trkpt>
      <trkpt lat="43.84733" lon="6.57655">
        <ele>1245.459</ele>
        <time>2012-04-01T12:08:24Z</time>
      </trkpt>
      <trkpt lat="43.84738" lon="6.57665">
        <ele>1243.12</ele>
        <time>2012-04-01T12:08:31Z</time>
      </trkpt>
      <trkpt lat="43.84741" lon="6.57677">
        <ele>1244.253</ele>
        <time>2012-04-01T12:08:40Z</time>
      </trkpt>
      <trkpt lat="43.84742" lon="6.57685">
        <ele>1245.563</ele>
        <time>2012-04-01T12:08:46Z</time>
      </trkpt>
      <trkpt lat="43.84742" lon="6.57689">
        <ele>1245.531</ele>
        <time>2012-04-01T12:08:52Z</time>
      </trkpt>
      <trkpt lat="43.84748" lon="6.57691">
        <ele>1247.48</ele>
        <time>2012-04-01T12:17:57Z</time>
      </trkpt>
      <trkpt lat="43.84745" lon="6.57692">
        <ele>1247.983</ele>
        <time>2012-04-01T12:18:02Z</time>
      </trkpt>
      <trkpt lat="43.84744" lon="6.57691">
        <ele>1250.102</ele>
        <time>2012-04-01T12:18:10Z</time>
      </trkpt>
      <trkpt lat="43.8474" lon="6.57687">
        <ele>1252.009</ele>
        <time>2012-04-01T12:27:30Z</time>
      </trkpt>
      <trkpt lat="43.84742" lon="6.57688">
        <ele>1255.833</ele>
        <time>2012-04-01T12:27:40Z</time>
      </trkpt>
      <trkpt lat="43.84735" lon="6.57691">
        <ele>1256.412</ele>
        <time>2012-04-01T12:27:49Z</time>
      </trkpt>
      <trkpt lat="43.8473" lon="6.57697">
        <ele>1253.369</ele>
        <time>2012-04-01T12:27:57Z</time>
      </trkpt>
      <trkpt lat="43.84728" lon="6.57693">
        <ele>1260.209</ele>
        <time>2012-04-01T12:29:35Z</time>
      </trkpt>
      <trkpt lat="43.84722" lon="6.5768">
        <ele>1256.907</ele>
        <time>2012-04-01T12:29:40Z</time>
      </trkpt>
      <trkpt lat="43.84707" lon="6.57655">
        <ele>1255.706</ele>
        <time>2012-04-01T12:29:44Z</time>
      </trkpt>
      <trkpt lat="43.84703" lon="6.57649">
        <ele>1255.677</ele>
        <time>2012-04-01T12:29:45Z</time>
      </trkpt>
      <trkpt lat="43.84696" lon="6.57629">
        <ele>1255.568</ele>
        <time>2012-04-01T12:29:48Z</time>
      </trkpt>
      <trkpt lat="43.84685" lon="6.57605">
        <ele>1252.375</ele>
        <time>2012-04-01T12:29:51Z</time>
      </trkpt>
      <trkpt lat="43.84677" lon="6.57594">
        <ele>1249.583</ele>
        <time>2012-04-01T12:29:53Z</time>
      </trkpt>
      <trkpt lat="43.84663" lon="6.57559">
        <ele>1242.638</ele>
        <time>2012-04-01T12:29:58Z</time>
      </trkpt>
      <trkpt lat="43.84652" lon="6.57518">
        <ele>1235.835</ele>
        <time>2012-04-01T12:30:03Z</time>
      </trkpt>
      <trkpt lat="43.84646" lon="6.57505">
        <ele>1234.787</ele>
        <time>2012-04-01T12:30:05Z</time>
      </trkpt>
      <trkpt lat="43.84639" lon="6.5748">
        <ele>1233.741</ele>
        <time>2012-04-01T12:30:09Z</time>
      </trkpt>
      <trkpt lat="43.84636" lon="6.57465">
        <ele>1231.22</ele>
        <time>2012-04-01T12:30:11Z</time>
      </trkpt>
      <trkpt lat="43.84629" lon="6.5744">
        <ele>1227.647</ele>
        <time>2012-04-01T12:30:14Z</time>
      </trkpt>
      <trkpt lat="43.84619" lon="6.57415">
        <ele>1223.756</ele>
        <time>2012-04-01T12:30:17Z</time>
      </trkpt>
      <trkpt lat="43.84613" lon="6.57386">
        <ele>1222.71</ele>
        <time>2012-04-01T12:30:20Z</time>
      </trkpt>
      <trkpt lat="43.84598" lon="6.57342">
        <ele>1220.593</ele>
        <time>2012-04-01T12:30:25Z</time>
      </trkpt>
      <trkpt lat="43.84579" lon="6.57317">
        <ele>1217.611</ele>
        <time>2012-04-01T12:30:30Z</time>
      </trkpt>
      <trkpt lat="43.84576" lon="6.5731">
        <ele>1219.174</ele>
        <time>2012-04-01T12:30:31Z</time>
      </trkpt>
      <trkpt lat="43.84569" lon="6.57294">
        <ele>1217.833</ele>
        <time>2012-04-01T12:30:33Z</time>
      </trkpt>
      <trkpt lat="43.84552" lon="6.57245">
        <ele>1211.461</ele>
        <time>2012-04-01T12:30:38Z</time>
      </trkpt>
      <trkpt lat="43.84535" lon="6.5719">
        <ele>1211.644</ele>
        <time>2012-04-01T12:30:43Z</time>
      </trkpt>
      <trkpt lat="43.84523" lon="6.57157">
        <ele>1209.352</ele>
        <time>2012-04-01T12:30:47Z</time>
      </trkpt>
      <trkpt lat="43.84512" lon="6.57131">
        <ele>1208.522</ele>
        <time>2012-04-01T12:30:50Z</time>
      </trkpt>
      <trkpt lat="43.84498" lon="6.57094">
        <ele>1204.3</ele>
        <time>2012-04-01T12:30:54Z</time>
      </trkpt>
      <trkpt lat="43.84488" lon="6.57074">
        <ele>1199.436</ele>
        <time>2012-04-01T12:30:57Z</time>
      </trkpt>
      <trkpt lat="43.84485" lon="6.57062">
        <ele>1199.079</ele>
        <time>2012-04-01T12:30:59Z</time>
      </trkpt>
      <trkpt lat="43.84477" lon="6.57019">
        <ele>1197.364</ele>
        <time>2012-04-01T12:31:04Z</time>
      </trkpt>
      <trkpt lat="43.84459" lon="6.56982">
        <ele>1193.762</ele>
        <time>2012-04-01T12:31:08Z</time>
      </trkpt>
      <trkpt lat="43.84439" lon="6.5694">
        <ele>1190.533</ele>
        <time>2012-04-01T12:31:14Z</time>
      </trkpt>
      <trkpt lat="43.84427" lon="6.56919">
        <ele>1189.872</ele>
        <time>2012-04-01T12:31:17Z</time>
      </trkpt>
      <trkpt lat="43.84412" lon="6.56875">
        <ele>1189.082</ele>
        <time>2012-04-01T12:31:22Z</time>
      </trkpt>
      <trkpt lat="43.84405" lon="6.5686">
        <ele>1188.813</ele>
        <time>2012-04-01T12:31:24Z</time>
      </trkpt>
      <trkpt lat="43.84397" lon="6.56836">
        <ele>1193.699</ele>
        <time>2012-04-01T12:31:27Z</time>
      </trkpt>
      <trkpt lat="43.84377" lon="6.56798">
        <ele>1189.783</ele>
        <time>2012-04-01T12:31:32Z</time>
      </trkpt>
      <trkpt lat="43.84371" lon="6.56783">
        <ele>1186.149</ele>
        <time>2012-04-01T12:31:34Z</time>
      </trkpt>
      <trkpt lat="43.84361" lon="6.56767">
        <ele>1184.2</ele>
        <time>2012-04-01T12:31:37Z</time>
      </trkpt>
      <trkpt lat="43.84347" lon="6.56729">
        <ele>1185.693</ele>
        <time>2012-04-01T12:31:42Z</time>
      </trkpt>
      <trkpt lat="43.84334" lon="6.56698">
        <ele>1186.915</ele>
        <time>2012-04-01T12:31:46Z</time>
      </trkpt>
      <trkpt lat="43.84326" lon="6.56684">
        <ele>1186.175</ele>
        <time>2012-04-01T12:31:48Z</time>
      </trkpt>
      <trkpt lat="43.84312" lon="6.56655">
        <ele>1187.957</ele>
        <time>2012-04-01T12:31:52Z</time>
      </trkpt>
      <trkpt lat="43.84305" lon="6.56642">
        <ele>1187.756</ele>
        <time>2012-04-01T12:31:54Z</time>
      </trkpt>
      <trkpt lat="43.84293" lon="6.56621">
        <ele>1188.397</ele>
        <time>2012-04-01T12:31:57Z</time>
      </trkpt>
      <trkpt lat="43.84271" lon="6.56589">
        <ele>1184.093</ele>
        <time>2012-04-01T12:32:02Z</time>
      </trkpt>
      <trkpt lat="43.84267" lon="6.56583">
        <ele>1183.912</ele>
        <time>2012-04-01T12:32:03Z</time>
      </trkpt>
      <trkpt lat="43.84259" lon="6.56566">
        <ele>1185.907</ele>
        <time>2012-04-01T12:32:05Z</time>
      </trkpt>
      <trkpt lat="43.84238" lon="6.5652">
        <ele>1179.943</ele>
        <time>2012-04-01T12:32:10Z</time>
      </trkpt>
      <trkpt lat="43.84215" lon="6.56475">
        <ele>1175.531</ele>
        <time>2012-04-01T12:32:15Z</time>
      </trkpt>
      <trkpt lat="43.84206" lon="6.56459">
        <ele>1177.102</ele>
        <time>2012-04-01T12:32:17Z</time>
      </trkpt>
      <trkpt lat="43.84192" lon="6.56443">
        <ele>1174.2</ele>
        <time>2012-04-01T12:32:20Z</time>
      </trkpt>
      <trkpt lat="43.84171" lon="6.56424">
        <ele>1174.953</ele>
        <time>2012-04-01T12:32:24Z</time>
      </trkpt>
      <trkpt lat="43.84165" lon="6.56421">
        <ele>1173.651</ele>
        <time>2012-04-01T12:32:25Z</time>
      </trkpt>
      <trkpt lat="43.84134" lon="6.56402">
        <ele>1167.708</ele>
        <time>2012-04-01T12:32:30Z</time>
      </trkpt>
      <trkpt lat="43.84108" lon="6.56399">
        <ele>1164.135</ele>
        <time>2012-04-01T12:32:34Z</time>
      </trkpt>
      <trkpt lat="43.84096" lon="6.56392">
        <ele>1163.948</ele>
        <time>2012-04-01T12:32:36Z</time>
      </trkpt>
      <trkpt lat="43.84078" lon="6.56385">
        <ele>1160.438</ele>
        <time>2012-04-01T12:32:40Z</time>
      </trkpt>
      <trkpt lat="43.84065" lon="6.56387">
        <ele>1155.758</ele>
        <time>2012-04-01T12:32:45Z</time>
      </trkpt>
      <trkpt lat="43.84057" lon="6.56401">
        <ele>1148.215</ele>
        <time>2012-04-01T12:32:49Z</time>
      </trkpt>
      <trkpt lat="43.84039" lon="6.5642">
        <ele>1144.537</ele>
        <time>2012-04-01T12:32:53Z</time>
      </trkpt>
      <trkpt lat="43.84023" lon="6.56429">
        <ele>1140.97</ele>
        <time>2012-04-01T12:32:57Z</time>
      </trkpt>
      <trkpt lat="43.8402" lon="6.56432">
        <ele>1140.31</ele>
        <time>2012-04-01T12:32:58Z</time>
      </trkpt>
      <trkpt lat="43.84014" lon="6.56436">
        <ele>1140.282</ele>
        <time>2012-04-01T12:33:00Z</time>
      </trkpt>
      <trkpt lat="43.83999" lon="6.56457">
        <ele>1137.033</ele>
        <time>2012-04-01T12:33:06Z</time>
      </trkpt>
      <trkpt lat="43.83977" lon="6.56448">
        <ele>1143.161</ele>
        <time>2012-04-01T12:33:11Z</time>
      </trkpt>
      <trkpt lat="43.83959" lon="6.56437">
        <ele>1141.538</ele>
        <time>2012-04-01T12:33:15Z</time>
      </trkpt>
      <trkpt lat="43.83944" lon="6.56426">
        <ele>1141.408</ele>
        <time>2012-04-01T12:33:19Z</time>
      </trkpt>
      <trkpt lat="43.83939" lon="6.56415">
        <ele>1143.799</ele>
        <time>2012-04-01T12:33:24Z</time>
      </trkpt>
      <trkpt lat="43.83938" lon="6.56414">
        <ele>1143.309</ele>
        <time>2012-04-01T12:33:25Z</time>
      </trkpt>
      <trkpt lat="43.83933" lon="6.56413">
        <ele>1142.948</ele>
        <time>2012-04-01T12:33:28Z</time>
      </trkpt>
      <trkpt lat="43.83929" lon="6.56414">
        <ele>1140.765</ele>
        <time>2012-04-01T12:33:34Z</time>
      </trkpt>
      <trkpt lat="43.83929" lon="6.56414">
        <ele>1138.415</ele>
        <time>2012-04-01T12:33:47Z</time>
      </trkpt>
      <trkpt lat="43.83928" lon="6.56414">
        <ele>1128.409</ele>
        <time>2012-04-01T12:35:17Z</time>
      </trkpt>
      <trkpt lat="43.83926" lon="6.5642">
        <ele>1133.002</ele>
        <time>2012-04-01T12:35:24Z</time>
      </trkpt>
      <trkpt lat="43.83917" lon="6.5642">
        <ele>1136.879</ele>
        <time>2012-04-01T12:35:32Z</time>
      </trkpt>
      <trkpt lat="43.83914" lon="6.56421">
        <ele>1138.288</ele>
        <time>2012-04-01T12:35:36Z</time>
      </trkpt>
      <trkpt lat="43.83909" lon="6.56418">
        <ele>1142.052</ele>
        <time>2012-04-01T12:35:40Z</time>
      </trkpt>
      <trkpt lat="43.83899" lon="6.56414">
        <ele>1143.808</ele>
        <time>2012-04-01T12:35:45Z</time>
      </trkpt>
      <trkpt lat="43.83886" lon="6.5642">
        <ele>1143.636</ele>
        <time>2012-04-01T12:35:50Z</time>
      </trkpt>
      <trkpt lat="43.83874" lon="6.56427">
        <ele>1147.25</ele>
        <time>2012-04-01T12:35:58Z</time>
      </trkpt>
      <trkpt lat="43.83868" lon="6.56428">
        <ele>1148.67</ele>
        <time>2012-04-01T12:36:03Z</time>
      </trkpt>
      <trkpt lat="43.83864" lon="6.56423">
        <ele>1153.553</ele>
        <time>2012-04-01T12:36:09Z</time>
      </trkpt>
      <trkpt lat="43.83864" lon="6.56424">
        <ele>1154.932</ele>
        <time>2012-04-01T12:36:13Z</time>
      </trkpt>
      <trkpt lat="43.83864" lon="6.56422">
        <ele>1169.241</ele>
        <time>2012-04-01T12:36:32Z</time>
      </trkpt>
      <trkpt lat="43.83859" lon="6.56422">
        <ele>1167.507</ele>
        <time>2012-04-01T12:36:38Z</time>
      </trkpt>
      <trkpt lat="43.83856" lon="6.56423">
        <ele>1166.616</ele>
        <time>2012-04-01T12:36:43Z</time>
      </trkpt>
      <trkpt lat="43.83856" lon="6.56422">
        <ele>1163.723</ele>
        <time>2012-04-01T12:36:44Z</time>
      </trkpt>
      <trkpt lat="43.8385" lon="6.56419">
        <ele>1157.102</ele>
        <time>2012-04-01T12:36:48Z</time>
      </trkpt>
      <trkpt lat="43.83846" lon="6.56414">
        <ele>1158.787</ele>
        <time>2012-04-01T12:36:56Z</time>
      </trkpt>
      <trkpt lat="43.83841" lon="6.56413">
        <ele>1150.575</ele>
        <time>2012-04-01T12:37:28Z</time>
      </trkpt>
      <trkpt lat="43.83841" lon="6.56418">
        <ele>1152.628</ele>
        <time>2012-04-01T12:37:52Z</time>
      </trkpt>
      <trkpt lat="43.83839" lon="6.56423">
        <ele>1153.328</ele>
        <time>2012-04-01T12:37:58Z</time>
      </trkpt>
      <trkpt lat="43.83838" lon="6.56427">
        <ele>1155.542</ele>
        <time>2012-04-01T12:38:04Z</time>
      </trkpt>
      <trkpt lat="43.83836" lon="6.56433">
        <ele>1155.969</ele>
        <time>2012-04-01T12:38:11Z</time>
      </trkpt>
      <trkpt lat="43.83834" lon="6.56441">
        <ele>1154.947</ele>
        <time>2012-04-01T12:38:19Z</time>
      </trkpt>
      <trkpt lat="43.83833" lon="6.56447">
        <ele>1156.207</ele>
        <time>2012-04-01T12:38:25Z</time>
      </trkpt>
      <trkpt lat="43.83829" lon="6.56452">
        <ele>1156.667</ele>
        <time>2012-04-01T12:38:33Z</time>
      </trkpt>
      <trkpt lat="43.83824" lon="6.56454">
        <ele>1161.342</ele>
        <time>2012-04-01T12:38:41Z</time>
      </trkpt>
      <trkpt lat="43.83823" lon="6.56453">
        <ele>1161.742</ele>
        <time>2012-04-01T12:38:43Z</time>
      </trkpt>
      <trkpt lat="43.83818" lon="6.56453">
        <ele>1165.532</ele>
        <time>2012-04-01T12:38:51Z</time>
      </trkpt>
      <trkpt lat="43.83817" lon="6.56456">
        <ele>1165.989</ele>
        <time>2012-04-01T12:38:54Z</time>
      </trkpt>
      <trkpt lat="43.83817" lon="6.56467">
        <ele>1164.816</ele>
        <time>2012-04-01T12:39:03Z</time>
      </trkpt>
      <trkpt lat="43.83819" lon="6.56479">
        <ele>1165.805</ele>
        <time>2012-04-01T12:39:13Z</time>
      </trkpt>
      <trkpt lat="43.83819" lon="6.56481">
        <ele>1164.835</ele>
        <time>2012-04-01T12:39:15Z</time>
      </trkpt>
      <trkpt lat="43.8382" lon="6.56489">
        <ele>1164.605</ele>
        <time>2012-04-01T12:39:23Z</time>
      </trkpt>
      <trkpt lat="43.8382" lon="6.56491">
        <ele>1164.967</ele>
        <time>2012-04-01T12:39:24Z</time>
      </trkpt>
      <trkpt lat="43.83817" lon="6.565">
        <ele>1166.3</ele>
        <time>2012-04-01T12:39:34Z</time>
      </trkpt>
      <trkpt lat="43.83817" lon="6.56502">
        <ele>1166.138</ele>
        <time>2012-04-01T12:39:36Z</time>
      </trkpt>
      <trkpt lat="43.83817" lon="6.56512">
        <ele>1167.53</ele>
        <time>2012-04-01T12:39:45Z</time>
      </trkpt>
      <trkpt lat="43.83817" lon="6.56514">
        <ele>1167.989</ele>
        <time>2012-04-01T12:39:47Z</time>
      </trkpt>
      <trkpt lat="43.83814" lon="6.56523">
        <ele>1171.97</ele>
        <time>2012-04-01T12:39:54Z</time>
      </trkpt>
      <trkpt lat="43.83811" lon="6.56533">
        <ele>1175.161</ele>
        <time>2012-04-01T12:40:02Z</time>
      </trkpt>
      <trkpt lat="43.83809" lon="6.56539">
        <ele>1176.54</ele>
        <time>2012-04-01T12:40:09Z</time>
      </trkpt>
      <trkpt lat="43.83808" lon="6.56544">
        <ele>1178.37</ele>
        <time>2012-04-01T12:40:17Z</time>
      </trkpt>
      <trkpt lat="43.83806" lon="6.56548">
        <ele>1182.14</ele>
        <time>2012-04-01T12:40:24Z</time>
      </trkpt>
      <trkpt lat="43.83806" lon="6.56553">
        <ele>1184.241</ele>
        <time>2012-04-01T12:40:30Z</time>
      </trkpt>
      <trkpt lat="43.83804" lon="6.56557">
        <ele>1185.972</ele>
        <time>2012-04-01T12:40:35Z</time>
      </trkpt>
      <trkpt lat="43.83802" lon="6.56567">
        <ele>1187.269</ele>
        <time>2012-04-01T12:40:43Z</time>
      </trkpt>
      <trkpt lat="43.83803" lon="6.56571">
        <ele>1188.801</ele>
        <time>2012-04-01T12:40:46Z</time>
      </trkpt>
      <trkpt lat="43.83802" lon="6.56584">
        <ele>1189.001</ele>
        <time>2012-04-01T12:40:55Z</time>
      </trkpt>
      <trkpt lat="43.83799" lon="6.566">
        <ele>1185.879</ele>
        <time>2012-04-01T12:41:14Z</time>
      </trkpt>
      <trkpt lat="43.83798" lon="6.56617">
        <ele>1185.739</ele>
        <time>2012-04-01T12:41:22Z</time>
      </trkpt>
      <trkpt lat="43.83796" lon="6.56623">
        <ele>1184.568</ele>
        <time>2012-04-01T12:41:27Z</time>
      </trkpt>
      <trkpt lat="43.83794" lon="6.56627">
        <ele>1185.941</ele>
        <time>2012-04-01T12:41:32Z</time>
      </trkpt>
      <trkpt lat="43.83794" lon="6.56627">
        <ele>1186.21</ele>
        <time>2012-04-01T12:41:33Z</time>
      </trkpt>
      <trkpt lat="43.83792" lon="6.56628">
        <ele>1186.299</ele>
        <time>2012-04-01T12:41:35Z</time>
      </trkpt>
      <trkpt lat="43.83793" lon="6.56637">
        <ele>1186.569</ele>
        <time>2012-04-01T12:41:41Z</time>
      </trkpt>
      <trkpt lat="43.83793" lon="6.56638">
        <ele>1186.298</ele>
        <time>2012-04-01T12:41:42Z</time>
      </trkpt>
      <trkpt lat="43.838" lon="6.56644">
        <ele>1186.556</ele>
        <time>2012-04-01T12:41:47Z</time>
      </trkpt>
      <trkpt lat="43.83801" lon="6.56647">
        <ele>1186.976</ele>
        <time>2012-04-01T12:41:48Z</time>
      </trkpt>
      <trkpt lat="43.83809" lon="6.56659">
        <ele>1185.436</ele>
        <time>2012-04-01T12:41:55Z</time>
      </trkpt>
      <trkpt lat="43.83811" lon="6.56659">
        <ele>1185.316</ele>
        <time>2012-04-01T12:41:56Z</time>
      </trkpt>
      <trkpt lat="43.8382" lon="6.56657">
        <ele>1186.897</ele>
        <time>2012-04-01T12:42:03Z</time>
      </trkpt>
      <trkpt lat="43.83839" lon="6.56654">
        <ele>1183.652</ele>
        <time>2012-04-01T12:42:12Z</time>
      </trkpt>
      <trkpt lat="43.83851" lon="6.56659">
        <ele>1184.345</ele>
        <time>2012-04-01T12:42:20Z</time>
      </trkpt>
      <trkpt lat="43.83852" lon="6.56659">
        <ele>1184.335</ele>
        <time>2012-04-01T12:42:21Z</time>
      </trkpt>
      <trkpt lat="43.83859" lon="6.56655">
        <ele>1185.245</ele>
        <time>2012-04-01T12:42:27Z</time>
      </trkpt>
      <trkpt lat="43.83863" lon="6.56658">
        <ele>1186.689</ele>
        <time>2012-04-01T12:42:31Z</time>
      </trkpt>
      <trkpt lat="43.83861" lon="6.56665">
        <ele>1187.338</ele>
        <time>2012-04-01T12:42:36Z</time>
      </trkpt>
      <trkpt lat="43.8386" lon="6.56678">
        <ele>1191.952</ele>
        <time>2012-04-01T12:42:44Z</time>
      </trkpt>
      <trkpt lat="43.83852" lon="6.56685">
        <ele>1194.613</ele>
        <time>2012-04-01T12:42:48Z</time>
      </trkpt>
      <trkpt lat="43.83851" lon="6.56687">
        <ele>1193.378</ele>
        <time>2012-04-01T12:42:54Z</time>
      </trkpt>
      <trkpt lat="43.8385" lon="6.5669">
        <ele>1195.879</ele>
        <time>2012-04-01T12:43:09Z</time>
      </trkpt>
      <trkpt lat="43.83849" lon="6.56699">
        <ele>1196.08</ele>
        <time>2012-04-01T12:43:18Z</time>
      </trkpt>
      <trkpt lat="43.83848" lon="6.56703">
        <ele>1196.129</ele>
        <time>2012-04-01T12:43:26Z</time>
      </trkpt>
      <trkpt lat="43.83847" lon="6.56709">
        <ele>1196.99</ele>
        <time>2012-04-01T12:43:33Z</time>
      </trkpt>
      <trkpt lat="43.83845" lon="6.56714">
        <ele>1199.041</ele>
        <time>2012-04-01T12:43:39Z</time>
      </trkpt>
      <trkpt lat="43.83843" lon="6.56718">
        <ele>1200.911</ele>
        <time>2012-04-01T12:43:45Z</time>
      </trkpt>
      <trkpt lat="43.83843" lon="6.56722">
        <ele>1202.101</ele>
        <time>2012-04-01T12:43:51Z</time>
      </trkpt>
      <trkpt lat="43.83842" lon="6.5673">
        <ele>1204.442</ele>
        <time>2012-04-01T12:44:01Z</time>
      </trkpt>
      <trkpt lat="43.83842" lon="6.56738">
        <ele>1203.27</ele>
        <time>2012-04-01T12:44:09Z</time>
      </trkpt>
      <trkpt lat="43.83842" lon="6.56739">
        <ele>1203.23</ele>
        <time>2012-04-01T12:44:10Z</time>
      </trkpt>
      <trkpt lat="43.83844" lon="6.56749">
        <ele>1203.749</ele>
        <time>2012-04-01T12:44:19Z</time>
      </trkpt>
      <trkpt lat="43.83847" lon="6.56753">
        <ele>1207.059</ele>
        <time>2012-04-01T12:44:28Z</time>
      </trkpt>
      <trkpt lat="43.8385" lon="6.56757">
        <ele>1210.451</ele>
        <time>2012-04-01T12:44:36Z</time>
      </trkpt>
      <trkpt lat="43.83854" lon="6.56763">
        <ele>1211.69</ele>
        <time>2012-04-01T12:44:45Z</time>
      </trkpt>
      <trkpt lat="43.83858" lon="6.56762">
        <ele>1212.951</ele>
        <time>2012-04-01T12:44:51Z</time>
      </trkpt>
      <trkpt lat="43.83862" lon="6.56759">
        <ele>1213.738</ele>
        <time>2012-04-01T12:44:58Z</time>
      </trkpt>
      <trkpt lat="43.83866" lon="6.56755">
        <ele>1216.279</ele>
        <time>2012-04-01T12:45:05Z</time>
      </trkpt>
      <trkpt lat="43.83874" lon="6.56751">
        <ele>1217.638</ele>
        <time>2012-04-01T12:45:14Z</time>
      </trkpt>
      <trkpt lat="43.83876" lon="6.56753">
        <ele>1219.38</ele>
        <time>2012-04-01T12:45:18Z</time>
      </trkpt>
      <trkpt lat="43.83876" lon="6.56756">
        <ele>1220.561</ele>
        <time>2012-04-01T12:45:21Z</time>
      </trkpt>
      <trkpt lat="43.83882" lon="6.5676">
        <ele>1221.758</ele>
        <time>2012-04-01T12:45:29Z</time>
      </trkpt>
      <trkpt lat="43.83887" lon="6.56763">
        <ele>1218.526</ele>
        <time>2012-04-01T12:45:35Z</time>
      </trkpt>
      <trkpt lat="43.83892" lon="6.56766">
        <ele>1217.027</ele>
        <time>2012-04-01T12:45:42Z</time>
      </trkpt>
      <trkpt lat="43.83895" lon="6.56771">
        <ele>1217.196</ele>
        <time>2012-04-01T12:45:47Z</time>
      </trkpt>
      <trkpt lat="43.83898" lon="6.56775">
        <ele>1216.154</ele>
        <time>2012-04-01T12:45:54Z</time>
      </trkpt>
      <trkpt lat="43.83904" lon="6.56776">
        <ele>1216.486</ele>
        <time>2012-04-01T12:46:02Z</time>
      </trkpt>
      <trkpt lat="43.8391" lon="6.56778">
        <ele>1219.448</ele>
        <time>2012-04-01T12:46:09Z</time>
      </trkpt>
      <trkpt lat="43.83918" lon="6.5678">
        <ele>1223.226</ele>
        <time>2012-04-01T12:46:17Z</time>
      </trkpt>
      <trkpt lat="43.8392" lon="6.56782">
        <ele>1225.018</ele>
        <time>2012-04-01T12:46:22Z</time>
      </trkpt>
      <trkpt lat="43.83929" lon="6.56784">
        <ele>1226.869</ele>
        <time>2012-04-01T12:46:28Z</time>
      </trkpt>
      <trkpt lat="43.83938" lon="6.56787">
        <ele>1227.22</ele>
        <time>2012-04-01T12:46:35Z</time>
      </trkpt>
      <trkpt lat="43.8394" lon="6.56789">
        <ele>1229.032</ele>
        <time>2012-04-01T12:46:37Z</time>
      </trkpt>
      <trkpt lat="43.83943" lon="6.5679">
        <ele>1231.355</ele>
        <time>2012-04-01T12:46:40Z</time>
      </trkpt>
      <trkpt lat="43.83947" lon="6.56794">
        <ele>1231.874</ele>
        <time>2012-04-01T12:46:43Z</time>
      </trkpt>
      <trkpt lat="43.83952" lon="6.56799">
        <ele>1231.372</ele>
        <time>2012-04-01T12:46:47Z</time>
      </trkpt>
      <trkpt lat="43.83958" lon="6.56809">
        <ele>1234.475</ele>
        <time>2012-04-01T12:46:55Z</time>
      </trkpt>
      <trkpt lat="43.83962" lon="6.56811">
        <ele>1238.203</ele>
        <time>2012-04-01T12:47:01Z</time>
      </trkpt>
      <trkpt lat="43.83966" lon="6.56814">
        <ele>1242.354</ele>
        <time>2012-04-01T12:47:07Z</time>
      </trkpt>
      <trkpt lat="43.83973" lon="6.56816">
        <ele>1242.981</ele>
        <time>2012-04-01T12:47:14Z</time>
      </trkpt>
      <trkpt lat="43.83978" lon="6.56818">
        <ele>1242.777</ele>
        <time>2012-04-01T12:47:22Z</time>
      </trkpt>
      <trkpt lat="43.83985" lon="6.5683">
        <ele>1240.287</ele>
        <time>2012-04-01T12:47:51Z</time>
      </trkpt>
      <trkpt lat="43.83985" lon="6.56838">
        <ele>1240.089</ele>
        <time>2012-04-01T12:47:59Z</time>
      </trkpt>
      <trkpt lat="43.83984" lon="6.56844">
        <ele>1241.119</ele>
        <time>2012-04-01T12:48:05Z</time>
      </trkpt>
      <trkpt lat="43.83985" lon="6.5685">
        <ele>1241.258</ele>
        <time>2012-04-01T12:48:11Z</time>
      </trkpt>
      <trkpt lat="43.83988" lon="6.56855">
        <ele>1241.938</ele>
        <time>2012-04-01T12:48:18Z</time>
      </trkpt>
      <trkpt lat="43.83987" lon="6.56859">
        <ele>1244.15</ele>
        <time>2012-04-01T12:48:24Z</time>
      </trkpt>
      <trkpt lat="43.83985" lon="6.56865">
        <ele>1246.21</ele>
        <time>2012-04-01T12:48:32Z</time>
      </trkpt>
      <trkpt lat="43.83985" lon="6.56871">
        <ele>1246.038</ele>
        <time>2012-04-01T12:48:40Z</time>
      </trkpt>
      <trkpt lat="43.83986" lon="6.56875">
        <ele>1248.132</ele>
        <time>2012-04-01T12:48:46Z</time>
      </trkpt>
      <trkpt lat="43.83986" lon="6.56879">
        <ele>1249.131</ele>
        <time>2012-04-01T12:48:52Z</time>
      </trkpt>
      <trkpt lat="43.83987" lon="6.56884">
        <ele>1249.55</ele>
        <time>2012-04-01T12:48:58Z</time>
      </trkpt>
      <trkpt lat="43.83983" lon="6.56885">
        <ele>1253.843</ele>
        <time>2012-04-01T12:49:03Z</time>
      </trkpt>
      <trkpt lat="43.8398" lon="6.56889">
        <ele>1256.492</ele>
        <time>2012-04-01T12:49:09Z</time>
      </trkpt>
      <trkpt lat="43.83978" lon="6.56897">
        <ele>1264.538</ele>
        <time>2012-04-01T12:49:16Z</time>
      </trkpt>
      <trkpt lat="43.8398" lon="6.56902">
        <ele>1265.224</ele>
        <time>2012-04-01T12:49:23Z</time>
      </trkpt>
      <trkpt lat="43.83987" lon="6.56909">
        <ele>1264.099</ele>
        <time>2012-04-01T12:49:32Z</time>
      </trkpt>
      <trkpt lat="43.83991" lon="6.56914">
        <ele>1264.271</ele>
        <time>2012-04-01T12:49:38Z</time>
      </trkpt>
      <trkpt lat="43.83994" lon="6.56919">
        <ele>1261.054</ele>
        <time>2012-04-01T12:49:44Z</time>
      </trkpt>
      <trkpt lat="43.84" lon="6.56922">
        <ele>1260.526</ele>
        <time>2012-04-01T12:49:54Z</time>
      </trkpt>
      <trkpt lat="43.83998" lon="6.56928">
        <ele>1261.388</ele>
        <time>2012-04-01T12:50:00Z</time>
      </trkpt>
      <trkpt lat="43.84001" lon="6.56939">
        <ele>1259.958</ele>
        <time>2012-04-01T12:50:08Z</time>
      </trkpt>
      <trkpt lat="43.84001" lon="6.56945">
        <ele>1260.86</ele>
        <time>2012-04-01T12:50:14Z</time>
      </trkpt>
      <trkpt lat="43.84002" lon="6.56953">
        <ele>1259.691</ele>
        <time>2012-04-01T12:50:22Z</time>
      </trkpt>
      <trkpt lat="43.84002" lon="6.56956">
        <ele>1263.46</ele>
        <time>2012-04-01T12:50:30Z</time>
      </trkpt>
      <trkpt lat="43.84002" lon="6.5697">
        <ele>1261.71</ele>
        <time>2012-04-01T12:51:10Z</time>
      </trkpt>
      <trkpt lat="43.84003" lon="6.56979">
        <ele>1264.821</ele>
        <time>2012-04-01T12:51:20Z</time>
      </trkpt>
      <trkpt lat="43.84005" lon="6.56986">
        <ele>1266.61</ele>
        <time>2012-04-01T12:51:30Z</time>
      </trkpt>
      <trkpt lat="43.84008" lon="6.5699">
        <ele>1268.05</ele>
        <time>2012-04-01T12:51:38Z</time>
      </trkpt>
      <trkpt lat="43.8401" lon="6.56992">
        <ele>1269</ele>
        <time>2012-04-01T12:51:44Z</time>
      </trkpt>
      <trkpt lat="43.84011" lon="6.56998">
        <ele>1270.54</ele>
        <time>2012-04-01T12:51:52Z</time>
      </trkpt>
      <trkpt lat="43.84012" lon="6.57009">
        <ele>1272.469</ele>
        <time>2012-04-01T12:52:03Z</time>
      </trkpt>
      <trkpt lat="43.84013" lon="6.57017">
        <ele>1273.979</ele>
        <time>2012-04-01T12:52:13Z</time>
      </trkpt>
      <trkpt lat="43.84014" lon="6.57022">
        <ele>1274.979</ele>
        <time>2012-04-01T12:52:21Z</time>
      </trkpt>
      <trkpt lat="43.84014" lon="6.5703">
        <ele>1276.329</ele>
        <time>2012-04-01T12:52:30Z</time>
      </trkpt>
      <trkpt lat="43.84014" lon="6.57038">
        <ele>1277.478</ele>
        <time>2012-04-01T12:52:39Z</time>
      </trkpt>
      <trkpt lat="43.84014" lon="6.57047">
        <ele>1278.489</ele>
        <time>2012-04-01T12:52:49Z</time>
      </trkpt>
      <trkpt lat="43.84016" lon="6.57054">
        <ele>1280.09</ele>
        <time>2012-04-01T12:53:00Z</time>
      </trkpt>
      <trkpt lat="43.84017" lon="6.57061">
        <ele>1281.619</ele>
        <time>2012-04-01T12:53:10Z</time>
      </trkpt>
      <trkpt lat="43.84019" lon="6.57068">
        <ele>1282.961</ele>
        <time>2012-04-01T12:53:19Z</time>
      </trkpt>
      <trkpt lat="43.84019" lon="6.57076">
        <ele>1284.089</ele>
        <time>2012-04-01T12:53:27Z</time>
      </trkpt>
      <trkpt lat="43.84019" lon="6.57078">
        <ele>1285.851</ele>
        <time>2012-04-01T12:53:32Z</time>
      </trkpt>
      <trkpt lat="43.84016" lon="6.5708">
        <ele>1293.541</ele>
        <time>2012-04-01T12:53:51Z</time>
      </trkpt>
      <trkpt lat="43.84014" lon="6.57084">
        <ele>1294.725</ele>
        <time>2012-04-01T12:53:55Z</time>
      </trkpt>
      <trkpt lat="43.84009" lon="6.57089">
        <ele>1297.122</ele>
        <time>2012-04-01T12:54:01Z</time>
      </trkpt>
      <trkpt lat="43.84008" lon="6.57093">
        <ele>1297.119</ele>
        <time>2012-04-01T12:54:07Z</time>
      </trkpt>
      <trkpt lat="43.84008" lon="6.57101">
        <ele>1294.601</ele>
        <time>2012-04-01T12:54:27Z</time>
      </trkpt>
      <trkpt lat="43.84007" lon="6.57113">
        <ele>1295.841</ele>
        <time>2012-04-01T12:54:36Z</time>
      </trkpt>
      <trkpt lat="43.84007" lon="6.57123">
        <ele>1297.501</ele>
        <time>2012-04-01T12:54:46Z</time>
      </trkpt>
      <trkpt lat="43.84008" lon="6.57129">
        <ele>1299.29</ele>
        <time>2012-04-01T12:54:54Z</time>
      </trkpt>
      <trkpt lat="43.84009" lon="6.57133">
        <ele>1300.32</ele>
        <time>2012-04-01T12:55:00Z</time>
      </trkpt>
      <trkpt lat="43.84011" lon="6.5714">
        <ele>1300.89</ele>
        <time>2012-04-01T12:55:09Z</time>
      </trkpt>
      <trkpt lat="43.84012" lon="6.57142">
        <ele>1301.039</ele>
        <time>2012-04-01T12:55:14Z</time>
      </trkpt>
      <trkpt lat="43.84013" lon="6.57148">
        <ele>1301.579</ele>
        <time>2012-04-01T12:55:21Z</time>
      </trkpt>
      <trkpt lat="43.84016" lon="6.57152">
        <ele>1302.17</ele>
        <time>2012-04-01T12:55:29Z</time>
      </trkpt>
      <trkpt lat="43.84016" lon="6.57158">
        <ele>1303.449</ele>
        <time>2012-04-01T12:55:36Z</time>
      </trkpt>
      <trkpt lat="43.84017" lon="6.57157">
        <ele>1303.327</ele>
        <time>2012-04-01T12:55:47Z</time>
      </trkpt>
      <trkpt lat="43.8402" lon="6.57164">
        <ele>1304.258</ele>
        <time>2012-04-01T12:55:56Z</time>
      </trkpt>
      <trkpt lat="43.8402" lon="6.57171">
        <ele>1312.602</ele>
        <time>2012-04-01T12:56:27Z</time>
      </trkpt>
      <trkpt lat="43.84024" lon="6.57185">
        <ele>1315.003</ele>
        <time>2012-04-01T12:56:35Z</time>
      </trkpt>
      <trkpt lat="43.84026" lon="6.57196">
        <ele>1316.933</ele>
        <time>2012-04-01T12:56:42Z</time>
      </trkpt>
      <trkpt lat="43.84027" lon="6.57209">
        <ele>1316.741</ele>
        <time>2012-04-01T12:56:50Z</time>
      </trkpt>
      <trkpt lat="43.84028" lon="6.57225">
        <ele>1315.719</ele>
        <time>2012-04-01T12:56:59Z</time>
      </trkpt>
      <trkpt lat="43.84026" lon="6.5724">
        <ele>1316.18</ele>
        <time>2012-04-01T12:57:04Z</time>
      </trkpt>
      <trkpt lat="43.84028" lon="6.57254">
        <ele>1315.77</ele>
        <time>2012-04-01T12:57:11Z</time>
      </trkpt>
      <trkpt lat="43.8403" lon="6.57267">
        <ele>1316.992</ele>
        <time>2012-04-01T12:57:18Z</time>
      </trkpt>
      <trkpt lat="43.84032" lon="6.57282">
        <ele>1319.203</ele>
        <time>2012-04-01T12:57:27Z</time>
      </trkpt>
      <trkpt lat="43.84035" lon="6.573">
        <ele>1318.981</ele>
        <time>2012-04-01T12:57:36Z</time>
      </trkpt>
      <trkpt lat="43.84037" lon="6.57315">
        <ele>1317.048</ele>
        <time>2012-04-01T12:57:43Z</time>
      </trkpt>
      <trkpt lat="43.84039" lon="6.57332">
        <ele>1315.739</ele>
        <time>2012-04-01T12:57:50Z</time>
      </trkpt>
      <trkpt lat="43.84042" lon="6.57353">
        <ele>1318.973</ele>
        <time>2012-04-01T12:58:00Z</time>
      </trkpt>
      <trkpt lat="43.84042" lon="6.5737">
        <ele>1317.767</ele>
        <time>2012-04-01T12:58:06Z</time>
      </trkpt>
      <trkpt lat="43.8404" lon="6.57379">
        <ele>1317.037</ele>
        <time>2012-04-01T12:58:08Z</time>
      </trkpt>
      <trkpt lat="43.84042" lon="6.57392">
        <ele>1317.02</ele>
        <time>2012-04-01T12:58:13Z</time>
      </trkpt>
      <trkpt lat="43.84043" lon="6.57392">
        <ele>1316.549</ele>
        <time>2012-04-01T12:58:18Z</time>
      </trkpt>
      <trkpt lat="43.84045" lon="6.57399">
        <ele>1318.471</ele>
        <time>2012-04-01T12:58:33Z</time>
      </trkpt>
      <trkpt lat="43.84045" lon="6.57401">
        <ele>1319.803</ele>
        <time>2012-04-01T12:58:38Z</time>
      </trkpt>
      <trkpt lat="43.84046" lon="6.57402">
        <ele>1320.13</ele>
        <time>2012-04-01T12:58:44Z</time>
      </trkpt>
      <trkpt lat="43.84048" lon="6.57408">
        <ele>1321.272</ele>
        <time>2012-04-01T12:58:49Z</time>
      </trkpt>
      <trkpt lat="43.8405" lon="6.57421">
        <ele>1324.975</ele>
        <time>2012-04-01T12:58:56Z</time>
      </trkpt>
      <trkpt lat="43.84054" lon="6.57436">
        <ele>1326.361</ele>
        <time>2012-04-01T12:59:04Z</time>
      </trkpt>
      <trkpt lat="43.84059" lon="6.57451">
        <ele>1328.182</ele>
        <time>2012-04-01T12:59:12Z</time>
      </trkpt>
      <trkpt lat="43.84064" lon="6.57465">
        <ele>1327.549</ele>
        <time>2012-04-01T12:59:19Z</time>
      </trkpt>
      <trkpt lat="43.84065" lon="6.57477">
        <ele>1326.31</ele>
        <time>2012-04-01T12:59:25Z</time>
      </trkpt>
      <trkpt lat="43.84068" lon="6.57494">
        <ele>1324.408</ele>
        <time>2012-04-01T12:59:33Z</time>
      </trkpt>
      <trkpt lat="43.84072" lon="6.57511">
        <ele>1323.989</ele>
        <time>2012-04-01T12:59:40Z</time>
      </trkpt>
      <trkpt lat="43.84072" lon="6.57514">
        <ele>1323.829</ele>
        <time>2012-04-01T12:59:41Z</time>
      </trkpt>
      <trkpt lat="43.84074" lon="6.5752">
        <ele>1323.209</ele>
        <time>2012-04-01T12:59:47Z</time>
      </trkpt>
      <trkpt lat="43.84077" lon="6.57525">
        <ele>1324.441</ele>
        <time>2012-04-01T12:59:54Z</time>
      </trkpt>
      <trkpt lat="43.84079" lon="6.57528">
        <ele>1324.459</ele>
        <time>2012-04-01T13:00:00Z</time>
      </trkpt>
      <trkpt lat="43.84076" lon="6.57535">
        <ele>1330.181</ele>
        <time>2012-04-01T13:00:16Z</time>
      </trkpt>
      <trkpt lat="43.84077" lon="6.57544">
        <ele>1330.579</ele>
        <time>2012-04-01T13:00:21Z</time>
      </trkpt>
      <trkpt lat="43.84079" lon="6.57557">
        <ele>1331.171</ele>
        <time>2012-04-01T13:00:26Z</time>
      </trkpt>
      <trkpt lat="43.84081" lon="6.57571">
        <ele>1332.771</ele>
        <time>2012-04-01T13:00:33Z</time>
      </trkpt>
      <trkpt lat="43.84081" lon="6.57584">
        <ele>1333.13</ele>
        <time>2012-04-01T13:00:40Z</time>
      </trkpt>
      <trkpt lat="43.8408" lon="6.57588">
        <ele>1333.01</ele>
        <time>2012-04-01T13:00:42Z</time>
      </trkpt>
      <trkpt lat="43.8408" lon="6.57595">
        <ele>1333.209</ele>
        <time>2012-04-01T13:00:48Z</time>
      </trkpt>
      <trkpt lat="43.84082" lon="6.57605">
        <ele>1331.114</ele>
        <time>2012-04-01T13:01:17Z</time>
      </trkpt>
      <trkpt lat="43.84083" lon="6.57625">
        <ele>1328.544</ele>
        <time>2012-04-01T13:01:22Z</time>
      </trkpt>
      <trkpt lat="43.84086" lon="6.57635">
        <ele>1328.538</ele>
        <time>2012-04-01T13:01:26Z</time>
      </trkpt>
      <trkpt lat="43.84088" lon="6.57652">
        <ele>1326.085</ele>
        <time>2012-04-01T13:01:33Z</time>
      </trkpt>
      <trkpt lat="43.84084" lon="6.57662">
        <ele>1324.723</ele>
        <time>2012-04-01T13:01:36Z</time>
      </trkpt>
      <trkpt lat="43.84085" lon="6.57678">
        <ele>1324.468</ele>
        <time>2012-04-01T13:01:43Z</time>
      </trkpt>
      <trkpt lat="43.84083" lon="6.57694">
        <ele>1324.588</ele>
        <time>2012-04-01T13:01:50Z</time>
      </trkpt>
      <trkpt lat="43.84083" lon="6.57702">
        <ele>1325.159</ele>
        <time>2012-04-01T13:01:54Z</time>
      </trkpt>
      <trkpt lat="43.84083" lon="6.57703">
        <ele>1325.279</ele>
        <time>2012-04-01T13:01:58Z</time>
      </trkpt>
      <trkpt lat="43.84085" lon="6.57708">
        <ele>1325.24</ele>
        <time>2012-04-01T13:02:04Z</time>
      </trkpt>
      <trkpt lat="43.84084" lon="6.57713">
        <ele>1325.619</ele>
        <time>2012-04-01T13:02:12Z</time>
      </trkpt>
      <trkpt lat="43.84081" lon="6.57726">
        <ele>1324.757</ele>
        <time>2012-04-01T13:02:18Z</time>
      </trkpt>
      <trkpt lat="43.84077" lon="6.57744">
        <ele>1323.506</ele>
        <time>2012-04-01T13:02:24Z</time>
      </trkpt>
      <trkpt lat="43.84071" lon="6.57765">
        <ele>1322.244</ele>
        <time>2012-04-01T13:02:29Z</time>
      </trkpt>
      <trkpt lat="43.84068" lon="6.57774">
        <ele>1320.982</ele>
        <time>2012-04-01T13:02:31Z</time>
      </trkpt>
      <trkpt lat="43.84069" lon="6.57781">
        <ele>1319.806</ele>
        <time>2012-04-01T13:02:36Z</time>
      </trkpt>
      <trkpt lat="43.8407" lon="6.57786">
        <ele>1320.244</ele>
        <time>2012-04-01T13:02:45Z</time>
      </trkpt>
      <trkpt lat="43.8407" lon="6.57797">
        <ele>1322.631</ele>
        <time>2012-04-01T13:02:54Z</time>
      </trkpt>
      <trkpt lat="43.84071" lon="6.57804">
        <ele>1322.063</ele>
        <time>2012-04-01T13:03:04Z</time>
      </trkpt>
      <trkpt lat="43.84071" lon="6.5782">
        <ele>1322.048</ele>
        <time>2012-04-01T13:03:10Z</time>
      </trkpt>
      <trkpt lat="43.84067" lon="6.57832">
        <ele>1321.124</ele>
        <time>2012-04-01T13:03:13Z</time>
      </trkpt>
      <trkpt lat="43.84063" lon="6.57843">
        <ele>1319.963</ele>
        <time>2012-04-01T13:03:15Z</time>
      </trkpt>
      <trkpt lat="43.8406" lon="6.57873">
        <ele>1319.786</ele>
        <time>2012-04-01T13:03:21Z</time>
      </trkpt>
      <trkpt lat="43.8406" lon="6.57896">
        <ele>1318.375</ele>
        <time>2012-04-01T13:03:28Z</time>
      </trkpt>
      <trkpt lat="43.84058" lon="6.57919">
        <ele>1315.969</ele>
        <time>2012-04-01T13:03:34Z</time>
      </trkpt>
      <trkpt lat="43.84055" lon="6.57927">
        <ele>1313.162</ele>
        <time>2012-04-01T13:03:38Z</time>
      </trkpt>
      <trkpt lat="43.84052" lon="6.57933">
        <ele>1311.68</ele>
        <time>2012-04-01T13:03:40Z</time>
      </trkpt>
      <trkpt lat="43.84039" lon="6.57935">
        <ele>1308.54</ele>
        <time>2012-04-01T13:03:45Z</time>
      </trkpt>
      <trkpt lat="43.84029" lon="6.57937">
        <ele>1306.28</ele>
        <time>2012-04-01T13:03:49Z</time>
      </trkpt>
      <trkpt lat="43.8402" lon="6.57935">
        <ele>1303.55</ele>
        <time>2012-04-01T13:03:54Z</time>
      </trkpt>
      <trkpt lat="43.84018" lon="6.57936">
        <ele>1303.506</ele>
        <time>2012-04-01T13:03:58Z</time>
      </trkpt>
      <trkpt lat="43.84015" lon="6.57941">
        <ele>1306.213</ele>
        <time>2012-04-01T13:04:04Z</time>
      </trkpt>
      <trkpt lat="43.84014" lon="6.57943">
        <ele>1307.853</ele>
        <time>2012-04-01T13:04:07Z</time>
      </trkpt>
      <trkpt lat="43.84011" lon="6.57944">
        <ele>1310.422</ele>
        <time>2012-04-01T13:04:14Z</time>
      </trkpt>
      <trkpt lat="43.84011" lon="6.57943">
        <ele>1316.368</ele>
        <time>2012-04-01T13:04:32Z</time>
      </trkpt>
      <trkpt lat="43.84004" lon="6.57942">
        <ele>1318.141</ele>
        <time>2012-04-01T13:04:43Z</time>
      </trkpt>
      <trkpt lat="43.83998" lon="6.57942">
        <ele>1318.171</ele>
        <time>2012-04-01T13:04:52Z</time>
      </trkpt>
      <trkpt lat="43.83997" lon="6.5794">
        <ele>1319.423</ele>
        <time>2012-04-01T13:04:57Z</time>
      </trkpt>
      <trkpt lat="43.83996" lon="6.57935">
        <ele>1316.347</ele>
        <time>2012-04-01T13:05:03Z</time>
      </trkpt>
      <trkpt lat="43.83995" lon="6.57921">
        <ele>1329.618</ele>
        <time>2012-04-01T13:08:55Z</time>
      </trkpt>
      <trkpt lat="43.83995" lon="6.57913">
        <ele>1327.076</ele>
        <time>2012-04-01T13:24:53Z</time>
      </trkpt>
      <trkpt lat="43.83995" lon="6.57898">
        <ele>1325.535</ele>
        <time>2012-04-01T13:24:58Z</time>
      </trkpt>
      <trkpt lat="43.83991" lon="6.57877">
        <ele>1322.382</ele>
        <time>2012-04-01T13:25:02Z</time>
      </trkpt>
      <trkpt lat="43.83985" lon="6.57854">
        <ele>1318.19</ele>
        <time>2012-04-01T13:25:06Z</time>
      </trkpt>
      <trkpt lat="43.8397" lon="6.57825">
        <ele>1315.862</ele>
        <time>2012-04-01T13:25:11Z</time>
      </trkpt>
      <trkpt lat="43.83965" lon="6.57813">
        <ele>1312.589</ele>
        <time>2012-04-01T13:25:14Z</time>
      </trkpt>
      <trkpt lat="43.83959" lon="6.57789">
        <ele>1308.558</ele>
        <time>2012-04-01T13:25:18Z</time>
      </trkpt>
      <trkpt lat="43.83947" lon="6.57764">
        <ele>1306.251</ele>
        <time>2012-04-01T13:25:23Z</time>
      </trkpt>
      <trkpt lat="43.83939" lon="6.5775">
        <ele>1304.854</ele>
        <time>2012-04-01T13:25:27Z</time>
      </trkpt>
      <trkpt lat="43.83936" lon="6.57747">
        <ele>1304.585</ele>
        <time>2012-04-01T13:25:28Z</time>
      </trkpt>
      <trkpt lat="43.83922" lon="6.57721">
        <ele>1299.972</ele>
        <time>2012-04-01T13:25:33Z</time>
      </trkpt>
      <trkpt lat="43.83918" lon="6.57715">
        <ele>1298.05</ele>
        <time>2012-04-01T13:25:34Z</time>
      </trkpt>
      <trkpt lat="43.83909" lon="6.57704">
        <ele>1296.121</ele>
        <time>2012-04-01T13:25:36Z</time>
      </trkpt>
      <trkpt lat="43.83896" lon="6.57695">
        <ele>1295.924</ele>
        <time>2012-04-01T13:25:40Z</time>
      </trkpt>
      <trkpt lat="43.83894" lon="6.5769">
        <ele>1295.534</ele>
        <time>2012-04-01T13:25:41Z</time>
      </trkpt>
      <trkpt lat="43.83872" lon="6.57658">
        <ele>1294.447</ele>
        <time>2012-04-01T13:25:48Z</time>
      </trkpt>
      <trkpt lat="43.83871" lon="6.57655">
        <ele>1292.774</ele>
        <time>2012-04-01T13:25:49Z</time>
      </trkpt>
      <trkpt lat="43.83865" lon="6.57645">
        <ele>1292.073</ele>
        <time>2012-04-01T13:25:51Z</time>
      </trkpt>
      <trkpt lat="43.83849" lon="6.57626">
        <ele>1290.202</ele>
        <time>2012-04-01T13:25:55Z</time>
      </trkpt>
      <trkpt lat="43.83831" lon="6.57592">
        <ele>1286.562</ele>
        <time>2012-04-01T13:26:00Z</time>
      </trkpt>
      <trkpt lat="43.83815" lon="6.57558">
        <ele>1282.93</ele>
        <time>2012-04-01T13:26:04Z</time>
      </trkpt>
      <trkpt lat="43.83807" lon="6.57543">
        <ele>1278.688</ele>
        <time>2012-04-01T13:26:08Z</time>
      </trkpt>
      <trkpt lat="43.83796" lon="6.57526">
        <ele>1273.416</ele>
        <time>2012-04-01T13:26:12Z</time>
      </trkpt>
      <trkpt lat="43.83789" lon="6.5752">
        <ele>1269.777</ele>
        <time>2012-04-01T13:26:16Z</time>
      </trkpt>
      <trkpt lat="43.83776" lon="6.57502">
        <ele>1265.952</ele>
        <time>2012-04-01T13:26:23Z</time>
      </trkpt>
      <trkpt lat="43.83775" lon="6.57501">
        <ele>1265.754</ele>
        <time>2012-04-01T13:26:27Z</time>
      </trkpt>
      <trkpt lat="43.83776" lon="6.57501">
        <ele>1265.54</ele>
        <time>2012-04-01T13:26:34Z</time>
      </trkpt>
      <trkpt lat="43.83774" lon="6.57501">
        <ele>1264.422</ele>
        <time>2012-04-01T13:26:40Z</time>
      </trkpt>
      <trkpt lat="43.83774" lon="6.57498">
        <ele>1265.943</ele>
        <time>2012-04-01T13:26:44Z</time>
      </trkpt>
      <trkpt lat="43.83767" lon="6.57491">
        <ele>1267.343</ele>
        <time>2012-04-01T13:26:52Z</time>
      </trkpt>
      <trkpt lat="43.83765" lon="6.5749">
        <ele>1268.023</ele>
        <time>2012-04-01T13:26:54Z</time>
      </trkpt>
      <trkpt lat="43.83761" lon="6.57487">
        <ele>1270.102</ele>
        <time>2012-04-01T13:27:01Z</time>
      </trkpt>
      <trkpt lat="43.83759" lon="6.57484">
        <ele>1269.987</ele>
        <time>2012-04-01T13:27:08Z</time>
      </trkpt>
      <trkpt lat="43.83755" lon="6.5748">
        <ele>1267.775</ele>
        <time>2012-04-01T13:27:16Z</time>
      </trkpt>
      <trkpt lat="43.83748" lon="6.57474">
        <ele>1265.253</ele>
        <time>2012-04-01T13:27:24Z</time>
      </trkpt>
      <trkpt lat="43.8375" lon="6.57473">
        <ele>1264.193</ele>
        <time>2012-04-01T13:27:27Z</time>
      </trkpt>
      <trkpt lat="43.83751" lon="6.57471">
        <ele>1261.369</ele>
        <time>2012-04-01T13:27:31Z</time>
      </trkpt>
      <trkpt lat="43.83747" lon="6.57468">
        <ele>1259.483</ele>
        <time>2012-04-01T13:27:38Z</time>
      </trkpt>
      <trkpt lat="43.83746" lon="6.57463">
        <ele>1260.497</ele>
        <time>2012-04-01T13:28:16Z</time>
      </trkpt>
      <trkpt lat="43.8374" lon="6.57458">
        <ele>1263.173</ele>
        <time>2012-04-01T13:28:24Z</time>
      </trkpt>
      <trkpt lat="43.83728" lon="6.57448">
        <ele>1265.657</ele>
        <time>2012-04-01T13:28:30Z</time>
      </trkpt>
      <trkpt lat="43.83718" lon="6.57438">
        <ele>1267.576</ele>
        <time>2012-04-01T13:28:35Z</time>
      </trkpt>
      <trkpt lat="43.83715" lon="6.57437">
        <ele>1266.701</ele>
        <time>2012-04-01T13:28:40Z</time>
      </trkpt>
      <trkpt lat="43.83712" lon="6.57436">
        <ele>1264.696</ele>
        <time>2012-04-01T13:28:46Z</time>
      </trkpt>
      <trkpt lat="43.83708" lon="6.57433">
        <ele>1260.853</ele>
        <time>2012-04-01T13:28:52Z</time>
      </trkpt>
      <trkpt lat="43.83703" lon="6.57428">
        <ele>1259.522</ele>
        <time>2012-04-01T13:28:55Z</time>
      </trkpt>
      <trkpt lat="43.83699" lon="6.57413">
        <ele>1253.627</ele>
        <time>2012-04-01T13:29:01Z</time>
      </trkpt>
      <trkpt lat="43.83698" lon="6.5741">
        <ele>1252.235</ele>
        <time>2012-04-01T13:29:02Z</time>
      </trkpt>
      <trkpt lat="43.83696" lon="6.57391">
        <ele>1244.863</ele>
        <time>2012-04-01T13:29:08Z</time>
      </trkpt>
      <trkpt lat="43.83694" lon="6.57384">
        <ele>1243.695</ele>
        <time>2012-04-01T13:29:10Z</time>
      </trkpt>
      <trkpt lat="43.83691" lon="6.57376">
        <ele>1241.357</ele>
        <time>2012-04-01T13:29:13Z</time>
      </trkpt>
      <trkpt lat="43.83692" lon="6.57365">
        <ele>1240.208</ele>
        <time>2012-04-01T13:29:16Z</time>
      </trkpt>
      <trkpt lat="43.83686" lon="6.57363">
        <ele>1237.33</ele>
        <time>2012-04-01T13:29:21Z</time>
      </trkpt>
      <trkpt lat="43.83678" lon="6.57363">
        <ele>1237.061</ele>
        <time>2012-04-01T13:29:25Z</time>
      </trkpt>
      <trkpt lat="43.83672" lon="6.57362">
        <ele>1236.902</ele>
        <time>2012-04-01T13:29:28Z</time>
      </trkpt>
      <trkpt lat="43.83663" lon="6.57366">
        <ele>1229.777</ele>
        <time>2012-04-01T13:29:35Z</time>
      </trkpt>
      <trkpt lat="43.83664" lon="6.57368">
        <ele>1227.698</ele>
        <time>2012-04-01T13:29:44Z</time>
      </trkpt>
      <trkpt lat="43.83661" lon="6.57363">
        <ele>1228.704</ele>
        <time>2012-04-01T13:30:19Z</time>
      </trkpt>
      <trkpt lat="43.8366" lon="6.57363">
        <ele>1228.154</ele>
        <time>2012-04-01T13:30:21Z</time>
      </trkpt>
      <trkpt lat="43.83657" lon="6.57365">
        <ele>1224.154</ele>
        <time>2012-04-01T13:30:27Z</time>
      </trkpt>
      <trkpt lat="43.83657" lon="6.57366">
        <ele>1222.865</ele>
        <time>2012-04-01T13:30:32Z</time>
      </trkpt>
      <trkpt lat="43.83658" lon="6.57365">
        <ele>1221.873</ele>
        <time>2012-04-01T13:30:37Z</time>
      </trkpt>
      <trkpt lat="43.8365" lon="6.57359">
        <ele>1220.074</ele>
        <time>2012-04-01T13:30:43Z</time>
      </trkpt>
      <trkpt lat="43.83648" lon="6.57357">
        <ele>1220.144</ele>
        <time>2012-04-01T13:30:44Z</time>
      </trkpt>
      <trkpt lat="43.8364" lon="6.57356">
        <ele>1218.284</ele>
        <time>2012-04-01T13:30:48Z</time>
      </trkpt>
      <trkpt lat="43.83636" lon="6.5735">
        <ele>1216.834</ele>
        <time>2012-04-01T13:30:51Z</time>
      </trkpt>
      <trkpt lat="43.83633" lon="6.57349">
        <ele>1216.136</ele>
        <time>2012-04-01T13:30:57Z</time>
      </trkpt>
      <trkpt lat="43.8363" lon="6.57348">
        <ele>1215.928</ele>
        <time>2012-04-01T13:31:12Z</time>
      </trkpt>
      <trkpt lat="43.83625" lon="6.57342">
        <ele>1213.623</ele>
        <time>2012-04-01T13:31:18Z</time>
      </trkpt>
      <trkpt lat="43.83623" lon="6.57338">
        <ele>1210.374</ele>
        <time>2012-04-01T13:31:24Z</time>
      </trkpt>
      <trkpt lat="43.83624" lon="6.57338">
        <ele>1209.295</ele>
        <time>2012-04-01T13:31:34Z</time>
      </trkpt>
      <trkpt lat="43.83627" lon="6.57336">
        <ele>1207.723</ele>
        <time>2012-04-01T13:31:40Z</time>
      </trkpt>
      <trkpt lat="43.83627" lon="6.57334">
        <ele>1207.293</ele>
        <time>2012-04-01T13:31:42Z</time>
      </trkpt>
      <trkpt lat="43.83623" lon="6.57323">
        <ele>1206.041</ele>
        <time>2012-04-01T13:31:47Z</time>
      </trkpt>
      <trkpt lat="43.8362" lon="6.57317">
        <ele>1204.859</ele>
        <time>2012-04-01T13:31:49Z</time>
      </trkpt>
      <trkpt lat="43.83608" lon="6.57296">
        <ele>1198.266</ele>
        <time>2012-04-01T13:31:56Z</time>
      </trkpt>
      <trkpt lat="43.83598" lon="6.57287">
        <ele>1194.297</ele>
        <time>2012-04-01T13:32:01Z</time>
      </trkpt>
      <trkpt lat="43.83592" lon="6.57285">
        <ele>1189.889</ele>
        <time>2012-04-01T13:32:09Z</time>
      </trkpt>
      <trkpt lat="43.8359" lon="6.57283">
        <ele>1189.84</ele>
        <time>2012-04-01T13:32:10Z</time>
      </trkpt>
      <trkpt lat="43.83585" lon="6.57282">
        <ele>1188.832</ele>
        <time>2012-04-01T13:32:13Z</time>
      </trkpt>
      <trkpt lat="43.83572" lon="6.57268">
        <ele>1187.065</ele>
        <time>2012-04-01T13:32:20Z</time>
      </trkpt>
      <trkpt lat="43.83568" lon="6.57266">
        <ele>1186.545</ele>
        <time>2012-04-01T13:32:24Z</time>
      </trkpt>
      <trkpt lat="43.83564" lon="6.57265">
        <ele>1184.436</ele>
        <time>2012-04-01T13:32:45Z</time>
      </trkpt>
      <trkpt lat="43.83562" lon="6.57256">
        <ele>1179.748</ele>
        <time>2012-04-01T13:32:50Z</time>
      </trkpt>
      <trkpt lat="43.83557" lon="6.57249">
        <ele>1177.065</ele>
        <time>2012-04-01T13:32:53Z</time>
      </trkpt>
      <trkpt lat="43.83554" lon="6.57247">
        <ele>1175.31</ele>
        <time>2012-04-01T13:32:57Z</time>
      </trkpt>
      <trkpt lat="43.83545" lon="6.57239">
        <ele>1170.118</ele>
        <time>2012-04-01T13:33:03Z</time>
      </trkpt>
      <trkpt lat="43.83534" lon="6.5724">
        <ele>1165.617</ele>
        <time>2012-04-01T13:33:08Z</time>
      </trkpt>
      <trkpt lat="43.83526" lon="6.57232">
        <ele>1161.838</ele>
        <time>2012-04-01T13:33:13Z</time>
      </trkpt>
      <trkpt lat="43.83524" lon="6.5723">
        <ele>1161.609</ele>
        <time>2012-04-01T13:33:14Z</time>
      </trkpt>
      <trkpt lat="43.83517" lon="6.57228">
        <ele>1159.23</ele>
        <time>2012-04-01T13:33:18Z</time>
      </trkpt>
      <trkpt lat="43.83506" lon="6.5722">
        <ele>1157.001</ele>
        <time>2012-04-01T13:33:23Z</time>
      </trkpt>
      <trkpt lat="43.83501" lon="6.57221">
        <ele>1154.221</ele>
        <time>2012-04-01T13:33:29Z</time>
      </trkpt>
      <trkpt lat="43.83502" lon="6.57219">
        <ele>1153.633</ele>
        <time>2012-04-01T13:33:34Z</time>
      </trkpt>
      <trkpt lat="43.83504" lon="6.57218">
        <ele>1156.759</ele>
        <time>2012-04-01T13:33:40Z</time>
      </trkpt>
      <trkpt lat="43.83505" lon="6.57218">
        <ele>1185.885</ele>
        <time>2012-04-01T13:35:47Z</time>
      </trkpt>
      <trkpt lat="43.83497" lon="6.57221">
        <ele>1169.854</ele>
        <time>2012-04-01T13:35:56Z</time>
      </trkpt>
      <trkpt lat="43.8349" lon="6.5721">
        <ele>1174.535</ele>
        <time>2012-04-01T13:37:04Z</time>
      </trkpt>
      <trkpt lat="43.83489" lon="6.57212">
        <ele>1169.862</ele>
        <time>2012-04-01T13:37:09Z</time>
      </trkpt>
      <trkpt lat="43.8349" lon="6.57216">
        <ele>1165.336</ele>
        <time>2012-04-01T13:37:17Z</time>
      </trkpt>
      <trkpt lat="43.83491" lon="6.57217">
        <ele>1165.769</ele>
        <time>2012-04-01T13:37:20Z</time>
      </trkpt>
      <trkpt lat="43.83495" lon="6.57218">
        <ele>1168.589</ele>
        <time>2012-04-01T13:37:27Z</time>
      </trkpt>
      <trkpt lat="43.83497" lon="6.5722">
        <ele>1165.806</ele>
        <time>2012-04-01T13:37:43Z</time>
      </trkpt>
      <trkpt lat="43.83492" lon="6.5722">
        <ele>1164.514</ele>
        <time>2012-04-01T13:37:48Z</time>
      </trkpt>
      <trkpt lat="43.83492" lon="6.57219">
        <ele>1163.784</ele>
        <time>2012-04-01T13:37:50Z</time>
      </trkpt>
      <trkpt lat="43.83488" lon="6.57211">
        <ele>1160.779</ele>
        <time>2012-04-01T13:37:55Z</time>
      </trkpt>
      <trkpt lat="43.83484" lon="6.5721">
        <ele>1158.479</ele>
        <time>2012-04-01T13:37:59Z</time>
      </trkpt>
      <trkpt lat="43.83477" lon="6.57207">
        <ele>1154.065</ele>
        <time>2012-04-01T13:38:03Z</time>
      </trkpt>
      <trkpt lat="43.83467" lon="6.5721">
        <ele>1149.706</ele>
        <time>2012-04-01T13:38:08Z</time>
      </trkpt>
      <trkpt lat="43.83463" lon="6.57212">
        <ele>1146.235</ele>
        <time>2012-04-01T13:38:11Z</time>
      </trkpt>
      <trkpt lat="43.83451" lon="6.57212">
        <ele>1139.974</ele>
        <time>2012-04-01T13:38:17Z</time>
      </trkpt>
      <trkpt lat="43.83438" lon="6.57213">
        <ele>1135.414</ele>
        <time>2012-04-01T13:38:22Z</time>
      </trkpt>
      <trkpt lat="43.83426" lon="6.57213">
        <ele>1128.585</ele>
        <time>2012-04-01T13:38:27Z</time>
      </trkpt>
      <trkpt lat="43.8342" lon="6.57209">
        <ele>1124.724</ele>
        <time>2012-04-01T13:39:06Z</time>
      </trkpt>
      <trkpt lat="43.83415" lon="6.57206">
        <ele>1124.323</ele>
        <time>2012-04-01T13:39:09Z</time>
      </trkpt>
      <trkpt lat="43.83413" lon="6.57202">
        <ele>1123.803</ele>
        <time>2012-04-01T13:39:12Z</time>
      </trkpt>
      <trkpt lat="43.83411" lon="6.572">
        <ele>1123.372</ele>
        <time>2012-04-01T13:39:14Z</time>
      </trkpt>
      <trkpt lat="43.83404" lon="6.57197">
        <ele>1120.88</ele>
        <time>2012-04-01T13:39:19Z</time>
      </trkpt>
      <trkpt lat="43.83402" lon="6.57194">
        <ele>1120.16</ele>
        <time>2012-04-01T13:39:21Z</time>
      </trkpt>
      <trkpt lat="43.83404" lon="6.57186">
        <ele>1119.07</ele>
        <time>2012-04-01T13:39:26Z</time>
      </trkpt>
      <trkpt lat="43.83413" lon="6.57175">
        <ele>1117.148</ele>
        <time>2012-04-01T13:39:32Z</time>
      </trkpt>
      <trkpt lat="43.83414" lon="6.57169">
        <ele>1116.809</ele>
        <time>2012-04-01T13:39:34Z</time>
      </trkpt>
      <trkpt lat="43.83414" lon="6.57161">
        <ele>1115.697</ele>
        <time>2012-04-01T13:39:36Z</time>
      </trkpt>
      <trkpt lat="43.83419" lon="6.57149">
        <ele>1113.357</ele>
        <time>2012-04-01T13:39:40Z</time>
      </trkpt>
      <trkpt lat="43.83427" lon="6.57135">
        <ele>1111.77</ele>
        <time>2012-04-01T13:39:45Z</time>
      </trkpt>
      <trkpt lat="43.8343" lon="6.57127">
        <ele>1109.239</ele>
        <time>2012-04-01T13:39:50Z</time>
      </trkpt>
      <trkpt lat="43.83431" lon="6.57115">
        <ele>1106.585</ele>
        <time>2012-04-01T13:39:55Z</time>
      </trkpt>
      <trkpt lat="43.83435" lon="6.57104">
        <ele>1105.469</ele>
        <time>2012-04-01T13:40:00Z</time>
      </trkpt>
      <trkpt lat="43.83438" lon="6.57105">
        <ele>1102.725</ele>
        <time>2012-04-01T13:40:11Z</time>
      </trkpt>
      <trkpt lat="43.83443" lon="6.57097">
        <ele>1105.657</ele>
        <time>2012-04-01T13:40:18Z</time>
      </trkpt>
      <trkpt lat="43.83457" lon="6.57089">
        <ele>1099.744</ele>
        <time>2012-04-01T13:40:23Z</time>
      </trkpt>
      <trkpt lat="43.83466" lon="6.57076">
        <ele>1096.561</ele>
        <time>2012-04-01T13:40:28Z</time>
      </trkpt>
      <trkpt lat="43.8347" lon="6.5707">
        <ele>1094.379</ele>
        <time>2012-04-01T13:40:30Z</time>
      </trkpt>
      <trkpt lat="43.83478" lon="6.57063">
        <ele>1085.872</ele>
        <time>2012-04-01T13:40:35Z</time>
      </trkpt>
      <trkpt lat="43.83477" lon="6.57048">
        <ele>1082.547</ele>
        <time>2012-04-01T13:40:41Z</time>
      </trkpt>
      <trkpt lat="43.83479" lon="6.57046">
        <ele>1081.076</ele>
        <time>2012-04-01T13:40:43Z</time>
      </trkpt>
      <trkpt lat="43.8348" lon="6.57043">
        <ele>1078.865</ele>
        <time>2012-04-01T13:40:45Z</time>
      </trkpt>
      <trkpt lat="43.83486" lon="6.57043">
        <ele>1076.838</ele>
        <time>2012-04-01T13:40:50Z</time>
      </trkpt>
      <trkpt lat="43.83488" lon="6.57033">
        <ele>1075.661</ele>
        <time>2012-04-01T13:40:54Z</time>
      </trkpt>
      <trkpt lat="43.835" lon="6.57035">
        <ele>1072.952</ele>
        <time>2012-04-01T13:41:01Z</time>
      </trkpt>
      <trkpt lat="43.83502" lon="6.57034">
        <ele>1071.46</ele>
        <time>2012-04-01T13:41:02Z</time>
      </trkpt>
      <trkpt lat="43.83505" lon="6.57021">
        <ele>1066.377</ele>
        <time>2012-04-01T13:41:07Z</time>
      </trkpt>
      <trkpt lat="43.83502" lon="6.57006">
        <ele>1062.877</ele>
        <time>2012-04-01T13:41:12Z</time>
      </trkpt>
      <trkpt lat="43.83503" lon="6.57004">
        <ele>1061.627</ele>
        <time>2012-04-01T13:41:14Z</time>
      </trkpt>
      <trkpt lat="43.83509" lon="6.57002">
        <ele>1057.878</ele>
        <time>2012-04-01T13:41:20Z</time>
      </trkpt>
      <trkpt lat="43.83511" lon="6.56998">
        <ele>1055.397</ele>
        <time>2012-04-01T13:41:23Z</time>
      </trkpt>
      <trkpt lat="43.83516" lon="6.56996">
        <ele>1051.866</ele>
        <time>2012-04-01T13:41:26Z</time>
      </trkpt>
      <trkpt lat="43.83517" lon="6.56988">
        <ele>1047.684</ele>
        <time>2012-04-01T13:41:31Z</time>
      </trkpt>
      <trkpt lat="43.83523" lon="6.56978">
        <ele>1043.672</ele>
        <time>2012-04-01T13:41:36Z</time>
      </trkpt>
      <trkpt lat="43.83525" lon="6.56967">
        <ele>1038.933</ele>
        <time>2012-04-01T13:41:41Z</time>
      </trkpt>
      <trkpt lat="43.83526" lon="6.56963">
        <ele>1036.474</ele>
        <time>2012-04-01T13:41:43Z</time>
      </trkpt>
      <trkpt lat="43.83532" lon="6.56956">
        <ele>1031.536</ele>
        <time>2012-04-01T13:41:49Z</time>
      </trkpt>
      <trkpt lat="43.83533" lon="6.56943">
        <ele>1030.231</ele>
        <time>2012-04-01T13:41:54Z</time>
      </trkpt>
      <trkpt lat="43.83534" lon="6.56941">
        <ele>1030.473</ele>
        <time>2012-04-01T13:41:56Z</time>
      </trkpt>
      <trkpt lat="43.83532" lon="6.56934">
        <ele>1029.393</ele>
        <time>2012-04-01T13:41:59Z</time>
      </trkpt>
      <trkpt lat="43.83522" lon="6.56915">
        <ele>1028.722</ele>
        <time>2012-04-01T13:42:02Z</time>
      </trkpt>
      <trkpt lat="43.83504" lon="6.56888">
        <ele>1026.089</ele>
        <time>2012-04-01T13:42:06Z</time>
      </trkpt>
      <trkpt lat="43.83487" lon="6.56878">
        <ele>1022.146</ele>
        <time>2012-04-01T13:42:09Z</time>
      </trkpt>
      <trkpt lat="43.83477" lon="6.56883">
        <ele>1020.245</ele>
        <time>2012-04-01T13:42:11Z</time>
      </trkpt>
      <trkpt lat="43.83458" lon="6.56894">
        <ele>1016.783</ele>
        <time>2012-04-01T13:42:14Z</time>
      </trkpt>
      <trkpt lat="43.83438" lon="6.5689">
        <ele>1012.373</ele>
        <time>2012-04-01T13:42:18Z</time>
      </trkpt>
      <trkpt lat="43.8342" lon="6.56879">
        <ele>1009.031</ele>
        <time>2012-04-01T13:42:21Z</time>
      </trkpt>
      <trkpt lat="43.83391" lon="6.56859">
        <ele>1002.32</ele>
        <time>2012-04-01T13:42:27Z</time>
      </trkpt>
      <trkpt lat="43.83386" lon="6.56854">
        <ele>999.64</ele>
        <time>2012-04-01T13:42:30Z</time>
      </trkpt>
      <trkpt lat="43.83385" lon="6.56851">
        <ele>1014.988</ele>
        <time>2012-04-01T13:44:25Z</time>
      </trkpt>
      <trkpt lat="43.83389" lon="6.56852">
        <ele>1001.065</ele>
        <time>2012-04-01T13:45:17Z</time>
      </trkpt>
      <trkpt lat="43.83385" lon="6.56838">
        <ele>999.984</ele>
        <time>2012-04-01T13:45:23Z</time>
      </trkpt>
      <trkpt lat="43.83376" lon="6.56831">
        <ele>1000.324</ele>
        <time>2012-04-01T13:45:26Z</time>
      </trkpt>
      <trkpt lat="43.83353" lon="6.5682">
        <ele>996.532</ele>
        <time>2012-04-01T13:45:32Z</time>
      </trkpt>
      <trkpt lat="43.8335" lon="6.56816">
        <ele>995.402</ele>
        <time>2012-04-01T13:45:33Z</time>
      </trkpt>
      <trkpt lat="43.83342" lon="6.56806">
        <ele>993.619</ele>
        <time>2012-04-01T13:45:35Z</time>
      </trkpt>
      <trkpt lat="43.83326" lon="6.56778">
        <ele>991.092</ele>
        <time>2012-04-01T13:45:40Z</time>
      </trkpt>
      <trkpt lat="43.83313" lon="6.56766">
        <ele>989.851</ele>
        <time>2012-04-01T13:45:43Z</time>
      </trkpt>
      <trkpt lat="43.83303" lon="6.56759">
        <ele>988.72</ele>
        <time>2012-04-01T13:45:45Z</time>
      </trkpt>
      <trkpt lat="43.83294" lon="6.56751">
        <ele>987.581</ele>
        <time>2012-04-01T13:45:47Z</time>
      </trkpt>
      <trkpt lat="43.83285" lon="6.56739">
        <ele>986.212</ele>
        <time>2012-04-01T13:45:49Z</time>
      </trkpt>
      <trkpt lat="43.83271" lon="6.56714">
        <ele>983.11</ele>
        <time>2012-04-01T13:45:53Z</time>
      </trkpt>
      <trkpt lat="43.83257" lon="6.56694">
        <ele>983.261</ele>
        <time>2012-04-01T13:45:56Z</time>
      </trkpt>
      <trkpt lat="43.83247" lon="6.56679">
        <ele>982.59</ele>
        <time>2012-04-01T13:45:58Z</time>
      </trkpt>
      <trkpt lat="43.83228" lon="6.5666">
        <ele>980.907</ele>
        <time>2012-04-01T13:46:01Z</time>
      </trkpt>
      <trkpt lat="43.83208" lon="6.56636">
        <ele>976.465</ele>
        <time>2012-04-01T13:46:05Z</time>
      </trkpt>
      <trkpt lat="43.83205" lon="6.56609">
        <ele>973.254</ele>
        <time>2012-04-01T13:46:08Z</time>
      </trkpt>
      <trkpt lat="43.83191" lon="6.56585">
        <ele>969.743</ele>
        <time>2012-04-01T13:46:11Z</time>
      </trkpt>
      <trkpt lat="43.83183" lon="6.56568">
        <ele>968.744</ele>
        <time>2012-04-01T13:46:13Z</time>
      </trkpt>
      <trkpt lat="43.83158" lon="6.5653">
        <ele>963.922</ele>
        <time>2012-04-01T13:46:18Z</time>
      </trkpt>
      <trkpt lat="43.8315" lon="6.56513">
        <ele>962.311</ele>
        <time>2012-04-01T13:46:20Z</time>
      </trkpt>
      <trkpt lat="43.8314" lon="6.5646">
        <ele>960.814</ele>
        <time>2012-04-01T13:46:25Z</time>
      </trkpt>
      <trkpt lat="43.83136" lon="6.56418">
        <ele>958.347</ele>
        <time>2012-04-01T13:46:29Z</time>
      </trkpt>
      <trkpt lat="43.83131" lon="6.56399">
        <ele>956.116</ele>
        <time>2012-04-01T13:46:31Z</time>
      </trkpt>
      <trkpt lat="43.83123" lon="6.56356">
        <ele>952.065</ele>
        <time>2012-04-01T13:46:36Z</time>
      </trkpt>
      <trkpt lat="43.83115" lon="6.56346">
        <ele>950.106</ele>
        <time>2012-04-01T13:46:40Z</time>
      </trkpt>
      <trkpt lat="43.83106" lon="6.56337">
        <ele>945.678</ele>
        <time>2012-04-01T13:46:45Z</time>
      </trkpt>
      <trkpt lat="43.83095" lon="6.56321">
        <ele>943.471</ele>
        <time>2012-04-01T13:46:50Z</time>
      </trkpt>
      <trkpt lat="43.83084" lon="6.56309">
        <ele>943.312</ele>
        <time>2012-04-01T13:46:53Z</time>
      </trkpt>
      <trkpt lat="43.8307" lon="6.56277">
        <ele>942.623</ele>
        <time>2012-04-01T13:46:58Z</time>
      </trkpt>
      <trkpt lat="43.83051" lon="6.56227">
        <ele>945.448</ele>
        <time>2012-04-01T13:47:05Z</time>
      </trkpt>
      <trkpt lat="43.83042" lon="6.56209">
        <ele>945.546</ele>
        <time>2012-04-01T13:47:09Z</time>
      </trkpt>
      <trkpt lat="43.8304" lon="6.562">
        <ele>945.605</ele>
        <time>2012-04-01T13:47:11Z</time>
      </trkpt>
      <trkpt lat="43.83047" lon="6.56157">
        <ele>936.87</ele>
        <time>2012-04-01T13:47:17Z</time>
      </trkpt>
      <trkpt lat="43.83042" lon="6.56103">
        <ele>934.058</ele>
        <time>2012-04-01T13:47:23Z</time>
      </trkpt>
      <trkpt lat="43.83036" lon="6.56082">
        <ele>933.1</ele>
        <time>2012-04-01T13:47:28Z</time>
      </trkpt>
      <trkpt lat="43.83044" lon="6.56079">
        <ele>931.461</ele>
        <time>2012-04-01T13:47:32Z</time>
      </trkpt>
      <trkpt lat="43.83047" lon="6.56084">
        <ele>930.674</ele>
        <time>2012-04-01T13:47:36Z</time>
      </trkpt>
      <trkpt lat="43.83049" lon="6.56084">
        <ele>929.622</ele>
        <time>2012-04-01T13:47:39Z</time>
      </trkpt>
      <trkpt lat="43.83052" lon="6.56086">
        <ele>930.594</ele>
        <time>2012-04-01T13:47:47Z</time>
      </trkpt>
      <trkpt lat="43.83053" lon="6.5609">
        <ele>929.643</ele>
        <time>2012-04-01T13:55:31Z</time>
      </trkpt>
      <trkpt lat="43.83051" lon="6.5609">
        <ele>926.891</ele>
        <time>2012-04-01T13:55:33Z</time>
      </trkpt>
      <trkpt lat="43.83047" lon="6.56085">
        <ele>920.51</ele>
        <time>2012-04-01T13:55:40Z</time>
      </trkpt>
      <trkpt lat="43.83042" lon="6.56086">
        <ele>931.466</ele>
        <time>2012-04-01T13:56:11Z</time>
      </trkpt>
      <trkpt lat="43.8304" lon="6.56087">
        <ele>937.698</ele>
        <time>2012-04-01T13:56:18Z</time>
      </trkpt>
      <trkpt lat="43.83028" lon="6.56085">
        <ele>936.252</ele>
        <time>2012-04-01T13:56:24Z</time>
      </trkpt>
      <trkpt lat="43.83025" lon="6.56085">
        <ele>935.651</ele>
        <time>2012-04-01T13:56:25Z</time>
      </trkpt>
      <trkpt lat="43.83017" lon="6.56066">
        <ele>934.179</ele>
        <time>2012-04-01T13:56:29Z</time>
      </trkpt>
      <trkpt lat="43.83006" lon="6.56007">
        <ele>934.022</ele>
        <time>2012-04-01T13:56:35Z</time>
      </trkpt>
      <trkpt lat="43.82999" lon="6.55963">
        <ele>936.085</ele>
        <time>2012-04-01T13:56:40Z</time>
      </trkpt>
      <trkpt lat="43.82999" lon="6.55928">
        <ele>934.095</ele>
        <time>2012-04-01T13:56:46Z</time>
      </trkpt>
      <trkpt lat="43.83005" lon="6.55888">
        <ele>933.056</ele>
        <time>2012-04-01T13:56:54Z</time>
      </trkpt>
      <trkpt lat="43.83008" lon="6.55849">
        <ele>935.188</ele>
        <time>2012-04-01T13:57:02Z</time>
      </trkpt>
      <trkpt lat="43.83011" lon="6.55824">
        <ele>934.284</ele>
        <time>2012-04-01T13:57:07Z</time>
      </trkpt>
      <trkpt lat="43.83015" lon="6.55799">
        <ele>935.897</ele>
        <time>2012-04-01T13:57:13Z</time>
      </trkpt>
      <trkpt lat="43.83015" lon="6.55776">
        <ele>936.938</ele>
        <time>2012-04-01T13:57:17Z</time>
      </trkpt>
      <trkpt lat="43.83011" lon="6.55746">
        <ele>938.296</ele>
        <time>2012-04-01T13:57:23Z</time>
      </trkpt>
      <trkpt lat="43.83011" lon="6.55721">
        <ele>935.073</ele>
        <time>2012-04-01T13:57:28Z</time>
      </trkpt>
      <trkpt lat="43.83023" lon="6.55693">
        <ele>938.398</ele>
        <time>2012-04-01T13:57:35Z</time>
      </trkpt>
      <trkpt lat="43.83032" lon="6.5567">
        <ele>942.119</ele>
        <time>2012-04-01T13:57:40Z</time>
      </trkpt>
      <trkpt lat="43.8304" lon="6.5565">
        <ele>944.267</ele>
        <time>2012-04-01T13:57:45Z</time>
      </trkpt>
      <trkpt lat="43.83047" lon="6.55626">
        <ele>942.093</ele>
        <time>2012-04-01T13:57:50Z</time>
      </trkpt>
      <trkpt lat="43.83057" lon="6.55596">
        <ele>942.413</ele>
        <time>2012-04-01T13:57:56Z</time>
      </trkpt>
      <trkpt lat="43.83072" lon="6.55551">
        <ele>943.873</ele>
        <time>2012-04-01T13:58:03Z</time>
      </trkpt>
      <trkpt lat="43.83091" lon="6.55513">
        <ele>937.002</ele>
        <time>2012-04-01T13:58:09Z</time>
      </trkpt>
      <trkpt lat="43.83106" lon="6.55475">
        <ele>932.291</ele>
        <time>2012-04-01T13:58:15Z</time>
      </trkpt>
      <trkpt lat="43.83119" lon="6.55437">
        <ele>931.244</ele>
        <time>2012-04-01T13:58:22Z</time>
      </trkpt>
      <trkpt lat="43.83121" lon="6.55432">
        <ele>931.274</ele>
        <time>2012-04-01T13:58:23Z</time>
      </trkpt>
      <trkpt lat="43.83126" lon="6.55422">
        <ele>931.334</ele>
        <time>2012-04-01T13:58:25Z</time>
      </trkpt>
      <trkpt lat="43.83132" lon="6.55398">
        <ele>930.033</ele>
        <time>2012-04-01T13:58:29Z</time>
      </trkpt>
      <trkpt lat="43.83135" lon="6.55378">
        <ele>931.275</ele>
        <time>2012-04-01T13:58:32Z</time>
      </trkpt>
      <trkpt lat="43.83135" lon="6.55321">
        <ele>931.545</ele>
        <time>2012-04-01T13:58:40Z</time>
      </trkpt>
      <trkpt lat="43.8313" lon="6.55275">
        <ele>930.682</ele>
        <time>2012-04-01T13:58:47Z</time>
      </trkpt>
      <trkpt lat="43.83121" lon="6.55214">
        <ele>928.362</ele>
        <time>2012-04-01T13:58:56Z</time>
      </trkpt>
      <trkpt lat="43.8312" lon="6.55207">
        <ele>928.863</ele>
        <time>2012-04-01T13:58:57Z</time>
      </trkpt>
      <trkpt lat="43.83125" lon="6.5517">
        <ele>925.752</ele>
        <time>2012-04-01T13:59:03Z</time>
      </trkpt>
      <trkpt lat="43.83148" lon="6.55127">
        <ele>926.573</ele>
        <time>2012-04-01T13:59:10Z</time>
      </trkpt>
      <trkpt lat="43.8316" lon="6.55107">
        <ele>926.522</ele>
        <time>2012-04-01T13:59:14Z</time>
      </trkpt>
      <trkpt lat="43.8316" lon="6.55101">
        <ele>927.192</ele>
        <time>2012-04-01T13:59:18Z</time>
      </trkpt>
      <trkpt lat="43.8316" lon="6.551">
        <ele>926.612</ele>
        <time>2012-04-01T13:59:20Z</time>
      </trkpt>
      <trkpt lat="43.83165" lon="6.5509">
        <ele>928.095</ele>
        <time>2012-04-01T13:59:25Z</time>
      </trkpt>
      <trkpt lat="43.83181" lon="6.5507">
        <ele>929.494</ele>
        <time>2012-04-01T13:59:31Z</time>
      </trkpt>
      <trkpt lat="43.83187" lon="6.55059">
        <ele>930.032</ele>
        <time>2012-04-01T13:59:35Z</time>
      </trkpt>
      <trkpt lat="43.8319" lon="6.55051">
        <ele>930.001</ele>
        <time>2012-04-01T13:59:40Z</time>
      </trkpt>
      <trkpt lat="43.83195" lon="6.55045">
        <ele>925.604</ele>
        <time>2012-04-01T14:00:26Z</time>
      </trkpt>
      <trkpt lat="43.83205" lon="6.55038">
        <ele>926.145</ele>
        <time>2012-04-01T14:00:29Z</time>
      </trkpt>
      <trkpt lat="43.83209" lon="6.55035">
        <ele>926.536</ele>
        <time>2012-04-01T14:00:30Z</time>
      </trkpt>
      <trkpt lat="43.83236" lon="6.55016">
        <ele>926.115</ele>
        <time>2012-04-01T14:00:35Z</time>
      </trkpt>
      <trkpt lat="43.8326" lon="6.54998">
        <ele>920.738</ele>
        <time>2012-04-01T14:00:39Z</time>
      </trkpt>
      <trkpt lat="43.83274" lon="6.54983">
        <ele>913.072</ele>
        <time>2012-04-01T14:00:43Z</time>
      </trkpt>
      <trkpt lat="43.83288" lon="6.54965">
        <ele>906.8</ele>
        <time>2012-04-01T14:00:48Z</time>
      </trkpt>
      <trkpt lat="43.83302" lon="6.54942">
        <ele>902.98</ele>
        <time>2012-04-01T14:00:53Z</time>
      </trkpt>
      <trkpt lat="43.83312" lon="6.5493">
        <ele>899.489</ele>
        <time>2012-04-01T14:00:57Z</time>
      </trkpt>
      <trkpt lat="43.83325" lon="6.54917">
        <ele>896.319</ele>
        <time>2012-04-01T14:01:01Z</time>
      </trkpt>
      <trkpt lat="43.83338" lon="6.54904">
        <ele>894.963</ele>
        <time>2012-04-01T14:01:06Z</time>
      </trkpt>
      <trkpt lat="43.83347" lon="6.54895">
        <ele>895.065</ele>
        <time>2012-04-01T14:01:09Z</time>
      </trkpt>
      <trkpt lat="43.83359" lon="6.54878">
        <ele>893.264</ele>
        <time>2012-04-01T14:01:12Z</time>
      </trkpt>
      <trkpt lat="43.83369" lon="6.54867">
        <ele>892.613</ele>
        <time>2012-04-01T14:01:14Z</time>
      </trkpt>
      <trkpt lat="43.83391" lon="6.54852">
        <ele>893.777</ele>
        <time>2012-04-01T14:01:19Z</time>
      </trkpt>
      <trkpt lat="43.83398" lon="6.54853">
        <ele>889.513</ele>
        <time>2012-04-01T14:01:22Z</time>
      </trkpt>
      <trkpt lat="43.83404" lon="6.54853">
        <ele>887.504</ele>
        <time>2012-04-01T14:01:27Z</time>
      </trkpt>
      <trkpt lat="43.83405" lon="6.5485">
        <ele>890.918</ele>
        <time>2012-04-01T14:01:29Z</time>
      </trkpt>
      <trkpt lat="43.83403" lon="6.54841">
        <ele>894.696</ele>
        <time>2012-04-01T14:01:35Z</time>
      </trkpt>
      <trkpt lat="43.83403" lon="6.54838">
        <ele>897.316</ele>
        <time>2012-04-01T14:01:40Z</time>
      </trkpt>
      <trkpt lat="43.83407" lon="6.54842">
        <ele>898.237</ele>
        <time>2012-04-01T14:02:37Z</time>
      </trkpt>
      <trkpt lat="43.83409" lon="6.5484">
        <ele>898.699</ele>
        <time>2012-04-01T14:02:45Z</time>
      </trkpt>
      <trkpt lat="43.83414" lon="6.5483">
        <ele>901.934</ele>
        <time>2012-04-01T14:03:09Z</time>
      </trkpt>
      <trkpt lat="43.83414" lon="6.54818">
        <ele>903.344</ele>
        <time>2012-04-01T14:03:13Z</time>
      </trkpt>
      <trkpt lat="43.8342" lon="6.548">
        <ele>905.606</ele>
        <time>2012-04-01T14:03:17Z</time>
      </trkpt>
      <trkpt lat="43.83424" lon="6.54787">
        <ele>906.976</ele>
        <time>2012-04-01T14:03:19Z</time>
      </trkpt>
      <trkpt lat="43.83439" lon="6.54761">
        <ele>905.354</ele>
        <time>2012-04-01T14:03:23Z</time>
      </trkpt>
      <trkpt lat="43.83452" lon="6.54735">
        <ele>902.281</ele>
        <time>2012-04-01T14:03:27Z</time>
      </trkpt>
      <trkpt lat="43.83473" lon="6.54694">
        <ele>891.542</ele>
        <time>2012-04-01T14:03:33Z</time>
      </trkpt>
      <trkpt lat="43.83501" lon="6.54664">
        <ele>881.288</ele>
        <time>2012-04-01T14:03:38Z</time>
      </trkpt>
      <trkpt lat="43.83507" lon="6.54658">
        <ele>879.305</ele>
        <time>2012-04-01T14:03:39Z</time>
      </trkpt>
      <trkpt lat="43.83534" lon="6.54642">
        <ele>874.899</ele>
        <time>2012-04-01T14:03:43Z</time>
      </trkpt>
      <trkpt lat="43.8355" lon="6.54637">
        <ele>871.419</ele>
        <time>2012-04-01T14:03:46Z</time>
      </trkpt>
      <trkpt lat="43.83552" lon="6.54624">
        <ele>870.018</ele>
        <time>2012-04-01T14:03:50Z</time>
      </trkpt>
      <trkpt lat="43.83553" lon="6.54615">
        <ele>869.45</ele>
        <time>2012-04-01T14:03:52Z</time>
      </trkpt>
      <trkpt lat="43.83551" lon="6.546">
        <ele>862.661</ele>
        <time>2012-04-01T14:03:58Z</time>
      </trkpt>
      <trkpt lat="43.83549" lon="6.54593">
        <ele>859.162</ele>
        <time>2012-04-01T14:04:00Z</time>
      </trkpt>
      <trkpt lat="43.83551" lon="6.54586">
        <ele>850.281</ele>
        <time>2012-04-01T14:04:05Z</time>
      </trkpt>
      <trkpt lat="43.83551" lon="6.54588">
        <ele>844.675</ele>
        <time>2012-04-01T14:04:11Z</time>
      </trkpt>
      <trkpt lat="43.83546" lon="6.54574">
        <ele>836.957</ele>
        <time>2012-04-01T14:04:17Z</time>
      </trkpt>
      <trkpt lat="43.83547" lon="6.54573">
        <ele>837.019</ele>
        <time>2012-04-01T14:04:19Z</time>
      </trkpt>
      <trkpt lat="43.83549" lon="6.54571">
        <ele>836.34</ele>
        <time>2012-04-01T14:04:22Z</time>
      </trkpt>
      <trkpt lat="43.83552" lon="6.54563">
        <ele>837.723</ele>
        <time>2012-04-01T14:04:27Z</time>
      </trkpt>
      <trkpt lat="43.83557" lon="6.54565">
        <ele>838.891</ele>
        <time>2012-04-01T14:04:33Z</time>
      </trkpt>
      <trkpt lat="43.83559" lon="6.54564">
        <ele>839.042</ele>
        <time>2012-04-01T14:04:36Z</time>
      </trkpt>
      <trkpt lat="43.83563" lon="6.54552">
        <ele>840.523</ele>
        <time>2012-04-01T14:04:42Z</time>
      </trkpt>
      <trkpt lat="43.83568" lon="6.54548">
        <ele>844.576</ele>
        <time>2012-04-01T14:04:47Z</time>
      </trkpt>
      <trkpt lat="43.83578" lon="6.54539">
        <ele>844.305</ele>
        <time>2012-04-01T14:04:52Z</time>
      </trkpt>
      <trkpt lat="43.83595" lon="6.54533">
        <ele>842.154</ele>
        <time>2012-04-01T14:04:58Z</time>
      </trkpt>
      <trkpt lat="43.83608" lon="6.54526">
        <ele>847</ele>
        <time>2012-04-01T14:05:03Z</time>
      </trkpt>
      <trkpt lat="43.83623" lon="6.5452">
        <ele>846.627</ele>
        <time>2012-04-01T14:05:07Z</time>
      </trkpt>
      <trkpt lat="43.83631" lon="6.54519">
        <ele>846.058</ele>
        <time>2012-04-01T14:05:09Z</time>
      </trkpt>
      <trkpt lat="43.83651" lon="6.54516">
        <ele>845.64</ele>
        <time>2012-04-01T14:05:13Z</time>
      </trkpt>
      <trkpt lat="43.83676" lon="6.54505">
        <ele>849.422</ele>
        <time>2012-04-01T14:05:18Z</time>
      </trkpt>
      <trkpt lat="43.83692" lon="6.54494">
        <ele>848.939</ele>
        <time>2012-04-01T14:05:22Z</time>
      </trkpt>
      <trkpt lat="43.83701" lon="6.54486">
        <ele>849.479</ele>
        <time>2012-04-01T14:05:24Z</time>
      </trkpt>
      <trkpt lat="43.83712" lon="6.5447">
        <ele>850.93</ele>
        <time>2012-04-01T14:05:27Z</time>
      </trkpt>
      <trkpt lat="43.83726" lon="6.54457">
        <ele>849.788</ele>
        <time>2012-04-01T14:05:30Z</time>
      </trkpt>
      <trkpt lat="43.8375" lon="6.54442">
        <ele>845.343</ele>
        <time>2012-04-01T14:05:36Z</time>
      </trkpt>
      <trkpt lat="43.83766" lon="6.54426">
        <ele>842.371</ele>
        <time>2012-04-01T14:05:41Z</time>
      </trkpt>
      <trkpt lat="43.83779" lon="6.54409">
        <ele>836.817</ele>
        <time>2012-04-01T14:05:47Z</time>
      </trkpt>
      <trkpt lat="43.83787" lon="6.54399">
        <ele>815.593</ele>
        <time>2012-04-01T14:05:52Z</time>
      </trkpt>
      <trkpt lat="43.8379" lon="6.54398">
        <ele>806.911</ele>
        <time>2012-04-01T14:05:56Z</time>
      </trkpt>
      <trkpt lat="43.8379" lon="6.54394">
        <ele>803.372</ele>
        <time>2012-04-01T14:05:58Z</time>
      </trkpt>
      <trkpt lat="43.83795" lon="6.54382">
        <ele>800.216</ele>
        <time>2012-04-01T14:06:04Z</time>
      </trkpt>
      <trkpt lat="43.83798" lon="6.54371">
        <ele>799.61</ele>
        <time>2012-04-01T14:06:08Z</time>
      </trkpt>
      <trkpt lat="43.83799" lon="6.54368">
        <ele>799.452</ele>
        <time>2012-04-01T14:06:11Z</time>
      </trkpt>
      <trkpt lat="43.838" lon="6.54361">
        <ele>798.796</ele>
        <time>2012-04-01T14:06:17Z</time>
      </trkpt>
      <trkpt lat="43.83801" lon="6.5436">
        <ele>799.447</ele>
        <time>2012-04-01T14:06:18Z</time>
      </trkpt>
      <trkpt lat="43.83806" lon="6.54347">
        <ele>800.909</ele>
        <time>2012-04-01T14:06:23Z</time>
      </trkpt>
      <trkpt lat="43.8381" lon="6.54339">
        <ele>803.071</ele>
        <time>2012-04-01T14:06:27Z</time>
      </trkpt>
      <trkpt lat="43.83815" lon="6.54333">
        <ele>805.944</ele>
        <time>2012-04-01T14:06:33Z</time>
      </trkpt>
      <trkpt lat="43.83823" lon="6.54322">
        <ele>806.305</ele>
        <time>2012-04-01T14:06:39Z</time>
      </trkpt>
      <trkpt lat="43.83813" lon="6.54315">
        <ele>795.568</ele>
        <time>2012-04-01T14:06:44Z</time>
      </trkpt>
      <trkpt lat="43.83801" lon="6.54308">
        <ele>785.737</ele>
        <time>2012-04-01T14:06:50Z</time>
      </trkpt>
      <trkpt lat="43.83797" lon="6.54302">
        <ele>783.677</ele>
        <time>2012-04-01T14:06:52Z</time>
      </trkpt>
      <trkpt lat="43.83797" lon="6.54291">
        <ele>782.868</ele>
        <time>2012-04-01T14:06:56Z</time>
      </trkpt>
      <trkpt lat="43.83798" lon="6.54286">
        <ele>784.271</ele>
        <time>2012-04-01T14:07:02Z</time>
      </trkpt>
      <trkpt lat="43.83797" lon="6.54279">
        <ele>786.404</ele>
        <time>2012-04-01T14:07:08Z</time>
      </trkpt>
      <trkpt lat="43.83798" lon="6.54271">
        <ele>788.816</ele>
        <time>2012-04-01T14:07:14Z</time>
      </trkpt>
      <trkpt lat="43.838" lon="6.54271">
        <ele>786.98</ele>
        <time>2012-04-01T14:07:29Z</time>
      </trkpt>
      <trkpt lat="43.83801" lon="6.54271">
        <ele>800.167</ele>
        <time>2012-04-01T14:09:29Z</time>
      </trkpt>
      <trkpt lat="43.83805" lon="6.54255">
        <ele>797.648</ele>
        <time>2012-04-01T14:09:33Z</time>
      </trkpt>
      <trkpt lat="43.8381" lon="6.54227">
        <ele>797.177</ele>
        <time>2012-04-01T14:09:36Z</time>
      </trkpt>
      <trkpt lat="43.83812" lon="6.54211">
        <ele>796.847</ele>
        <time>2012-04-01T14:09:38Z</time>
      </trkpt>
      <trkpt lat="43.83818" lon="6.54173">
        <ele>796.418</ele>
        <time>2012-04-01T14:09:43Z</time>
      </trkpt>
      <trkpt lat="43.83817" lon="6.54159">
        <ele>792.325</ele>
        <time>2012-04-01T14:09:45Z</time>
      </trkpt>
      <trkpt lat="43.83822" lon="6.54142">
        <ele>781.749</ele>
        <time>2012-04-01T14:09:48Z</time>
      </trkpt>
      <trkpt lat="43.83828" lon="6.54123">
        <ele>773.196</ele>
        <time>2012-04-01T14:09:51Z</time>
      </trkpt>
      <trkpt lat="43.83834" lon="6.5411">
        <ele>768.974</ele>
        <time>2012-04-01T14:09:53Z</time>
      </trkpt>
      <trkpt lat="43.8386" lon="6.54062">
        <ele>753.539</ele>
        <time>2012-04-01T14:10:00Z</time>
      </trkpt>
      <trkpt lat="43.83877" lon="6.54036">
        <ele>747.27</ele>
        <time>2012-04-01T14:10:05Z</time>
      </trkpt>
      <trkpt lat="43.8389" lon="6.54014">
        <ele>742.874</ele>
        <time>2012-04-01T14:10:10Z</time>
      </trkpt>
      <trkpt lat="43.83899" lon="6.53999">
        <ele>740.469</ele>
        <time>2012-04-01T14:10:14Z</time>
      </trkpt>
      <trkpt lat="43.8391" lon="6.53982">
        <ele>746.478</ele>
        <time>2012-04-01T14:10:19Z</time>
      </trkpt>
      <trkpt lat="43.83921" lon="6.53957">
        <ele>753.594</ele>
        <time>2012-04-01T14:10:25Z</time>
      </trkpt>
      <trkpt lat="43.83933" lon="6.53926">
        <ele>760.258</ele>
        <time>2012-04-01T14:10:32Z</time>
      </trkpt>
      <trkpt lat="43.83941" lon="6.53902">
        <ele>764.559</ele>
        <time>2012-04-01T14:10:39Z</time>
      </trkpt>
      <trkpt lat="43.83948" lon="6.5388">
        <ele>767.147</ele>
        <time>2012-04-01T14:10:46Z</time>
      </trkpt>
      <trkpt lat="43.83953" lon="6.53864">
        <ele>769.536</ele>
        <time>2012-04-01T14:10:52Z</time>
      </trkpt>
      <trkpt lat="43.83953" lon="6.53861">
        <ele>769.254</ele>
        <time>2012-04-01T14:10:53Z</time>
      </trkpt>
      <trkpt lat="43.8395" lon="6.5386">
        <ele>768.271</ele>
        <time>2012-04-01T14:11:00Z</time>
      </trkpt>
      <trkpt lat="43.83945" lon="6.53859">
        <ele>761.667</ele>
        <time>2012-04-01T14:12:00Z</time>
      </trkpt>
      <trkpt lat="43.83934" lon="6.53863">
        <ele>761.123</ele>
        <time>2012-04-01T14:12:07Z</time>
      </trkpt>
      <trkpt lat="43.83924" lon="6.53865">
        <ele>760.675</ele>
        <time>2012-04-01T14:12:13Z</time>
      </trkpt>
      <trkpt lat="43.8392" lon="6.53866">
        <ele>760.343</ele>
        <time>2012-04-01T14:12:15Z</time>
      </trkpt>
      <trkpt lat="43.83914" lon="6.53869">
        <ele>761.863</ele>
        <time>2012-04-01T14:12:21Z</time>
      </trkpt>
      <trkpt lat="43.83918" lon="6.5387">
        <ele>769.713</ele>
        <time>2012-04-01T14:12:29Z</time>
      </trkpt>
      <trkpt lat="43.83918" lon="6.53869">
        <ele>770.522</ele>
        <time>2012-04-01T14:12:34Z</time>
      </trkpt>
      <trkpt lat="43.83928" lon="6.53866">
        <ele>770.449</ele>
        <time>2012-04-01T14:12:39Z</time>
      </trkpt>
      <trkpt lat="43.83945" lon="6.5386">
        <ele>765.884</ele>
        <time>2012-04-01T14:12:45Z</time>
      </trkpt>
      <trkpt lat="43.83952" lon="6.53851">
        <ele>763.763</ele>
        <time>2012-04-01T14:12:48Z</time>
      </trkpt>
      <trkpt lat="43.83962" lon="6.53823">
        <ele>764.677</ele>
        <time>2012-04-01T14:12:53Z</time>
      </trkpt>
      <trkpt lat="43.83975" lon="6.53786">
        <ele>766.002</ele>
        <time>2012-04-01T14:12:59Z</time>
      </trkpt>
      <trkpt lat="43.83989" lon="6.53742">
        <ele>760.826</ele>
        <time>2012-04-01T14:13:05Z</time>
      </trkpt>
      <trkpt lat="43.84006" lon="6.53691">
        <ele>756.635</ele>
        <time>2012-04-01T14:13:12Z</time>
      </trkpt>
      <trkpt lat="43.84023" lon="6.53653">
        <ele>752.344</ele>
        <time>2012-04-01T14:13:18Z</time>
      </trkpt>
      <trkpt lat="43.84051" lon="6.53602">
        <ele>749.054</ele>
        <time>2012-04-01T14:13:26Z</time>
      </trkpt>
      <trkpt lat="43.84068" lon="6.53573">
        <ele>750.768</ele>
        <time>2012-04-01T14:13:32Z</time>
      </trkpt>
      <trkpt lat="43.84086" lon="6.53542">
        <ele>750.89</ele>
        <time>2012-04-01T14:13:38Z</time>
      </trkpt>
      <trkpt lat="43.84106" lon="6.53505">
        <ele>749.58</ele>
        <time>2012-04-01T14:13:43Z</time>
      </trkpt>
      <trkpt lat="43.8412" lon="6.53476">
        <ele>749.532</ele>
        <time>2012-04-01T14:13:47Z</time>
      </trkpt>
      <trkpt lat="43.8413" lon="6.53448">
        <ele>748.66</ele>
        <time>2012-04-01T14:13:52Z</time>
      </trkpt>
      <trkpt lat="43.84131" lon="6.53443">
        <ele>750.122</ele>
        <time>2012-04-01T14:13:53Z</time>
      </trkpt>
      <trkpt lat="43.84138" lon="6.53424">
        <ele>748.228</ele>
        <time>2012-04-01T14:13:56Z</time>
      </trkpt>
      <trkpt lat="43.84151" lon="6.53401">
        <ele>747.178</ele>
        <time>2012-04-01T14:14:00Z</time>
      </trkpt>
      <trkpt lat="43.84169" lon="6.53363">
        <ele>749.511</ele>
        <time>2012-04-01T14:14:07Z</time>
      </trkpt>
      <trkpt lat="43.84181" lon="6.53336">
        <ele>749.64</ele>
        <time>2012-04-01T14:14:12Z</time>
      </trkpt>
      <trkpt lat="43.84194" lon="6.53301">
        <ele>749.298</ele>
        <time>2012-04-01T14:14:18Z</time>
      </trkpt>
      <trkpt lat="43.84195" lon="6.53295">
        <ele>748.958</ele>
        <time>2012-04-01T14:14:19Z</time>
      </trkpt>
      <trkpt lat="43.84197" lon="6.53281">
        <ele>747.233</ele>
        <time>2012-04-01T14:14:21Z</time>
      </trkpt>
      <trkpt lat="43.8419" lon="6.53253">
        <ele>744.676</ele>
        <time>2012-04-01T14:14:25Z</time>
      </trkpt>
      <trkpt lat="43.84163" lon="6.53209">
        <ele>739.402</ele>
        <time>2012-04-01T14:14:32Z</time>
      </trkpt>
      <trkpt lat="43.84142" lon="6.53171">
        <ele>737.127</ele>
        <time>2012-04-01T14:14:39Z</time>
      </trkpt>
      <trkpt lat="43.84124" lon="6.53136">
        <ele>736.437</ele>
        <time>2012-04-01T14:14:44Z</time>
      </trkpt>
      <trkpt lat="43.84116" lon="6.53095">
        <ele>736.649</ele>
        <time>2012-04-01T14:14:49Z</time>
      </trkpt>
      <trkpt lat="43.84117" lon="6.53061">
        <ele>736.368</ele>
        <time>2012-04-01T14:14:53Z</time>
      </trkpt>
      <trkpt lat="43.84132" lon="6.53023">
        <ele>737.6</ele>
        <time>2012-04-01T14:14:58Z</time>
      </trkpt>
      <trkpt lat="43.84134" lon="6.53005">
        <ele>736.269</ele>
        <time>2012-04-01T14:15:01Z</time>
      </trkpt>
      <trkpt lat="43.84129" lon="6.52964">
        <ele>736.138</ele>
        <time>2012-04-01T14:15:07Z</time>
      </trkpt>
      <trkpt lat="43.84126" lon="6.52898">
        <ele>733.644</ele>
        <time>2012-04-01T14:15:15Z</time>
      </trkpt>
      <trkpt lat="43.84126" lon="6.52889">
        <ele>733.714</ele>
        <time>2012-04-01T14:15:16Z</time>
      </trkpt>
      <trkpt lat="43.84129" lon="6.52864">
        <ele>732.424</ele>
        <time>2012-04-01T14:15:19Z</time>
      </trkpt>
      <trkpt lat="43.84145" lon="6.52815">
        <ele>729.656</ele>
        <time>2012-04-01T14:15:26Z</time>
      </trkpt>
      <trkpt lat="43.84155" lon="6.52786">
        <ele>727.034</ele>
        <time>2012-04-01T14:15:31Z</time>
      </trkpt>
      <trkpt lat="43.84158" lon="6.52774">
        <ele>726.343</ele>
        <time>2012-04-01T14:15:33Z</time>
      </trkpt>
      <trkpt lat="43.84159" lon="6.52731">
        <ele>724.243</ele>
        <time>2012-04-01T14:15:39Z</time>
      </trkpt>
      <trkpt lat="43.84159" lon="6.52723">
        <ele>724.643</ele>
        <time>2012-04-01T14:15:40Z</time>
      </trkpt>
      <trkpt lat="43.84164" lon="6.52682">
        <ele>725.104</ele>
        <time>2012-04-01T14:15:45Z</time>
      </trkpt>
      <trkpt lat="43.84167" lon="6.52644">
        <ele>727.159</ele>
        <time>2012-04-01T14:15:51Z</time>
      </trkpt>
      <trkpt lat="43.84174" lon="6.52632">
        <ele>725.718</ele>
        <time>2012-04-01T14:15:55Z</time>
      </trkpt>
      <trkpt lat="43.84191" lon="6.52634">
        <ele>729.032</ele>
        <time>2012-04-01T14:16:02Z</time>
      </trkpt>
      <trkpt lat="43.84194" lon="6.52634">
        <ele>729.151</ele>
        <time>2012-04-01T14:16:03Z</time>
      </trkpt>
      <trkpt lat="43.84195" lon="6.52631">
        <ele>731.252</ele>
        <time>2012-04-01T14:16:07Z</time>
      </trkpt>
      <trkpt lat="43.84194" lon="6.52632">
        <ele>730.299</ele>
        <time>2012-04-01T14:16:15Z</time>
      </trkpt>
      <trkpt lat="43.84186" lon="6.52635">
        <ele>724.837</ele>
        <time>2012-04-01T14:16:34Z</time>
      </trkpt>
      <trkpt lat="43.84183" lon="6.52635">
        <ele>725.224</ele>
        <time>2012-04-01T14:16:35Z</time>
      </trkpt>
      <trkpt lat="43.84166" lon="6.52644">
        <ele>727.621</ele>
        <time>2012-04-01T14:16:40Z</time>
      </trkpt>
      <trkpt lat="43.84167" lon="6.52669">
        <ele>732.126</ele>
        <time>2012-04-01T14:16:45Z</time>
      </trkpt>
      <trkpt lat="43.84165" lon="6.527">
        <ele>735.156</ele>
        <time>2012-04-01T14:16:50Z</time>
      </trkpt>
      <trkpt lat="43.84163" lon="6.52731">
        <ele>739.687</ele>
        <time>2012-04-01T14:16:56Z</time>
      </trkpt>
      <trkpt lat="43.84164" lon="6.52761">
        <ele>739.193</ele>
        <time>2012-04-01T14:17:02Z</time>
      </trkpt>
      <trkpt lat="43.8416" lon="6.52786">
        <ele>738.559</ele>
        <time>2012-04-01T14:17:08Z</time>
      </trkpt>
      <trkpt lat="43.84153" lon="6.52807">
        <ele>735.237</ele>
        <time>2012-04-01T14:17:15Z</time>
      </trkpt>
      <trkpt lat="43.84143" lon="6.52835">
        <ele>734.668</ele>
        <time>2012-04-01T14:17:20Z</time>
      </trkpt>
      <trkpt lat="43.84134" lon="6.5287">
        <ele>733.778</ele>
        <time>2012-04-01T14:17:25Z</time>
      </trkpt>
      <trkpt lat="43.84132" lon="6.52881">
        <ele>734.81</ele>
        <time>2012-04-01T14:17:27Z</time>
      </trkpt>
      <trkpt lat="43.84134" lon="6.52921">
        <ele>739.854</ele>
        <time>2012-04-01T14:17:34Z</time>
      </trkpt>
      <trkpt lat="43.84138" lon="6.52945">
        <ele>744.758</ele>
        <time>2012-04-01T14:17:39Z</time>
      </trkpt>
      <trkpt lat="43.84138" lon="6.52974">
        <ele>743.983</ele>
        <time>2012-04-01T14:17:44Z</time>
      </trkpt>
      <trkpt lat="43.8414" lon="6.53002">
        <ele>741.43</ele>
        <time>2012-04-01T14:17:50Z</time>
      </trkpt>
      <trkpt lat="43.8414" lon="6.53018">
        <ele>741.679</ele>
        <time>2012-04-01T14:17:54Z</time>
      </trkpt>
      <trkpt lat="43.84131" lon="6.5304">
        <ele>740.179</ele>
        <time>2012-04-01T14:17:59Z</time>
      </trkpt>
      <trkpt lat="43.84126" lon="6.53072">
        <ele>736.507</ele>
        <time>2012-04-01T14:18:05Z</time>
      </trkpt>
      <trkpt lat="43.84125" lon="6.53093">
        <ele>736.837</ele>
        <time>2012-04-01T14:18:10Z</time>
      </trkpt>
      <trkpt lat="43.84126" lon="6.53115">
        <ele>737.979</ele>
        <time>2012-04-01T14:18:15Z</time>
      </trkpt>
      <trkpt lat="43.84133" lon="6.53138">
        <ele>737.71</ele>
        <time>2012-04-01T14:18:20Z</time>
      </trkpt>
      <trkpt lat="43.84145" lon="6.53164">
        <ele>740.221</ele>
        <time>2012-04-01T14:18:27Z</time>
      </trkpt>
      <trkpt lat="43.84158" lon="6.53192">
        <ele>742.542</ele>
        <time>2012-04-01T14:18:35Z</time>
      </trkpt>
      <trkpt lat="43.84168" lon="6.53212">
        <ele>752.47</ele>
        <time>2012-04-01T14:18:42Z</time>
      </trkpt>
      <trkpt lat="43.84168" lon="6.53215">
        <ele>753.5</ele>
        <time>2012-04-01T14:18:43Z</time>
      </trkpt>
      <trkpt lat="43.84167" lon="6.53223">
        <ele>757.191</ele>
        <time>2012-04-01T14:18:47Z</time>
      </trkpt>
      <trkpt lat="43.84171" lon="6.53243">
        <ele>756.014</ele>
        <time>2012-04-01T14:18:55Z</time>
      </trkpt>
      <trkpt lat="43.84172" lon="6.53252">
        <ele>756.404</ele>
        <time>2012-04-01T14:19:00Z</time>
      </trkpt>
      <trkpt lat="43.84172" lon="6.53255">
        <ele>753.83</ele>
        <time>2012-04-01T14:19:06Z</time>
      </trkpt>
      <trkpt lat="43.84171" lon="6.53256">
        <ele>750.487</ele>
        <time>2012-04-01T14:19:11Z</time>
      </trkpt>
      <trkpt lat="43.84164" lon="6.53266">
        <ele>750.499</ele>
        <time>2012-04-01T14:19:17Z</time>
      </trkpt>
      <trkpt lat="43.84153" lon="6.53269">
        <ele>748.669</ele>
        <time>2012-04-01T14:19:23Z</time>
      </trkpt>
      <trkpt lat="43.84149" lon="6.53267">
        <ele>748.239</ele>
        <time>2012-04-01T14:19:25Z</time>
      </trkpt>
      <trkpt lat="43.8414" lon="6.53254">
        <ele>747.489</ele>
        <time>2012-04-01T14:19:31Z</time>
      </trkpt>
      <trkpt lat="43.84135" lon="6.53235">
        <ele>746.8</ele>
        <time>2012-04-01T14:19:38Z</time>
      </trkpt>
      <trkpt lat="43.84122" lon="6.53223">
        <ele>746.901</ele>
        <time>2012-04-01T14:19:46Z</time>
      </trkpt>
      <trkpt lat="43.84111" lon="6.53225">
        <ele>746.462</ele>
        <time>2012-04-01T14:19:52Z</time>
      </trkpt>
      <trkpt lat="43.84097" lon="6.53232">
        <ele>744.931</ele>
        <time>2012-04-01T14:20:00Z</time>
      </trkpt>
      <trkpt lat="43.84088" lon="6.53225">
        <ele>745.672</ele>
        <time>2012-04-01T14:20:06Z</time>
      </trkpt>
      <trkpt lat="43.84087" lon="6.53206">
        <ele>750.273</ele>
        <time>2012-04-01T14:20:14Z</time>
      </trkpt>
      <trkpt lat="43.84083" lon="6.53186">
        <ele>753.743</ele>
        <time>2012-04-01T14:20:22Z</time>
      </trkpt>
      <trkpt lat="43.84079" lon="6.53164">
        <ele>756.924</ele>
        <time>2012-04-01T14:20:31Z</time>
      </trkpt>
      <trkpt lat="43.84079" lon="6.53147">
        <ele>757.862</ele>
        <time>2012-04-01T14:20:38Z</time>
      </trkpt>
      <trkpt lat="43.8408" lon="6.53125">
        <ele>760.283</ele>
        <time>2012-04-01T14:20:47Z</time>
      </trkpt>
      <trkpt lat="43.84074" lon="6.53104">
        <ele>761.242</ele>
        <time>2012-04-01T14:20:56Z</time>
      </trkpt>
      <trkpt lat="43.84066" lon="6.53088">
        <ele>764.846</ele>
        <time>2012-04-01T14:21:05Z</time>
      </trkpt>
      <trkpt lat="43.8406" lon="6.53072">
        <ele>766.635</ele>
        <time>2012-04-01T14:21:13Z</time>
      </trkpt>
      <trkpt lat="43.84055" lon="6.53052">
        <ele>767.403</ele>
        <time>2012-04-01T14:21:22Z</time>
      </trkpt>
      <trkpt lat="43.84048" lon="6.53033">
        <ele>768.523</ele>
        <time>2012-04-01T14:21:31Z</time>
      </trkpt>
      <trkpt lat="43.84038" lon="6.53017">
        <ele>767.33</ele>
        <time>2012-04-01T14:21:39Z</time>
      </trkpt>
      <trkpt lat="43.84033" lon="6.53004">
        <ele>767.751</ele>
        <time>2012-04-01T14:21:46Z</time>
      </trkpt>
      <trkpt lat="43.84033" lon="6.5299">
        <ele>770.413</ele>
        <time>2012-04-01T14:21:53Z</time>
      </trkpt>
      <trkpt lat="43.84034" lon="6.52971">
        <ele>771.532</ele>
        <time>2012-04-01T14:22:01Z</time>
      </trkpt>
      <trkpt lat="43.84032" lon="6.52952">
        <ele>772.862</ele>
        <time>2012-04-01T14:22:10Z</time>
      </trkpt>
      <trkpt lat="43.84029" lon="6.52938">
        <ele>775.664</ele>
        <time>2012-04-01T14:22:18Z</time>
      </trkpt>
      <trkpt lat="43.84025" lon="6.52926">
        <ele>778.085</ele>
        <time>2012-04-01T14:22:25Z</time>
      </trkpt>
      <trkpt lat="43.8402" lon="6.52913">
        <ele>780.284</ele>
        <time>2012-04-01T14:22:32Z</time>
      </trkpt>
      <trkpt lat="43.84011" lon="6.52895">
        <ele>779.081</ele>
        <time>2012-04-01T14:22:41Z</time>
      </trkpt>
      <trkpt lat="43.84005" lon="6.52878">
        <ele>779.411</ele>
        <time>2012-04-01T14:22:49Z</time>
      </trkpt>
      <trkpt lat="43.84005" lon="6.52859">
        <ele>782.323</ele>
        <time>2012-04-01T14:22:58Z</time>
      </trkpt>
      <trkpt lat="43.84005" lon="6.52829">
        <ele>783.29</ele>
        <time>2012-04-01T14:23:11Z</time>
      </trkpt>
      <trkpt lat="43.84002" lon="6.52808">
        <ele>782.136</ele>
        <time>2012-04-01T14:23:20Z</time>
      </trkpt>
      <trkpt lat="43.84002" lon="6.52785">
        <ele>779.346</ele>
        <time>2012-04-01T14:23:30Z</time>
      </trkpt>
      <trkpt lat="43.84005" lon="6.52767">
        <ele>776.334</ele>
        <time>2012-04-01T14:23:37Z</time>
      </trkpt>
      <trkpt lat="43.84005" lon="6.52764">
        <ele>775.863</ele>
        <time>2012-04-01T14:23:38Z</time>
      </trkpt>
      <trkpt lat="43.83995" lon="6.5276">
        <ele>782.631</ele>
        <time>2012-04-01T14:23:45Z</time>
      </trkpt>
      <trkpt lat="43.8399" lon="6.52768">
        <ele>784.251</ele>
        <time>2012-04-01T14:23:49Z</time>
      </trkpt>
      <trkpt lat="43.83989" lon="6.52794">
        <ele>787.612</ele>
        <time>2012-04-01T14:23:57Z</time>
      </trkpt>
      <trkpt lat="43.83987" lon="6.52823">
        <ele>790.654</ele>
        <time>2012-04-01T14:24:06Z</time>
      </trkpt>
      <trkpt lat="43.83982" lon="6.52845">
        <ele>794.835</ele>
        <time>2012-04-01T14:24:13Z</time>
      </trkpt>
      <trkpt lat="43.83973" lon="6.52865">
        <ele>796.083</ele>
        <time>2012-04-01T14:24:21Z</time>
      </trkpt>
      <trkpt lat="43.83968" lon="6.52879">
        <ele>799.846</ele>
        <time>2012-04-01T14:24:28Z</time>
      </trkpt>
      <trkpt lat="43.83968" lon="6.52896">
        <ele>802.136</ele>
        <time>2012-04-01T14:24:35Z</time>
      </trkpt>
      <trkpt lat="43.83971" lon="6.52922">
        <ele>805.596</ele>
        <time>2012-04-01T14:24:46Z</time>
      </trkpt>
      <trkpt lat="43.83975" lon="6.52943">
        <ele>805.366</ele>
        <time>2012-04-01T14:24:55Z</time>
      </trkpt>
      <trkpt lat="43.83974" lon="6.52968">
        <ele>807.236</ele>
        <time>2012-04-01T14:25:05Z</time>
      </trkpt>
      <trkpt lat="43.83971" lon="6.52985">
        <ele>807.533</ele>
        <time>2012-04-01T14:25:12Z</time>
      </trkpt>
      <trkpt lat="43.83964" lon="6.53002">
        <ele>806.821</ele>
        <time>2012-04-01T14:25:20Z</time>
      </trkpt>
      <trkpt lat="43.8396" lon="6.5302">
        <ele>808.553</ele>
        <time>2012-04-01T14:25:27Z</time>
      </trkpt>
      <trkpt lat="43.83959" lon="6.53046">
        <ele>812.267</ele>
        <time>2012-04-01T14:25:37Z</time>
      </trkpt>
      <trkpt lat="43.83958" lon="6.53067">
        <ele>813.565</ele>
        <time>2012-04-01T14:25:45Z</time>
      </trkpt>
      <trkpt lat="43.8396" lon="6.53089">
        <ele>815.085</ele>
        <time>2012-04-01T14:25:54Z</time>
      </trkpt>
      <trkpt lat="43.83964" lon="6.53114">
        <ele>816.896</ele>
        <time>2012-04-01T14:26:05Z</time>
      </trkpt>
      <trkpt lat="43.8397" lon="6.53133">
        <ele>817.694</ele>
        <time>2012-04-01T14:26:13Z</time>
      </trkpt>
      <trkpt lat="43.83974" lon="6.5315">
        <ele>817.894</ele>
        <time>2012-04-01T14:26:21Z</time>
      </trkpt>
      <trkpt lat="43.83978" lon="6.53169">
        <ele>818.574</ele>
        <time>2012-04-01T14:26:29Z</time>
      </trkpt>
      <trkpt lat="43.83978" lon="6.53172">
        <ele>818.864</ele>
        <time>2012-04-01T14:26:30Z</time>
      </trkpt>
      <trkpt lat="43.83971" lon="6.53186">
        <ele>820.214</ele>
        <time>2012-04-01T14:26:38Z</time>
      </trkpt>
      <trkpt lat="43.83953" lon="6.53201">
        <ele>819.441</ele>
        <time>2012-04-01T14:26:50Z</time>
      </trkpt>
      <trkpt lat="43.83935" lon="6.53206">
        <ele>822.081</ele>
        <time>2012-04-01T14:27:00Z</time>
      </trkpt>
      <trkpt lat="43.83917" lon="6.53212">
        <ele>816.176</ele>
        <time>2012-04-01T14:27:09Z</time>
      </trkpt>
      <trkpt lat="43.83904" lon="6.53216">
        <ele>815.487</ele>
        <time>2012-04-01T14:27:16Z</time>
      </trkpt>
      <trkpt lat="43.83892" lon="6.53221">
        <ele>816.478</ele>
        <time>2012-04-01T14:27:23Z</time>
      </trkpt>
      <trkpt lat="43.83883" lon="6.53232">
        <ele>817.768</ele>
        <time>2012-04-01T14:27:30Z</time>
      </trkpt>
      <trkpt lat="43.83882" lon="6.5325">
        <ele>817.24</ele>
        <time>2012-04-01T14:27:37Z</time>
      </trkpt>
      <trkpt lat="43.83884" lon="6.53271">
        <ele>818.814</ele>
        <time>2012-04-01T14:27:46Z</time>
      </trkpt>
      <trkpt lat="43.83888" lon="6.53287">
        <ele>820.855</ele>
        <time>2012-04-01T14:27:53Z</time>
      </trkpt>
      <trkpt lat="43.83886" lon="6.53302">
        <ele>822.084</ele>
        <time>2012-04-01T14:27:59Z</time>
      </trkpt>
      <trkpt lat="43.83876" lon="6.53319">
        <ele>823.552</ele>
        <time>2012-04-01T14:28:08Z</time>
      </trkpt>
      <trkpt lat="43.83867" lon="6.53333">
        <ele>826.213</ele>
        <time>2012-04-01T14:28:16Z</time>
      </trkpt>
      <trkpt lat="43.83853" lon="6.53348">
        <ele>825.38</ele>
        <time>2012-04-01T14:28:26Z</time>
      </trkpt>
      <trkpt lat="43.8384" lon="6.5336">
        <ele>825.511</ele>
        <time>2012-04-01T14:28:35Z</time>
      </trkpt>
      <trkpt lat="43.83833" lon="6.53372">
        <ele>826.542</ele>
        <time>2012-04-01T14:28:42Z</time>
      </trkpt>
      <trkpt lat="43.83835" lon="6.53389">
        <ele>828.173</ele>
        <time>2012-04-01T14:28:49Z</time>
      </trkpt>
      <trkpt lat="43.83839" lon="6.53406">
        <ele>830.495</ele>
        <time>2012-04-01T14:28:57Z</time>
      </trkpt>
      <trkpt lat="43.83842" lon="6.53428">
        <ele>831.953</ele>
        <time>2012-04-01T14:29:06Z</time>
      </trkpt>
      <trkpt lat="43.83847" lon="6.53438">
        <ele>833.773</ele>
        <time>2012-04-01T14:29:12Z</time>
      </trkpt>
      <trkpt lat="43.83847" lon="6.53446">
        <ele>834.272</ele>
        <time>2012-04-01T14:29:15Z</time>
      </trkpt>
      <trkpt lat="43.83838" lon="6.53451">
        <ele>833.329</ele>
        <time>2012-04-01T14:29:21Z</time>
      </trkpt>
      <trkpt lat="43.83832" lon="6.53444">
        <ele>832.099</ele>
        <time>2012-04-01T14:29:25Z</time>
      </trkpt>
      <trkpt lat="43.83827" lon="6.53425">
        <ele>831.889</ele>
        <time>2012-04-01T14:29:33Z</time>
      </trkpt>
      <trkpt lat="43.83822" lon="6.534">
        <ele>834.581</ele>
        <time>2012-04-01T14:29:43Z</time>
      </trkpt>
      <trkpt lat="43.83812" lon="6.53383">
        <ele>835.75</ele>
        <time>2012-04-01T14:29:52Z</time>
      </trkpt>
      <trkpt lat="43.83807" lon="6.53366">
        <ele>839.252</ele>
        <time>2012-04-01T14:30:00Z</time>
      </trkpt>
      <trkpt lat="43.83813" lon="6.53351">
        <ele>841.652</ele>
        <time>2012-04-01T14:30:07Z</time>
      </trkpt>
      <trkpt lat="43.83826" lon="6.53332">
        <ele>845.052</ele>
        <time>2012-04-01T14:30:17Z</time>
      </trkpt>
      <trkpt lat="43.83836" lon="6.53317">
        <ele>847.513</ele>
        <time>2012-04-01T14:30:25Z</time>
      </trkpt>
      <trkpt lat="43.83843" lon="6.53299">
        <ele>847.02</ele>
        <time>2012-04-01T14:30:33Z</time>
      </trkpt>
      <trkpt lat="43.83841" lon="6.53282">
        <ele>847.381</ele>
        <time>2012-04-01T14:30:40Z</time>
      </trkpt>
      <trkpt lat="43.83836" lon="6.53266">
        <ele>849.562</ele>
        <time>2012-04-01T14:30:48Z</time>
      </trkpt>
      <trkpt lat="43.83832" lon="6.53247">
        <ele>851.051</ele>
        <time>2012-04-01T14:30:57Z</time>
      </trkpt>
      <trkpt lat="43.83827" lon="6.53234">
        <ele>852.141</ele>
        <time>2012-04-01T14:31:03Z</time>
      </trkpt>
      <trkpt lat="43.83819" lon="6.53222">
        <ele>852.632</ele>
        <time>2012-04-01T14:31:10Z</time>
      </trkpt>
      <trkpt lat="43.83807" lon="6.5321">
        <ele>851.298</ele>
        <time>2012-04-01T14:31:19Z</time>
      </trkpt>
      <trkpt lat="43.83802" lon="6.53199">
        <ele>851.772</ele>
        <time>2012-04-01T14:31:25Z</time>
      </trkpt>
      <trkpt lat="43.83807" lon="6.53184">
        <ele>854.863</ele>
        <time>2012-04-01T14:31:33Z</time>
      </trkpt>
      <trkpt lat="43.83817" lon="6.53177">
        <ele>859.136</ele>
        <time>2012-04-01T14:31:39Z</time>
      </trkpt>
      <trkpt lat="43.83819" lon="6.53176">
        <ele>859.916</ele>
        <time>2012-04-01T14:31:40Z</time>
      </trkpt>
      <trkpt lat="43.83831" lon="6.53163">
        <ele>862.154</ele>
        <time>2012-04-01T14:31:48Z</time>
      </trkpt>
      <trkpt lat="43.83842" lon="6.53153">
        <ele>861.111</ele>
        <time>2012-04-01T14:31:55Z</time>
      </trkpt>
      <trkpt lat="43.83854" lon="6.53145">
        <ele>862.162</ele>
        <time>2012-04-01T14:32:03Z</time>
      </trkpt>
      <trkpt lat="43.83862" lon="6.5314">
        <ele>862.942</ele>
        <time>2012-04-01T14:32:09Z</time>
      </trkpt>
      <trkpt lat="43.83872" lon="6.53128">
        <ele>863.902</ele>
        <time>2012-04-01T14:32:17Z</time>
      </trkpt>
      <trkpt lat="43.83874" lon="6.53121">
        <ele>863.971</ele>
        <time>2012-04-01T14:32:20Z</time>
      </trkpt>
      <trkpt lat="43.83867" lon="6.53106">
        <ele>864.781</ele>
        <time>2012-04-01T14:32:29Z</time>
      </trkpt>
      <trkpt lat="43.83859" lon="6.53096">
        <ele>864.409</ele>
        <time>2012-04-01T14:32:36Z</time>
      </trkpt>
      <trkpt lat="43.8385" lon="6.53078">
        <ele>865.13</ele>
        <time>2012-04-01T14:32:46Z</time>
      </trkpt>
      <trkpt lat="43.83842" lon="6.53064">
        <ele>866.24</ele>
        <time>2012-04-01T14:32:55Z</time>
      </trkpt>
      <trkpt lat="43.83832" lon="6.53049">
        <ele>864.588</ele>
        <time>2012-04-01T14:33:04Z</time>
      </trkpt>
      <trkpt lat="43.8382" lon="6.53035">
        <ele>862.907</ele>
        <time>2012-04-01T14:33:14Z</time>
      </trkpt>
      <trkpt lat="43.83809" lon="6.53023">
        <ele>862.837</ele>
        <time>2012-04-01T14:33:23Z</time>
      </trkpt>
      <trkpt lat="43.83799" lon="6.5301">
        <ele>863.959</ele>
        <time>2012-04-01T14:33:32Z</time>
      </trkpt>
      <trkpt lat="43.83795" lon="6.52998">
        <ele>867.261</ele>
        <time>2012-04-01T14:33:39Z</time>
      </trkpt>
      <trkpt lat="43.83792" lon="6.52982">
        <ele>874.145</ele>
        <time>2012-04-01T14:33:47Z</time>
      </trkpt>
      <trkpt lat="43.83791" lon="6.52979">
        <ele>875.765</ele>
        <time>2012-04-01T14:33:49Z</time>
      </trkpt>
      <trkpt lat="43.83792" lon="6.52966">
        <ele>879.082</ele>
        <time>2012-04-01T14:33:54Z</time>
      </trkpt>
      <trkpt lat="43.83787" lon="6.52957">
        <ele>879.701</ele>
        <time>2012-04-01T14:34:00Z</time>
      </trkpt>
      <trkpt lat="43.83781" lon="6.52962">
        <ele>879.7</ele>
        <time>2012-04-01T14:34:05Z</time>
      </trkpt>
      <trkpt lat="43.83782" lon="6.52964">
        <ele>880.339</ele>
        <time>2012-04-01T14:34:10Z</time>
      </trkpt>
      <trkpt lat="43.83784" lon="6.52964">
        <ele>876.005</ele>
        <time>2012-04-01T14:34:46Z</time>
      </trkpt>
      <trkpt lat="43.83784" lon="6.52962">
        <ele>872.608</ele>
        <time>2012-04-01T14:36:48Z</time>
      </trkpt>
      <trkpt lat="43.83783" lon="6.52971">
        <ele>870.629</ele>
        <time>2012-04-01T14:37:15Z</time>
      </trkpt>
      <trkpt lat="43.83787" lon="6.52986">
        <ele>871.089</ele>
        <time>2012-04-01T14:37:21Z</time>
      </trkpt>
      <trkpt lat="43.83795" lon="6.53005">
        <ele>872.23</ele>
        <time>2012-04-01T14:37:29Z</time>
      </trkpt>
      <trkpt lat="43.83802" lon="6.53022">
        <ele>876.042</ele>
        <time>2012-04-01T14:37:37Z</time>
      </trkpt>
      <trkpt lat="43.83811" lon="6.5304">
        <ele>879.904</ele>
        <time>2012-04-01T14:37:46Z</time>
      </trkpt>
      <trkpt lat="43.83819" lon="6.53055">
        <ele>882.573</ele>
        <time>2012-04-01T14:37:54Z</time>
      </trkpt>
      <trkpt lat="43.83827" lon="6.53073">
        <ele>884.853</ele>
        <time>2012-04-01T14:38:02Z</time>
      </trkpt>
      <trkpt lat="43.8383" lon="6.53097">
        <ele>886.352</ele>
        <time>2012-04-01T14:38:11Z</time>
      </trkpt>
      <trkpt lat="43.83822" lon="6.53109">
        <ele>886.721</ele>
        <time>2012-04-01T14:38:18Z</time>
      </trkpt>
      <trkpt lat="43.83815" lon="6.53113">
        <ele>885.038</ele>
        <time>2012-04-01T14:38:23Z</time>
      </trkpt>
      <trkpt lat="43.83813" lon="6.53114">
        <ele>884.437</ele>
        <time>2012-04-01T14:38:24Z</time>
      </trkpt>
      <trkpt lat="43.83799" lon="6.53125">
        <ele>883.72</ele>
        <time>2012-04-01T14:38:34Z</time>
      </trkpt>
      <trkpt lat="43.83788" lon="6.5313">
        <ele>886.368</ele>
        <time>2012-04-01T14:38:42Z</time>
      </trkpt>
      <trkpt lat="43.83775" lon="6.53137">
        <ele>890.884</ele>
        <time>2012-04-01T14:38:50Z</time>
      </trkpt>
      <trkpt lat="43.83762" lon="6.53145">
        <ele>893.523</ele>
        <time>2012-04-01T14:38:58Z</time>
      </trkpt>
      <trkpt lat="43.83747" lon="6.53154">
        <ele>890.329</ele>
        <time>2012-04-01T14:39:07Z</time>
      </trkpt>
      <trkpt lat="43.83737" lon="6.53164">
        <ele>889.939</ele>
        <time>2012-04-01T14:39:14Z</time>
      </trkpt>
      <trkpt lat="43.83726" lon="6.53178">
        <ele>890.571</ele>
        <time>2012-04-01T14:39:22Z</time>
      </trkpt>
      <trkpt lat="43.83725" lon="6.53193">
        <ele>895.436</ele>
        <time>2012-04-01T14:39:28Z</time>
      </trkpt>
      <trkpt lat="43.83731" lon="6.53207">
        <ele>900.206</ele>
        <time>2012-04-01T14:39:36Z</time>
      </trkpt>
      <trkpt lat="43.83736" lon="6.53227">
        <ele>902.522</ele>
        <time>2012-04-01T14:39:45Z</time>
      </trkpt>
      <trkpt lat="43.8374" lon="6.53246">
        <ele>903.873</ele>
        <time>2012-04-01T14:39:54Z</time>
      </trkpt>
      <trkpt lat="43.83741" lon="6.53263">
        <ele>906.023</ele>
        <time>2012-04-01T14:40:02Z</time>
      </trkpt>
      <trkpt lat="43.83739" lon="6.53278">
        <ele>907.002</ele>
        <time>2012-04-01T14:40:09Z</time>
      </trkpt>
      <trkpt lat="43.83729" lon="6.53289">
        <ele>906.781</ele>
        <time>2012-04-01T14:40:17Z</time>
      </trkpt>
      <trkpt lat="43.83719" lon="6.53302">
        <ele>906.251</ele>
        <time>2012-04-01T14:40:26Z</time>
      </trkpt>
      <trkpt lat="43.83711" lon="6.53314">
        <ele>905.481</ele>
        <time>2012-04-01T14:40:35Z</time>
      </trkpt>
      <trkpt lat="43.837" lon="6.53333">
        <ele>906.371</ele>
        <time>2012-04-01T14:40:47Z</time>
      </trkpt>
      <trkpt lat="43.83691" lon="6.53348">
        <ele>908.874</ele>
        <time>2012-04-01T14:40:57Z</time>
      </trkpt>
      <trkpt lat="43.83684" lon="6.53364">
        <ele>911.863</ele>
        <time>2012-04-01T14:41:05Z</time>
      </trkpt>
      <trkpt lat="43.83684" lon="6.53378">
        <ele>914.862</ele>
        <time>2012-04-01T14:41:13Z</time>
      </trkpt>
      <trkpt lat="43.8369" lon="6.53396">
        <ele>920.067</ele>
        <time>2012-04-01T14:41:23Z</time>
      </trkpt>
      <trkpt lat="43.83692" lon="6.534">
        <ele>920.886</ele>
        <time>2012-04-01T14:41:25Z</time>
      </trkpt>
      <trkpt lat="43.83693" lon="6.5341">
        <ele>923.956</ele>
        <time>2012-04-01T14:41:31Z</time>
      </trkpt>
      <trkpt lat="43.83694" lon="6.53422">
        <ele>927.394</ele>
        <time>2012-04-01T14:41:38Z</time>
      </trkpt>
      <trkpt lat="43.83693" lon="6.53431">
        <ele>929.824</ele>
        <time>2012-04-01T14:41:43Z</time>
      </trkpt>
      <trkpt lat="43.83692" lon="6.53448">
        <ele>933.064</ele>
        <time>2012-04-01T14:41:52Z</time>
      </trkpt>
      <trkpt lat="43.83691" lon="6.53462">
        <ele>933.932</ele>
        <time>2012-04-01T14:41:59Z</time>
      </trkpt>
      <trkpt lat="43.83688" lon="6.53481">
        <ele>936.033</ele>
        <time>2012-04-01T14:42:08Z</time>
      </trkpt>
      <trkpt lat="43.83685" lon="6.53491">
        <ele>937.073</ele>
        <time>2012-04-01T14:42:13Z</time>
      </trkpt>
      <trkpt lat="43.83681" lon="6.535">
        <ele>937.512</ele>
        <time>2012-04-01T14:42:18Z</time>
      </trkpt>
      <trkpt lat="43.83672" lon="6.53512">
        <ele>936.851</ele>
        <time>2012-04-01T14:42:26Z</time>
      </trkpt>
      <trkpt lat="43.83662" lon="6.53522">
        <ele>935.221</ele>
        <time>2012-04-01T14:42:34Z</time>
      </trkpt>
      <trkpt lat="43.83651" lon="6.53532">
        <ele>933.399</ele>
        <time>2012-04-01T14:42:43Z</time>
      </trkpt>
      <trkpt lat="43.83641" lon="6.53539">
        <ele>931.491</ele>
        <time>2012-04-01T14:42:50Z</time>
      </trkpt>
      <trkpt lat="43.83628" lon="6.53549">
        <ele>929.458</ele>
        <time>2012-04-01T14:42:59Z</time>
      </trkpt>
      <trkpt lat="43.83618" lon="6.53555">
        <ele>927.81</ele>
        <time>2012-04-01T14:43:06Z</time>
      </trkpt>
      <trkpt lat="43.8361" lon="6.5356">
        <ele>928.331</ele>
        <time>2012-04-01T14:43:13Z</time>
      </trkpt>
      <trkpt lat="43.83598" lon="6.53562">
        <ele>927.7</ele>
        <time>2012-04-01T14:43:20Z</time>
      </trkpt>
      <trkpt lat="43.83588" lon="6.53569">
        <ele>928.022</ele>
        <time>2012-04-01T14:43:27Z</time>
      </trkpt>
      <trkpt lat="43.83579" lon="6.53576">
        <ele>927.871</ele>
        <time>2012-04-01T14:43:34Z</time>
      </trkpt>
      <trkpt lat="43.83568" lon="6.53583">
        <ele>928.612</ele>
        <time>2012-04-01T14:43:42Z</time>
      </trkpt>
      <trkpt lat="43.83555" lon="6.53588">
        <ele>931.693</ele>
        <time>2012-04-01T14:43:52Z</time>
      </trkpt>
      <trkpt lat="43.83544" lon="6.53591">
        <ele>936.424</ele>
        <time>2012-04-01T14:44:00Z</time>
      </trkpt>
      <trkpt lat="43.83534" lon="6.53591">
        <ele>939.303</ele>
        <time>2012-04-01T14:44:07Z</time>
      </trkpt>
      <trkpt lat="43.83523" lon="6.53591">
        <ele>942.904</ele>
        <time>2012-04-01T14:44:15Z</time>
      </trkpt>
      <trkpt lat="43.83511" lon="6.53588">
        <ele>944.32</ele>
        <time>2012-04-01T14:44:22Z</time>
      </trkpt>
      <trkpt lat="43.83498" lon="6.53586">
        <ele>943.459</ele>
        <time>2012-04-01T14:44:29Z</time>
      </trkpt>
      <trkpt lat="43.83486" lon="6.53589">
        <ele>947.922</ele>
        <time>2012-04-01T14:44:37Z</time>
      </trkpt>
      <trkpt lat="43.83479" lon="6.53599">
        <ele>948.542</ele>
        <time>2012-04-01T14:44:44Z</time>
      </trkpt>
      <trkpt lat="43.83471" lon="6.53609">
        <ele>948.111</ele>
        <time>2012-04-01T14:44:51Z</time>
      </trkpt>
      <trkpt lat="43.83465" lon="6.53615">
        <ele>948.06</ele>
        <time>2012-04-01T14:44:57Z</time>
      </trkpt>
      <trkpt lat="43.83454" lon="6.53625">
        <ele>953.264</ele>
        <time>2012-04-01T14:45:06Z</time>
      </trkpt>
      <trkpt lat="43.83445" lon="6.53633">
        <ele>952.241</ele>
        <time>2012-04-01T14:45:14Z</time>
      </trkpt>
      <trkpt lat="43.83436" lon="6.53646">
        <ele>954.705</ele>
        <time>2012-04-01T14:45:23Z</time>
      </trkpt>
      <trkpt lat="43.83425" lon="6.53656">
        <ele>958.066</ele>
        <time>2012-04-01T14:45:31Z</time>
      </trkpt>
      <trkpt lat="43.83416" lon="6.53667">
        <ele>962.267</ele>
        <time>2012-04-01T14:45:39Z</time>
      </trkpt>
      <trkpt lat="43.83408" lon="6.53677">
        <ele>968.388</ele>
        <time>2012-04-01T14:45:46Z</time>
      </trkpt>
      <trkpt lat="43.834" lon="6.53687">
        <ele>969.645</ele>
        <time>2012-04-01T14:45:53Z</time>
      </trkpt>
      <trkpt lat="43.83391" lon="6.53699">
        <ele>971.773</ele>
        <time>2012-04-01T14:46:01Z</time>
      </trkpt>
      <trkpt lat="43.83382" lon="6.53708">
        <ele>971.859</ele>
        <time>2012-04-01T14:46:08Z</time>
      </trkpt>
      <trkpt lat="43.83375" lon="6.53725">
        <ele>974.06</ele>
        <time>2012-04-01T14:46:18Z</time>
      </trkpt>
      <trkpt lat="43.83372" lon="6.53732">
        <ele>973.038</ele>
        <time>2012-04-01T14:46:22Z</time>
      </trkpt>
      <trkpt lat="43.83366" lon="6.53752">
        <ele>970.758</ele>
        <time>2012-04-01T14:46:31Z</time>
      </trkpt>
      <trkpt lat="43.83361" lon="6.53766">
        <ele>967.385</ele>
        <time>2012-04-01T14:46:38Z</time>
      </trkpt>
      <trkpt lat="43.8336" lon="6.5377">
        <ele>966.304</ele>
        <time>2012-04-01T14:46:40Z</time>
      </trkpt>
      <trkpt lat="43.83352" lon="6.53766">
        <ele>965.147</ele>
        <time>2012-04-01T14:46:46Z</time>
      </trkpt>
      <trkpt lat="43.83355" lon="6.53752">
        <ele>967.141</ele>
        <time>2012-04-01T14:46:52Z</time>
      </trkpt>
      <trkpt lat="43.83365" lon="6.53733">
        <ele>970.985</ele>
        <time>2012-04-01T14:47:02Z</time>
      </trkpt>
      <trkpt lat="43.83375" lon="6.53716">
        <ele>972.842</ele>
        <time>2012-04-01T14:47:09Z</time>
      </trkpt>
      <trkpt lat="43.83379" lon="6.53705">
        <ele>975.734</ele>
        <time>2012-04-01T14:47:14Z</time>
      </trkpt>
      <trkpt lat="43.83384" lon="6.53688">
        <ele>977.075</ele>
        <time>2012-04-01T14:47:21Z</time>
      </trkpt>
      <trkpt lat="43.83387" lon="6.53678">
        <ele>980.928</ele>
        <time>2012-04-01T14:47:26Z</time>
      </trkpt>
      <trkpt lat="43.83392" lon="6.53664">
        <ele>981.654</ele>
        <time>2012-04-01T14:47:32Z</time>
      </trkpt>
      <trkpt lat="43.83396" lon="6.53652">
        <ele>982.624</ele>
        <time>2012-04-01T14:47:38Z</time>
      </trkpt>
      <trkpt lat="43.834" lon="6.53638">
        <ele>982.342</ele>
        <time>2012-04-01T14:47:45Z</time>
      </trkpt>
      <trkpt lat="43.83411" lon="6.53624">
        <ele>984.043</ele>
        <time>2012-04-01T14:47:53Z</time>
      </trkpt>
      <trkpt lat="43.83411" lon="6.53623">
        <ele>984.322</ele>
        <time>2012-04-01T14:47:54Z</time>
      </trkpt>
      <trkpt lat="43.83415" lon="6.53608">
        <ele>982.889</ele>
        <time>2012-04-01T14:48:01Z</time>
      </trkpt>
      <trkpt lat="43.83421" lon="6.53598">
        <ele>983.069</ele>
        <time>2012-04-01T14:48:07Z</time>
      </trkpt>
      <trkpt lat="43.83425" lon="6.53589">
        <ele>986.094</ele>
        <time>2012-04-01T14:48:13Z</time>
      </trkpt>
      <trkpt lat="43.8343" lon="6.53577">
        <ele>986</ele>
        <time>2012-04-01T14:48:20Z</time>
      </trkpt>
      <trkpt lat="43.83437" lon="6.53558">
        <ele>984.85</ele>
        <time>2012-04-01T14:48:29Z</time>
      </trkpt>
      <trkpt lat="43.83445" lon="6.53545">
        <ele>989.084</ele>
        <time>2012-04-01T14:48:37Z</time>
      </trkpt>
      <trkpt lat="43.83448" lon="6.53534">
        <ele>992.295</ele>
        <time>2012-04-01T14:48:44Z</time>
      </trkpt>
      <trkpt lat="43.8345" lon="6.5352">
        <ele>989.599</ele>
        <time>2012-04-01T14:48:51Z</time>
      </trkpt>
      <trkpt lat="43.83454" lon="6.53505">
        <ele>990.991</ele>
        <time>2012-04-01T14:48:59Z</time>
      </trkpt>
      <trkpt lat="43.8346" lon="6.53489">
        <ele>992.952</ele>
        <time>2012-04-01T14:49:08Z</time>
      </trkpt>
      <trkpt lat="43.83465" lon="6.53476">
        <ele>994.669</ele>
        <time>2012-04-01T14:49:16Z</time>
      </trkpt>
      <trkpt lat="43.83469" lon="6.53467">
        <ele>994.299</ele>
        <time>2012-04-01T14:49:22Z</time>
      </trkpt>
      <trkpt lat="43.8347" lon="6.53464">
        <ele>994.258</ele>
        <time>2012-04-01T14:49:24Z</time>
      </trkpt>
      <trkpt lat="43.8348" lon="6.53453">
        <ele>994.841</ele>
        <time>2012-04-01T14:49:31Z</time>
      </trkpt>
      <trkpt lat="43.83485" lon="6.53441">
        <ele>998.123</ele>
        <time>2012-04-01T14:49:39Z</time>
      </trkpt>
      <trkpt lat="43.83488" lon="6.53437">
        <ele>998.683</ele>
        <time>2012-04-01T14:49:42Z</time>
      </trkpt>
      <trkpt lat="43.83496" lon="6.53427">
        <ele>1000.974</ele>
        <time>2012-04-01T14:49:49Z</time>
      </trkpt>
      <trkpt lat="43.83503" lon="6.53414">
        <ele>1004.755</ele>
        <time>2012-04-01T14:49:59Z</time>
      </trkpt>
      <trkpt lat="43.83513" lon="6.5341">
        <ele>1006.905</ele>
        <time>2012-04-01T14:50:06Z</time>
      </trkpt>
      <trkpt lat="43.83517" lon="6.53394">
        <ele>1006.051</ele>
        <time>2012-04-01T14:50:14Z</time>
      </trkpt>
      <trkpt lat="43.83516" lon="6.53382">
        <ele>1003.219</ele>
        <time>2012-04-01T14:50:20Z</time>
      </trkpt>
      <trkpt lat="43.83512" lon="6.53387">
        <ele>1001.118</ele>
        <time>2012-04-01T14:54:20Z</time>
      </trkpt>
      <trkpt lat="43.83512" lon="6.53377">
        <ele>999.97</ele>
        <time>2012-04-01T14:54:25Z</time>
      </trkpt>
      <trkpt lat="43.83517" lon="6.53356">
        <ele>1002.604</ele>
        <time>2012-04-01T14:54:33Z</time>
      </trkpt>
      <trkpt lat="43.83523" lon="6.5334">
        <ele>1005.246</ele>
        <time>2012-04-01T14:54:40Z</time>
      </trkpt>
      <trkpt lat="43.83533" lon="6.53322">
        <ele>1009.137</ele>
        <time>2012-04-01T14:54:48Z</time>
      </trkpt>
      <trkpt lat="43.83535" lon="6.53306">
        <ele>1012.039</ele>
        <time>2012-04-01T14:54:55Z</time>
      </trkpt>
      <trkpt lat="43.83533" lon="6.53291">
        <ele>1012.105</ele>
        <time>2012-04-01T14:55:01Z</time>
      </trkpt>
      <trkpt lat="43.83531" lon="6.53279">
        <ele>1014.827</ele>
        <time>2012-04-01T14:55:07Z</time>
      </trkpt>
      <trkpt lat="43.8353" lon="6.53264">
        <ele>1016.536</ele>
        <time>2012-04-01T14:55:14Z</time>
      </trkpt>
      <trkpt lat="43.83529" lon="6.53253">
        <ele>1020.068</ele>
        <time>2012-04-01T14:55:20Z</time>
      </trkpt>
      <trkpt lat="43.83533" lon="6.5324">
        <ele>1023.169</ele>
        <time>2012-04-01T14:55:26Z</time>
      </trkpt>
      <trkpt lat="43.83535" lon="6.53222">
        <ele>1023.927</ele>
        <time>2012-04-01T14:55:35Z</time>
      </trkpt>
      <trkpt lat="43.8354" lon="6.53207">
        <ele>1025.228</ele>
        <time>2012-04-01T14:55:44Z</time>
      </trkpt>
      <trkpt lat="43.83544" lon="6.53193">
        <ele>1024.885</ele>
        <time>2012-04-01T14:55:52Z</time>
      </trkpt>
      <trkpt lat="43.83547" lon="6.53175">
        <ele>1024.315</ele>
        <time>2012-04-01T14:56:02Z</time>
      </trkpt>
      <trkpt lat="43.8355" lon="6.53163">
        <ele>1024.133</ele>
        <time>2012-04-01T14:56:08Z</time>
      </trkpt>
      <trkpt lat="43.83554" lon="6.53145">
        <ele>1023.043</ele>
        <time>2012-04-01T14:56:18Z</time>
      </trkpt>
      <trkpt lat="43.83556" lon="6.53135">
        <ele>1023.604</ele>
        <time>2012-04-01T14:56:24Z</time>
      </trkpt>
      <trkpt lat="43.8356" lon="6.53121">
        <ele>1025.226</ele>
        <time>2012-04-01T14:56:31Z</time>
      </trkpt>
      <trkpt lat="43.83564" lon="6.53109">
        <ele>1028.229</ele>
        <time>2012-04-01T14:56:38Z</time>
      </trkpt>
      <trkpt lat="43.83568" lon="6.53094">
        <ele>1030.245</ele>
        <time>2012-04-01T14:56:46Z</time>
      </trkpt>
      <trkpt lat="43.83573" lon="6.53078">
        <ele>1031.775</ele>
        <time>2012-04-01T14:56:54Z</time>
      </trkpt>
      <trkpt lat="43.83578" lon="6.53062">
        <ele>1032.093</ele>
        <time>2012-04-01T14:57:01Z</time>
      </trkpt>
      <trkpt lat="43.83584" lon="6.53051">
        <ele>1034.324</ele>
        <time>2012-04-01T14:57:08Z</time>
      </trkpt>
      <trkpt lat="43.83589" lon="6.53043">
        <ele>1037.436</ele>
        <time>2012-04-01T14:57:13Z</time>
      </trkpt>
      <trkpt lat="43.83596" lon="6.5303">
        <ele>1041.629</ele>
        <time>2012-04-01T14:57:20Z</time>
      </trkpt>
      <trkpt lat="43.83602" lon="6.53022">
        <ele>1043.968</ele>
        <time>2012-04-01T14:57:25Z</time>
      </trkpt>
      <trkpt lat="43.83607" lon="6.53014">
        <ele>1045.565</ele>
        <time>2012-04-01T14:57:30Z</time>
      </trkpt>
      <trkpt lat="43.83608" lon="6.53001">
        <ele>1045.892</ele>
        <time>2012-04-01T14:57:38Z</time>
      </trkpt>
      <trkpt lat="43.83602" lon="6.52992">
        <ele>1044.301</ele>
        <time>2012-04-01T14:57:44Z</time>
      </trkpt>
      <trkpt lat="43.83592" lon="6.52987">
        <ele>1042.738</ele>
        <time>2012-04-01T14:57:51Z</time>
      </trkpt>
      <trkpt lat="43.83586" lon="6.52982">
        <ele>1041.258</ele>
        <time>2012-04-01T14:57:57Z</time>
      </trkpt>
      <trkpt lat="43.8358" lon="6.52972">
        <ele>1041.028</ele>
        <time>2012-04-01T14:58:05Z</time>
      </trkpt>
      <trkpt lat="43.83575" lon="6.52961">
        <ele>1043.049</ele>
        <time>2012-04-01T14:58:12Z</time>
      </trkpt>
      <trkpt lat="43.83574" lon="6.52959">
        <ele>1043.189</ele>
        <time>2012-04-01T14:58:13Z</time>
      </trkpt>
      <trkpt lat="43.83572" lon="6.52942">
        <ele>1044.791</ele>
        <time>2012-04-01T14:58:21Z</time>
      </trkpt>
      <trkpt lat="43.83569" lon="6.52931">
        <ele>1045.681</ele>
        <time>2012-04-01T14:58:27Z</time>
      </trkpt>
      <trkpt lat="43.83559" lon="6.52919">
        <ele>1043.259</ele>
        <time>2012-04-01T14:58:35Z</time>
      </trkpt>
      <trkpt lat="43.83554" lon="6.52911">
        <ele>1041.978</ele>
        <time>2012-04-01T14:58:41Z</time>
      </trkpt>
      <trkpt lat="43.83546" lon="6.52899">
        <ele>1042.111</ele>
        <time>2012-04-01T14:58:47Z</time>
      </trkpt>
      <trkpt lat="43.83543" lon="6.52893">
        <ele>1042.831</ele>
        <time>2012-04-01T14:58:50Z</time>
      </trkpt>
      <trkpt lat="43.83542" lon="6.52889">
        <ele>1043.331</ele>
        <time>2012-04-01T14:58:53Z</time>
      </trkpt>
      <trkpt lat="43.83541" lon="6.52874">
        <ele>1045.234</ele>
        <time>2012-04-01T14:59:00Z</time>
      </trkpt>
      <trkpt lat="43.83541" lon="6.52866">
        <ele>1047.134</ele>
        <time>2012-04-01T14:59:04Z</time>
      </trkpt>
      <trkpt lat="43.83537" lon="6.52853">
        <ele>1050.975</ele>
        <time>2012-04-01T14:59:11Z</time>
      </trkpt>
      <trkpt lat="43.83533" lon="6.52839">
        <ele>1054.296</ele>
        <time>2012-04-01T14:59:18Z</time>
      </trkpt>
      <trkpt lat="43.83532" lon="6.52834">
        <ele>1053.844</ele>
        <time>2012-04-01T14:59:20Z</time>
      </trkpt>
      <trkpt lat="43.83527" lon="6.52821">
        <ele>1051.391</ele>
        <time>2012-04-01T14:59:27Z</time>
      </trkpt>
      <trkpt lat="43.83528" lon="6.52816">
        <ele>1053.894</ele>
        <time>2012-04-01T14:59:33Z</time>
      </trkpt>
      <trkpt lat="43.83532" lon="6.52812">
        <ele>1059.577</ele>
        <time>2012-04-01T14:59:38Z</time>
      </trkpt>
      <trkpt lat="43.83545" lon="6.52797">
        <ele>1058.541</ele>
        <time>2012-04-01T14:59:46Z</time>
      </trkpt>
      <trkpt lat="43.83554" lon="6.52792">
        <ele>1060.111</ele>
        <time>2012-04-01T14:59:52Z</time>
      </trkpt>
      <trkpt lat="43.83569" lon="6.52787">
        <ele>1060.101</ele>
        <time>2012-04-01T15:00:00Z</time>
      </trkpt>
      <trkpt lat="43.83581" lon="6.5278">
        <ele>1059.791</ele>
        <time>2012-04-01T15:00:06Z</time>
      </trkpt>
      <trkpt lat="43.83591" lon="6.52772">
        <ele>1060.203</ele>
        <time>2012-04-01T15:00:12Z</time>
      </trkpt>
      <trkpt lat="43.83596" lon="6.52761">
        <ele>1060.141</ele>
        <time>2012-04-01T15:00:19Z</time>
      </trkpt>
      <trkpt lat="43.83601" lon="6.52745">
        <ele>1061.142</ele>
        <time>2012-04-01T15:00:26Z</time>
      </trkpt>
      <trkpt lat="43.83603" lon="6.52731">
        <ele>1062.994</ele>
        <time>2012-04-01T15:00:33Z</time>
      </trkpt>
      <trkpt lat="43.83603" lon="6.5273">
        <ele>1063.534</ele>
        <time>2012-04-01T15:00:34Z</time>
      </trkpt>
      <trkpt lat="43.83604" lon="6.52719">
        <ele>1067.325</ele>
        <time>2012-04-01T15:00:40Z</time>
      </trkpt>
      <trkpt lat="43.83607" lon="6.52714">
        <ele>1069.546</ele>
        <time>2012-04-01T15:00:43Z</time>
      </trkpt>
      <trkpt lat="43.83612" lon="6.52702">
        <ele>1073.704</ele>
        <time>2012-04-01T15:00:50Z</time>
      </trkpt>
      <trkpt lat="43.83616" lon="6.52689">
        <ele>1076.625</ele>
        <time>2012-04-01T15:00:57Z</time>
      </trkpt>
      <trkpt lat="43.83618" lon="6.52684">
        <ele>1077.594</ele>
        <time>2012-04-01T15:01:00Z</time>
      </trkpt>
      <trkpt lat="43.83619" lon="6.52678">
        <ele>1074.098</ele>
        <time>2012-04-01T15:01:06Z</time>
      </trkpt>
      <trkpt lat="43.83619" lon="6.52676">
        <ele>1073.908</ele>
        <time>2012-04-01T15:01:07Z</time>
      </trkpt>
      <trkpt lat="43.83619" lon="6.52671">
        <ele>1073.639</ele>
        <time>2012-04-01T15:01:11Z</time>
      </trkpt>
      <trkpt lat="43.8362" lon="6.52663">
        <ele>1072.219</ele>
        <time>2012-04-01T15:01:19Z</time>
      </trkpt>
      <trkpt lat="43.83621" lon="6.52656">
        <ele>1068.268</ele>
        <time>2012-04-01T15:01:29Z</time>
      </trkpt>
      <trkpt lat="43.83628" lon="6.52639">
        <ele>1071.654</ele>
        <time>2012-04-01T15:01:36Z</time>
      </trkpt>
      <trkpt lat="43.83628" lon="6.52624">
        <ele>1072.954</ele>
        <time>2012-04-01T15:01:41Z</time>
      </trkpt>
      <trkpt lat="43.83635" lon="6.52603">
        <ele>1075.703</ele>
        <time>2012-04-01T15:01:47Z</time>
      </trkpt>
      <trkpt lat="43.83637" lon="6.52592">
        <ele>1074.381</ele>
        <time>2012-04-01T15:01:50Z</time>
      </trkpt>
      <trkpt lat="43.83644" lon="6.52585">
        <ele>1073.859</ele>
        <time>2012-04-01T15:01:55Z</time>
      </trkpt>
      <trkpt lat="43.83641" lon="6.52587">
        <ele>1075.476</ele>
        <time>2012-04-01T15:08:00Z</time>
      </trkpt>
      <trkpt lat="43.83633" lon="6.52588">
        <ele>1061.056</ele>
        <time>2012-04-01T15:09:57Z</time>
      </trkpt>
      <trkpt lat="43.83642" lon="6.52569">
        <ele>1060.315</ele>
        <time>2012-04-01T15:10:02Z</time>
      </trkpt>
      <trkpt lat="43.83656" lon="6.52545">
        <ele>1057.443</ele>
        <time>2012-04-01T15:10:07Z</time>
      </trkpt>
      <trkpt lat="43.83662" lon="6.52536">
        <ele>1054.809</ele>
        <time>2012-04-01T15:10:09Z</time>
      </trkpt>
      <trkpt lat="43.83672" lon="6.52502">
        <ele>1048.075</ele>
        <time>2012-04-01T15:10:14Z</time>
      </trkpt>
      <trkpt lat="43.8368" lon="6.52497">
        <ele>1049.341</ele>
        <time>2012-04-01T15:10:17Z</time>
      </trkpt>
      <trkpt lat="43.83687" lon="6.52484">
        <ele>1052.046</ele>
        <time>2012-04-01T15:10:22Z</time>
      </trkpt>
      <trkpt lat="43.83687" lon="6.52476">
        <ele>1054.648</ele>
        <time>2012-04-01T15:10:26Z</time>
      </trkpt>
      <trkpt lat="43.83692" lon="6.52471">
        <ele>1071.921</ele>
        <time>2012-04-01T15:11:24Z</time>
      </trkpt>
      <trkpt lat="43.83696" lon="6.52472">
        <ele>1072.32</ele>
        <time>2012-04-01T15:11:31Z</time>
      </trkpt>
      <trkpt lat="43.83693" lon="6.52472">
        <ele>1069.156</ele>
        <time>2012-04-01T15:11:42Z</time>
      </trkpt>
      <trkpt lat="43.83692" lon="6.52472">
        <ele>1066.767</ele>
        <time>2012-04-01T15:11:58Z</time>
      </trkpt>
      <trkpt lat="43.83685" lon="6.5247">
        <ele>1061.723</ele>
        <time>2012-04-01T15:12:22Z</time>
      </trkpt>
      <trkpt lat="43.83706" lon="6.52473">
        <ele>1082.213</ele>
        <time>2012-04-01T15:12:55Z</time>
      </trkpt>
      <trkpt lat="43.83704" lon="6.52473">
        <ele>1078.109</ele>
        <time>2012-04-01T15:13:00Z</time>
      </trkpt>
      <trkpt lat="43.83705" lon="6.52473">
        <ele>1070.584</ele>
        <time>2012-04-01T15:13:23Z</time>
      </trkpt>
      <trkpt lat="43.83705" lon="6.52473">
        <ele>1075.85</ele>
        <time>2012-04-01T15:13:35Z</time>
      </trkpt>
      <trkpt lat="43.83707" lon="6.52469">
        <ele>1075.729</ele>
        <time>2012-04-01T15:13:39Z</time>
      </trkpt>
      <trkpt lat="43.83706" lon="6.52464">
        <ele>1074.097</ele>
        <time>2012-04-01T15:13:42Z</time>
      </trkpt>
      <trkpt lat="43.83709" lon="6.52458">
        <ele>1075.048</ele>
        <time>2012-04-01T15:13:47Z</time>
      </trkpt>
      <trkpt lat="43.83713" lon="6.52457">
        <ele>1079.531</ele>
        <time>2012-04-01T15:13:51Z</time>
      </trkpt>
      <trkpt lat="43.8371" lon="6.52443">
        <ele>1073.025</ele>
        <time>2012-04-01T15:13:57Z</time>
      </trkpt>
      <trkpt lat="43.83721" lon="6.52426">
        <ele>1075.076</ele>
        <time>2012-04-01T15:14:01Z</time>
      </trkpt>
      <trkpt lat="43.83728" lon="6.52397">
        <ele>1071.762</ele>
        <time>2012-04-01T15:14:06Z</time>
      </trkpt>
      <trkpt lat="43.83737" lon="6.52371">
        <ele>1063.723</ele>
        <time>2012-04-01T15:14:10Z</time>
      </trkpt>
      <trkpt lat="43.83748" lon="6.52358">
        <ele>1057.939</ele>
        <time>2012-04-01T15:14:12Z</time>
      </trkpt>
      <trkpt lat="43.83771" lon="6.52327">
        <ele>1047.677</ele>
        <time>2012-04-01T15:14:17Z</time>
      </trkpt>
      <trkpt lat="43.83794" lon="6.52307">
        <ele>1037.352</ele>
        <time>2012-04-01T15:14:23Z</time>
      </trkpt>
      <trkpt lat="43.83811" lon="6.52291">
        <ele>1026.591</ele>
        <time>2012-04-01T15:14:28Z</time>
      </trkpt>
      <trkpt lat="43.83827" lon="6.52278">
        <ele>1020.071</ele>
        <time>2012-04-01T15:14:32Z</time>
      </trkpt>
      <trkpt lat="43.83838" lon="6.52273">
        <ele>1015.876</ele>
        <time>2012-04-01T15:14:36Z</time>
      </trkpt>
      <trkpt lat="43.83846" lon="6.52272">
        <ele>1018.671</ele>
        <time>2012-04-01T15:14:42Z</time>
      </trkpt>
      <trkpt lat="43.8385" lon="6.52272">
        <ele>1020.077</ele>
        <time>2012-04-01T15:14:53Z</time>
      </trkpt>
      <trkpt lat="43.83851" lon="6.52277">
        <ele>1022.209</ele>
        <time>2012-04-01T15:15:02Z</time>
      </trkpt>
      <trkpt lat="43.83851" lon="6.5227">
        <ele>1026.498</ele>
        <time>2012-04-01T15:15:15Z</time>
      </trkpt>
      <trkpt lat="43.83863" lon="6.52271">
        <ele>1025.246</ele>
        <time>2012-04-01T15:15:27Z</time>
      </trkpt>
      <trkpt lat="43.83865" lon="6.52271">
        <ele>1024.035</ele>
        <time>2012-04-01T15:15:28Z</time>
      </trkpt>
      <trkpt lat="43.83877" lon="6.52277">
        <ele>1018.844</ele>
        <time>2012-04-01T15:15:34Z</time>
      </trkpt>
      <trkpt lat="43.83881" lon="6.52275">
        <ele>1017.934</ele>
        <time>2012-04-01T15:15:36Z</time>
      </trkpt>
      <trkpt lat="43.83886" lon="6.52274">
        <ele>1016.254</ele>
        <time>2012-04-01T15:15:41Z</time>
      </trkpt>
      <trkpt lat="43.83876" lon="6.52269">
        <ele>1015.21</ele>
        <time>2012-04-01T15:15:47Z</time>
      </trkpt>
      <trkpt lat="43.83866" lon="6.52273">
        <ele>1015.662</ele>
        <time>2012-04-01T15:15:50Z</time>
      </trkpt>
      <trkpt lat="43.83852" lon="6.52299">
        <ele>1022.023</ele>
        <time>2012-04-01T15:15:54Z</time>
      </trkpt>
      <trkpt lat="43.83843" lon="6.52319">
        <ele>1023.382</ele>
        <time>2012-04-01T15:15:57Z</time>
      </trkpt>
      <trkpt lat="43.83835" lon="6.52345">
        <ele>1020.035</ele>
        <time>2012-04-01T15:16:00Z</time>
      </trkpt>
      <trkpt lat="43.83817" lon="6.52374">
        <ele>1014.179</ele>
        <time>2012-04-01T15:16:05Z</time>
      </trkpt>
      <trkpt lat="43.83811" lon="6.52404">
        <ele>1018.866</ele>
        <time>2012-04-01T15:16:09Z</time>
      </trkpt>
      <trkpt lat="43.83802" lon="6.52444">
        <ele>1020.017</ele>
        <time>2012-04-01T15:16:13Z</time>
      </trkpt>
      <trkpt lat="43.838" lon="6.52465">
        <ele>1018.094</ele>
        <time>2012-04-01T15:16:16Z</time>
      </trkpt>
      <trkpt lat="43.83806" lon="6.52467">
        <ele>1009.787</ele>
        <time>2012-04-01T15:16:20Z</time>
      </trkpt>
      <trkpt lat="43.83807" lon="6.5247">
        <ele>1011.251</ele>
        <time>2012-04-01T15:16:22Z</time>
      </trkpt>
      <trkpt lat="43.8382" lon="6.52466">
        <ele>1017.267</ele>
        <time>2012-04-01T15:16:26Z</time>
      </trkpt>
      <trkpt lat="43.83825" lon="6.52462">
        <ele>1016.907</ele>
        <time>2012-04-01T15:16:28Z</time>
      </trkpt>
      <trkpt lat="43.8384" lon="6.52456">
        <ele>1007.249</ele>
        <time>2012-04-01T15:16:33Z</time>
      </trkpt>
      <trkpt lat="43.83844" lon="6.52451">
        <ele>1002.896</ele>
        <time>2012-04-01T15:16:35Z</time>
      </trkpt>
      <trkpt lat="43.83866" lon="6.52423">
        <ele>992.76</ele>
        <time>2012-04-01T15:16:40Z</time>
      </trkpt>
      <trkpt lat="43.83901" lon="6.52402">
        <ele>980.969</ele>
        <time>2012-04-01T15:16:44Z</time>
      </trkpt>
      <trkpt lat="43.83942" lon="6.52378">
        <ele>963.084</ele>
        <time>2012-04-01T15:16:50Z</time>
      </trkpt>
      <trkpt lat="43.8395" lon="6.52366">
        <ele>955.224</ele>
        <time>2012-04-01T15:16:53Z</time>
      </trkpt>
      <trkpt lat="43.83957" lon="6.5235">
        <ele>952.14</ele>
        <time>2012-04-01T15:16:56Z</time>
      </trkpt>
      <trkpt lat="43.83964" lon="6.52326">
        <ele>942.951</ele>
        <time>2012-04-01T15:17:01Z</time>
      </trkpt>
      <trkpt lat="43.83977" lon="6.52312">
        <ele>946.433</ele>
        <time>2012-04-01T15:17:04Z</time>
      </trkpt>
      <trkpt lat="43.8399" lon="6.52296">
        <ele>945.134</ele>
        <time>2012-04-01T15:17:07Z</time>
      </trkpt>
      <trkpt lat="43.84003" lon="6.52272">
        <ele>948.019</ele>
        <time>2012-04-01T15:17:11Z</time>
      </trkpt>
      <trkpt lat="43.84009" lon="6.52253">
        <ele>944.937</ele>
        <time>2012-04-01T15:17:14Z</time>
      </trkpt>
      <trkpt lat="43.84021" lon="6.52229">
        <ele>946.629</ele>
        <time>2012-04-01T15:17:19Z</time>
      </trkpt>
      <trkpt lat="43.84035" lon="6.5221">
        <ele>945.769</ele>
        <time>2012-04-01T15:17:24Z</time>
      </trkpt>
      <trkpt lat="43.8405" lon="6.5219">
        <ele>948.412</ele>
        <time>2012-04-01T15:17:29Z</time>
      </trkpt>
      <trkpt lat="43.84053" lon="6.52171">
        <ele>933.659</ele>
        <time>2012-04-01T15:17:34Z</time>
      </trkpt>
      <trkpt lat="43.84059" lon="6.52156">
        <ele>926.047</ele>
        <time>2012-04-01T15:17:38Z</time>
      </trkpt>
      <trkpt lat="43.84067" lon="6.52134">
        <ele>922.491</ele>
        <time>2012-04-01T15:17:42Z</time>
      </trkpt>
      <trkpt lat="43.84068" lon="6.52119">
        <ele>922.323</ele>
        <time>2012-04-01T15:17:44Z</time>
      </trkpt>
      <trkpt lat="43.84077" lon="6.52084">
        <ele>920.516</ele>
        <time>2012-04-01T15:17:49Z</time>
      </trkpt>
      <trkpt lat="43.84079" lon="6.52079">
        <ele>918.244</ele>
        <time>2012-04-01T15:17:50Z</time>
      </trkpt>
      <trkpt lat="43.84091" lon="6.52061">
        <ele>917.09</ele>
        <time>2012-04-01T15:17:56Z</time>
      </trkpt>
      <trkpt lat="43.84096" lon="6.52058">
        <ele>917.2</ele>
        <time>2012-04-01T15:17:58Z</time>
      </trkpt>
      <trkpt lat="43.84107" lon="6.52045">
        <ele>922.617</ele>
        <time>2012-04-01T15:18:02Z</time>
      </trkpt>
      <trkpt lat="43.84126" lon="6.52043">
        <ele>918.652</ele>
        <time>2012-04-01T15:18:07Z</time>
      </trkpt>
      <trkpt lat="43.8413" lon="6.52044">
        <ele>915.789</ele>
        <time>2012-04-01T15:18:12Z</time>
      </trkpt>
      <trkpt lat="43.84135" lon="6.52044">
        <ele>914.369</ele>
        <time>2012-04-01T15:18:14Z</time>
      </trkpt>
      <trkpt lat="43.84139" lon="6.52039">
        <ele>913.053</ele>
        <time>2012-04-01T15:18:19Z</time>
      </trkpt>
      <trkpt lat="43.84132" lon="6.52035">
        <ele>910.613</ele>
        <time>2012-04-01T15:18:30Z</time>
      </trkpt>
      <trkpt lat="43.8413" lon="6.52033">
        <ele>913.755</ele>
        <time>2012-04-01T15:18:36Z</time>
      </trkpt>
      <trkpt lat="43.84129" lon="6.52034">
        <ele>910.673</ele>
        <time>2012-04-01T15:18:45Z</time>
      </trkpt>
      <trkpt lat="43.84129" lon="6.52036">
        <ele>910.264</ele>
        <time>2012-04-01T15:18:49Z</time>
      </trkpt>
      <trkpt lat="43.84126" lon="6.52036">
        <ele>907.192</ele>
        <time>2012-04-01T15:18:54Z</time>
      </trkpt>
      <trkpt lat="43.84122" lon="6.52036">
        <ele>906.864</ele>
        <time>2012-04-01T15:19:01Z</time>
      </trkpt>
      <trkpt lat="43.84122" lon="6.52036">
        <ele>905.374</ele>
        <time>2012-04-01T15:19:03Z</time>
      </trkpt>
      <trkpt lat="43.84134" lon="6.5204">
        <ele>903.195</ele>
        <time>2012-04-01T15:19:10Z</time>
      </trkpt>
      <trkpt lat="43.84145" lon="6.52046">
        <ele>903.306</ele>
        <time>2012-04-01T15:19:15Z</time>
      </trkpt>
      <trkpt lat="43.84147" lon="6.52046">
        <ele>900.944</ele>
        <time>2012-04-01T15:19:21Z</time>
      </trkpt>
      <trkpt lat="43.84146" lon="6.5205">
        <ele>903.388</ele>
        <time>2012-04-01T15:19:27Z</time>
      </trkpt>
      <trkpt lat="43.84146" lon="6.5205">
        <ele>904.67</ele>
        <time>2012-04-01T15:19:28Z</time>
      </trkpt>
      <trkpt lat="43.84133" lon="6.52073">
        <ele>908.083</ele>
        <time>2012-04-01T15:19:35Z</time>
      </trkpt>
      <trkpt lat="43.84125" lon="6.52094">
        <ele>913.359</ele>
        <time>2012-04-01T15:19:39Z</time>
      </trkpt>
      <trkpt lat="43.84133" lon="6.5212">
        <ele>921.536</ele>
        <time>2012-04-01T15:19:43Z</time>
      </trkpt>
      <trkpt lat="43.84139" lon="6.52156">
        <ele>924.523</ele>
        <time>2012-04-01T15:19:47Z</time>
      </trkpt>
      <trkpt lat="43.84137" lon="6.5219">
        <ele>917.528</ele>
        <time>2012-04-01T15:19:52Z</time>
      </trkpt>
      <trkpt lat="43.84134" lon="6.52196">
        <ele>917.959</ele>
        <time>2012-04-01T15:19:54Z</time>
      </trkpt>
      <trkpt lat="43.84126" lon="6.52215">
        <ele>914.443</ele>
        <time>2012-04-01T15:19:59Z</time>
      </trkpt>
      <trkpt lat="43.84114" lon="6.52235">
        <ele>910.351</ele>
        <time>2012-04-01T15:20:04Z</time>
      </trkpt>
      <trkpt lat="43.84117" lon="6.52266">
        <ele>910.13</ele>
        <time>2012-04-01T15:20:09Z</time>
      </trkpt>
      <trkpt lat="43.84113" lon="6.52286">
        <ele>900.752</ele>
        <time>2012-04-01T15:20:14Z</time>
      </trkpt>
      <trkpt lat="43.84102" lon="6.523">
        <ele>892.184</ele>
        <time>2012-04-01T15:20:19Z</time>
      </trkpt>
      <trkpt lat="43.841" lon="6.52305">
        <ele>893.509</ele>
        <time>2012-04-01T15:20:22Z</time>
      </trkpt>
      <trkpt lat="43.84112" lon="6.52285">
        <ele>898.356</ele>
        <time>2012-04-01T15:20:27Z</time>
      </trkpt>
      <trkpt lat="43.84124" lon="6.52262">
        <ele>894.68</ele>
        <time>2012-04-01T15:20:32Z</time>
      </trkpt>
      <trkpt lat="43.84127" lon="6.52256">
        <ele>892.88</ele>
        <time>2012-04-01T15:20:36Z</time>
      </trkpt>
      <trkpt lat="43.84132" lon="6.52255">
        <ele>896.569</ele>
        <time>2012-04-01T15:20:44Z</time>
      </trkpt>
      <trkpt lat="43.84124" lon="6.52252">
        <ele>879.842</ele>
        <time>2012-04-01T15:21:06Z</time>
      </trkpt>
      <trkpt lat="43.84131" lon="6.52235">
        <ele>881.049</ele>
        <time>2012-04-01T15:21:11Z</time>
      </trkpt>
      <trkpt lat="43.84149" lon="6.52213">
        <ele>883.141</ele>
        <time>2012-04-01T15:21:17Z</time>
      </trkpt>
      <trkpt lat="43.84151" lon="6.5221">
        <ele>884.755</ele>
        <time>2012-04-01T15:21:20Z</time>
      </trkpt>
      <trkpt lat="43.84151" lon="6.52202">
        <ele>880.693</ele>
        <time>2012-04-01T15:21:26Z</time>
      </trkpt>
      <trkpt lat="43.84156" lon="6.52186">
        <ele>879.659</ele>
        <time>2012-04-01T15:21:31Z</time>
      </trkpt>
      <trkpt lat="43.84163" lon="6.52177">
        <ele>881.142</ele>
        <time>2012-04-01T15:21:33Z</time>
      </trkpt>
      <trkpt lat="43.84172" lon="6.52159">
        <ele>882.494</ele>
        <time>2012-04-01T15:21:36Z</time>
      </trkpt>
      <trkpt lat="43.84181" lon="6.52147">
        <ele>885.398</ele>
        <time>2012-04-01T15:21:38Z</time>
      </trkpt>
      <trkpt lat="43.84203" lon="6.52128">
        <ele>893.256</ele>
        <time>2012-04-01T15:21:43Z</time>
      </trkpt>
      <trkpt lat="43.84219" lon="6.52127">
        <ele>895.088</ele>
        <time>2012-04-01T15:21:47Z</time>
      </trkpt>
      <trkpt lat="43.8422" lon="6.52129">
        <ele>890.954</ele>
        <time>2012-04-01T15:21:48Z</time>
      </trkpt>
      <trkpt lat="43.84224" lon="6.52132">
        <ele>883.745</ele>
        <time>2012-04-01T15:21:50Z</time>
      </trkpt>
      <trkpt lat="43.84241" lon="6.52125">
        <ele>869.931</ele>
        <time>2012-04-01T15:21:55Z</time>
      </trkpt>
      <trkpt lat="43.84261" lon="6.52095">
        <ele>856.339</ele>
        <time>2012-04-01T15:22:01Z</time>
      </trkpt>
      <trkpt lat="43.84266" lon="6.52075">
        <ele>846.913</ele>
        <time>2012-04-01T15:22:04Z</time>
      </trkpt>
      <trkpt lat="43.8427" lon="6.52053">
        <ele>842.571</ele>
        <time>2012-04-01T15:22:07Z</time>
      </trkpt>
      <trkpt lat="43.84281" lon="6.52019">
        <ele>832.531</ele>
        <time>2012-04-01T15:22:12Z</time>
      </trkpt>
      <trkpt lat="43.84299" lon="6.52002">
        <ele>835.414</ele>
        <time>2012-04-01T15:22:16Z</time>
      </trkpt>
      <trkpt lat="43.84299" lon="6.52">
        <ele>833.754</ele>
        <time>2012-04-01T15:22:17Z</time>
      </trkpt>
      <trkpt lat="43.84298" lon="6.51998">
        <ele>830.295</ele>
        <time>2012-04-01T15:22:21Z</time>
      </trkpt>
      <trkpt lat="43.84287" lon="6.52008">
        <ele>829.438</ele>
        <time>2012-04-01T15:22:25Z</time>
      </trkpt>
      <trkpt lat="43.84283" lon="6.52037">
        <ele>836.638</ele>
        <time>2012-04-01T15:22:30Z</time>
      </trkpt>
      <trkpt lat="43.84282" lon="6.52041">
        <ele>838.15</ele>
        <time>2012-04-01T15:22:31Z</time>
      </trkpt>
      <trkpt lat="43.84283" lon="6.52046">
        <ele>839.571</ele>
        <time>2012-04-01T15:22:34Z</time>
      </trkpt>
      <trkpt lat="43.8428" lon="6.52052">
        <ele>841.833</ele>
        <time>2012-04-01T15:22:37Z</time>
      </trkpt>
      <trkpt lat="43.84287" lon="6.52052">
        <ele>845.906</ele>
        <time>2012-04-01T15:22:40Z</time>
      </trkpt>
      <trkpt lat="43.84323" lon="6.52036">
        <ele>851.128</ele>
        <time>2012-04-01T15:22:46Z</time>
      </trkpt>
      <trkpt lat="43.84343" lon="6.52012">
        <ele>831.744</ele>
        <time>2012-04-01T15:22:51Z</time>
      </trkpt>
      <trkpt lat="43.84351" lon="6.52002">
        <ele>818.703</ele>
        <time>2012-04-01T15:22:55Z</time>
      </trkpt>
      <trkpt lat="43.84351" lon="6.5199">
        <ele>814.911</ele>
        <time>2012-04-01T15:22:59Z</time>
      </trkpt>
      <trkpt lat="43.84349" lon="6.51954">
        <ele>810.483</ele>
        <time>2012-04-01T15:23:04Z</time>
      </trkpt>
      <trkpt lat="43.84351" lon="6.5193">
        <ele>805.601</ele>
        <time>2012-04-01T15:23:07Z</time>
      </trkpt>
      <trkpt lat="43.8436" lon="6.51888">
        <ele>794.223</ele>
        <time>2012-04-01T15:23:12Z</time>
      </trkpt>
      <trkpt lat="43.84369" lon="6.51853">
        <ele>792.627</ele>
        <time>2012-04-01T15:23:16Z</time>
      </trkpt>
      <trkpt lat="43.84397" lon="6.51829">
        <ele>800.702</ele>
        <time>2012-04-01T15:23:20Z</time>
      </trkpt>
      <trkpt lat="43.84409" lon="6.51797">
        <ele>793.925</ele>
        <time>2012-04-01T15:23:24Z</time>
      </trkpt>
      <trkpt lat="43.84414" lon="6.51785">
        <ele>791.464</ele>
        <time>2012-04-01T15:23:25Z</time>
      </trkpt>
      <trkpt lat="43.84438" lon="6.51749">
        <ele>790.546</ele>
        <time>2012-04-01T15:23:29Z</time>
      </trkpt>
      <trkpt lat="43.84469" lon="6.51705">
        <ele>800.397</ele>
        <time>2012-04-01T15:23:35Z</time>
      </trkpt>
      <trkpt lat="43.84472" lon="6.51694">
        <ele>802.166</ele>
        <time>2012-04-01T15:23:39Z</time>
      </trkpt>
      <trkpt lat="43.8447" lon="6.51694">
        <ele>801.245</ele>
        <time>2012-04-01T15:23:40Z</time>
      </trkpt>
      <trkpt lat="43.84456" lon="6.51712">
        <ele>801.972</ele>
        <time>2012-04-01T15:23:46Z</time>
      </trkpt>
      <trkpt lat="43.84456" lon="6.5172">
        <ele>801.271</ele>
        <time>2012-04-01T15:23:48Z</time>
      </trkpt>
      <trkpt lat="43.84455" lon="6.51729">
        <ele>793.854</ele>
        <time>2012-04-01T15:23:54Z</time>
      </trkpt>
      <trkpt lat="43.84463" lon="6.51733">
        <ele>804.863</ele>
        <time>2012-04-01T15:24:06Z</time>
      </trkpt>
      <trkpt lat="43.84451" lon="6.51739">
        <ele>795.612</ele>
        <time>2012-04-01T15:24:15Z</time>
      </trkpt>
      <trkpt lat="43.84445" lon="6.51745">
        <ele>776.762</ele>
        <time>2012-04-01T15:24:42Z</time>
      </trkpt>
      <trkpt lat="43.84436" lon="6.51751">
        <ele>773.592</ele>
        <time>2012-04-01T15:24:51Z</time>
      </trkpt>
      <trkpt lat="43.84441" lon="6.51747">
        <ele>784.575</ele>
        <time>2012-04-01T15:25:36Z</time>
      </trkpt>
      <trkpt lat="43.84437" lon="6.51747">
        <ele>781.202</ele>
        <time>2012-04-01T15:26:58Z</time>
      </trkpt>
      <trkpt lat="43.84445" lon="6.51744">
        <ele>779.323</ele>
        <time>2012-04-01T15:27:09Z</time>
      </trkpt>
      <trkpt lat="43.84433" lon="6.51746">
        <ele>764.462</ele>
        <time>2012-04-01T15:27:47Z</time>
      </trkpt>
      <trkpt lat="43.8445" lon="6.51741">
        <ele>785.925</ele>
        <time>2012-04-01T15:27:56Z</time>
      </trkpt>
      <trkpt lat="43.84454" lon="6.51742">
        <ele>795.565</ele>
        <time>2012-04-01T15:28:03Z</time>
      </trkpt>
      <trkpt lat="43.84415" lon="6.51746">
        <ele>765.267</ele>
        <time>2012-04-01T15:28:27Z</time>
      </trkpt>
      <trkpt lat="43.8442" lon="6.51742">
        <ele>762.536</ele>
        <time>2012-04-01T15:28:50Z</time>
      </trkpt>
      <trkpt lat="43.84446" lon="6.51732">
        <ele>785.695</ele>
        <time>2012-04-01T15:29:21Z</time>
      </trkpt>
      <trkpt lat="43.84449" lon="6.51733">
        <ele>784.813</ele>
        <time>2012-04-01T15:29:26Z</time>
      </trkpt>
      <trkpt lat="43.84453" lon="6.51735">
        <ele>784.791</ele>
        <time>2012-04-01T15:29:31Z</time>
      </trkpt>
      <trkpt lat="43.84457" lon="6.51739">
        <ele>786.665</ele>
        <time>2012-04-01T15:29:38Z</time>
      </trkpt>
      <trkpt lat="43.84449" lon="6.51743">
        <ele>788.882</ele>
        <time>2012-04-01T15:30:11Z</time>
      </trkpt>
      <trkpt lat="43.84446" lon="6.51744">
        <ele>785.303</ele>
        <time>2012-04-01T15:30:20Z</time>
      </trkpt>
      <trkpt lat="43.84445" lon="6.51744">
        <ele>781.223</ele>
        <time>2012-04-01T15:30:31Z</time>
      </trkpt>
      <trkpt lat="43.84441" lon="6.51749">
        <ele>767.447</ele>
        <time>2012-04-01T15:31:29Z</time>
      </trkpt>
      <trkpt lat="43.84431" lon="6.51743">
        <ele>775.775</ele>
        <time>2012-04-01T15:32:46Z</time>
      </trkpt>
      <trkpt lat="43.8443" lon="6.51738">
        <ele>772.924</ele>
        <time>2012-04-01T15:32:57Z</time>
      </trkpt>
      <trkpt lat="43.84436" lon="6.51738">
        <ele>772.354</ele>
        <time>2012-04-01T15:33:13Z</time>
      </trkpt>
      <trkpt lat="43.84443" lon="6.51735">
        <ele>777.985</ele>
        <time>2012-04-01T15:33:31Z</time>
      </trkpt>
      <trkpt lat="43.84444" lon="6.51732">
        <ele>783.447</ele>
        <time>2012-04-01T15:33:36Z</time>
      </trkpt>
      <trkpt lat="43.84448" lon="6.51732">
        <ele>785.347</ele>
        <time>2012-04-01T15:33:40Z</time>
      </trkpt>
      <trkpt lat="43.84448" lon="6.51744">
        <ele>787.955</ele>
        <time>2012-04-01T15:33:46Z</time>
      </trkpt>
      <trkpt lat="43.84447" lon="6.51774">
        <ele>786.273</ele>
        <time>2012-04-01T15:33:52Z</time>
      </trkpt>
      <trkpt lat="43.84452" lon="6.51795">
        <ele>791.729</ele>
        <time>2012-04-01T15:33:56Z</time>
      </trkpt>
      <trkpt lat="43.84454" lon="6.51812">
        <ele>795.955</ele>
        <time>2012-04-01T15:34:01Z</time>
      </trkpt>
      <trkpt lat="43.84454" lon="6.5182">
        <ele>797.8</ele>
        <time>2012-04-01T15:34:06Z</time>
      </trkpt>
      <trkpt lat="43.8446" lon="6.51823">
        <ele>801.359</ele>
        <time>2012-04-01T15:34:11Z</time>
      </trkpt>
      <trkpt lat="43.84469" lon="6.51811">
        <ele>800.561</ele>
        <time>2012-04-01T15:34:15Z</time>
      </trkpt>
      <trkpt lat="43.8447" lon="6.51797">
        <ele>795.742</ele>
        <time>2012-04-01T15:34:17Z</time>
      </trkpt>
      <trkpt lat="43.84488" lon="6.5177">
        <ele>791.416</ele>
        <time>2012-04-01T15:34:21Z</time>
      </trkpt>
      <trkpt lat="43.84499" lon="6.51758">
        <ele>788.855</ele>
        <time>2012-04-01T15:34:24Z</time>
      </trkpt>
      <trkpt lat="43.84503" lon="6.51744">
        <ele>785.142</ele>
        <time>2012-04-01T15:34:26Z</time>
      </trkpt>
      <trkpt lat="43.84504" lon="6.51719">
        <ele>776.203</ele>
        <time>2012-04-01T15:34:29Z</time>
      </trkpt>
      <trkpt lat="43.84505" lon="6.51705">
        <ele>771.48</ele>
        <time>2012-04-01T15:34:31Z</time>
      </trkpt>
      <trkpt lat="43.84506" lon="6.51692">
        <ele>767.063</ele>
        <time>2012-04-01T15:34:34Z</time>
      </trkpt>
      <trkpt lat="43.84503" lon="6.51692">
        <ele>762.077</ele>
        <time>2012-04-01T15:34:37Z</time>
      </trkpt>
      <trkpt lat="43.84503" lon="6.51686">
        <ele>756.886</ele>
        <time>2012-04-01T15:34:43Z</time>
      </trkpt>
      <trkpt lat="43.84498" lon="6.51681">
        <ele>748.278</ele>
        <time>2012-04-01T15:34:58Z</time>
      </trkpt>
      <trkpt lat="43.84496" lon="6.51687">
        <ele>747.662</ele>
        <time>2012-04-01T15:35:04Z</time>
      </trkpt>
      <trkpt lat="43.84488" lon="6.5168">
        <ele>755.209</ele>
        <time>2012-04-01T15:35:20Z</time>
      </trkpt>
      <trkpt lat="43.84491" lon="6.51691">
        <ele>752.114</ele>
        <time>2012-04-01T15:35:24Z</time>
      </trkpt>
      <trkpt lat="43.84497" lon="6.51724">
        <ele>751.932</ele>
        <time>2012-04-01T15:35:30Z</time>
      </trkpt>
      <trkpt lat="43.84495" lon="6.51751">
        <ele>747.86</ele>
        <time>2012-04-01T15:35:35Z</time>
      </trkpt>
      <trkpt lat="43.84493" lon="6.51779">
        <ele>744.32</ele>
        <time>2012-04-01T15:35:40Z</time>
      </trkpt>
      <trkpt lat="43.84493" lon="6.51787">
        <ele>744.081</ele>
        <time>2012-04-01T15:35:42Z</time>
      </trkpt>
      <trkpt lat="43.84488" lon="6.51804">
        <ele>736.5</ele>
        <time>2012-04-01T15:35:48Z</time>
      </trkpt>
      <trkpt lat="43.84485" lon="6.51804">
        <ele>727.961</ele>
        <time>2012-04-01T15:35:52Z</time>
      </trkpt>
      <trkpt lat="43.84486" lon="6.51803">
        <ele>725.492</ele>
        <time>2012-04-01T15:35:54Z</time>
      </trkpt>
      <trkpt lat="43.84488" lon="6.51799">
        <ele>722.335</ele>
        <time>2012-04-01T15:36:01Z</time>
      </trkpt>
      <trkpt lat="43.84486" lon="6.51798">
        <ele>723.117</ele>
        <time>2012-04-01T15:36:13Z</time>
      </trkpt>
      <trkpt lat="43.8449" lon="6.5178">
        <ele>721.025</ele>
        <time>2012-04-01T15:36:18Z</time>
      </trkpt>
      <trkpt lat="43.84498" lon="6.51757">
        <ele>720.406</ele>
        <time>2012-04-01T15:36:23Z</time>
      </trkpt>
      <trkpt lat="43.84503" lon="6.5172">
        <ele>718.346</ele>
        <time>2012-04-01T15:36:30Z</time>
      </trkpt>
      <trkpt lat="43.84511" lon="6.5168">
        <ele>717.216</ele>
        <time>2012-04-01T15:36:37Z</time>
      </trkpt>
      <trkpt lat="43.8452" lon="6.51664">
        <ele>716.815</ele>
        <time>2012-04-01T15:36:41Z</time>
      </trkpt>
      <trkpt lat="43.84534" lon="6.51664">
        <ele>718.139</ele>
        <time>2012-04-01T15:36:44Z</time>
      </trkpt>
      <trkpt lat="43.84566" lon="6.51675">
        <ele>722.19</ele>
        <time>2012-04-01T15:36:50Z</time>
      </trkpt>
      <trkpt lat="43.84583" lon="6.51676">
        <ele>719.524</ele>
        <time>2012-04-01T15:36:55Z</time>
      </trkpt>
      <trkpt lat="43.84591" lon="6.51664">
        <ele>717.954</ele>
        <time>2012-04-01T15:36:58Z</time>
      </trkpt>
      <trkpt lat="43.84603" lon="6.5165">
        <ele>716.434</ele>
        <time>2012-04-01T15:37:03Z</time>
      </trkpt>
      <trkpt lat="43.84612" lon="6.5164">
        <ele>712.689</ele>
        <time>2012-04-01T15:37:07Z</time>
      </trkpt>
      <trkpt lat="43.84627" lon="6.51619">
        <ele>700.556</ele>
        <time>2012-04-01T15:37:12Z</time>
      </trkpt>
      <trkpt lat="43.84633" lon="6.51608">
        <ele>699.919</ele>
        <time>2012-04-01T15:37:14Z</time>
      </trkpt>
      <trkpt lat="43.8464" lon="6.51568">
        <ele>708.944</ele>
        <time>2012-04-01T15:37:18Z</time>
      </trkpt>
      <trkpt lat="43.84645" lon="6.51527">
        <ele>715.15</ele>
        <time>2012-04-01T15:37:23Z</time>
      </trkpt>
      <trkpt lat="43.84635" lon="6.51511">
        <ele>716.941</ele>
        <time>2012-04-01T15:37:26Z</time>
      </trkpt>
      <trkpt lat="43.84625" lon="6.51518">
        <ele>714.568</ele>
        <time>2012-04-01T15:37:30Z</time>
      </trkpt>
      <trkpt lat="43.84623" lon="6.5152">
        <ele>714.878</ele>
        <time>2012-04-01T15:37:31Z</time>
      </trkpt>
      <trkpt lat="43.84618" lon="6.51525">
        <ele>715.238</ele>
        <time>2012-04-01T15:37:35Z</time>
      </trkpt>
      <trkpt lat="43.8462" lon="6.51523">
        <ele>713.127</ele>
        <time>2012-04-01T15:37:38Z</time>
      </trkpt>
      <trkpt lat="43.8462" lon="6.51518">
        <ele>715.417</ele>
        <time>2012-04-01T15:37:45Z</time>
      </trkpt>
      <trkpt lat="43.84619" lon="6.51517">
        <ele>711.224</ele>
        <time>2012-04-01T15:37:53Z</time>
      </trkpt>
      <trkpt lat="43.84619" lon="6.5152">
        <ele>710.114</ele>
        <time>2012-04-01T15:37:56Z</time>
      </trkpt>
      <trkpt lat="43.8462" lon="6.51524">
        <ele>707.244</ele>
        <time>2012-04-01T15:38:02Z</time>
      </trkpt>
      <trkpt lat="43.84618" lon="6.51521">
        <ele>711.969</ele>
        <time>2012-04-01T15:38:35Z</time>
      </trkpt>
    </trkseg>
  </trk>
</gpx>